<?xml version="1.0" encoding="UTF-8"?>
<gpx xmlns="http://www.topografix.com/GPX/1/1" xmlns:dkl="http://www.gpsware.de/DKL/1/1" xmlns:rtx="http://www.bike-gps.de/RTX/1/1" version="1.1" creator="KOMPASS Digital Map" xmlns:xsi="http://www.w3.org/2001/XMLSchema-instance" xsi:schemaLocation="http://www.topografix.com/GPX/1/1 http://www.topografix.com/GPX/1/1/gpx.xsd">
 <metadata>
 <name>KOMPASS Digital Map Track</name>
 <desc> </desc>
 <time>2010-07-28T15:12:19Z</time>
 <bounds minlat="47.068069" minlon="12.946113" maxlat="47.421894" maxlon="13.226423"/>
 </metadata>
 <trk>
 <name>2010_Kolm Saigurn_Embach</name>
 <cmt>Kolm Saigurn über Embach retour</cmt>
 <extensions>
 <dkl:dkl>
 <dkl:format_version>1.1</dkl:format_version>
 <dkl:format>
 <dkl:color>FF0000</dkl:color>
 <dkl:style>00000000</dkl:style>
 <dkl:strength>3</dkl:strength>
 <dkl:transparent>0</dkl:transparent>
 </dkl:format>
 </dkl:dkl>
 </extensions>
 <trkseg>
 <trkpt lat="47.292755" lon="12.947386">
 <ele>765.03</ele>
 <time>2010-07-28T06:34:01Z</time>
 </trkpt>
 <trkpt lat="47.292763" lon="12.947597">
 <ele>764.81</ele>
 <time>2010-07-28T06:34:08Z</time>
 </trkpt>
 <trkpt lat="47.292770" lon="12.947820">
 <ele>765.07</ele>
 <time>2010-07-28T06:34:14Z</time>
 </trkpt>
 <trkpt lat="47.292778" lon="12.948018">
 <ele>765.17</ele>
 <time>2010-07-28T06:34:20Z</time>
 </trkpt>
 <trkpt lat="47.292782" lon="12.948200">
 <ele>765.45</ele>
 <time>2010-07-28T06:34:25Z</time>
 </trkpt>
 <trkpt lat="47.292789" lon="12.948411">
 <ele>765.02</ele>
 <time>2010-07-28T06:34:30Z</time>
 </trkpt>
 <trkpt lat="47.292797" lon="12.948601">
 <ele>765.64</ele>
 <time>2010-07-28T06:34:35Z</time>
 </trkpt>
 <trkpt lat="47.292801" lon="12.948770">
 <ele>766.97</ele>
 <time>2010-07-28T06:34:42Z</time>
 </trkpt>
 <trkpt lat="47.292809" lon="12.948926">
 <ele>768.62</ele>
 <time>2010-07-28T06:34:49Z</time>
 </trkpt>
 <trkpt lat="47.292812" lon="12.949095">
 <ele>769.76</ele>
 <time>2010-07-28T06:34:56Z</time>
 </trkpt>
 <trkpt lat="47.292816" lon="12.949272">
 <ele>771.47</ele>
 <time>2010-07-28T06:35:05Z</time>
 </trkpt>
 <trkpt lat="47.292824" lon="12.949436">
 <ele>773.05</ele>
 <time>2010-07-28T06:35:13Z</time>
 </trkpt>
 <trkpt lat="47.292828" lon="12.949577">
 <ele>774.37</ele>
 <time>2010-07-28T06:35:20Z</time>
 </trkpt>
 <trkpt lat="47.292835" lon="12.949785">
 <ele>775.60</ele>
 <time>2010-07-28T06:35:29Z</time>
 </trkpt>
 <trkpt lat="47.292843" lon="12.949981">
 <ele>776.50</ele>
 <time>2010-07-28T06:35:37Z</time>
 </trkpt>
 <trkpt lat="47.292850" lon="12.950185">
 <ele>777.26</ele>
 <time>2010-07-28T06:35:45Z</time>
 </trkpt>
 <trkpt lat="47.292854" lon="12.950399">
 <ele>777.62</ele>
 <time>2010-07-28T06:35:53Z</time>
 </trkpt>
 <trkpt lat="47.292866" lon="12.950655">
 <ele>778.02</ele>
 <time>2010-07-28T06:36:02Z</time>
 </trkpt>
 <trkpt lat="47.292873" lon="12.950867">
 <ele>778.10</ele>
 <time>2010-07-28T06:36:09Z</time>
 </trkpt>
 <trkpt lat="47.292881" lon="12.951166">
 <ele>778.42</ele>
 <time>2010-07-28T06:36:18Z</time>
 </trkpt>
 <trkpt lat="47.292892" lon="12.951437">
 <ele>778.74</ele>
 <time>2010-07-28T06:36:26Z</time>
 </trkpt>
 <trkpt lat="47.292904" lon="12.951769">
 <ele>779.14</ele>
 <time>2010-07-28T06:36:36Z</time>
 </trkpt>
 <trkpt lat="47.292912" lon="12.952042">
 <ele>779.85</ele>
 <time>2010-07-28T06:36:45Z</time>
 </trkpt>
 <trkpt lat="47.292919" lon="12.952360">
 <ele>780.74</ele>
 <time>2010-07-28T06:36:55Z</time>
 </trkpt>
 <trkpt lat="47.292934" lon="12.952786">
 <ele>781.80</ele>
 <time>2010-07-28T06:37:09Z</time>
 </trkpt>
 <trkpt lat="47.292950" lon="12.953193">
 <ele>782.84</ele>
 <time>2010-07-28T06:37:23Z</time>
 </trkpt>
 <trkpt lat="47.292751" lon="12.953615">
 <ele>784.04</ele>
 <time>2010-07-28T06:37:33Z</time>
 </trkpt>
 <trkpt lat="47.292709" lon="12.953825">
 <ele>785.53</ele>
 <time>2010-07-28T06:37:45Z</time>
 </trkpt>
 <trkpt lat="47.292686" lon="12.953992">
 <ele>786.43</ele>
 <time>2010-07-28T06:37:53Z</time>
 </trkpt>
 <trkpt lat="47.292667" lon="12.954151">
 <ele>788.18</ele>
 <time>2010-07-28T06:38:03Z</time>
 </trkpt>
 <trkpt lat="47.292660" lon="12.954516">
 <ele>790.58</ele>
 <time>2010-07-28T06:38:16Z</time>
 </trkpt>
 <trkpt lat="47.292484" lon="12.954736">
 <ele>791.28</ele>
 <time>2010-07-28T06:38:24Z</time>
 </trkpt>
 <trkpt lat="47.292404" lon="12.954927">
 <ele>790.87</ele>
 <time>2010-07-28T06:38:30Z</time>
 </trkpt>
 <trkpt lat="47.292191" lon="12.954896">
 <ele>790.64</ele>
 <time>2010-07-28T06:38:35Z</time>
 </trkpt>
 <trkpt lat="47.292191" lon="12.954896">
 <ele>790.65</ele>
 <time>2010-07-28T06:38:36Z</time>
 </trkpt>
 <trkpt lat="47.292114" lon="12.954857">
 <ele>789.97</ele>
 <time>2010-07-28T06:38:42Z</time>
 </trkpt>
 <trkpt lat="47.291904" lon="12.954753">
 <ele>789.22</ele>
 <time>2010-07-28T06:38:50Z</time>
 </trkpt>
 <trkpt lat="47.291817" lon="12.954718">
 <ele>788.99</ele>
 <time>2010-07-28T06:38:53Z</time>
 </trkpt>
 <trkpt lat="47.291576" lon="12.954618">
 <ele>789.14</ele>
 <time>2010-07-28T06:39:02Z</time>
 </trkpt>
 <trkpt lat="47.291363" lon="12.954495">
 <ele>789.51</ele>
 <time>2010-07-28T06:39:12Z</time>
 </trkpt>
 <trkpt lat="47.291313" lon="12.954469">
 <ele>790.41</ele>
 <time>2010-07-28T06:39:20Z</time>
 </trkpt>
 <trkpt lat="47.290955" lon="12.954201">
 <ele>791.94</ele>
 <time>2010-07-28T06:39:31Z</time>
 </trkpt>
 <trkpt lat="47.290783" lon="12.954003">
 <ele>793.13</ele>
 <time>2010-07-28T06:39:42Z</time>
 </trkpt>
 <trkpt lat="47.290642" lon="12.953762">
 <ele>794.58</ele>
 <time>2010-07-28T06:39:52Z</time>
 </trkpt>
 <trkpt lat="47.290531" lon="12.953489">
 <ele>795.72</ele>
 <time>2010-07-28T06:40:03Z</time>
 </trkpt>
 <trkpt lat="47.290436" lon="12.953224">
 <ele>797.74</ele>
 <time>2010-07-28T06:40:14Z</time>
 </trkpt>
 <trkpt lat="47.290367" lon="12.952960">
 <ele>798.99</ele>
 <time>2010-07-28T06:40:24Z</time>
 </trkpt>
 <trkpt lat="47.290298" lon="12.952672">
 <ele>800.50</ele>
 <time>2010-07-28T06:40:35Z</time>
 </trkpt>
 <trkpt lat="47.290215" lon="12.952337">
 <ele>802.18</ele>
 <time>2010-07-28T06:40:48Z</time>
 </trkpt>
 <trkpt lat="47.290142" lon="12.952050">
 <ele>803.72</ele>
 <time>2010-07-28T06:40:59Z</time>
 </trkpt>
 <trkpt lat="47.290054" lon="12.951693">
 <ele>805.23</ele>
 <time>2010-07-28T06:41:12Z</time>
 </trkpt>
 <trkpt lat="47.289963" lon="12.951373">
 <ele>806.90</ele>
 <time>2010-07-28T06:41:25Z</time>
 </trkpt>
 <trkpt lat="47.289886" lon="12.951130">
 <ele>808.19</ele>
 <time>2010-07-28T06:41:35Z</time>
 </trkpt>
 <trkpt lat="47.289783" lon="12.950809">
 <ele>810.26</ele>
 <time>2010-07-28T06:41:48Z</time>
 </trkpt>
 <trkpt lat="47.289680" lon="12.950497">
 <ele>811.76</ele>
 <time>2010-07-28T06:42:01Z</time>
 </trkpt>
 <trkpt lat="47.289570" lon="12.950190">
 <ele>813.67</ele>
 <time>2010-07-28T06:42:14Z</time>
 </trkpt>
 <trkpt lat="47.289459" lon="12.949887">
 <ele>815.74</ele>
 <time>2010-07-28T06:42:26Z</time>
 </trkpt>
 <trkpt lat="47.289341" lon="12.949567">
 <ele>817.35</ele>
 <time>2010-07-28T06:42:39Z</time>
 </trkpt>
 <trkpt lat="47.289230" lon="12.949241">
 <ele>818.77</ele>
 <time>2010-07-28T06:42:52Z</time>
 </trkpt>
 <trkpt lat="47.289131" lon="12.948893">
 <ele>820.47</ele>
 <time>2010-07-28T06:43:05Z</time>
 </trkpt>
 <trkpt lat="47.289047" lon="12.948534">
 <ele>821.76</ele>
 <time>2010-07-28T06:43:18Z</time>
 </trkpt>
 <trkpt lat="47.288975" lon="12.948193">
 <ele>823.28</ele>
 <time>2010-07-28T06:43:30Z</time>
 </trkpt>
 <trkpt lat="47.288940" lon="12.947797">
 <ele>824.04</ele>
 <time>2010-07-28T06:43:43Z</time>
 </trkpt>
 <trkpt lat="47.288918" lon="12.947399">
 <ele>825.29</ele>
 <time>2010-07-28T06:43:56Z</time>
 </trkpt>
 <trkpt lat="47.288914" lon="12.946961">
 <ele>826.21</ele>
 <time>2010-07-28T06:44:10Z</time>
 </trkpt>
 <trkpt lat="47.288898" lon="12.946581">
 <ele>827.16</ele>
 <time>2010-07-28T06:44:23Z</time>
 </trkpt>
 <trkpt lat="47.288857" lon="12.946358">
 <ele>827.57</ele>
 <time>2010-07-28T06:44:32Z</time>
 </trkpt>
 <trkpt lat="47.288773" lon="12.946178">
 <ele>828.05</ele>
 <time>2010-07-28T06:44:40Z</time>
 </trkpt>
 <trkpt lat="47.288616" lon="12.946113">
 <ele>828.77</ele>
 <time>2010-07-28T06:44:48Z</time>
 </trkpt>
 <trkpt lat="47.288498" lon="12.946193">
 <ele>829.17</ele>
 <time>2010-07-28T06:44:55Z</time>
 </trkpt>
 <trkpt lat="47.288395" lon="12.946383">
 <ele>830.05</ele>
 <time>2010-07-28T06:45:04Z</time>
 </trkpt>
 <trkpt lat="47.288395" lon="12.946711">
 <ele>831.59</ele>
 <time>2010-07-28T06:45:16Z</time>
 </trkpt>
 <trkpt lat="47.288399" lon="12.946744">
 <ele>832.44</ele>
 <time>2010-07-28T06:45:24Z</time>
 </trkpt>
 <trkpt lat="47.288418" lon="12.947281">
 <ele>834.98</ele>
 <time>2010-07-28T06:45:37Z</time>
 </trkpt>
 <trkpt lat="47.288437" lon="12.947612">
 <ele>837.26</ele>
 <time>2010-07-28T06:45:49Z</time>
 </trkpt>
 <trkpt lat="47.288410" lon="12.947874">
 <ele>839.54</ele>
 <time>2010-07-28T06:45:59Z</time>
 </trkpt>
 <trkpt lat="47.288376" lon="12.948128">
 <ele>841.26</ele>
 <time>2010-07-28T06:46:09Z</time>
 </trkpt>
 <trkpt lat="47.288300" lon="12.948435">
 <ele>843.79</ele>
 <time>2010-07-28T06:46:22Z</time>
 </trkpt>
 <trkpt lat="47.288204" lon="12.948765">
 <ele>846.18</ele>
 <time>2010-07-28T06:46:36Z</time>
 </trkpt>
 <trkpt lat="47.288074" lon="12.949076">
 <ele>848.99</ele>
 <time>2010-07-28T06:46:50Z</time>
 </trkpt>
 <trkpt lat="47.287952" lon="12.949287">
 <ele>850.95</ele>
 <time>2010-07-28T06:47:02Z</time>
 </trkpt>
 <trkpt lat="47.287846" lon="12.949433">
 <ele>852.47</ele>
 <time>2010-07-28T06:47:11Z</time>
 </trkpt>
 <trkpt lat="47.287716" lon="12.949612">
 <ele>854.44</ele>
 <time>2010-07-28T06:47:22Z</time>
 </trkpt>
 <trkpt lat="47.287613" lon="12.949805">
 <ele>856.11</ele>
 <time>2010-07-28T06:47:33Z</time>
 </trkpt>
 <trkpt lat="47.287540" lon="12.949996">
 <ele>857.75</ele>
 <time>2010-07-28T06:47:43Z</time>
 </trkpt>
 <trkpt lat="47.287487" lon="12.950196">
 <ele>858.88</ele>
 <time>2010-07-28T06:47:52Z</time>
 </trkpt>
 <trkpt lat="47.287453" lon="12.950479">
 <ele>860.77</ele>
 <time>2010-07-28T06:48:04Z</time>
 </trkpt>
 <trkpt lat="47.287384" lon="12.950739">
 <ele>862.57</ele>
 <time>2010-07-28T06:48:16Z</time>
 </trkpt>
 <trkpt lat="47.287308" lon="12.951024">
 <ele>864.61</ele>
 <time>2010-07-28T06:48:29Z</time>
 </trkpt>
 <trkpt lat="47.287251" lon="12.951237">
 <ele>866.45</ele>
 <time>2010-07-28T06:48:39Z</time>
 </trkpt>
 <trkpt lat="47.287189" lon="12.951473">
 <ele>868.35</ele>
 <time>2010-07-28T06:48:50Z</time>
 </trkpt>
 <trkpt lat="47.287144" lon="12.951677">
 <ele>869.93</ele>
 <time>2010-07-28T06:48:59Z</time>
 </trkpt>
 <trkpt lat="47.287094" lon="12.951926">
 <ele>871.65</ele>
 <time>2010-07-28T06:49:10Z</time>
 </trkpt>
 <trkpt lat="47.287048" lon="12.952135">
 <ele>873.47</ele>
 <time>2010-07-28T06:49:20Z</time>
 </trkpt>
 <trkpt lat="47.286999" lon="12.952342">
 <ele>875.02</ele>
 <time>2010-07-28T06:49:30Z</time>
 </trkpt>
 <trkpt lat="47.286949" lon="12.952559">
 <ele>876.97</ele>
 <time>2010-07-28T06:49:40Z</time>
 </trkpt>
 <trkpt lat="47.286896" lon="12.952828">
 <ele>879.27</ele>
 <time>2010-07-28T06:49:52Z</time>
 </trkpt>
 <trkpt lat="47.286835" lon="12.953165">
 <ele>882.01</ele>
 <time>2010-07-28T06:50:07Z</time>
 </trkpt>
 <trkpt lat="47.286789" lon="12.953404">
 <ele>883.86</ele>
 <time>2010-07-28T06:50:18Z</time>
 </trkpt>
 <trkpt lat="47.286747" lon="12.953680">
 <ele>886.05</ele>
 <time>2010-07-28T06:50:30Z</time>
 </trkpt>
 <trkpt lat="47.286716" lon="12.953889">
 <ele>887.50</ele>
 <time>2010-07-28T06:50:39Z</time>
 </trkpt>
 <trkpt lat="47.286629" lon="12.954120">
 <ele>889.58</ele>
 <time>2010-07-28T06:50:50Z</time>
 </trkpt>
 <trkpt lat="47.286514" lon="12.954282">
 <ele>891.67</ele>
 <time>2010-07-28T06:51:00Z</time>
 </trkpt>
 <trkpt lat="47.286381" lon="12.954352">
 <ele>893.24</ele>
 <time>2010-07-28T06:51:09Z</time>
 </trkpt>
 <trkpt lat="47.286236" lon="12.954407">
 <ele>894.92</ele>
 <time>2010-07-28T06:51:19Z</time>
 </trkpt>
 <trkpt lat="47.286076" lon="12.954426">
 <ele>897.09</ele>
 <time>2010-07-28T06:51:29Z</time>
 </trkpt>
 <trkpt lat="47.285900" lon="12.954446">
 <ele>898.91</ele>
 <time>2010-07-28T06:51:40Z</time>
 </trkpt>
 <trkpt lat="47.285706" lon="12.954468">
 <ele>901.48</ele>
 <time>2010-07-28T06:51:52Z</time>
 </trkpt>
 <trkpt lat="47.285580" lon="12.954507">
 <ele>902.79</ele>
 <time>2010-07-28T06:52:01Z</time>
 </trkpt>
 <trkpt lat="47.285442" lon="12.954581">
 <ele>904.32</ele>
 <time>2010-07-28T06:52:12Z</time>
 </trkpt>
 <trkpt lat="47.285339" lon="12.954687">
 <ele>906.02</ele>
 <time>2010-07-28T06:52:21Z</time>
 </trkpt>
 <trkpt lat="47.285255" lon="12.954843">
 <ele>907.30</ele>
 <time>2010-07-28T06:52:30Z</time>
 </trkpt>
 <trkpt lat="47.285225" lon="12.955063">
 <ele>908.87</ele>
 <time>2010-07-28T06:52:40Z</time>
 </trkpt>
 <trkpt lat="47.285248" lon="12.955205">
 <ele>909.88</ele>
 <time>2010-07-28T06:52:47Z</time>
 </trkpt>
 <trkpt lat="47.285297" lon="12.955451">
 <ele>911.23</ele>
 <time>2010-07-28T06:52:57Z</time>
 </trkpt>
 <trkpt lat="47.285419" lon="12.955608">
 <ele>912.82</ele>
 <time>2010-07-28T06:53:07Z</time>
 </trkpt>
 <trkpt lat="47.285568" lon="12.955736">
 <ele>914.48</ele>
 <time>2010-07-28T06:53:18Z</time>
 </trkpt>
 <trkpt lat="47.285694" lon="12.955846">
 <ele>916.32</ele>
 <time>2010-07-28T06:53:29Z</time>
 </trkpt>
 <trkpt lat="47.285809" lon="12.955963">
 <ele>918.11</ele>
 <time>2010-07-28T06:53:39Z</time>
 </trkpt>
 <trkpt lat="47.285900" lon="12.956126">
 <ele>919.94</ele>
 <time>2010-07-28T06:53:49Z</time>
 </trkpt>
 <trkpt lat="47.285961" lon="12.956362">
 <ele>922.63</ele>
 <time>2010-07-28T06:54:01Z</time>
 </trkpt>
 <trkpt lat="47.285995" lon="12.956606">
 <ele>924.39</ele>
 <time>2010-07-28T06:54:13Z</time>
 </trkpt>
 <trkpt lat="47.286007" lon="12.956830">
 <ele>926.58</ele>
 <time>2010-07-28T06:54:24Z</time>
 </trkpt>
 <trkpt lat="47.286018" lon="12.957063">
 <ele>928.28</ele>
 <time>2010-07-28T06:54:35Z</time>
 </trkpt>
 <trkpt lat="47.286034" lon="12.957294">
 <ele>929.85</ele>
 <time>2010-07-28T06:54:46Z</time>
 </trkpt>
 <trkpt lat="47.286022" lon="12.957508">
 <ele>931.57</ele>
 <time>2010-07-28T06:54:56Z</time>
 </trkpt>
 <trkpt lat="47.286003" lon="12.957737">
 <ele>933.43</ele>
 <time>2010-07-28T06:55:07Z</time>
 </trkpt>
 <trkpt lat="47.285969" lon="12.957988">
 <ele>935.64</ele>
 <time>2010-07-28T06:55:19Z</time>
 </trkpt>
 <trkpt lat="47.285927" lon="12.958199">
 <ele>937.29</ele>
 <time>2010-07-28T06:55:29Z</time>
 </trkpt>
 <trkpt lat="47.285831" lon="12.958416">
 <ele>939.46</ele>
 <time>2010-07-28T06:55:41Z</time>
 </trkpt>
 <trkpt lat="47.285721" lon="12.958558">
 <ele>940.74</ele>
 <time>2010-07-28T06:55:51Z</time>
 </trkpt>
 <trkpt lat="47.285622" lon="12.958622">
 <ele>942.53</ele>
 <time>2010-07-28T06:55:59Z</time>
 </trkpt>
 <trkpt lat="47.285477" lon="12.958725">
 <ele>944.23</ele>
 <time>2010-07-28T06:56:10Z</time>
 </trkpt>
 <trkpt lat="47.285336" lon="12.958840">
 <ele>946.04</ele>
 <time>2010-07-28T06:56:21Z</time>
 </trkpt>
 <trkpt lat="47.285217" lon="12.958978">
 <ele>947.71</ele>
 <time>2010-07-28T06:56:31Z</time>
 </trkpt>
 <trkpt lat="47.285114" lon="12.959155">
 <ele>949.42</ele>
 <time>2010-07-28T06:56:42Z</time>
 </trkpt>
 <trkpt lat="47.285046" lon="12.959352">
 <ele>951.02</ele>
 <time>2010-07-28T06:56:52Z</time>
 </trkpt>
 <trkpt lat="47.285000" lon="12.959574">
 <ele>952.67</ele>
 <time>2010-07-28T06:57:03Z</time>
 </trkpt>
 <trkpt lat="47.284969" lon="12.959777">
 <ele>954.02</ele>
 <time>2010-07-28T06:57:12Z</time>
 </trkpt>
 <trkpt lat="47.284981" lon="12.960001">
 <ele>955.65</ele>
 <time>2010-07-28T06:57:22Z</time>
 </trkpt>
 <trkpt lat="47.285007" lon="12.960172">
 <ele>956.99</ele>
 <time>2010-07-28T06:57:31Z</time>
 </trkpt>
 <trkpt lat="47.285069" lon="12.960423">
 <ele>959.13</ele>
 <time>2010-07-28T06:57:43Z</time>
 </trkpt>
 <trkpt lat="47.285107" lon="12.960627">
 <ele>960.47</ele>
 <time>2010-07-28T06:57:53Z</time>
 </trkpt>
 <trkpt lat="47.285149" lon="12.960843">
 <ele>962.41</ele>
 <time>2010-07-28T06:58:04Z</time>
 </trkpt>
 <trkpt lat="47.285156" lon="12.961064">
 <ele>964.34</ele>
 <time>2010-07-28T06:58:14Z</time>
 </trkpt>
 <trkpt lat="47.285156" lon="12.961280">
 <ele>965.89</ele>
 <time>2010-07-28T06:58:24Z</time>
 </trkpt>
 <trkpt lat="47.285149" lon="12.961470">
 <ele>967.48</ele>
 <time>2010-07-28T06:58:33Z</time>
 </trkpt>
 <trkpt lat="47.285133" lon="12.961705">
 <ele>969.21</ele>
 <time>2010-07-28T06:58:44Z</time>
 </trkpt>
 <trkpt lat="47.285118" lon="12.961918">
 <ele>970.77</ele>
 <time>2010-07-28T06:58:54Z</time>
 </trkpt>
 <trkpt lat="47.285103" lon="12.962102">
 <ele>972.35</ele>
 <time>2010-07-28T06:59:03Z</time>
 </trkpt>
 <trkpt lat="47.285084" lon="12.962307">
 <ele>973.97</ele>
 <time>2010-07-28T06:59:13Z</time>
 </trkpt>
 <trkpt lat="47.285072" lon="12.962524">
 <ele>975.45</ele>
 <time>2010-07-28T06:59:23Z</time>
 </trkpt>
 <trkpt lat="47.285072" lon="12.962737">
 <ele>976.64</ele>
 <time>2010-07-28T06:59:33Z</time>
 </trkpt>
 <trkpt lat="47.285072" lon="12.962959">
 <ele>978.70</ele>
 <time>2010-07-28T06:59:43Z</time>
 </trkpt>
 <trkpt lat="47.285072" lon="12.963214">
 <ele>980.30</ele>
 <time>2010-07-28T06:59:55Z</time>
 </trkpt>
 <trkpt lat="47.285069" lon="12.963426">
 <ele>981.37</ele>
 <time>2010-07-28T07:00:05Z</time>
 </trkpt>
 <trkpt lat="47.285065" lon="12.963643">
 <ele>982.60</ele>
 <time>2010-07-28T07:00:15Z</time>
 </trkpt>
 <trkpt lat="47.285057" lon="12.963909">
 <ele>984.58</ele>
 <time>2010-07-28T07:00:27Z</time>
 </trkpt>
 <trkpt lat="47.285053" lon="12.964134">
 <ele>986.04</ele>
 <time>2010-07-28T07:00:37Z</time>
 </trkpt>
 <trkpt lat="47.285046" lon="12.964370">
 <ele>987.23</ele>
 <time>2010-07-28T07:00:47Z</time>
 </trkpt>
 <trkpt lat="47.285042" lon="12.964594">
 <ele>988.58</ele>
 <time>2010-07-28T07:00:57Z</time>
 </trkpt>
 <trkpt lat="47.285038" lon="12.964786">
 <ele>990.49</ele>
 <time>2010-07-28T07:01:06Z</time>
 </trkpt>
 <trkpt lat="47.285030" lon="12.964979">
 <ele>991.64</ele>
 <time>2010-07-28T07:01:15Z</time>
 </trkpt>
 <trkpt lat="47.285027" lon="12.965190">
 <ele>993.07</ele>
 <time>2010-07-28T07:01:25Z</time>
 </trkpt>
 <trkpt lat="47.285015" lon="12.965471">
 <ele>994.80</ele>
 <time>2010-07-28T07:01:38Z</time>
 </trkpt>
 <trkpt lat="47.285004" lon="12.965710">
 <ele>996.65</ele>
 <time>2010-07-28T07:01:49Z</time>
 </trkpt>
 <trkpt lat="47.284981" lon="12.965984">
 <ele>999.03</ele>
 <time>2010-07-28T07:02:02Z</time>
 </trkpt>
 <trkpt lat="47.284950" lon="12.966232">
 <ele>1001.05</ele>
 <time>2010-07-28T07:02:14Z</time>
 </trkpt>
 <trkpt lat="47.284912" lon="12.966440">
 <ele>1002.40</ele>
 <time>2010-07-28T07:02:24Z</time>
 </trkpt>
 <trkpt lat="47.284840" lon="12.966681">
 <ele>1004.36</ele>
 <time>2010-07-28T07:02:36Z</time>
 </trkpt>
 <trkpt lat="47.284767" lon="12.966876">
 <ele>1005.54</ele>
 <time>2010-07-28T07:02:46Z</time>
 </trkpt>
 <trkpt lat="47.284676" lon="12.967121">
 <ele>1006.73</ele>
 <time>2010-07-28T07:02:58Z</time>
 </trkpt>
 <trkpt lat="47.284634" lon="12.967324">
 <ele>1007.91</ele>
 <time>2010-07-28T07:03:07Z</time>
 </trkpt>
 <trkpt lat="47.284607" lon="12.967531">
 <ele>1008.53</ele>
 <time>2010-07-28T07:03:15Z</time>
 </trkpt>
 <trkpt lat="47.284611" lon="12.967754">
 <ele>1008.98</ele>
 <time>2010-07-28T07:03:23Z</time>
 </trkpt>
 <trkpt lat="47.284657" lon="12.968028">
 <ele>1009.69</ele>
 <time>2010-07-28T07:03:33Z</time>
 </trkpt>
 <trkpt lat="47.284733" lon="12.968263">
 <ele>1009.95</ele>
 <time>2010-07-28T07:03:42Z</time>
 </trkpt>
 <trkpt lat="47.284824" lon="12.968516">
 <ele>1010.36</ele>
 <time>2010-07-28T07:03:51Z</time>
 </trkpt>
 <trkpt lat="47.284920" lon="12.968826">
 <ele>1011.38</ele>
 <time>2010-07-28T07:04:01Z</time>
 </trkpt>
 <trkpt lat="47.284943" lon="12.969122">
 <ele>1012.24</ele>
 <time>2010-07-28T07:04:10Z</time>
 </trkpt>
 <trkpt lat="47.284878" lon="12.969401">
 <ele>1012.98</ele>
 <time>2010-07-28T07:04:19Z</time>
 </trkpt>
 <trkpt lat="47.284775" lon="12.969594">
 <ele>1013.40</ele>
 <time>2010-07-28T07:04:26Z</time>
 </trkpt>
 <trkpt lat="47.284603" lon="12.969661">
 <ele>1013.08</ele>
 <time>2010-07-28T07:04:32Z</time>
 </trkpt>
 <trkpt lat="47.284382" lon="12.969540">
 <ele>1012.98</ele>
 <time>2010-07-28T07:04:38Z</time>
 </trkpt>
 <trkpt lat="47.284214" lon="12.969279">
 <ele>1011.99</ele>
 <time>2010-07-28T07:04:43Z</time>
 </trkpt>
 <trkpt lat="47.284031" lon="12.968897">
 <ele>1010.11</ele>
 <time>2010-07-28T07:04:48Z</time>
 </trkpt>
 <trkpt lat="47.283749" lon="12.968472">
 <ele>1007.33</ele>
 <time>2010-07-28T07:04:53Z</time>
 </trkpt>
 <trkpt lat="47.283436" lon="12.968174">
 <ele>1005.54</ele>
 <time>2010-07-28T07:04:57Z</time>
 </trkpt>
 <trkpt lat="47.282963" lon="12.967933">
 <ele>1002.29</ele>
 <time>2010-07-28T07:05:02Z</time>
 </trkpt>
 <trkpt lat="47.282650" lon="12.967956">
 <ele>1000.28</ele>
 <time>2010-07-28T07:05:05Z</time>
 </trkpt>
 <trkpt lat="47.282158" lon="12.968175">
 <ele>997.82</ele>
 <time>2010-07-28T07:05:10Z</time>
 </trkpt>
 <trkpt lat="47.281914" lon="12.968423">
 <ele>996.86</ele>
 <time>2010-07-28T07:05:13Z</time>
 </trkpt>
 <trkpt lat="47.281319" lon="12.969357">
 <ele>994.18</ele>
 <time>2010-07-28T07:05:22Z</time>
 </trkpt>
 <trkpt lat="47.280975" lon="12.969809">
 <ele>992.72</ele>
 <time>2010-07-28T07:05:27Z</time>
 </trkpt>
 <trkpt lat="47.280556" lon="12.970334">
 <ele>990.98</ele>
 <time>2010-07-28T07:05:33Z</time>
 </trkpt>
 <trkpt lat="47.280254" lon="12.970797">
 <ele>989.45</ele>
 <time>2010-07-28T07:05:38Z</time>
 </trkpt>
 <trkpt lat="47.280128" lon="12.970971">
 <ele>988.82</ele>
 <time>2010-07-28T07:05:40Z</time>
 </trkpt>
 <trkpt lat="47.279850" lon="12.971291">
 <ele>987.50</ele>
 <time>2010-07-28T07:05:44Z</time>
 </trkpt>
 <trkpt lat="47.279587" lon="12.971277">
 <ele>986.96</ele>
 <time>2010-07-28T07:05:47Z</time>
 </trkpt>
 <trkpt lat="47.279518" lon="12.971200">
 <ele>986.54</ele>
 <time>2010-07-28T07:05:48Z</time>
 </trkpt>
 <trkpt lat="47.279129" lon="12.970685">
 <ele>985.03</ele>
 <time>2010-07-28T07:05:54Z</time>
 </trkpt>
 <trkpt lat="47.278744" lon="12.970477">
 <ele>983.89</ele>
 <time>2010-07-28T07:05:59Z</time>
 </trkpt>
 <trkpt lat="47.278408" lon="12.970517">
 <ele>982.82</ele>
 <time>2010-07-28T07:06:03Z</time>
 </trkpt>
 <trkpt lat="47.278099" lon="12.970709">
 <ele>981.65</ele>
 <time>2010-07-28T07:06:07Z</time>
 </trkpt>
 <trkpt lat="47.277840" lon="12.971016">
 <ele>980.15</ele>
 <time>2010-07-28T07:06:11Z</time>
 </trkpt>
 <trkpt lat="47.277782" lon="12.971114">
 <ele>980.15</ele>
 <time>2010-07-28T07:06:12Z</time>
 </trkpt>
 <trkpt lat="47.277435" lon="12.971796">
 <ele>977.76</ele>
 <time>2010-07-28T07:06:19Z</time>
 </trkpt>
 <trkpt lat="47.277122" lon="12.972215">
 <ele>976.19</ele>
 <time>2010-07-28T07:06:24Z</time>
 </trkpt>
 <trkpt lat="47.276752" lon="12.972522">
 <ele>975.20</ele>
 <time>2010-07-28T07:06:29Z</time>
 </trkpt>
 <trkpt lat="47.276352" lon="12.972714">
 <ele>974.09</ele>
 <time>2010-07-28T07:06:34Z</time>
 </trkpt>
 <trkpt lat="47.275864" lon="12.972768">
 <ele>973.09</ele>
 <time>2010-07-28T07:06:40Z</time>
 </trkpt>
 <trkpt lat="47.275146" lon="12.972783">
 <ele>971.60</ele>
 <time>2010-07-28T07:06:49Z</time>
 </trkpt>
 <trkpt lat="47.274761" lon="12.972919">
 <ele>970.42</ele>
 <time>2010-07-28T07:06:54Z</time>
 </trkpt>
 <trkpt lat="47.274235" lon="12.973232">
 <ele>968.95</ele>
 <time>2010-07-28T07:07:01Z</time>
 </trkpt>
 <trkpt lat="47.273636" lon="12.973507">
 <ele>967.22</ele>
 <time>2010-07-28T07:07:09Z</time>
 </trkpt>
 <trkpt lat="47.273132" lon="12.973811">
 <ele>965.87</ele>
 <time>2010-07-28T07:07:16Z</time>
 </trkpt>
 <trkpt lat="47.272629" lon="12.974108">
 <ele>964.64</ele>
 <time>2010-07-28T07:07:23Z</time>
 </trkpt>
 <trkpt lat="47.272331" lon="12.974457">
 <ele>963.91</ele>
 <time>2010-07-28T07:07:28Z</time>
 </trkpt>
 <trkpt lat="47.272038" lon="12.975116">
 <ele>962.47</ele>
 <time>2010-07-28T07:07:35Z</time>
 </trkpt>
 <trkpt lat="47.271748" lon="12.975689">
 <ele>960.41</ele>
 <time>2010-07-28T07:07:41Z</time>
 </trkpt>
 <trkpt lat="47.271431" lon="12.976118">
 <ele>958.17</ele>
 <time>2010-07-28T07:07:46Z</time>
 </trkpt>
 <trkpt lat="47.271358" lon="12.976198">
 <ele>957.99</ele>
 <time>2010-07-28T07:07:47Z</time>
 </trkpt>
 <trkpt lat="47.270950" lon="12.976510">
 <ele>955.41</ele>
 <time>2010-07-28T07:07:52Z</time>
 </trkpt>
 <trkpt lat="47.270859" lon="12.976561">
 <ele>955.41</ele>
 <time>2010-07-28T07:07:53Z</time>
 </trkpt>
 <trkpt lat="47.270123" lon="12.976826">
 <ele>948.93</ele>
 <time>2010-07-28T07:08:00Z</time>
 </trkpt>
 <trkpt lat="47.269688" lon="12.977076">
 <ele>945.01</ele>
 <time>2010-07-28T07:08:04Z</time>
 </trkpt>
 <trkpt lat="47.269341" lon="12.977512">
 <ele>940.79</ele>
 <time>2010-07-28T07:08:08Z</time>
 </trkpt>
 <trkpt lat="47.269112" lon="12.977973">
 <ele>937.88</ele>
 <time>2010-07-28T07:08:11Z</time>
 </trkpt>
 <trkpt lat="47.268734" lon="12.978503">
 <ele>933.40</ele>
 <time>2010-07-28T07:08:15Z</time>
 </trkpt>
 <trkpt lat="47.268372" lon="12.978730">
 <ele>931.30</ele>
 <time>2010-07-28T07:08:18Z</time>
 </trkpt>
 <trkpt lat="47.268116" lon="12.978829">
 <ele>929.64</ele>
 <time>2010-07-28T07:08:20Z</time>
 </trkpt>
 <trkpt lat="47.267593" lon="12.979165">
 <ele>927.84</ele>
 <time>2010-07-28T07:08:25Z</time>
 </trkpt>
 <trkpt lat="47.267288" lon="12.979483">
 <ele>928.46</ele>
 <time>2010-07-28T07:08:29Z</time>
 </trkpt>
 <trkpt lat="47.267132" lon="12.979639">
 <ele>929.75</ele>
 <time>2010-07-28T07:08:34Z</time>
 </trkpt>
 <trkpt lat="47.266819" lon="12.980148">
 <ele>930.90</ele>
 <time>2010-07-28T07:08:39Z</time>
 </trkpt>
 <trkpt lat="47.266712" lon="12.980454">
 <ele>931.70</ele>
 <time>2010-07-28T07:08:44Z</time>
 </trkpt>
 <trkpt lat="47.266621" lon="12.980857">
 <ele>933.47</ele>
 <time>2010-07-28T07:08:52Z</time>
 </trkpt>
 <trkpt lat="47.266506" lon="12.981221">
 <ele>934.71</ele>
 <time>2010-07-28T07:09:00Z</time>
 </trkpt>
 <trkpt lat="47.266392" lon="12.981446">
 <ele>935.75</ele>
 <time>2010-07-28T07:09:06Z</time>
 </trkpt>
 <trkpt lat="47.266212" lon="12.981655">
 <ele>936.60</ele>
 <time>2010-07-28T07:09:13Z</time>
 </trkpt>
 <trkpt lat="47.265938" lon="12.981847">
 <ele>937.48</ele>
 <time>2010-07-28T07:09:22Z</time>
 </trkpt>
 <trkpt lat="47.265778" lon="12.981926">
 <ele>938.04</ele>
 <time>2010-07-28T07:09:27Z</time>
 </trkpt>
 <trkpt lat="47.265507" lon="12.982103">
 <ele>938.63</ele>
 <time>2010-07-28T07:09:36Z</time>
 </trkpt>
 <trkpt lat="47.265236" lon="12.982381">
 <ele>939.61</ele>
 <time>2010-07-28T07:09:46Z</time>
 </trkpt>
 <trkpt lat="47.264950" lon="12.982654">
 <ele>940.11</ele>
 <time>2010-07-28T07:09:55Z</time>
 </trkpt>
 <trkpt lat="47.264595" lon="12.982865">
 <ele>940.99</ele>
 <time>2010-07-28T07:10:05Z</time>
 </trkpt>
 <trkpt lat="47.264229" lon="12.982977">
 <ele>941.46</ele>
 <time>2010-07-28T07:10:15Z</time>
 </trkpt>
 <trkpt lat="47.263954" lon="12.983108">
 <ele>942.05</ele>
 <time>2010-07-28T07:10:23Z</time>
 </trkpt>
 <trkpt lat="47.263653" lon="12.983310">
 <ele>942.15</ele>
 <time>2010-07-28T07:10:31Z</time>
 </trkpt>
 <trkpt lat="47.263206" lon="12.983469">
 <ele>942.58</ele>
 <time>2010-07-28T07:10:41Z</time>
 </trkpt>
 <trkpt lat="47.262878" lon="12.983456">
 <ele>942.46</ele>
 <time>2010-07-28T07:10:48Z</time>
 </trkpt>
 <trkpt lat="47.262524" lon="12.983335">
 <ele>942.91</ele>
 <time>2010-07-28T07:10:56Z</time>
 </trkpt>
 <trkpt lat="47.262070" lon="12.983160">
 <ele>943.03</ele>
 <time>2010-07-28T07:11:06Z</time>
 </trkpt>
 <trkpt lat="47.261715" lon="12.983013">
 <ele>943.25</ele>
 <time>2010-07-28T07:11:14Z</time>
 </trkpt>
 <trkpt lat="47.261623" lon="12.982941">
 <ele>943.50</ele>
 <time>2010-07-28T07:11:16Z</time>
 </trkpt>
 <trkpt lat="47.261501" lon="12.982826">
 <ele>943.59</ele>
 <time>2010-07-28T07:11:19Z</time>
 </trkpt>
 <trkpt lat="47.261421" lon="12.982735">
 <ele>943.55</ele>
 <time>2010-07-28T07:11:21Z</time>
 </trkpt>
 <trkpt lat="47.261219" lon="12.982335">
 <ele>943.83</ele>
 <time>2010-07-28T07:11:28Z</time>
 </trkpt>
 <trkpt lat="47.261009" lon="12.981869">
 <ele>944.62</ele>
 <time>2010-07-28T07:11:36Z</time>
 </trkpt>
 <trkpt lat="47.260742" lon="12.981575">
 <ele>944.81</ele>
 <time>2010-07-28T07:11:43Z</time>
 </trkpt>
 <trkpt lat="47.260300" lon="12.981223">
 <ele>945.82</ele>
 <time>2010-07-28T07:11:54Z</time>
 </trkpt>
 <trkpt lat="47.259991" lon="12.980983">
 <ele>947.41</ele>
 <time>2010-07-28T07:12:03Z</time>
 </trkpt>
 <trkpt lat="47.259689" lon="12.980788">
 <ele>948.76</ele>
 <time>2010-07-28T07:12:12Z</time>
 </trkpt>
 <trkpt lat="47.259377" lon="12.980704">
 <ele>950.19</ele>
 <time>2010-07-28T07:12:21Z</time>
 </trkpt>
 <trkpt lat="47.259094" lon="12.980735">
 <ele>950.66</ele>
 <time>2010-07-28T07:12:29Z</time>
 </trkpt>
 <trkpt lat="47.258789" lon="12.980869">
 <ele>951.03</ele>
 <time>2010-07-28T07:12:37Z</time>
 </trkpt>
 <trkpt lat="47.258358" lon="12.981183">
 <ele>951.22</ele>
 <time>2010-07-28T07:12:48Z</time>
 </trkpt>
 <trkpt lat="47.257999" lon="12.981580">
 <ele>951.28</ele>
 <time>2010-07-28T07:12:58Z</time>
 </trkpt>
 <trkpt lat="47.257614" lon="12.982130">
 <ele>951.48</ele>
 <time>2010-07-28T07:13:10Z</time>
 </trkpt>
 <trkpt lat="47.257236" lon="12.982809">
 <ele>951.66</ele>
 <time>2010-07-28T07:13:23Z</time>
 </trkpt>
 <trkpt lat="47.256901" lon="12.983325">
 <ele>952.17</ele>
 <time>2010-07-28T07:13:34Z</time>
 </trkpt>
 <trkpt lat="47.256634" lon="12.983665">
 <ele>953.30</ele>
 <time>2010-07-28T07:13:43Z</time>
 </trkpt>
 <trkpt lat="47.256268" lon="12.984033">
 <ele>955.07</ele>
 <time>2010-07-28T07:13:55Z</time>
 </trkpt>
 <trkpt lat="47.255959" lon="12.984313">
 <ele>956.49</ele>
 <time>2010-07-28T07:14:05Z</time>
 </trkpt>
 <trkpt lat="47.255569" lon="12.984637">
 <ele>957.26</ele>
 <time>2010-07-28T07:14:17Z</time>
 </trkpt>
 <trkpt lat="47.255276" lon="12.984920">
 <ele>957.45</ele>
 <time>2010-07-28T07:14:26Z</time>
 </trkpt>
 <trkpt lat="47.255005" lon="12.985201">
 <ele>956.92</ele>
 <time>2010-07-28T07:14:33Z</time>
 </trkpt>
 <trkpt lat="47.254635" lon="12.985600">
 <ele>955.42</ele>
 <time>2010-07-28T07:14:41Z</time>
 </trkpt>
 <trkpt lat="47.254215" lon="12.985995">
 <ele>953.17</ele>
 <time>2010-07-28T07:14:48Z</time>
 </trkpt>
 <trkpt lat="47.253757" lon="12.986251">
 <ele>950.85</ele>
 <time>2010-07-28T07:14:54Z</time>
 </trkpt>
 <trkpt lat="47.253197" lon="12.986375">
 <ele>949.38</ele>
 <time>2010-07-28T07:15:01Z</time>
 </trkpt>
 <trkpt lat="47.252754" lon="12.986322">
 <ele>949.00</ele>
 <time>2010-07-28T07:15:07Z</time>
 </trkpt>
 <trkpt lat="47.252281" lon="12.986129">
 <ele>949.26</ele>
 <time>2010-07-28T07:15:14Z</time>
 </trkpt>
 <trkpt lat="47.251740" lon="12.985803">
 <ele>949.31</ele>
 <time>2010-07-28T07:15:23Z</time>
 </trkpt>
 <trkpt lat="47.251183" lon="12.985434">
 <ele>949.84</ele>
 <time>2010-07-28T07:15:33Z</time>
 </trkpt>
 <trkpt lat="47.250675" lon="12.985037">
 <ele>950.13</ele>
 <time>2010-07-28T07:15:43Z</time>
 </trkpt>
 <trkpt lat="47.250103" lon="12.984488">
 <ele>950.40</ele>
 <time>2010-07-28T07:15:55Z</time>
 </trkpt>
 <trkpt lat="47.249657" lon="12.984225">
 <ele>950.96</ele>
 <time>2010-07-28T07:16:04Z</time>
 </trkpt>
 <trkpt lat="47.249298" lon="12.984173">
 <ele>951.05</ele>
 <time>2010-07-28T07:16:11Z</time>
 </trkpt>
 <trkpt lat="47.248734" lon="12.984254">
 <ele>951.56</ele>
 <time>2010-07-28T07:16:22Z</time>
 </trkpt>
 <trkpt lat="47.248066" lon="12.984384">
 <ele>952.11</ele>
 <time>2010-07-28T07:16:35Z</time>
 </trkpt>
 <trkpt lat="47.247604" lon="12.984531">
 <ele>952.09</ele>
 <time>2010-07-28T07:16:44Z</time>
 </trkpt>
 <trkpt lat="47.247250" lon="12.984647">
 <ele>952.01</ele>
 <time>2010-07-28T07:16:51Z</time>
 </trkpt>
 <trkpt lat="47.247692" lon="12.984724">
 <ele>952.06</ele>
 <time>2010-07-28T07:16:55Z</time>
 </trkpt>
 <trkpt lat="47.247692" lon="12.984724">
 <ele>952.06</ele>
 <time>2010-07-28T07:16:57Z</time>
 </trkpt>
 <trkpt lat="47.247692" lon="12.984724">
 <ele>952.26</ele>
 <time>2010-07-28T07:17:43Z</time>
 </trkpt>
 <trkpt lat="47.247692" lon="12.984724">
 <ele>952.23</ele>
 <time>2010-07-28T07:17:44Z</time>
 </trkpt>
 <trkpt lat="47.247131" lon="12.984681">
 <ele>952.35</ele>
 <time>2010-07-28T07:17:52Z</time>
 </trkpt>
 <trkpt lat="47.247112" lon="12.984687">
 <ele>952.34</ele>
 <time>2010-07-28T07:17:53Z</time>
 </trkpt>
 <trkpt lat="47.246925" lon="12.984746">
 <ele>951.99</ele>
 <time>2010-07-28T07:17:59Z</time>
 </trkpt>
 <trkpt lat="47.246532" lon="12.984894">
 <ele>952.50</ele>
 <time>2010-07-28T07:18:08Z</time>
 </trkpt>
 <trkpt lat="47.246155" lon="12.985050">
 <ele>952.87</ele>
 <time>2010-07-28T07:18:16Z</time>
 </trkpt>
 <trkpt lat="47.245560" lon="12.985369">
 <ele>953.38</ele>
 <time>2010-07-28T07:18:28Z</time>
 </trkpt>
 <trkpt lat="47.245087" lon="12.985740">
 <ele>953.65</ele>
 <time>2010-07-28T07:18:38Z</time>
 </trkpt>
 <trkpt lat="47.244583" lon="12.986282">
 <ele>953.99</ele>
 <time>2010-07-28T07:18:50Z</time>
 </trkpt>
 <trkpt lat="47.244083" lon="12.986958">
 <ele>954.49</ele>
 <time>2010-07-28T07:19:03Z</time>
 </trkpt>
 <trkpt lat="47.243626" lon="12.987678">
 <ele>955.03</ele>
 <time>2010-07-28T07:19:16Z</time>
 </trkpt>
 <trkpt lat="47.243111" lon="12.988516">
 <ele>955.19</ele>
 <time>2010-07-28T07:19:31Z</time>
 </trkpt>
 <trkpt lat="47.242722" lon="12.989000">
 <ele>955.51</ele>
 <time>2010-07-28T07:19:41Z</time>
 </trkpt>
 <trkpt lat="47.242382" lon="12.989330">
 <ele>956.09</ele>
 <time>2010-07-28T07:19:49Z</time>
 </trkpt>
 <trkpt lat="47.241978" lon="12.989607">
 <ele>956.39</ele>
 <time>2010-07-28T07:19:58Z</time>
 </trkpt>
 <trkpt lat="47.241512" lon="12.989833">
 <ele>957.27</ele>
 <time>2010-07-28T07:20:08Z</time>
 </trkpt>
 <trkpt lat="47.241047" lon="12.990005">
 <ele>958.25</ele>
 <time>2010-07-28T07:20:18Z</time>
 </trkpt>
 <trkpt lat="47.240532" lon="12.990207">
 <ele>958.94</ele>
 <time>2010-07-28T07:20:29Z</time>
 </trkpt>
 <trkpt lat="47.239906" lon="12.990493">
 <ele>959.41</ele>
 <time>2010-07-28T07:20:42Z</time>
 </trkpt>
 <trkpt lat="47.239250" lon="12.990803">
 <ele>959.23</ele>
 <time>2010-07-28T07:20:55Z</time>
 </trkpt>
 <trkpt lat="47.238625" lon="12.991131">
 <ele>958.77</ele>
 <time>2010-07-28T07:21:07Z</time>
 </trkpt>
 <trkpt lat="47.238087" lon="12.991500">
 <ele>959.24</ele>
 <time>2010-07-28T07:21:18Z</time>
 </trkpt>
 <trkpt lat="47.237587" lon="12.991903">
 <ele>960.06</ele>
 <time>2010-07-28T07:21:29Z</time>
 </trkpt>
 <trkpt lat="47.237057" lon="12.992226">
 <ele>960.80</ele>
 <time>2010-07-28T07:21:40Z</time>
 </trkpt>
 <trkpt lat="47.236557" lon="12.992388">
 <ele>961.37</ele>
 <time>2010-07-28T07:21:50Z</time>
 </trkpt>
 <trkpt lat="47.236092" lon="12.992447">
 <ele>961.83</ele>
 <time>2010-07-28T07:21:59Z</time>
 </trkpt>
 <trkpt lat="47.235603" lon="12.992386">
 <ele>961.94</ele>
 <time>2010-07-28T07:22:08Z</time>
 </trkpt>
 <trkpt lat="47.235126" lon="12.992236">
 <ele>962.21</ele>
 <time>2010-07-28T07:22:17Z</time>
 </trkpt>
 <trkpt lat="47.234509" lon="12.991912">
 <ele>962.59</ele>
 <time>2010-07-28T07:22:29Z</time>
 </trkpt>
 <trkpt lat="47.233982" lon="12.991557">
 <ele>962.24</ele>
 <time>2010-07-28T07:22:39Z</time>
 </trkpt>
 <trkpt lat="47.233356" lon="12.991174">
 <ele>962.22</ele>
 <time>2010-07-28T07:22:51Z</time>
 </trkpt>
 <trkpt lat="47.232742" lon="12.990867">
 <ele>962.86</ele>
 <time>2010-07-28T07:23:03Z</time>
 </trkpt>
 <trkpt lat="47.232170" lon="12.990640">
 <ele>963.51</ele>
 <time>2010-07-28T07:23:14Z</time>
 </trkpt>
 <trkpt lat="47.231724" lon="12.990521">
 <ele>964.81</ele>
 <time>2010-07-28T07:23:23Z</time>
 </trkpt>
 <trkpt lat="47.231358" lon="12.990439">
 <ele>964.51</ele>
 <time>2010-07-28T07:23:30Z</time>
 </trkpt>
 <trkpt lat="47.231140" lon="12.990396">
 <ele>963.98</ele>
 <time>2010-07-28T07:23:34Z</time>
 </trkpt>
 <trkpt lat="47.231091" lon="12.990386">
 <ele>963.79</ele>
 <time>2010-07-28T07:23:35Z</time>
 </trkpt>
 <trkpt lat="47.230484" lon="12.990243">
 <ele>963.71</ele>
 <time>2010-07-28T07:23:46Z</time>
 </trkpt>
 <trkpt lat="47.229958" lon="12.990098">
 <ele>964.12</ele>
 <time>2010-07-28T07:23:56Z</time>
 </trkpt>
 <trkpt lat="47.229755" lon="12.990055">
 <ele>964.11</ele>
 <time>2010-07-28T07:24:00Z</time>
 </trkpt>
 <trkpt lat="47.229355" lon="12.990021">
 <ele>964.48</ele>
 <time>2010-07-28T07:24:08Z</time>
 </trkpt>
 <trkpt lat="47.228973" lon="12.990008">
 <ele>964.98</ele>
 <time>2010-07-28T07:24:16Z</time>
 </trkpt>
 <trkpt lat="47.228577" lon="12.990079">
 <ele>966.77</ele>
 <time>2010-07-28T07:24:25Z</time>
 </trkpt>
 <trkpt lat="47.228226" lon="12.990129">
 <ele>968.61</ele>
 <time>2010-07-28T07:24:34Z</time>
 </trkpt>
 <trkpt lat="47.227821" lon="12.990187">
 <ele>969.41</ele>
 <time>2010-07-28T07:24:44Z</time>
 </trkpt>
 <trkpt lat="47.227772" lon="12.990194">
 <ele>969.19</ele>
 <time>2010-07-28T07:24:45Z</time>
 </trkpt>
 <trkpt lat="47.227448" lon="12.990265">
 <ele>967.70</ele>
 <time>2010-07-28T07:24:51Z</time>
 </trkpt>
 <trkpt lat="47.227268" lon="12.990311">
 <ele>967.79</ele>
 <time>2010-07-28T07:24:56Z</time>
 </trkpt>
 <trkpt lat="47.227093" lon="12.990364">
 <ele>968.49</ele>
 <time>2010-07-28T07:25:01Z</time>
 </trkpt>
 <trkpt lat="47.226940" lon="12.990416">
 <ele>968.10</ele>
 <time>2010-07-28T07:25:05Z</time>
 </trkpt>
 <trkpt lat="47.226856" lon="12.990450">
 <ele>967.85</ele>
 <time>2010-07-28T07:25:07Z</time>
 </trkpt>
 <trkpt lat="47.226517" lon="12.990620">
 <ele>967.96</ele>
 <time>2010-07-28T07:25:16Z</time>
 </trkpt>
 <trkpt lat="47.226418" lon="12.990671">
 <ele>968.29</ele>
 <time>2010-07-28T07:25:19Z</time>
 </trkpt>
 <trkpt lat="47.226299" lon="12.990774">
 <ele>968.03</ele>
 <time>2010-07-28T07:25:22Z</time>
 </trkpt>
 <trkpt lat="47.225986" lon="12.990960">
 <ele>968.23</ele>
 <time>2010-07-28T07:25:30Z</time>
 </trkpt>
 <trkpt lat="47.225567" lon="12.991287">
 <ele>968.21</ele>
 <time>2010-07-28T07:25:40Z</time>
 </trkpt>
 <trkpt lat="47.225227" lon="12.991606">
 <ele>968.11</ele>
 <time>2010-07-28T07:25:48Z</time>
 </trkpt>
 <trkpt lat="47.224899" lon="12.991989">
 <ele>968.01</ele>
 <time>2010-07-28T07:25:56Z</time>
 </trkpt>
 <trkpt lat="47.224567" lon="12.992420">
 <ele>969.21</ele>
 <time>2010-07-28T07:26:05Z</time>
 </trkpt>
 <trkpt lat="47.224323" lon="12.992776">
 <ele>970.14</ele>
 <time>2010-07-28T07:26:13Z</time>
 </trkpt>
 <trkpt lat="47.224239" lon="12.992878">
 <ele>970.12</ele>
 <time>2010-07-28T07:26:20Z</time>
 </trkpt>
 <trkpt lat="47.223930" lon="12.993316">
 <ele>969.55</ele>
 <time>2010-07-28T07:26:25Z</time>
 </trkpt>
 <trkpt lat="47.223808" lon="12.993353">
 <ele>969.26</ele>
 <time>2010-07-28T07:26:30Z</time>
 </trkpt>
 <trkpt lat="47.223743" lon="12.993372">
 <ele>968.81</ele>
 <time>2010-07-28T07:26:34Z</time>
 </trkpt>
 <trkpt lat="47.223389" lon="12.993203">
 <ele>967.99</ele>
 <time>2010-07-28T07:26:39Z</time>
 </trkpt>
 <trkpt lat="47.222973" lon="12.992839">
 <ele>968.26</ele>
 <time>2010-07-28T07:26:48Z</time>
 </trkpt>
 <trkpt lat="47.222507" lon="12.992390">
 <ele>967.90</ele>
 <time>2010-07-28T07:26:58Z</time>
 </trkpt>
 <trkpt lat="47.221931" lon="12.991890">
 <ele>968.59</ele>
 <time>2010-07-28T07:27:10Z</time>
 </trkpt>
 <trkpt lat="47.221447" lon="12.991500">
 <ele>968.47</ele>
 <time>2010-07-28T07:27:20Z</time>
 </trkpt>
 <trkpt lat="47.220963" lon="12.991119">
 <ele>968.78</ele>
 <time>2010-07-28T07:27:30Z</time>
 </trkpt>
 <trkpt lat="47.220699" lon="12.990915">
 <ele>969.07</ele>
 <time>2010-07-28T07:27:36Z</time>
 </trkpt>
 <trkpt lat="47.220634" lon="12.990817">
 <ele>969.90</ele>
 <time>2010-07-28T07:27:40Z</time>
 </trkpt>
 <trkpt lat="47.220634" lon="12.990817">
 <ele>970.12</ele>
 <time>2010-07-28T07:27:41Z</time>
 </trkpt>
 <trkpt lat="47.220570" lon="12.990738">
 <ele>969.97</ele>
 <time>2010-07-28T07:27:49Z</time>
 </trkpt>
 <trkpt lat="47.220402" lon="12.990534">
 <ele>969.80</ele>
 <time>2010-07-28T07:27:55Z</time>
 </trkpt>
 <trkpt lat="47.220245" lon="12.990338">
 <ele>970.27</ele>
 <time>2010-07-28T07:28:00Z</time>
 </trkpt>
 <trkpt lat="47.220078" lon="12.990132">
 <ele>971.19</ele>
 <time>2010-07-28T07:28:06Z</time>
 </trkpt>
 <trkpt lat="47.219585" lon="12.989901">
 <ele>971.77</ele>
 <time>2010-07-28T07:28:17Z</time>
 </trkpt>
 <trkpt lat="47.219257" lon="12.989679">
 <ele>970.99</ele>
 <time>2010-07-28T07:28:24Z</time>
 </trkpt>
 <trkpt lat="47.218998" lon="12.989400">
 <ele>971.24</ele>
 <time>2010-07-28T07:28:30Z</time>
 </trkpt>
 <trkpt lat="47.218712" lon="12.988903">
 <ele>971.52</ele>
 <time>2010-07-28T07:28:39Z</time>
 </trkpt>
 <trkpt lat="47.218452" lon="12.988373">
 <ele>972.25</ele>
 <time>2010-07-28T07:28:48Z</time>
 </trkpt>
 <trkpt lat="47.218220" lon="12.988026">
 <ele>972.31</ele>
 <time>2010-07-28T07:28:55Z</time>
 </trkpt>
 <trkpt lat="47.217941" lon="12.987721">
 <ele>972.38</ele>
 <time>2010-07-28T07:29:02Z</time>
 </trkpt>
 <trkpt lat="47.217537" lon="12.987460">
 <ele>973.39</ele>
 <time>2010-07-28T07:29:11Z</time>
 </trkpt>
 <trkpt lat="47.217209" lon="12.987391">
 <ele>972.64</ele>
 <time>2010-07-28T07:29:18Z</time>
 </trkpt>
 <trkpt lat="47.216629" lon="12.987424">
 <ele>972.97</ele>
 <time>2010-07-28T07:29:30Z</time>
 </trkpt>
 <trkpt lat="47.216030" lon="12.987446">
 <ele>973.05</ele>
 <time>2010-07-28T07:29:42Z</time>
 </trkpt>
 <trkpt lat="47.215599" lon="12.987350">
 <ele>974.00</ele>
 <time>2010-07-28T07:29:51Z</time>
 </trkpt>
 <trkpt lat="47.215019" lon="12.987168">
 <ele>974.19</ele>
 <time>2010-07-28T07:30:03Z</time>
 </trkpt>
 <trkpt lat="47.214600" lon="12.987011">
 <ele>975.03</ele>
 <time>2010-07-28T07:30:12Z</time>
 </trkpt>
 <trkpt lat="47.214165" lon="12.986716">
 <ele>975.98</ele>
 <time>2010-07-28T07:30:22Z</time>
 </trkpt>
 <trkpt lat="47.213638" lon="12.986362">
 <ele>976.59</ele>
 <time>2010-07-28T07:30:34Z</time>
 </trkpt>
 <trkpt lat="47.213234" lon="12.986205">
 <ele>976.47</ele>
 <time>2010-07-28T07:30:43Z</time>
 </trkpt>
 <trkpt lat="47.212784" lon="12.986073">
 <ele>977.17</ele>
 <time>2010-07-28T07:30:53Z</time>
 </trkpt>
 <trkpt lat="47.212257" lon="12.985985">
 <ele>977.29</ele>
 <time>2010-07-28T07:31:04Z</time>
 </trkpt>
 <trkpt lat="47.211777" lon="12.985935">
 <ele>977.43</ele>
 <time>2010-07-28T07:31:14Z</time>
 </trkpt>
 <trkpt lat="47.211262" lon="12.985891">
 <ele>977.57</ele>
 <time>2010-07-28T07:31:25Z</time>
 </trkpt>
 <trkpt lat="47.210758" lon="12.985883">
 <ele>978.61</ele>
 <time>2010-07-28T07:31:36Z</time>
 </trkpt>
 <trkpt lat="47.210239" lon="12.985956">
 <ele>979.61</ele>
 <time>2010-07-28T07:31:48Z</time>
 </trkpt>
 <trkpt lat="47.209812" lon="12.986032">
 <ele>979.88</ele>
 <time>2010-07-28T07:31:58Z</time>
 </trkpt>
 <trkpt lat="47.209465" lon="12.986113">
 <ele>980.26</ele>
 <time>2010-07-28T07:32:06Z</time>
 </trkpt>
 <trkpt lat="47.209034" lon="12.986115">
 <ele>980.34</ele>
 <time>2010-07-28T07:32:16Z</time>
 </trkpt>
 <trkpt lat="47.208584" lon="12.986040">
 <ele>981.03</ele>
 <time>2010-07-28T07:32:26Z</time>
 </trkpt>
 <trkpt lat="47.208008" lon="12.985897">
 <ele>981.13</ele>
 <time>2010-07-28T07:32:39Z</time>
 </trkpt>
 <trkpt lat="47.207432" lon="12.985753">
 <ele>981.34</ele>
 <time>2010-07-28T07:32:52Z</time>
 </trkpt>
 <trkpt lat="47.206791" lon="12.985549">
 <ele>982.24</ele>
 <time>2010-07-28T07:33:07Z</time>
 </trkpt>
 <trkpt lat="47.206417" lon="12.985319">
 <ele>982.11</ele>
 <time>2010-07-28T07:33:16Z</time>
 </trkpt>
 <trkpt lat="47.205990" lon="12.984962">
 <ele>983.06</ele>
 <time>2010-07-28T07:33:27Z</time>
 </trkpt>
 <trkpt lat="47.205597" lon="12.984589">
 <ele>984.21</ele>
 <time>2010-07-28T07:33:38Z</time>
 </trkpt>
 <trkpt lat="47.205322" lon="12.984326">
 <ele>985.02</ele>
 <time>2010-07-28T07:33:46Z</time>
 </trkpt>
 <trkpt lat="47.204899" lon="12.984054">
 <ele>986.04</ele>
 <time>2010-07-28T07:33:57Z</time>
 </trkpt>
 <trkpt lat="47.204514" lon="12.983842">
 <ele>987.31</ele>
 <time>2010-07-28T07:34:07Z</time>
 </trkpt>
 <trkpt lat="47.204227" lon="12.983632">
 <ele>988.13</ele>
 <time>2010-07-28T07:34:15Z</time>
 </trkpt>
 <trkpt lat="47.203930" lon="12.983324">
 <ele>988.94</ele>
 <time>2010-07-28T07:34:23Z</time>
 </trkpt>
 <trkpt lat="47.203598" lon="12.982859">
 <ele>989.16</ele>
 <time>2010-07-28T07:34:33Z</time>
 </trkpt>
 <trkpt lat="47.203316" lon="12.982384">
 <ele>988.97</ele>
 <time>2010-07-28T07:34:42Z</time>
 </trkpt>
 <trkpt lat="47.203011" lon="12.981890">
 <ele>988.59</ele>
 <time>2010-07-28T07:34:51Z</time>
 </trkpt>
 <trkpt lat="47.202679" lon="12.981474">
 <ele>987.96</ele>
 <time>2010-07-28T07:34:59Z</time>
 </trkpt>
 <trkpt lat="47.202202" lon="12.980898">
 <ele>987.84</ele>
 <time>2010-07-28T07:35:10Z</time>
 </trkpt>
 <trkpt lat="47.201866" lon="12.980538">
 <ele>988.44</ele>
 <time>2010-07-28T07:35:18Z</time>
 </trkpt>
 <trkpt lat="47.201443" lon="12.980067">
 <ele>988.88</ele>
 <time>2010-07-28T07:35:29Z</time>
 </trkpt>
 <trkpt lat="47.201145" lon="12.979648">
 <ele>989.51</ele>
 <time>2010-07-28T07:35:37Z</time>
 </trkpt>
 <trkpt lat="47.201084" lon="12.979510">
 <ele>989.04</ele>
 <time>2010-07-28T07:35:44Z</time>
 </trkpt>
 <trkpt lat="47.200710" lon="12.978822">
 <ele>988.64</ele>
 <time>2010-07-28T07:35:50Z</time>
 </trkpt>
 <trkpt lat="47.200634" lon="12.978695">
 <ele>987.91</ele>
 <time>2010-07-28T07:35:54Z</time>
 </trkpt>
 <trkpt lat="47.200256" lon="12.978380">
 <ele>988.27</ele>
 <time>2010-07-28T07:36:00Z</time>
 </trkpt>
 <trkpt lat="47.199665" lon="12.978129">
 <ele>988.23</ele>
 <time>2010-07-28T07:36:11Z</time>
 </trkpt>
 <trkpt lat="47.199512" lon="12.978051">
 <ele>988.29</ele>
 <time>2010-07-28T07:36:14Z</time>
 </trkpt>
 <trkpt lat="47.199280" lon="12.977845">
 <ele>988.64</ele>
 <time>2010-07-28T07:36:19Z</time>
 </trkpt>
 <trkpt lat="47.198921" lon="12.977367">
 <ele>989.19</ele>
 <time>2010-07-28T07:36:28Z</time>
 </trkpt>
 <trkpt lat="47.198627" lon="12.976825">
 <ele>990.13</ele>
 <time>2010-07-28T07:36:37Z</time>
 </trkpt>
 <trkpt lat="47.198372" lon="12.976353">
 <ele>990.37</ele>
 <time>2010-07-28T07:36:45Z</time>
 </trkpt>
 <trkpt lat="47.198063" lon="12.975819">
 <ele>991.19</ele>
 <time>2010-07-28T07:36:55Z</time>
 </trkpt>
 <trkpt lat="47.197792" lon="12.975357">
 <ele>991.97</ele>
 <time>2010-07-28T07:37:04Z</time>
 </trkpt>
 <trkpt lat="47.197639" lon="12.975103">
 <ele>992.12</ele>
 <time>2010-07-28T07:37:09Z</time>
 </trkpt>
 <trkpt lat="47.197521" lon="12.974904">
 <ele>992.26</ele>
 <time>2010-07-28T07:37:13Z</time>
 </trkpt>
 <trkpt lat="47.197224" lon="12.974618">
 <ele>993.54</ele>
 <time>2010-07-28T07:37:20Z</time>
 </trkpt>
 <trkpt lat="47.197117" lon="12.974678">
 <ele>994.05</ele>
 <time>2010-07-28T07:37:23Z</time>
 </trkpt>
 <trkpt lat="47.196915" lon="12.974820">
 <ele>994.85</ele>
 <time>2010-07-28T07:37:29Z</time>
 </trkpt>
 <trkpt lat="47.196838" lon="12.974875">
 <ele>994.34</ele>
 <time>2010-07-28T07:37:32Z</time>
 </trkpt>
 <trkpt lat="47.196838" lon="12.974875">
 <ele>993.90</ele>
 <time>2010-07-28T07:37:36Z</time>
 </trkpt>
 <trkpt lat="47.196323" lon="12.975309">
 <ele>994.85</ele>
 <time>2010-07-28T07:37:44Z</time>
 </trkpt>
 <trkpt lat="47.196053" lon="12.975526">
 <ele>995.66</ele>
 <time>2010-07-28T07:37:51Z</time>
 </trkpt>
 <trkpt lat="47.195782" lon="12.975740">
 <ele>996.22</ele>
 <time>2010-07-28T07:37:58Z</time>
 </trkpt>
 <trkpt lat="47.195374" lon="12.975957">
 <ele>996.65</ele>
 <time>2010-07-28T07:38:08Z</time>
 </trkpt>
 <trkpt lat="47.195164" lon="12.976044">
 <ele>997.08</ele>
 <time>2010-07-28T07:38:13Z</time>
 </trkpt>
 <trkpt lat="47.194855" lon="12.976138">
 <ele>997.95</ele>
 <time>2010-07-28T07:38:21Z</time>
 </trkpt>
 <trkpt lat="47.194572" lon="12.976202">
 <ele>998.52</ele>
 <time>2010-07-28T07:38:28Z</time>
 </trkpt>
 <trkpt lat="47.194252" lon="12.976274">
 <ele>998.80</ele>
 <time>2010-07-28T07:38:36Z</time>
 </trkpt>
 <trkpt lat="47.194229" lon="12.976279">
 <ele>998.92</ele>
 <time>2010-07-28T07:38:37Z</time>
 </trkpt>
 <trkpt lat="47.194160" lon="12.976232">
 <ele>998.86</ele>
 <time>2010-07-28T07:38:41Z</time>
 </trkpt>
 <trkpt lat="47.194069" lon="12.975896">
 <ele>998.78</ele>
 <time>2010-07-28T07:38:48Z</time>
 </trkpt>
 <trkpt lat="47.194008" lon="12.975664">
 <ele>999.04</ele>
 <time>2010-07-28T07:38:52Z</time>
 </trkpt>
 <trkpt lat="47.193974" lon="12.975547">
 <ele>999.27</ele>
 <time>2010-07-28T07:38:54Z</time>
 </trkpt>
 <trkpt lat="47.193859" lon="12.975120">
 <ele>999.40</ele>
 <time>2010-07-28T07:39:01Z</time>
 </trkpt>
 <trkpt lat="47.193825" lon="12.974995">
 <ele>999.54</ele>
 <time>2010-07-28T07:39:03Z</time>
 </trkpt>
 <trkpt lat="47.193653" lon="12.974543">
 <ele>999.51</ele>
 <time>2010-07-28T07:39:11Z</time>
 </trkpt>
 <trkpt lat="47.193642" lon="12.974510">
 <ele>999.61</ele>
 <time>2010-07-28T07:39:12Z</time>
 </trkpt>
 <trkpt lat="47.193592" lon="12.974473">
 <ele>999.62</ele>
 <time>2010-07-28T07:39:14Z</time>
 </trkpt>
 <trkpt lat="47.193447" lon="12.974360">
 <ele>999.89</ele>
 <time>2010-07-28T07:39:19Z</time>
 </trkpt>
 <trkpt lat="47.193398" lon="12.974360">
 <ele>999.87</ele>
 <time>2010-07-28T07:39:21Z</time>
 </trkpt>
 <trkpt lat="47.193119" lon="12.974390">
 <ele>999.24</ele>
 <time>2010-07-28T07:39:28Z</time>
 </trkpt>
 <trkpt lat="47.192772" lon="12.974612">
 <ele>999.46</ele>
 <time>2010-07-28T07:39:37Z</time>
 </trkpt>
 <trkpt lat="47.192425" lon="12.974831">
 <ele>999.89</ele>
 <time>2010-07-28T07:39:46Z</time>
 </trkpt>
 <trkpt lat="47.192173" lon="12.975108">
 <ele>1000.17</ele>
 <time>2010-07-28T07:39:53Z</time>
 </trkpt>
 <trkpt lat="47.192116" lon="12.975390">
 <ele>1000.87</ele>
 <time>2010-07-28T07:40:02Z</time>
 </trkpt>
 <trkpt lat="47.191559" lon="12.975701">
 <ele>1001.24</ele>
 <time>2010-07-28T07:40:10Z</time>
 </trkpt>
 <trkpt lat="47.192048" lon="12.975298">
 <ele>1002.07</ele>
 <time>2010-07-28T07:40:18Z</time>
 </trkpt>
 <trkpt lat="47.190926" lon="12.975933">
 <ele>1003.68</ele>
 <time>2010-07-28T07:40:28Z</time>
 </trkpt>
 <trkpt lat="47.190697" lon="12.975929">
 <ele>1005.21</ele>
 <time>2010-07-28T07:40:36Z</time>
 </trkpt>
 <trkpt lat="47.190449" lon="12.975825">
 <ele>1005.43</ele>
 <time>2010-07-28T07:40:44Z</time>
 </trkpt>
 <trkpt lat="47.190132" lon="12.975676">
 <ele>1005.82</ele>
 <time>2010-07-28T07:40:54Z</time>
 </trkpt>
 <trkpt lat="47.189911" lon="12.975627">
 <ele>1006.16</ele>
 <time>2010-07-28T07:41:01Z</time>
 </trkpt>
 <trkpt lat="47.189621" lon="12.975552">
 <ele>1006.88</ele>
 <time>2010-07-28T07:41:10Z</time>
 </trkpt>
 <trkpt lat="47.189423" lon="12.975500">
 <ele>1008.01</ele>
 <time>2010-07-28T07:41:17Z</time>
 </trkpt>
 <trkpt lat="47.189213" lon="12.975498">
 <ele>1009.22</ele>
 <time>2010-07-28T07:41:26Z</time>
 </trkpt>
 <trkpt lat="47.189034" lon="12.975515">
 <ele>1010.86</ele>
 <time>2010-07-28T07:41:34Z</time>
 </trkpt>
 <trkpt lat="47.188835" lon="12.975571">
 <ele>1013.02</ele>
 <time>2010-07-28T07:41:44Z</time>
 </trkpt>
 <trkpt lat="47.188667" lon="12.975613">
 <ele>1015.19</ele>
 <time>2010-07-28T07:41:53Z</time>
 </trkpt>
 <trkpt lat="47.188522" lon="12.975662">
 <ele>1017.38</ele>
 <time>2010-07-28T07:42:02Z</time>
 </trkpt>
 <trkpt lat="47.188324" lon="12.975734">
 <ele>1019.45</ele>
 <time>2010-07-28T07:42:13Z</time>
 </trkpt>
 <trkpt lat="47.188210" lon="12.975769">
 <ele>1021.04</ele>
 <time>2010-07-28T07:42:20Z</time>
 </trkpt>
 <trkpt lat="47.188141" lon="12.975811">
 <ele>1021.91</ele>
 <time>2010-07-28T07:42:24Z</time>
 </trkpt>
 <trkpt lat="47.187973" lon="12.975813">
 <ele>1023.08</ele>
 <time>2010-07-28T07:42:33Z</time>
 </trkpt>
 <trkpt lat="47.187836" lon="12.975782">
 <ele>1024.28</ele>
 <time>2010-07-28T07:42:41Z</time>
 </trkpt>
 <trkpt lat="47.187729" lon="12.975761">
 <ele>1025.95</ele>
 <time>2010-07-28T07:42:48Z</time>
 </trkpt>
 <trkpt lat="47.187603" lon="12.975836">
 <ele>1028.40</ele>
 <time>2010-07-28T07:42:57Z</time>
 </trkpt>
 <trkpt lat="47.187504" lon="12.975934">
 <ele>1030.64</ele>
 <time>2010-07-28T07:43:05Z</time>
 </trkpt>
 <trkpt lat="47.187374" lon="12.975984">
 <ele>1032.74</ele>
 <time>2010-07-28T07:43:14Z</time>
 </trkpt>
 <trkpt lat="47.187252" lon="12.975984">
 <ele>1033.51</ele>
 <time>2010-07-28T07:43:22Z</time>
 </trkpt>
 <trkpt lat="47.187092" lon="12.975972">
 <ele>1034.54</ele>
 <time>2010-07-28T07:43:32Z</time>
 </trkpt>
 <trkpt lat="47.186939" lon="12.975900">
 <ele>1036.19</ele>
 <time>2010-07-28T07:43:43Z</time>
 </trkpt>
 <trkpt lat="47.186832" lon="12.975838">
 <ele>1037.52</ele>
 <time>2010-07-28T07:43:51Z</time>
 </trkpt>
 <trkpt lat="47.186783" lon="12.975796">
 <ele>1038.50</ele>
 <time>2010-07-28T07:43:55Z</time>
 </trkpt>
 <trkpt lat="47.186657" lon="12.975721">
 <ele>1040.38</ele>
 <time>2010-07-28T07:44:04Z</time>
 </trkpt>
 <trkpt lat="47.186565" lon="12.975672">
 <ele>1041.74</ele>
 <time>2010-07-28T07:44:11Z</time>
 </trkpt>
 <trkpt lat="47.186413" lon="12.975725">
 <ele>1043.73</ele>
 <time>2010-07-28T07:44:22Z</time>
 </trkpt>
 <trkpt lat="47.186317" lon="12.975825">
 <ele>1045.39</ele>
 <time>2010-07-28T07:44:31Z</time>
 </trkpt>
 <trkpt lat="47.186222" lon="12.975932">
 <ele>1047.31</ele>
 <time>2010-07-28T07:44:39Z</time>
 </trkpt>
 <trkpt lat="47.186100" lon="12.975945">
 <ele>1048.57</ele>
 <time>2010-07-28T07:44:47Z</time>
 </trkpt>
 <trkpt lat="47.185997" lon="12.975812">
 <ele>1048.46</ele>
 <time>2010-07-28T07:44:54Z</time>
 </trkpt>
 <trkpt lat="47.185947" lon="12.975618">
 <ele>1047.91</ele>
 <time>2010-07-28T07:44:59Z</time>
 </trkpt>
 <trkpt lat="47.185940" lon="12.975447">
 <ele>1047.36</ele>
 <time>2010-07-28T07:45:02Z</time>
 </trkpt>
 <trkpt lat="47.185883" lon="12.975245">
 <ele>1047.03</ele>
 <time>2010-07-28T07:45:05Z</time>
 </trkpt>
 <trkpt lat="47.185722" lon="12.974974">
 <ele>1045.33</ele>
 <time>2010-07-28T07:45:10Z</time>
 </trkpt>
 <trkpt lat="47.185646" lon="12.974884">
 <ele>1044.60</ele>
 <time>2010-07-28T07:45:12Z</time>
 </trkpt>
 <trkpt lat="47.185608" lon="12.974844">
 <ele>1044.21</ele>
 <time>2010-07-28T07:45:13Z</time>
 </trkpt>
 <trkpt lat="47.185440" lon="12.974715">
 <ele>1043.21</ele>
 <time>2010-07-28T07:45:17Z</time>
 </trkpt>
 <trkpt lat="47.185364" lon="12.974656">
 <ele>1043.08</ele>
 <time>2010-07-28T07:45:19Z</time>
 </trkpt>
 <trkpt lat="47.185028" lon="12.974543">
 <ele>1042.93</ele>
 <time>2010-07-28T07:45:27Z</time>
 </trkpt>
 <trkpt lat="47.184799" lon="12.974442">
 <ele>1043.79</ele>
 <time>2010-07-28T07:45:34Z</time>
 </trkpt>
 <trkpt lat="47.184555" lon="12.974324">
 <ele>1044.95</ele>
 <time>2010-07-28T07:45:42Z</time>
 </trkpt>
 <trkpt lat="47.184387" lon="12.974150">
 <ele>1047.26</ele>
 <time>2010-07-28T07:45:50Z</time>
 </trkpt>
 <trkpt lat="47.184227" lon="12.973957">
 <ele>1048.72</ele>
 <time>2010-07-28T07:45:58Z</time>
 </trkpt>
 <trkpt lat="47.184048" lon="12.973786">
 <ele>1048.29</ele>
 <time>2010-07-28T07:46:04Z</time>
 </trkpt>
 <trkpt lat="47.183861" lon="12.973633">
 <ele>1047.92</ele>
 <time>2010-07-28T07:46:10Z</time>
 </trkpt>
 <trkpt lat="47.183674" lon="12.973387">
 <ele>1044.96</ele>
 <time>2010-07-28T07:46:16Z</time>
 </trkpt>
 <trkpt lat="47.183586" lon="12.973286">
 <ele>1044.17</ele>
 <time>2010-07-28T07:46:18Z</time>
 </trkpt>
 <trkpt lat="47.183388" lon="12.973134">
 <ele>1044.16</ele>
 <time>2010-07-28T07:46:23Z</time>
 </trkpt>
 <trkpt lat="47.183205" lon="12.972963">
 <ele>1045.36</ele>
 <time>2010-07-28T07:46:30Z</time>
 </trkpt>
 <trkpt lat="47.183048" lon="12.972864">
 <ele>1047.30</ele>
 <time>2010-07-28T07:46:37Z</time>
 </trkpt>
 <trkpt lat="47.182869" lon="12.972783">
 <ele>1048.97</ele>
 <time>2010-07-28T07:46:45Z</time>
 </trkpt>
 <trkpt lat="47.182709" lon="12.972647">
 <ele>1051.17</ele>
 <time>2010-07-28T07:46:53Z</time>
 </trkpt>
 <trkpt lat="47.182587" lon="12.972526">
 <ele>1050.88</ele>
 <time>2010-07-28T07:46:58Z</time>
 </trkpt>
 <trkpt lat="47.182339" lon="12.972271">
 <ele>1049.84</ele>
 <time>2010-07-28T07:47:06Z</time>
 </trkpt>
 <trkpt lat="47.182076" lon="12.972081">
 <ele>1048.18</ele>
 <time>2010-07-28T07:47:12Z</time>
 </trkpt>
 <trkpt lat="47.181896" lon="12.971956">
 <ele>1048.30</ele>
 <time>2010-07-28T07:47:17Z</time>
 </trkpt>
 <trkpt lat="47.181622" lon="12.971683">
 <ele>1049.44</ele>
 <time>2010-07-28T07:47:27Z</time>
 </trkpt>
 <trkpt lat="47.181351" lon="12.971404">
 <ele>1050.10</ele>
 <time>2010-07-28T07:47:37Z</time>
 </trkpt>
 <trkpt lat="47.181145" lon="12.971285">
 <ele>1051.29</ele>
 <time>2010-07-28T07:47:44Z</time>
 </trkpt>
 <trkpt lat="47.180916" lon="12.971127">
 <ele>1050.98</ele>
 <time>2010-07-28T07:47:50Z</time>
 </trkpt>
 <trkpt lat="47.180622" lon="12.970798">
 <ele>1049.50</ele>
 <time>2010-07-28T07:47:57Z</time>
 </trkpt>
 <trkpt lat="47.180351" lon="12.970428">
 <ele>1049.47</ele>
 <time>2010-07-28T07:48:05Z</time>
 </trkpt>
 <trkpt lat="47.180202" lon="12.970278">
 <ele>1049.97</ele>
 <time>2010-07-28T07:48:09Z</time>
 </trkpt>
 <trkpt lat="47.179863" lon="12.969988">
 <ele>1050.64</ele>
 <time>2010-07-28T07:48:18Z</time>
 </trkpt>
 <trkpt lat="47.179573" lon="12.969825">
 <ele>1052.34</ele>
 <time>2010-07-28T07:48:26Z</time>
 </trkpt>
 <trkpt lat="47.179295" lon="12.969812">
 <ele>1054.13</ele>
 <time>2010-07-28T07:48:34Z</time>
 </trkpt>
 <trkpt lat="47.179096" lon="12.969792">
 <ele>1055.49</ele>
 <time>2010-07-28T07:48:40Z</time>
 </trkpt>
 <trkpt lat="47.178844" lon="12.969686">
 <ele>1055.59</ele>
 <time>2010-07-28T07:48:47Z</time>
 </trkpt>
 <trkpt lat="47.178608" lon="12.969496">
 <ele>1055.33</ele>
 <time>2010-07-28T07:48:54Z</time>
 </trkpt>
 <trkpt lat="47.178413" lon="12.969192">
 <ele>1055.47</ele>
 <time>2010-07-28T07:49:02Z</time>
 </trkpt>
 <trkpt lat="47.178280" lon="12.968854">
 <ele>1057.38</ele>
 <time>2010-07-28T07:49:10Z</time>
 </trkpt>
 <trkpt lat="47.178120" lon="12.968555">
 <ele>1058.26</ele>
 <time>2010-07-28T07:49:18Z</time>
 </trkpt>
 <trkpt lat="47.177914" lon="12.968356">
 <ele>1058.66</ele>
 <time>2010-07-28T07:49:25Z</time>
 </trkpt>
 <trkpt lat="47.177670" lon="12.968116">
 <ele>1058.82</ele>
 <time>2010-07-28T07:49:33Z</time>
 </trkpt>
 <trkpt lat="47.177418" lon="12.967985">
 <ele>1059.35</ele>
 <time>2010-07-28T07:49:40Z</time>
 </trkpt>
 <trkpt lat="47.177200" lon="12.967895">
 <ele>1060.12</ele>
 <time>2010-07-28T07:49:47Z</time>
 </trkpt>
 <trkpt lat="47.177021" lon="12.967772">
 <ele>1059.35</ele>
 <time>2010-07-28T07:49:52Z</time>
 </trkpt>
 <trkpt lat="47.176983" lon="12.967743">
 <ele>1059.16</ele>
 <time>2010-07-28T07:49:53Z</time>
 </trkpt>
 <trkpt lat="47.176548" lon="12.967570">
 <ele>1059.17</ele>
 <time>2010-07-28T07:50:04Z</time>
 </trkpt>
 <trkpt lat="47.176243" lon="12.967432">
 <ele>1059.57</ele>
 <time>2010-07-28T07:50:12Z</time>
 </trkpt>
 <trkpt lat="47.176205" lon="12.967417">
 <ele>1059.56</ele>
 <time>2010-07-28T07:50:13Z</time>
 </trkpt>
 <trkpt lat="47.175869" lon="12.967252">
 <ele>1058.49</ele>
 <time>2010-07-28T07:50:21Z</time>
 </trkpt>
 <trkpt lat="47.175831" lon="12.967236">
 <ele>1058.52</ele>
 <time>2010-07-28T07:50:22Z</time>
 </trkpt>
 <trkpt lat="47.175529" lon="12.967228">
 <ele>1059.44</ele>
 <time>2010-07-28T07:50:30Z</time>
 </trkpt>
 <trkpt lat="47.175308" lon="12.967284">
 <ele>1061.79</ele>
 <time>2010-07-28T07:50:38Z</time>
 </trkpt>
 <trkpt lat="47.175156" lon="12.967268">
 <ele>1063.23</ele>
 <time>2010-07-28T07:50:44Z</time>
 </trkpt>
 <trkpt lat="47.175034" lon="12.967191">
 <ele>1063.02</ele>
 <time>2010-07-28T07:50:48Z</time>
 </trkpt>
 <trkpt lat="47.174873" lon="12.966979">
 <ele>1061.57</ele>
 <time>2010-07-28T07:50:53Z</time>
 </trkpt>
 <trkpt lat="47.174660" lon="12.966792">
 <ele>1061.41</ele>
 <time>2010-07-28T07:50:59Z</time>
 </trkpt>
 <trkpt lat="47.174530" lon="12.966797">
 <ele>1061.50</ele>
 <time>2010-07-28T07:51:02Z</time>
 </trkpt>
 <trkpt lat="47.174183" lon="12.966947">
 <ele>1062.61</ele>
 <time>2010-07-28T07:51:11Z</time>
 </trkpt>
 <trkpt lat="47.173851" lon="12.967021">
 <ele>1064.58</ele>
 <time>2010-07-28T07:51:21Z</time>
 </trkpt>
 <trkpt lat="47.173550" lon="12.967001">
 <ele>1065.79</ele>
 <time>2010-07-28T07:51:31Z</time>
 </trkpt>
 <trkpt lat="47.173306" lon="12.966948">
 <ele>1067.13</ele>
 <time>2010-07-28T07:51:39Z</time>
 </trkpt>
 <trkpt lat="47.173054" lon="12.966880">
 <ele>1067.36</ele>
 <time>2010-07-28T07:51:47Z</time>
 </trkpt>
 <trkpt lat="47.172718" lon="12.966786">
 <ele>1068.31</ele>
 <time>2010-07-28T07:51:57Z</time>
 </trkpt>
 <trkpt lat="47.172489" lon="12.966777">
 <ele>1069.59</ele>
 <time>2010-07-28T07:52:05Z</time>
 </trkpt>
 <trkpt lat="47.172298" lon="12.966800">
 <ele>1070.52</ele>
 <time>2010-07-28T07:52:12Z</time>
 </trkpt>
 <trkpt lat="47.172050" lon="12.966845">
 <ele>1073.32</ele>
 <time>2010-07-28T07:52:23Z</time>
 </trkpt>
 <trkpt lat="47.171875" lon="12.966868">
 <ele>1074.91</ele>
 <time>2010-07-28T07:52:31Z</time>
 </trkpt>
 <trkpt lat="47.171658" lon="12.966853">
 <ele>1075.73</ele>
 <time>2010-07-28T07:52:41Z</time>
 </trkpt>
 <trkpt lat="47.171459" lon="12.966753">
 <ele>1077.36</ele>
 <time>2010-07-28T07:52:51Z</time>
 </trkpt>
 <trkpt lat="47.171303" lon="12.966588">
 <ele>1078.06</ele>
 <time>2010-07-28T07:53:00Z</time>
 </trkpt>
 <trkpt lat="47.171173" lon="12.966422">
 <ele>1078.79</ele>
 <time>2010-07-28T07:53:08Z</time>
 </trkpt>
 <trkpt lat="47.170967" lon="12.966274">
 <ele>1079.51</ele>
 <time>2010-07-28T07:53:18Z</time>
 </trkpt>
 <trkpt lat="47.170742" lon="12.966203">
 <ele>1080.84</ele>
 <time>2010-07-28T07:53:28Z</time>
 </trkpt>
 <trkpt lat="47.170582" lon="12.966129">
 <ele>1082.09</ele>
 <time>2010-07-28T07:53:36Z</time>
 </trkpt>
 <trkpt lat="47.170406" lon="12.966012">
 <ele>1083.56</ele>
 <time>2010-07-28T07:53:46Z</time>
 </trkpt>
 <trkpt lat="47.170246" lon="12.965915">
 <ele>1085.73</ele>
 <time>2010-07-28T07:53:55Z</time>
 </trkpt>
 <trkpt lat="47.170040" lon="12.965870">
 <ele>1087.48</ele>
 <time>2010-07-28T07:54:05Z</time>
 </trkpt>
 <trkpt lat="47.169762" lon="12.965834">
 <ele>1089.39</ele>
 <time>2010-07-28T07:54:19Z</time>
 </trkpt>
 <trkpt lat="47.169594" lon="12.965787">
 <ele>1091.00</ele>
 <time>2010-07-28T07:54:28Z</time>
 </trkpt>
 <trkpt lat="47.169411" lon="12.965752">
 <ele>1093.17</ele>
 <time>2010-07-28T07:54:39Z</time>
 </trkpt>
 <trkpt lat="47.169304" lon="12.965748">
 <ele>1094.60</ele>
 <time>2010-07-28T07:54:46Z</time>
 </trkpt>
 <trkpt lat="47.169159" lon="12.965849">
 <ele>1096.34</ele>
 <time>2010-07-28T07:54:56Z</time>
 </trkpt>
 <trkpt lat="47.169067" lon="12.966009">
 <ele>1098.50</ele>
 <time>2010-07-28T07:55:05Z</time>
 </trkpt>
 <trkpt lat="47.168953" lon="12.966119">
 <ele>1100.76</ele>
 <time>2010-07-28T07:55:14Z</time>
 </trkpt>
 <trkpt lat="47.168816" lon="12.966170">
 <ele>1103.06</ele>
 <time>2010-07-28T07:55:24Z</time>
 </trkpt>
 <trkpt lat="47.168701" lon="12.966180">
 <ele>1104.43</ele>
 <time>2010-07-28T07:55:32Z</time>
 </trkpt>
 <trkpt lat="47.168579" lon="12.966174">
 <ele>1105.73</ele>
 <time>2010-07-28T07:55:40Z</time>
 </trkpt>
 <trkpt lat="47.168446" lon="12.966150">
 <ele>1107.20</ele>
 <time>2010-07-28T07:55:49Z</time>
 </trkpt>
 <trkpt lat="47.168324" lon="12.966171">
 <ele>1106.96</ele>
 <time>2010-07-28T07:55:54Z</time>
 </trkpt>
 <trkpt lat="47.168175" lon="12.966162">
 <ele>1106.65</ele>
 <time>2010-07-28T07:56:00Z</time>
 </trkpt>
 <trkpt lat="47.167973" lon="12.966140">
 <ele>1107.00</ele>
 <time>2010-07-28T07:56:08Z</time>
 </trkpt>
 <trkpt lat="47.167793" lon="12.966088">
 <ele>1106.41</ele>
 <time>2010-07-28T07:56:14Z</time>
 </trkpt>
 <trkpt lat="47.167477" lon="12.965991">
 <ele>1105.03</ele>
 <time>2010-07-28T07:56:21Z</time>
 </trkpt>
 <trkpt lat="47.167328" lon="12.965952">
 <ele>1105.89</ele>
 <time>2010-07-28T07:56:26Z</time>
 </trkpt>
 <trkpt lat="47.167171" lon="12.965917">
 <ele>1106.21</ele>
 <time>2010-07-28T07:56:31Z</time>
 </trkpt>
 <trkpt lat="47.166954" lon="12.965874">
 <ele>1103.60</ele>
 <time>2010-07-28T07:56:35Z</time>
 </trkpt>
 <trkpt lat="47.166698" lon="12.965832">
 <ele>1101.07</ele>
 <time>2010-07-28T07:56:39Z</time>
 </trkpt>
 <trkpt lat="47.166519" lon="12.965856">
 <ele>1103.48</ele>
 <time>2010-07-28T07:56:44Z</time>
 </trkpt>
 <trkpt lat="47.166470" lon="12.965867">
 <ele>1104.26</ele>
 <time>2010-07-28T07:56:46Z</time>
 </trkpt>
 <trkpt lat="47.166218" lon="12.965917">
 <ele>1105.47</ele>
 <time>2010-07-28T07:56:56Z</time>
 </trkpt>
 <trkpt lat="47.166046" lon="12.965957">
 <ele>1107.21</ele>
 <time>2010-07-28T07:57:04Z</time>
 </trkpt>
 <trkpt lat="47.165844" lon="12.966006">
 <ele>1109.57</ele>
 <time>2010-07-28T07:57:14Z</time>
 </trkpt>
 <trkpt lat="47.165691" lon="12.966047">
 <ele>1112.11</ele>
 <time>2010-07-28T07:57:22Z</time>
 </trkpt>
 <trkpt lat="47.165516" lon="12.966099">
 <ele>1115.17</ele>
 <time>2010-07-28T07:57:31Z</time>
 </trkpt>
 <trkpt lat="47.165325" lon="12.966198">
 <ele>1116.99</ele>
 <time>2010-07-28T07:57:41Z</time>
 </trkpt>
 <trkpt lat="47.165211" lon="12.966252">
 <ele>1117.54</ele>
 <time>2010-07-28T07:57:47Z</time>
 </trkpt>
 <trkpt lat="47.165031" lon="12.966277">
 <ele>1117.71</ele>
 <time>2010-07-28T07:57:54Z</time>
 </trkpt>
 <trkpt lat="47.164719" lon="12.966330">
 <ele>1116.74</ele>
 <time>2010-07-28T07:58:04Z</time>
 </trkpt>
 <trkpt lat="47.164490" lon="12.966379">
 <ele>1117.30</ele>
 <time>2010-07-28T07:58:13Z</time>
 </trkpt>
 <trkpt lat="47.164307" lon="12.966427">
 <ele>1117.53</ele>
 <time>2010-07-28T07:58:21Z</time>
 </trkpt>
 <trkpt lat="47.164143" lon="12.966430">
 <ele>1118.89</ele>
 <time>2010-07-28T07:58:28Z</time>
 </trkpt>
 <trkpt lat="47.163940" lon="12.966363">
 <ele>1118.38</ele>
 <time>2010-07-28T07:58:35Z</time>
 </trkpt>
 <trkpt lat="47.163731" lon="12.966262">
 <ele>1118.96</ele>
 <time>2010-07-28T07:58:43Z</time>
 </trkpt>
 <trkpt lat="47.163540" lon="12.966263">
 <ele>1120.07</ele>
 <time>2010-07-28T07:58:51Z</time>
 </trkpt>
 <trkpt lat="47.163342" lon="12.966261">
 <ele>1121.59</ele>
 <time>2010-07-28T07:59:00Z</time>
 </trkpt>
 <trkpt lat="47.163177" lon="12.966241">
 <ele>1123.36</ele>
 <time>2010-07-28T07:59:08Z</time>
 </trkpt>
 <trkpt lat="47.163055" lon="12.966201">
 <ele>1124.00</ele>
 <time>2010-07-28T07:59:14Z</time>
 </trkpt>
 <trkpt lat="47.162945" lon="12.966267">
 <ele>1122.46</ele>
 <time>2010-07-28T07:59:19Z</time>
 </trkpt>
 <trkpt lat="47.162872" lon="12.966475">
 <ele>1121.21</ele>
 <time>2010-07-28T07:59:24Z</time>
 </trkpt>
 <trkpt lat="47.162785" lon="12.966726">
 <ele>1119.69</ele>
 <time>2010-07-28T07:59:30Z</time>
 </trkpt>
 <trkpt lat="47.162666" lon="12.966771">
 <ele>1119.44</ele>
 <time>2010-07-28T07:59:34Z</time>
 </trkpt>
 <trkpt lat="47.162571" lon="12.966711">
 <ele>1118.49</ele>
 <time>2010-07-28T07:59:38Z</time>
 </trkpt>
 <trkpt lat="47.162506" lon="12.966671">
 <ele>1117.80</ele>
 <time>2010-07-28T07:59:42Z</time>
 </trkpt>
 <trkpt lat="47.162384" lon="12.966679">
 <ele>1117.02</ele>
 <time>2010-07-28T07:59:47Z</time>
 </trkpt>
 <trkpt lat="47.162304" lon="12.966758">
 <ele>1115.94</ele>
 <time>2010-07-28T07:59:50Z</time>
 </trkpt>
 <trkpt lat="47.162003" lon="12.967013">
 <ele>1113.68</ele>
 <time>2010-07-28T07:59:58Z</time>
 </trkpt>
 <trkpt lat="47.161777" lon="12.967191">
 <ele>1111.67</ele>
 <time>2010-07-28T08:00:02Z</time>
 </trkpt>
 <trkpt lat="47.161453" lon="12.967439">
 <ele>1110.66</ele>
 <time>2010-07-28T08:00:08Z</time>
 </trkpt>
 <trkpt lat="47.161343" lon="12.967607">
 <ele>1111.83</ele>
 <time>2010-07-28T08:00:12Z</time>
 </trkpt>
 <trkpt lat="47.161240" lon="12.967857">
 <ele>1113.47</ele>
 <time>2010-07-28T08:00:18Z</time>
 </trkpt>
 <trkpt lat="47.161179" lon="12.967916">
 <ele>1113.24</ele>
 <time>2010-07-28T08:00:20Z</time>
 </trkpt>
 <trkpt lat="47.161098" lon="12.967964">
 <ele>1112.44</ele>
 <time>2010-07-28T08:00:22Z</time>
 </trkpt>
 <trkpt lat="47.160736" lon="12.967997">
 <ele>1110.45</ele>
 <time>2010-07-28T08:00:29Z</time>
 </trkpt>
 <trkpt lat="47.160454" lon="12.967920">
 <ele>1109.99</ele>
 <time>2010-07-28T08:00:35Z</time>
 </trkpt>
 <trkpt lat="47.160069" lon="12.967808">
 <ele>1107.48</ele>
 <time>2010-07-28T08:00:43Z</time>
 </trkpt>
 <trkpt lat="47.159756" lon="12.967685">
 <ele>1105.62</ele>
 <time>2010-07-28T08:00:49Z</time>
 </trkpt>
 <trkpt lat="47.159645" lon="12.967669">
 <ele>1105.19</ele>
 <time>2010-07-28T08:00:51Z</time>
 </trkpt>
 <trkpt lat="47.159389" lon="12.967726">
 <ele>1105.55</ele>
 <time>2010-07-28T08:00:57Z</time>
 </trkpt>
 <trkpt lat="47.159164" lon="12.967757">
 <ele>1107.20</ele>
 <time>2010-07-28T08:01:05Z</time>
 </trkpt>
 <trkpt lat="47.158928" lon="12.967666">
 <ele>1108.76</ele>
 <time>2010-07-28T08:01:14Z</time>
 </trkpt>
 <trkpt lat="47.158775" lon="12.967561">
 <ele>1110.61</ele>
 <time>2010-07-28T08:01:21Z</time>
 </trkpt>
 <trkpt lat="47.158672" lon="12.967457">
 <ele>1111.90</ele>
 <time>2010-07-28T08:01:27Z</time>
 </trkpt>
 <trkpt lat="47.158592" lon="12.967370">
 <ele>1113.39</ele>
 <time>2010-07-28T08:01:32Z</time>
 </trkpt>
 <trkpt lat="47.158466" lon="12.967273">
 <ele>1114.90</ele>
 <time>2010-07-28T08:01:39Z</time>
 </trkpt>
 <trkpt lat="47.158306" lon="12.967274">
 <ele>1116.56</ele>
 <time>2010-07-28T08:01:47Z</time>
 </trkpt>
 <trkpt lat="47.158104" lon="12.967303">
 <ele>1117.48</ele>
 <time>2010-07-28T08:01:56Z</time>
 </trkpt>
 <trkpt lat="47.157890" lon="12.967278">
 <ele>1118.78</ele>
 <time>2010-07-28T08:02:05Z</time>
 </trkpt>
 <trkpt lat="47.157730" lon="12.967215">
 <ele>1119.77</ele>
 <time>2010-07-28T08:02:13Z</time>
 </trkpt>
 <trkpt lat="47.157558" lon="12.967140">
 <ele>1119.89</ele>
 <time>2010-07-28T08:02:20Z</time>
 </trkpt>
 <trkpt lat="47.157314" lon="12.967053">
 <ele>1119.18</ele>
 <time>2010-07-28T08:02:28Z</time>
 </trkpt>
 <trkpt lat="47.157249" lon="12.967062">
 <ele>1119.07</ele>
 <time>2010-07-28T08:02:30Z</time>
 </trkpt>
 <trkpt lat="47.156979" lon="12.967227">
 <ele>1118.01</ele>
 <time>2010-07-28T08:02:37Z</time>
 </trkpt>
 <trkpt lat="47.156780" lon="12.967389">
 <ele>1117.50</ele>
 <time>2010-07-28T08:02:42Z</time>
 </trkpt>
 <trkpt lat="47.156544" lon="12.967511">
 <ele>1115.94</ele>
 <time>2010-07-28T08:02:48Z</time>
 </trkpt>
 <trkpt lat="47.156307" lon="12.967639">
 <ele>1114.93</ele>
 <time>2010-07-28T08:02:54Z</time>
 </trkpt>
 <trkpt lat="47.156162" lon="12.967747">
 <ele>1114.22</ele>
 <time>2010-07-28T08:02:58Z</time>
 </trkpt>
 <trkpt lat="47.155941" lon="12.967915">
 <ele>1112.71</ele>
 <time>2010-07-28T08:03:04Z</time>
 </trkpt>
 <trkpt lat="47.155537" lon="12.968069">
 <ele>1112.54</ele>
 <time>2010-07-28T08:03:13Z</time>
 </trkpt>
 <trkpt lat="47.155224" lon="12.968101">
 <ele>1112.54</ele>
 <time>2010-07-28T08:03:21Z</time>
 </trkpt>
 <trkpt lat="47.154961" lon="12.968179">
 <ele>1112.47</ele>
 <time>2010-07-28T08:03:28Z</time>
 </trkpt>
 <trkpt lat="47.154743" lon="12.968320">
 <ele>1111.77</ele>
 <time>2010-07-28T08:03:35Z</time>
 </trkpt>
 <trkpt lat="47.154572" lon="12.968493">
 <ele>1110.92</ele>
 <time>2010-07-28T08:03:42Z</time>
 </trkpt>
 <trkpt lat="47.154430" lon="12.968683">
 <ele>1109.65</ele>
 <time>2010-07-28T08:03:47Z</time>
 </trkpt>
 <trkpt lat="47.154369" lon="12.968841">
 <ele>1109.15</ele>
 <time>2010-07-28T08:03:50Z</time>
 </trkpt>
 <trkpt lat="47.154243" lon="12.969015">
 <ele>1108.39</ele>
 <time>2010-07-28T08:03:54Z</time>
 </trkpt>
 <trkpt lat="47.153912" lon="12.969234">
 <ele>1106.65</ele>
 <time>2010-07-28T08:04:01Z</time>
 </trkpt>
 <trkpt lat="47.153687" lon="12.969393">
 <ele>1106.15</ele>
 <time>2010-07-28T08:04:06Z</time>
 </trkpt>
 <trkpt lat="47.153393" lon="12.969458">
 <ele>1106.43</ele>
 <time>2010-07-28T08:04:13Z</time>
 </trkpt>
 <trkpt lat="47.153309" lon="12.969479">
 <ele>1107.29</ele>
 <time>2010-07-28T08:04:17Z</time>
 </trkpt>
 <trkpt lat="47.153179" lon="12.969517">
 <ele>1107.30</ele>
 <time>2010-07-28T08:04:21Z</time>
 </trkpt>
 <trkpt lat="47.152901" lon="12.969609">
 <ele>1107.52</ele>
 <time>2010-07-28T08:04:28Z</time>
 </trkpt>
 <trkpt lat="47.152569" lon="12.969702">
 <ele>1108.15</ele>
 <time>2010-07-28T08:04:36Z</time>
 </trkpt>
 <trkpt lat="47.152142" lon="12.969753">
 <ele>1107.47</ele>
 <time>2010-07-28T08:04:45Z</time>
 </trkpt>
 <trkpt lat="47.151653" lon="12.969787">
 <ele>1107.84</ele>
 <time>2010-07-28T08:04:55Z</time>
 </trkpt>
 <trkpt lat="47.151234" lon="12.969727">
 <ele>1108.56</ele>
 <time>2010-07-28T08:05:04Z</time>
 </trkpt>
 <trkpt lat="47.150810" lon="12.969704">
 <ele>1109.00</ele>
 <time>2010-07-28T08:05:13Z</time>
 </trkpt>
 <trkpt lat="47.150387" lon="12.969757">
 <ele>1109.19</ele>
 <time>2010-07-28T08:05:22Z</time>
 </trkpt>
 <trkpt lat="47.150204" lon="12.969823">
 <ele>1109.56</ele>
 <time>2010-07-28T08:05:26Z</time>
 </trkpt>
 <trkpt lat="47.150009" lon="12.969889">
 <ele>1109.79</ele>
 <time>2010-07-28T08:05:31Z</time>
 </trkpt>
 <trkpt lat="47.149876" lon="12.969944">
 <ele>1110.08</ele>
 <time>2010-07-28T08:05:36Z</time>
 </trkpt>
 <trkpt lat="47.149719" lon="12.970012">
 <ele>1109.96</ele>
 <time>2010-07-28T08:05:40Z</time>
 </trkpt>
 <trkpt lat="47.149395" lon="12.970159">
 <ele>1110.51</ele>
 <time>2010-07-28T08:05:48Z</time>
 </trkpt>
 <trkpt lat="47.149025" lon="12.970384">
 <ele>1111.03</ele>
 <time>2010-07-28T08:05:57Z</time>
 </trkpt>
 <trkpt lat="47.148697" lon="12.970586">
 <ele>1111.19</ele>
 <time>2010-07-28T08:06:05Z</time>
 </trkpt>
 <trkpt lat="47.148289" lon="12.970788">
 <ele>1112.14</ele>
 <time>2010-07-28T08:06:15Z</time>
 </trkpt>
 <trkpt lat="47.147945" lon="12.970835">
 <ele>1112.81</ele>
 <time>2010-07-28T08:06:23Z</time>
 </trkpt>
 <trkpt lat="47.147629" lon="12.970907">
 <ele>1113.97</ele>
 <time>2010-07-28T08:06:31Z</time>
 </trkpt>
 <trkpt lat="47.147400" lon="12.971034">
 <ele>1115.94</ele>
 <time>2010-07-28T08:06:39Z</time>
 </trkpt>
 <trkpt lat="47.147167" lon="12.971150">
 <ele>1117.34</ele>
 <time>2010-07-28T08:06:47Z</time>
 </trkpt>
 <trkpt lat="47.146889" lon="12.971292">
 <ele>1119.12</ele>
 <time>2010-07-28T08:06:57Z</time>
 </trkpt>
 <trkpt lat="47.146652" lon="12.971360">
 <ele>1120.62</ele>
 <time>2010-07-28T08:07:05Z</time>
 </trkpt>
 <trkpt lat="47.146362" lon="12.971390">
 <ele>1121.04</ele>
 <time>2010-07-28T08:07:14Z</time>
 </trkpt>
 <trkpt lat="47.146217" lon="12.971432">
 <ele>1121.45</ele>
 <time>2010-07-28T08:07:20Z</time>
 </trkpt>
 <trkpt lat="47.146145" lon="12.971449">
 <ele>1121.80</ele>
 <time>2010-07-28T08:07:25Z</time>
 </trkpt>
 <trkpt lat="47.146027" lon="12.971521">
 <ele>1121.64</ele>
 <time>2010-07-28T08:07:30Z</time>
 </trkpt>
 <trkpt lat="47.145794" lon="12.971721">
 <ele>1122.00</ele>
 <time>2010-07-28T08:07:38Z</time>
 </trkpt>
 <trkpt lat="47.145542" lon="12.972039">
 <ele>1122.00</ele>
 <time>2010-07-28T08:07:47Z</time>
 </trkpt>
 <trkpt lat="47.145344" lon="12.972387">
 <ele>1122.28</ele>
 <time>2010-07-28T08:07:55Z</time>
 </trkpt>
 <trkpt lat="47.145180" lon="12.972743">
 <ele>1121.59</ele>
 <time>2010-07-28T08:08:02Z</time>
 </trkpt>
 <trkpt lat="47.145039" lon="12.973145">
 <ele>1121.15</ele>
 <time>2010-07-28T08:08:09Z</time>
 </trkpt>
 <trkpt lat="47.144924" lon="12.973477">
 <ele>1120.35</ele>
 <time>2010-07-28T08:08:14Z</time>
 </trkpt>
 <trkpt lat="47.144718" lon="12.973818">
 <ele>1119.61</ele>
 <time>2010-07-28T08:08:20Z</time>
 </trkpt>
 <trkpt lat="47.144585" lon="12.973932">
 <ele>1119.53</ele>
 <time>2010-07-28T08:08:23Z</time>
 </trkpt>
 <trkpt lat="47.144485" lon="12.973986">
 <ele>1119.30</ele>
 <time>2010-07-28T08:08:25Z</time>
 </trkpt>
 <trkpt lat="47.144382" lon="12.974018">
 <ele>1119.17</ele>
 <time>2010-07-28T08:08:27Z</time>
 </trkpt>
 <trkpt lat="47.143902" lon="12.974001">
 <ele>1119.09</ele>
 <time>2010-07-28T08:08:36Z</time>
 </trkpt>
 <trkpt lat="47.143436" lon="12.973939">
 <ele>1119.46</ele>
 <time>2010-07-28T08:08:45Z</time>
 </trkpt>
 <trkpt lat="47.143242" lon="12.973907">
 <ele>1119.74</ele>
 <time>2010-07-28T08:08:49Z</time>
 </trkpt>
 <trkpt lat="47.143150" lon="12.973901">
 <ele>1119.90</ele>
 <time>2010-07-28T08:08:51Z</time>
 </trkpt>
 <trkpt lat="47.142929" lon="12.973974">
 <ele>1120.45</ele>
 <time>2010-07-28T08:08:56Z</time>
 </trkpt>
 <trkpt lat="47.142452" lon="12.974263">
 <ele>1121.05</ele>
 <time>2010-07-28T08:09:07Z</time>
 </trkpt>
 <trkpt lat="47.142078" lon="12.974461">
 <ele>1121.92</ele>
 <time>2010-07-28T08:09:16Z</time>
 </trkpt>
 <trkpt lat="47.141678" lon="12.974695">
 <ele>1121.82</ele>
 <time>2010-07-28T08:09:25Z</time>
 </trkpt>
 <trkpt lat="47.141361" lon="12.974807">
 <ele>1122.32</ele>
 <time>2010-07-28T08:09:32Z</time>
 </trkpt>
 <trkpt lat="47.141003" lon="12.974828">
 <ele>1122.65</ele>
 <time>2010-07-28T08:09:40Z</time>
 </trkpt>
 <trkpt lat="47.140720" lon="12.974740">
 <ele>1123.69</ele>
 <time>2010-07-28T08:09:47Z</time>
 </trkpt>
 <trkpt lat="47.140533" lon="12.974628">
 <ele>1123.90</ele>
 <time>2010-07-28T08:09:52Z</time>
 </trkpt>
 <trkpt lat="47.140297" lon="12.974473">
 <ele>1123.75</ele>
 <time>2010-07-28T08:09:58Z</time>
 </trkpt>
 <trkpt lat="47.139992" lon="12.974398">
 <ele>1124.24</ele>
 <time>2010-07-28T08:10:05Z</time>
 </trkpt>
 <trkpt lat="47.139698" lon="12.974368">
 <ele>1124.59</ele>
 <time>2010-07-28T08:10:12Z</time>
 </trkpt>
 <trkpt lat="47.139389" lon="12.974312">
 <ele>1124.98</ele>
 <time>2010-07-28T08:10:19Z</time>
 </trkpt>
 <trkpt lat="47.139118" lon="12.974191">
 <ele>1125.86</ele>
 <time>2010-07-28T08:10:26Z</time>
 </trkpt>
 <trkpt lat="47.138954" lon="12.974168">
 <ele>1127.94</ele>
 <time>2010-07-28T08:10:32Z</time>
 </trkpt>
 <trkpt lat="47.138786" lon="12.974225">
 <ele>1129.36</ele>
 <time>2010-07-28T08:10:39Z</time>
 </trkpt>
 <trkpt lat="47.138569" lon="12.974236">
 <ele>1131.05</ele>
 <time>2010-07-28T08:10:48Z</time>
 </trkpt>
 <trkpt lat="47.138470" lon="12.974051">
 <ele>1131.40</ele>
 <time>2010-07-28T08:10:54Z</time>
 </trkpt>
 <trkpt lat="47.138382" lon="12.973750">
 <ele>1132.25</ele>
 <time>2010-07-28T08:11:02Z</time>
 </trkpt>
 <trkpt lat="47.138260" lon="12.973493">
 <ele>1132.53</ele>
 <time>2010-07-28T08:11:09Z</time>
 </trkpt>
 <trkpt lat="47.138100" lon="12.973450">
 <ele>1132.99</ele>
 <time>2010-07-28T08:11:15Z</time>
 </trkpt>
 <trkpt lat="47.137932" lon="12.973523">
 <ele>1134.14</ele>
 <time>2010-07-28T08:11:22Z</time>
 </trkpt>
 <trkpt lat="47.137779" lon="12.973623">
 <ele>1135.47</ele>
 <time>2010-07-28T08:11:30Z</time>
 </trkpt>
 <trkpt lat="47.137650" lon="12.973699">
 <ele>1137.33</ele>
 <time>2010-07-28T08:11:38Z</time>
 </trkpt>
 <trkpt lat="47.137466" lon="12.973822">
 <ele>1139.59</ele>
 <time>2010-07-28T08:11:48Z</time>
 </trkpt>
 <trkpt lat="47.137352" lon="12.973885">
 <ele>1140.84</ele>
 <time>2010-07-28T08:11:55Z</time>
 </trkpt>
 <trkpt lat="47.137207" lon="12.973907">
 <ele>1142.64</ele>
 <time>2010-07-28T08:12:03Z</time>
 </trkpt>
 <trkpt lat="47.137032" lon="12.973885">
 <ele>1144.94</ele>
 <time>2010-07-28T08:12:12Z</time>
 </trkpt>
 <trkpt lat="47.136864" lon="12.973883">
 <ele>1146.93</ele>
 <time>2010-07-28T08:12:21Z</time>
 </trkpt>
 <trkpt lat="47.136669" lon="12.973888">
 <ele>1148.40</ele>
 <time>2010-07-28T08:12:31Z</time>
 </trkpt>
 <trkpt lat="47.136509" lon="12.973816">
 <ele>1148.69</ele>
 <time>2010-07-28T08:12:38Z</time>
 </trkpt>
 <trkpt lat="47.136303" lon="12.973652">
 <ele>1148.40</ele>
 <time>2010-07-28T08:12:45Z</time>
 </trkpt>
 <trkpt lat="47.136112" lon="12.973658">
 <ele>1147.74</ele>
 <time>2010-07-28T08:12:50Z</time>
 </trkpt>
 <trkpt lat="47.135857" lon="12.973782">
 <ele>1148.34</ele>
 <time>2010-07-28T08:12:58Z</time>
 </trkpt>
 <trkpt lat="47.135620" lon="12.973816">
 <ele>1148.76</ele>
 <time>2010-07-28T08:13:05Z</time>
 </trkpt>
 <trkpt lat="47.135376" lon="12.973805">
 <ele>1148.93</ele>
 <time>2010-07-28T08:13:12Z</time>
 </trkpt>
 <trkpt lat="47.135094" lon="12.973835">
 <ele>1148.96</ele>
 <time>2010-07-28T08:13:20Z</time>
 </trkpt>
 <trkpt lat="47.134781" lon="12.973872">
 <ele>1149.50</ele>
 <time>2010-07-28T08:13:29Z</time>
 </trkpt>
 <trkpt lat="47.134579" lon="12.973845">
 <ele>1150.44</ele>
 <time>2010-07-28T08:13:36Z</time>
 </trkpt>
 <trkpt lat="47.134422" lon="12.973784">
 <ele>1151.65</ele>
 <time>2010-07-28T08:13:43Z</time>
 </trkpt>
 <trkpt lat="47.134254" lon="12.973729">
 <ele>1152.61</ele>
 <time>2010-07-28T08:13:51Z</time>
 </trkpt>
 <trkpt lat="47.134071" lon="12.973688">
 <ele>1153.91</ele>
 <time>2010-07-28T08:14:01Z</time>
 </trkpt>
 <trkpt lat="47.133980" lon="12.973706">
 <ele>1154.58</ele>
 <time>2010-07-28T08:14:06Z</time>
 </trkpt>
 <trkpt lat="47.133804" lon="12.973753">
 <ele>1156.07</ele>
 <time>2010-07-28T08:14:14Z</time>
 </trkpt>
 <trkpt lat="47.133617" lon="12.973841">
 <ele>1157.47</ele>
 <time>2010-07-28T08:14:23Z</time>
 </trkpt>
 <trkpt lat="47.133427" lon="12.973858">
 <ele>1158.40</ele>
 <time>2010-07-28T08:14:31Z</time>
 </trkpt>
 <trkpt lat="47.133156" lon="12.973824">
 <ele>1159.84</ele>
 <time>2010-07-28T08:14:42Z</time>
 </trkpt>
 <trkpt lat="47.132908" lon="12.973774">
 <ele>1160.62</ele>
 <time>2010-07-28T08:14:52Z</time>
 </trkpt>
 <trkpt lat="47.132694" lon="12.973680">
 <ele>1161.98</ele>
 <time>2010-07-28T08:15:01Z</time>
 </trkpt>
 <trkpt lat="47.132442" lon="12.973574">
 <ele>1163.47</ele>
 <time>2010-07-28T08:15:12Z</time>
 </trkpt>
 <trkpt lat="47.132214" lon="12.973498">
 <ele>1165.19</ele>
 <time>2010-07-28T08:15:22Z</time>
 </trkpt>
 <trkpt lat="47.132050" lon="12.973491">
 <ele>1166.57</ele>
 <time>2010-07-28T08:15:29Z</time>
 </trkpt>
 <trkpt lat="47.131828" lon="12.973613">
 <ele>1168.40</ele>
 <time>2010-07-28T08:15:39Z</time>
 </trkpt>
 <trkpt lat="47.131634" lon="12.973797">
 <ele>1170.26</ele>
 <time>2010-07-28T08:15:49Z</time>
 </trkpt>
 <trkpt lat="47.131481" lon="12.973992">
 <ele>1171.19</ele>
 <time>2010-07-28T08:15:57Z</time>
 </trkpt>
 <trkpt lat="47.131329" lon="12.974277">
 <ele>1172.16</ele>
 <time>2010-07-28T08:16:07Z</time>
 </trkpt>
 <trkpt lat="47.131187" lon="12.974485">
 <ele>1172.72</ele>
 <time>2010-07-28T08:16:15Z</time>
 </trkpt>
 <trkpt lat="47.130955" lon="12.974557">
 <ele>1173.30</ele>
 <time>2010-07-28T08:16:23Z</time>
 </trkpt>
 <trkpt lat="47.130699" lon="12.974601">
 <ele>1174.39</ele>
 <time>2010-07-28T08:16:32Z</time>
 </trkpt>
 <trkpt lat="47.130478" lon="12.974632">
 <ele>1175.93</ele>
 <time>2010-07-28T08:16:41Z</time>
 </trkpt>
 <trkpt lat="47.130322" lon="12.974631">
 <ele>1177.50</ele>
 <time>2010-07-28T08:16:47Z</time>
 </trkpt>
 <trkpt lat="47.130150" lon="12.974645">
 <ele>1177.91</ele>
 <time>2010-07-28T08:16:53Z</time>
 </trkpt>
 <trkpt lat="47.129925" lon="12.974629">
 <ele>1178.16</ele>
 <time>2010-07-28T08:17:01Z</time>
 </trkpt>
 <trkpt lat="47.129826" lon="12.974590">
 <ele>1178.11</ele>
 <time>2010-07-28T08:17:05Z</time>
 </trkpt>
 <trkpt lat="47.129551" lon="12.974540">
 <ele>1178.21</ele>
 <time>2010-07-28T08:17:13Z</time>
 </trkpt>
 <trkpt lat="47.129368" lon="12.974580">
 <ele>1178.66</ele>
 <time>2010-07-28T08:17:19Z</time>
 </trkpt>
 <trkpt lat="47.129238" lon="12.974689">
 <ele>1180.10</ele>
 <time>2010-07-28T08:17:26Z</time>
 </trkpt>
 <trkpt lat="47.129143" lon="12.974850">
 <ele>1181.95</ele>
 <time>2010-07-28T08:17:34Z</time>
 </trkpt>
 <trkpt lat="47.129032" lon="12.975017">
 <ele>1183.38</ele>
 <time>2010-07-28T08:17:43Z</time>
 </trkpt>
 <trkpt lat="47.128933" lon="12.975169">
 <ele>1185.59</ele>
 <time>2010-07-28T08:17:52Z</time>
 </trkpt>
 <trkpt lat="47.128838" lon="12.975276">
 <ele>1187.10</ele>
 <time>2010-07-28T08:17:59Z</time>
 </trkpt>
 <trkpt lat="47.128708" lon="12.975409">
 <ele>1189.08</ele>
 <time>2010-07-28T08:18:08Z</time>
 </trkpt>
 <trkpt lat="47.128593" lon="12.975547">
 <ele>1191.05</ele>
 <time>2010-07-28T08:18:17Z</time>
 </trkpt>
 <trkpt lat="47.128483" lon="12.975686">
 <ele>1193.27</ele>
 <time>2010-07-28T08:18:26Z</time>
 </trkpt>
 <trkpt lat="47.128387" lon="12.975794">
 <ele>1194.81</ele>
 <time>2010-07-28T08:18:34Z</time>
 </trkpt>
 <trkpt lat="47.128292" lon="12.975919">
 <ele>1197.59</ele>
 <time>2010-07-28T08:18:43Z</time>
 </trkpt>
 <trkpt lat="47.128269" lon="12.976068">
 <ele>1199.41</ele>
 <time>2010-07-28T08:18:51Z</time>
 </trkpt>
 <trkpt lat="47.128296" lon="12.976226">
 <ele>1200.93</ele>
 <time>2010-07-28T08:18:59Z</time>
 </trkpt>
 <trkpt lat="47.128345" lon="12.976372">
 <ele>1202.38</ele>
 <time>2010-07-28T08:19:07Z</time>
 </trkpt>
 <trkpt lat="47.128365" lon="12.976487">
 <ele>1203.99</ele>
 <time>2010-07-28T08:19:13Z</time>
 </trkpt>
 <trkpt lat="47.128403" lon="12.976659">
 <ele>1206.13</ele>
 <time>2010-07-28T08:19:23Z</time>
 </trkpt>
 <trkpt lat="47.128422" lon="12.976821">
 <ele>1207.91</ele>
 <time>2010-07-28T08:19:32Z</time>
 </trkpt>
 <trkpt lat="47.128380" lon="12.976917">
 <ele>1209.26</ele>
 <time>2010-07-28T08:19:40Z</time>
 </trkpt>
 <trkpt lat="47.128326" lon="12.976909">
 <ele>1210.20</ele>
 <time>2010-07-28T08:19:46Z</time>
 </trkpt>
 <trkpt lat="47.128254" lon="12.976911">
 <ele>1211.31</ele>
 <time>2010-07-28T08:19:52Z</time>
 </trkpt>
 <trkpt lat="47.128185" lon="12.976964">
 <ele>1211.75</ele>
 <time>2010-07-28T08:19:57Z</time>
 </trkpt>
 <trkpt lat="47.128109" lon="12.976982">
 <ele>1213.13</ele>
 <time>2010-07-28T08:20:02Z</time>
 </trkpt>
 <trkpt lat="47.128029" lon="12.977032">
 <ele>1214.44</ele>
 <time>2010-07-28T08:20:08Z</time>
 </trkpt>
 <trkpt lat="47.127918" lon="12.977102">
 <ele>1216.10</ele>
 <time>2010-07-28T08:20:17Z</time>
 </trkpt>
 <trkpt lat="47.127884" lon="12.977122">
 <ele>1216.61</ele>
 <time>2010-07-28T08:20:20Z</time>
 </trkpt>
 <trkpt lat="47.127762" lon="12.977187">
 <ele>1218.52</ele>
 <time>2010-07-28T08:20:29Z</time>
 </trkpt>
 <trkpt lat="47.127674" lon="12.977231">
 <ele>1220.12</ele>
 <time>2010-07-28T08:20:36Z</time>
 </trkpt>
 <trkpt lat="47.127628" lon="12.977181">
 <ele>1221.06</ele>
 <time>2010-07-28T08:20:44Z</time>
 </trkpt>
 <trkpt lat="47.127514" lon="12.977251">
 <ele>1222.11</ele>
 <time>2010-07-28T08:20:52Z</time>
 </trkpt>
 <trkpt lat="47.127384" lon="12.977314">
 <ele>1223.67</ele>
 <time>2010-07-28T08:21:02Z</time>
 </trkpt>
 <trkpt lat="47.127274" lon="12.977386">
 <ele>1223.83</ele>
 <time>2010-07-28T08:21:09Z</time>
 </trkpt>
 <trkpt lat="47.127129" lon="12.977489">
 <ele>1224.43</ele>
 <time>2010-07-28T08:21:17Z</time>
 </trkpt>
 <trkpt lat="47.126945" lon="12.977603">
 <ele>1224.73</ele>
 <time>2010-07-28T08:21:26Z</time>
 </trkpt>
 <trkpt lat="47.126141" lon="12.977202">
 <ele>1225.56</ele>
 <time>2010-07-28T08:21:36Z</time>
 </trkpt>
 <trkpt lat="47.126431" lon="12.977730">
 <ele>1226.19</ele>
 <time>2010-07-28T08:21:42Z</time>
 </trkpt>
 <trkpt lat="47.126335" lon="12.977745">
 <ele>1226.01</ele>
 <time>2010-07-28T08:21:48Z</time>
 </trkpt>
 <trkpt lat="47.126266" lon="12.977757">
 <ele>1226.60</ele>
 <time>2010-07-28T08:21:56Z</time>
 </trkpt>
 <trkpt lat="47.126144" lon="12.977777">
 <ele>1227.20</ele>
 <time>2010-07-28T08:22:05Z</time>
 </trkpt>
 <trkpt lat="47.126015" lon="12.977796">
 <ele>1228.23</ele>
 <time>2010-07-28T08:22:13Z</time>
 </trkpt>
 <trkpt lat="47.125877" lon="12.977825">
 <ele>1229.27</ele>
 <time>2010-07-28T08:22:21Z</time>
 </trkpt>
 <trkpt lat="47.125744" lon="12.977893">
 <ele>1230.22</ele>
 <time>2010-07-28T08:22:29Z</time>
 </trkpt>
 <trkpt lat="47.125584" lon="12.977972">
 <ele>1231.33</ele>
 <time>2010-07-28T08:22:38Z</time>
 </trkpt>
 <trkpt lat="47.125416" lon="12.978057">
 <ele>1232.99</ele>
 <time>2010-07-28T08:22:48Z</time>
 </trkpt>
 <trkpt lat="47.125267" lon="12.978130">
 <ele>1234.81</ele>
 <time>2010-07-28T08:22:57Z</time>
 </trkpt>
 <trkpt lat="47.125126" lon="12.978201">
 <ele>1236.36</ele>
 <time>2010-07-28T08:23:06Z</time>
 </trkpt>
 <trkpt lat="47.125019" lon="12.978319">
 <ele>1237.53</ele>
 <time>2010-07-28T08:23:14Z</time>
 </trkpt>
 <trkpt lat="47.124897" lon="12.978450">
 <ele>1239.28</ele>
 <time>2010-07-28T08:23:23Z</time>
 </trkpt>
 <trkpt lat="47.124752" lon="12.978573">
 <ele>1241.02</ele>
 <time>2010-07-28T08:23:33Z</time>
 </trkpt>
 <trkpt lat="47.124634" lon="12.978672">
 <ele>1242.89</ele>
 <time>2010-07-28T08:23:41Z</time>
 </trkpt>
 <trkpt lat="47.124531" lon="12.978709">
 <ele>1244.16</ele>
 <time>2010-07-28T08:23:48Z</time>
 </trkpt>
 <trkpt lat="47.124409" lon="12.978753">
 <ele>1246.35</ele>
 <time>2010-07-28T08:23:57Z</time>
 </trkpt>
 <trkpt lat="47.124325" lon="12.978783">
 <ele>1247.56</ele>
 <time>2010-07-28T08:24:03Z</time>
 </trkpt>
 <trkpt lat="47.124187" lon="12.978831">
 <ele>1249.73</ele>
 <time>2010-07-28T08:24:13Z</time>
 </trkpt>
 <trkpt lat="47.124081" lon="12.978870">
 <ele>1251.27</ele>
 <time>2010-07-28T08:24:21Z</time>
 </trkpt>
 <trkpt lat="47.124031" lon="12.978888">
 <ele>1252.93</ele>
 <time>2010-07-28T08:24:29Z</time>
 </trkpt>
 <trkpt lat="47.124031" lon="12.978888">
 <ele>1254.55</ele>
 <time>2010-07-28T08:24:36Z</time>
 </trkpt>
 <trkpt lat="47.124031" lon="12.978888">
 <ele>1256.52</ele>
 <time>2010-07-28T08:24:44Z</time>
 </trkpt>
 <trkpt lat="47.124031" lon="12.978888">
 <ele>1258.78</ele>
 <time>2010-07-28T08:24:55Z</time>
 </trkpt>
 <trkpt lat="47.124031" lon="12.978888">
 <ele>1260.51</ele>
 <time>2010-07-28T08:25:05Z</time>
 </trkpt>
 <trkpt lat="47.124031" lon="12.978888">
 <ele>1261.98</ele>
 <time>2010-07-28T08:25:15Z</time>
 </trkpt>
 <trkpt lat="47.124031" lon="12.978888">
 <ele>1262.57</ele>
 <time>2010-07-28T08:25:22Z</time>
 </trkpt>
 <trkpt lat="47.123150" lon="12.979325">
 <ele>1264.02</ele>
 <time>2010-07-28T08:25:33Z</time>
 </trkpt>
 <trkpt lat="47.123035" lon="12.979430">
 <ele>1265.05</ele>
 <time>2010-07-28T08:25:42Z</time>
 </trkpt>
 <trkpt lat="47.122887" lon="12.979603">
 <ele>1266.68</ele>
 <time>2010-07-28T08:25:55Z</time>
 </trkpt>
 <trkpt lat="47.122772" lon="12.979724">
 <ele>1267.99</ele>
 <time>2010-07-28T08:26:05Z</time>
 </trkpt>
 <trkpt lat="47.122681" lon="12.979833">
 <ele>1269.07</ele>
 <time>2010-07-28T08:26:13Z</time>
 </trkpt>
 <trkpt lat="47.122581" lon="12.979913">
 <ele>1270.27</ele>
 <time>2010-07-28T08:26:21Z</time>
 </trkpt>
 <trkpt lat="47.122440" lon="12.980044">
 <ele>1271.49</ele>
 <time>2010-07-28T08:26:32Z</time>
 </trkpt>
 <trkpt lat="47.122322" lon="12.980127">
 <ele>1272.44</ele>
 <time>2010-07-28T08:26:40Z</time>
 </trkpt>
 <trkpt lat="47.122162" lon="12.980242">
 <ele>1273.70</ele>
 <time>2010-07-28T08:26:50Z</time>
 </trkpt>
 <trkpt lat="47.122044" lon="12.980353">
 <ele>1274.23</ele>
 <time>2010-07-28T08:26:57Z</time>
 </trkpt>
 <trkpt lat="47.121914" lon="12.980517">
 <ele>1274.72</ele>
 <time>2010-07-28T08:27:04Z</time>
 </trkpt>
 <trkpt lat="47.121784" lon="12.980692">
 <ele>1274.92</ele>
 <time>2010-07-28T08:27:10Z</time>
 </trkpt>
 <trkpt lat="47.121620" lon="12.980922">
 <ele>1274.97</ele>
 <time>2010-07-28T08:27:17Z</time>
 </trkpt>
 <trkpt lat="47.121456" lon="12.981149">
 <ele>1275.33</ele>
 <time>2010-07-28T08:27:24Z</time>
 </trkpt>
 <trkpt lat="47.121223" lon="12.981369">
 <ele>1276.03</ele>
 <time>2010-07-28T08:27:33Z</time>
 </trkpt>
 <trkpt lat="47.120956" lon="12.981505">
 <ele>1277.15</ele>
 <time>2010-07-28T08:27:42Z</time>
 </trkpt>
 <trkpt lat="47.120731" lon="12.981588">
 <ele>1277.04</ele>
 <time>2010-07-28T08:27:49Z</time>
 </trkpt>
 <trkpt lat="47.120548" lon="12.981662">
 <ele>1277.32</ele>
 <time>2010-07-28T08:27:55Z</time>
 </trkpt>
 <trkpt lat="47.120335" lon="12.981820">
 <ele>1278.14</ele>
 <time>2010-07-28T08:28:02Z</time>
 </trkpt>
 <trkpt lat="47.120113" lon="12.982060">
 <ele>1278.98</ele>
 <time>2010-07-28T08:28:10Z</time>
 </trkpt>
 <trkpt lat="47.119900" lon="12.982277">
 <ele>1279.26</ele>
 <time>2010-07-28T08:28:18Z</time>
 </trkpt>
 <trkpt lat="47.119659" lon="12.982423">
 <ele>1279.91</ele>
 <time>2010-07-28T08:28:26Z</time>
 </trkpt>
 <trkpt lat="47.119392" lon="12.982442">
 <ele>1280.66</ele>
 <time>2010-07-28T08:28:34Z</time>
 </trkpt>
 <trkpt lat="47.119110" lon="12.982413">
 <ele>1280.22</ele>
 <time>2010-07-28T08:28:41Z</time>
 </trkpt>
 <trkpt lat="47.118832" lon="12.982488">
 <ele>1279.57</ele>
 <time>2010-07-28T08:28:47Z</time>
 </trkpt>
 <trkpt lat="47.118500" lon="12.982641">
 <ele>1278.80</ele>
 <time>2010-07-28T08:28:54Z</time>
 </trkpt>
 <trkpt lat="47.118118" lon="12.982862">
 <ele>1277.76</ele>
 <time>2010-07-28T08:29:02Z</time>
 </trkpt>
 <trkpt lat="47.117992" lon="12.982967">
 <ele>1277.66</ele>
 <time>2010-07-28T08:29:05Z</time>
 </trkpt>
 <trkpt lat="47.117767" lon="12.983298">
 <ele>1277.16</ele>
 <time>2010-07-28T08:29:12Z</time>
 </trkpt>
 <trkpt lat="47.117592" lon="12.983563">
 <ele>1276.61</ele>
 <time>2010-07-28T08:29:17Z</time>
 </trkpt>
 <trkpt lat="47.117409" lon="12.983716">
 <ele>1275.14</ele>
 <time>2010-07-28T08:29:21Z</time>
 </trkpt>
 <trkpt lat="47.117001" lon="12.983980">
 <ele>1272.71</ele>
 <time>2010-07-28T08:29:29Z</time>
 </trkpt>
 <trkpt lat="47.116730" lon="12.984011">
 <ele>1270.76</ele>
 <time>2010-07-28T08:29:33Z</time>
 </trkpt>
 <trkpt lat="47.116386" lon="12.984082">
 <ele>1268.82</ele>
 <time>2010-07-28T08:29:38Z</time>
 </trkpt>
 <trkpt lat="47.116058" lon="12.984307">
 <ele>1267.45</ele>
 <time>2010-07-28T08:29:44Z</time>
 </trkpt>
 <trkpt lat="47.115696" lon="12.984490">
 <ele>1264.44</ele>
 <time>2010-07-28T08:29:50Z</time>
 </trkpt>
 <trkpt lat="47.115482" lon="12.984565">
 <ele>1263.00</ele>
 <time>2010-07-28T08:29:53Z</time>
 </trkpt>
 <trkpt lat="47.115246" lon="12.984625">
 <ele>1262.22</ele>
 <time>2010-07-28T08:29:57Z</time>
 </trkpt>
 <trkpt lat="47.114956" lon="12.984675">
 <ele>1262.11</ele>
 <time>2010-07-28T08:30:03Z</time>
 </trkpt>
 <trkpt lat="47.114723" lon="12.984723">
 <ele>1262.33</ele>
 <time>2010-07-28T08:30:09Z</time>
 </trkpt>
 <trkpt lat="47.114452" lon="12.984754">
 <ele>1262.60</ele>
 <time>2010-07-28T08:30:16Z</time>
 </trkpt>
 <trkpt lat="47.114170" lon="12.984677">
 <ele>1262.54</ele>
 <time>2010-07-28T08:30:23Z</time>
 </trkpt>
 <trkpt lat="47.113873" lon="12.984512">
 <ele>1262.67</ele>
 <time>2010-07-28T08:30:30Z</time>
 </trkpt>
 <trkpt lat="47.113697" lon="12.984428">
 <ele>1262.30</ele>
 <time>2010-07-28T08:30:34Z</time>
 </trkpt>
 <trkpt lat="47.113514" lon="12.984439">
 <ele>1261.84</ele>
 <time>2010-07-28T08:30:38Z</time>
 </trkpt>
 <trkpt lat="47.113255" lon="12.984558">
 <ele>1262.46</ele>
 <time>2010-07-28T08:30:44Z</time>
 </trkpt>
 <trkpt lat="47.112919" lon="12.984662">
 <ele>1263.52</ele>
 <time>2010-07-28T08:30:52Z</time>
 </trkpt>
 <trkpt lat="47.112495" lon="12.984722">
 <ele>1263.40</ele>
 <time>2010-07-28T08:31:01Z</time>
 </trkpt>
 <trkpt lat="47.112255" lon="12.984798">
 <ele>1263.14</ele>
 <time>2010-07-28T08:31:06Z</time>
 </trkpt>
 <trkpt lat="47.112053" lon="12.985018">
 <ele>1262.36</ele>
 <time>2010-07-28T08:31:11Z</time>
 </trkpt>
 <trkpt lat="47.111786" lon="12.985420">
 <ele>1260.67</ele>
 <time>2010-07-28T08:31:19Z</time>
 </trkpt>
 <trkpt lat="47.111473" lon="12.985827">
 <ele>1258.99</ele>
 <time>2010-07-28T08:31:27Z</time>
 </trkpt>
 <trkpt lat="47.111179" lon="12.986210">
 <ele>1258.81</ele>
 <time>2010-07-28T08:31:35Z</time>
 </trkpt>
 <trkpt lat="47.110909" lon="12.986564">
 <ele>1258.09</ele>
 <time>2010-07-28T08:31:43Z</time>
 </trkpt>
 <trkpt lat="47.110676" lon="12.986842">
 <ele>1257.79</ele>
 <time>2010-07-28T08:31:50Z</time>
 </trkpt>
 <trkpt lat="47.110428" lon="12.987155">
 <ele>1257.41</ele>
 <time>2010-07-28T08:31:57Z</time>
 </trkpt>
 <trkpt lat="47.110168" lon="12.987452">
 <ele>1258.35</ele>
 <time>2010-07-28T08:32:05Z</time>
 </trkpt>
 <trkpt lat="47.110016" lon="12.987610">
 <ele>1258.69</ele>
 <time>2010-07-28T08:32:11Z</time>
 </trkpt>
 <trkpt lat="47.109837" lon="12.987711">
 <ele>1258.86</ele>
 <time>2010-07-28T08:32:16Z</time>
 </trkpt>
 <trkpt lat="47.109562" lon="12.987860">
 <ele>1258.98</ele>
 <time>2010-07-28T08:32:23Z</time>
 </trkpt>
 <trkpt lat="47.109035" lon="12.988138">
 <ele>1259.02</ele>
 <time>2010-07-28T08:32:36Z</time>
 </trkpt>
 <trkpt lat="47.108662" lon="12.988336">
 <ele>1259.08</ele>
 <time>2010-07-28T08:32:45Z</time>
 </trkpt>
 <trkpt lat="47.108006" lon="12.988686">
 <ele>1259.69</ele>
 <time>2010-07-28T08:33:01Z</time>
 </trkpt>
 <trkpt lat="47.107533" lon="12.988943">
 <ele>1260.47</ele>
 <time>2010-07-28T08:33:13Z</time>
 </trkpt>
 <trkpt lat="47.107124" lon="12.989163">
 <ele>1261.70</ele>
 <time>2010-07-28T08:33:24Z</time>
 </trkpt>
 <trkpt lat="47.106712" lon="12.989384">
 <ele>1262.70</ele>
 <time>2010-07-28T08:33:35Z</time>
 </trkpt>
 <trkpt lat="47.106396" lon="12.989572">
 <ele>1263.40</ele>
 <time>2010-07-28T08:33:44Z</time>
 </trkpt>
 <trkpt lat="47.106148" lon="12.989707">
 <ele>1264.17</ele>
 <time>2010-07-28T08:33:51Z</time>
 </trkpt>
 <trkpt lat="47.105934" lon="12.989912">
 <ele>1265.47</ele>
 <time>2010-07-28T08:33:59Z</time>
 </trkpt>
 <trkpt lat="47.105728" lon="12.990137">
 <ele>1266.51</ele>
 <time>2010-07-28T08:34:08Z</time>
 </trkpt>
 <trkpt lat="47.105286" lon="12.991066">
 <ele>1267.78</ele>
 <time>2010-07-28T08:34:17Z</time>
 </trkpt>
 <trkpt lat="47.105438" lon="12.990462">
 <ele>1268.43</ele>
 <time>2010-07-28T08:34:23Z</time>
 </trkpt>
 <trkpt lat="47.105419" lon="12.990487">
 <ele>1268.54</ele>
 <time>2010-07-28T08:34:27Z</time>
 </trkpt>
 <trkpt lat="47.105198" lon="12.991000">
 <ele>1268.68</ele>
 <time>2010-07-28T08:34:32Z</time>
 </trkpt>
 <trkpt lat="47.105152" lon="12.990967">
 <ele>1268.75</ele>
 <time>2010-07-28T08:34:37Z</time>
 </trkpt>
 <trkpt lat="47.105038" lon="12.990993">
 <ele>1269.47</ele>
 <time>2010-07-28T08:34:42Z</time>
 </trkpt>
 <trkpt lat="47.104904" lon="12.991064">
 <ele>1270.37</ele>
 <time>2010-07-28T08:34:49Z</time>
 </trkpt>
 <trkpt lat="47.104748" lon="12.991145">
 <ele>1270.70</ele>
 <time>2010-07-28T08:34:57Z</time>
 </trkpt>
 <trkpt lat="47.104630" lon="12.991253">
 <ele>1271.63</ele>
 <time>2010-07-28T08:35:02Z</time>
 </trkpt>
 <trkpt lat="47.104630" lon="12.991253">
 <ele>1271.97</ele>
 <time>2010-07-28T08:35:04Z</time>
 </trkpt>
 <trkpt lat="47.104561" lon="12.991354">
 <ele>1272.02</ele>
 <time>2010-07-28T08:35:17Z</time>
 </trkpt>
 <trkpt lat="47.104462" lon="12.991496">
 <ele>1272.04</ele>
 <time>2010-07-28T08:35:25Z</time>
 </trkpt>
 <trkpt lat="47.104343" lon="12.991667">
 <ele>1273.59</ele>
 <time>2010-07-28T08:35:33Z</time>
 </trkpt>
 <trkpt lat="47.104259" lon="12.991785">
 <ele>1274.49</ele>
 <time>2010-07-28T08:35:40Z</time>
 </trkpt>
 <trkpt lat="47.104179" lon="12.991897">
 <ele>1274.75</ele>
 <time>2010-07-28T08:35:47Z</time>
 </trkpt>
 <trkpt lat="47.104057" lon="12.991969">
 <ele>1274.96</ele>
 <time>2010-07-28T08:35:54Z</time>
 </trkpt>
 <trkpt lat="47.103909" lon="12.991992">
 <ele>1275.55</ele>
 <time>2010-07-28T08:36:00Z</time>
 </trkpt>
 <trkpt lat="47.103672" lon="12.992031">
 <ele>1276.11</ele>
 <time>2010-07-28T08:36:08Z</time>
 </trkpt>
 <trkpt lat="47.103390" lon="12.992076">
 <ele>1276.42</ele>
 <time>2010-07-28T08:36:17Z</time>
 </trkpt>
 <trkpt lat="47.103111" lon="12.992121">
 <ele>1277.13</ele>
 <time>2010-07-28T08:36:26Z</time>
 </trkpt>
 <trkpt lat="47.102818" lon="12.992221">
 <ele>1278.05</ele>
 <time>2010-07-28T08:36:37Z</time>
 </trkpt>
 <trkpt lat="47.102566" lon="12.992378">
 <ele>1279.48</ele>
 <time>2010-07-28T08:36:46Z</time>
 </trkpt>
 <trkpt lat="47.102325" lon="12.992527">
 <ele>1280.21</ele>
 <time>2010-07-28T08:36:55Z</time>
 </trkpt>
 <trkpt lat="47.102081" lon="12.992680">
 <ele>1281.16</ele>
 <time>2010-07-28T08:37:04Z</time>
 </trkpt>
 <trkpt lat="47.101772" lon="12.992646">
 <ele>1282.35</ele>
 <time>2010-07-28T08:37:13Z</time>
 </trkpt>
 <trkpt lat="47.101589" lon="12.992629">
 <ele>1283.98</ele>
 <time>2010-07-28T08:37:19Z</time>
 </trkpt>
 <trkpt lat="47.101563" lon="12.992983">
 <ele>1284.20</ele>
 <time>2010-07-28T08:37:25Z</time>
 </trkpt>
 <trkpt lat="47.101307" lon="12.993106">
 <ele>1285.32</ele>
 <time>2010-07-28T08:37:36Z</time>
 </trkpt>
 <trkpt lat="47.101093" lon="12.993209">
 <ele>1285.83</ele>
 <time>2010-07-28T08:37:44Z</time>
 </trkpt>
 <trkpt lat="47.100906" lon="12.993298">
 <ele>1286.62</ele>
 <time>2010-07-28T08:37:51Z</time>
 </trkpt>
 <trkpt lat="47.100685" lon="12.993403">
 <ele>1287.95</ele>
 <time>2010-07-28T08:38:00Z</time>
 </trkpt>
 <trkpt lat="47.100529" lon="12.993422">
 <ele>1288.83</ele>
 <time>2010-07-28T08:38:05Z</time>
 </trkpt>
 <trkpt lat="47.100334" lon="12.993432">
 <ele>1290.62</ele>
 <time>2010-07-28T08:38:13Z</time>
 </trkpt>
 <trkpt lat="47.100079" lon="12.993446">
 <ele>1291.94</ele>
 <time>2010-07-28T08:38:24Z</time>
 </trkpt>
 <trkpt lat="47.099869" lon="12.993457">
 <ele>1292.97</ele>
 <time>2010-07-28T08:38:34Z</time>
 </trkpt>
 <trkpt lat="47.099663" lon="12.993504">
 <ele>1293.81</ele>
 <time>2010-07-28T08:38:43Z</time>
 </trkpt>
 <trkpt lat="47.099483" lon="12.993545">
 <ele>1294.91</ele>
 <time>2010-07-28T08:38:51Z</time>
 </trkpt>
 <trkpt lat="47.099247" lon="12.993475">
 <ele>1295.98</ele>
 <time>2010-07-28T08:39:01Z</time>
 </trkpt>
 <trkpt lat="47.099037" lon="12.993353">
 <ele>1297.51</ele>
 <time>2010-07-28T08:39:11Z</time>
 </trkpt>
 <trkpt lat="47.098869" lon="12.993252">
 <ele>1298.53</ele>
 <time>2010-07-28T08:39:20Z</time>
 </trkpt>
 <trkpt lat="47.098705" lon="12.993156">
 <ele>1300.61</ele>
 <time>2010-07-28T08:39:29Z</time>
 </trkpt>
 <trkpt lat="47.098530" lon="12.993053">
 <ele>1301.90</ele>
 <time>2010-07-28T08:39:39Z</time>
 </trkpt>
 <trkpt lat="47.098362" lon="12.992954">
 <ele>1304.02</ele>
 <time>2010-07-28T08:39:49Z</time>
 </trkpt>
 <trkpt lat="47.098186" lon="12.992851">
 <ele>1305.43</ele>
 <time>2010-07-28T08:39:59Z</time>
 </trkpt>
 <trkpt lat="47.098042" lon="12.992771">
 <ele>1307.39</ele>
 <time>2010-07-28T08:40:08Z</time>
 </trkpt>
 <trkpt lat="47.097908" lon="12.992711">
 <ele>1308.79</ele>
 <time>2010-07-28T08:40:16Z</time>
 </trkpt>
 <trkpt lat="47.097740" lon="12.992636">
 <ele>1310.48</ele>
 <time>2010-07-28T08:40:26Z</time>
 </trkpt>
 <trkpt lat="47.097595" lon="12.992563">
 <ele>1312.63</ele>
 <time>2010-07-28T08:40:36Z</time>
 </trkpt>
 <trkpt lat="47.097496" lon="12.992507">
 <ele>1314.07</ele>
 <time>2010-07-28T08:40:43Z</time>
 </trkpt>
 <trkpt lat="47.097382" lon="12.992443">
 <ele>1315.88</ele>
 <time>2010-07-28T08:40:51Z</time>
 </trkpt>
 <trkpt lat="47.097275" lon="12.992416">
 <ele>1317.25</ele>
 <time>2010-07-28T08:40:58Z</time>
 </trkpt>
 <trkpt lat="47.097260" lon="12.992420">
 <ele>1317.29</ele>
 <time>2010-07-28T08:40:59Z</time>
 </trkpt>
 <trkpt lat="47.097137" lon="12.992452">
 <ele>1318.68</ele>
 <time>2010-07-28T08:41:08Z</time>
 </trkpt>
 <trkpt lat="47.097054" lon="12.992473">
 <ele>1319.90</ele>
 <time>2010-07-28T08:41:13Z</time>
 </trkpt>
 <trkpt lat="47.096924" lon="12.992507">
 <ele>1320.46</ele>
 <time>2010-07-28T08:41:20Z</time>
 </trkpt>
 <trkpt lat="47.096775" lon="12.992545">
 <ele>1321.91</ele>
 <time>2010-07-28T08:41:28Z</time>
 </trkpt>
 <trkpt lat="47.096619" lon="12.992585">
 <ele>1323.28</ele>
 <time>2010-07-28T08:41:36Z</time>
 </trkpt>
 <trkpt lat="47.096474" lon="12.992621">
 <ele>1324.66</ele>
 <time>2010-07-28T08:41:44Z</time>
 </trkpt>
 <trkpt lat="47.096359" lon="12.992637">
 <ele>1326.48</ele>
 <time>2010-07-28T08:41:51Z</time>
 </trkpt>
 <trkpt lat="47.096226" lon="12.992616">
 <ele>1328.10</ele>
 <time>2010-07-28T08:42:00Z</time>
 </trkpt>
 <trkpt lat="47.096119" lon="12.992599">
 <ele>1329.31</ele>
 <time>2010-07-28T08:42:08Z</time>
 </trkpt>
 <trkpt lat="47.096016" lon="12.992583">
 <ele>1331.05</ele>
 <time>2010-07-28T08:42:15Z</time>
 </trkpt>
 <trkpt lat="47.095909" lon="12.992566">
 <ele>1332.44</ele>
 <time>2010-07-28T08:42:22Z</time>
 </trkpt>
 <trkpt lat="47.095818" lon="12.992551">
 <ele>1333.63</ele>
 <time>2010-07-28T08:42:29Z</time>
 </trkpt>
 <trkpt lat="47.095680" lon="12.992530">
 <ele>1335.31</ele>
 <time>2010-07-28T08:42:37Z</time>
 </trkpt>
 <trkpt lat="47.095581" lon="12.992514">
 <ele>1336.48</ele>
 <time>2010-07-28T08:42:44Z</time>
 </trkpt>
 <trkpt lat="47.095467" lon="12.992568">
 <ele>1337.61</ele>
 <time>2010-07-28T08:42:52Z</time>
 </trkpt>
 <trkpt lat="47.095314" lon="12.992643">
 <ele>1339.01</ele>
 <time>2010-07-28T08:43:03Z</time>
 </trkpt>
 <trkpt lat="47.095154" lon="12.992721">
 <ele>1340.67</ele>
 <time>2010-07-28T08:43:15Z</time>
 </trkpt>
 <trkpt lat="47.095016" lon="12.992788">
 <ele>1342.56</ele>
 <time>2010-07-28T08:43:25Z</time>
 </trkpt>
 <trkpt lat="47.094860" lon="12.992864">
 <ele>1344.20</ele>
 <time>2010-07-28T08:43:36Z</time>
 </trkpt>
 <trkpt lat="47.094727" lon="12.992930">
 <ele>1345.50</ele>
 <time>2010-07-28T08:43:46Z</time>
 </trkpt>
 <trkpt lat="47.094566" lon="12.992912">
 <ele>1347.82</ele>
 <time>2010-07-28T08:43:56Z</time>
 </trkpt>
 <trkpt lat="47.094433" lon="12.992834">
 <ele>1349.09</ele>
 <time>2010-07-28T08:44:05Z</time>
 </trkpt>
 <trkpt lat="47.094276" lon="12.992743">
 <ele>1350.77</ele>
 <time>2010-07-28T08:44:16Z</time>
 </trkpt>
 <trkpt lat="47.094109" lon="12.992647">
 <ele>1353.15</ele>
 <time>2010-07-28T08:44:28Z</time>
 </trkpt>
 <trkpt lat="47.093983" lon="12.992574">
 <ele>1354.24</ele>
 <time>2010-07-28T08:44:37Z</time>
 </trkpt>
 <trkpt lat="47.093853" lon="12.992497">
 <ele>1356.20</ele>
 <time>2010-07-28T08:44:46Z</time>
 </trkpt>
 <trkpt lat="47.093739" lon="12.992431">
 <ele>1357.11</ele>
 <time>2010-07-28T08:44:54Z</time>
 </trkpt>
 <trkpt lat="47.093601" lon="12.992351">
 <ele>1358.64</ele>
 <time>2010-07-28T08:45:04Z</time>
 </trkpt>
 <trkpt lat="47.093491" lon="12.992288">
 <ele>1359.94</ele>
 <time>2010-07-28T08:45:12Z</time>
 </trkpt>
 <trkpt lat="47.093349" lon="12.992206">
 <ele>1361.11</ele>
 <time>2010-07-28T08:45:22Z</time>
 </trkpt>
 <trkpt lat="47.093201" lon="12.992119">
 <ele>1362.57</ele>
 <time>2010-07-28T08:45:33Z</time>
 </trkpt>
 <trkpt lat="47.093067" lon="12.991926">
 <ele>1364.64</ele>
 <time>2010-07-28T08:45:45Z</time>
 </trkpt>
 <trkpt lat="47.093063" lon="12.991745">
 <ele>1366.19</ele>
 <time>2010-07-28T08:45:54Z</time>
 </trkpt>
 <trkpt lat="47.093060" lon="12.991567">
 <ele>1367.78</ele>
 <time>2010-07-28T08:46:03Z</time>
 </trkpt>
 <trkpt lat="47.093056" lon="12.991389">
 <ele>1369.24</ele>
 <time>2010-07-28T08:46:12Z</time>
 </trkpt>
 <trkpt lat="47.093052" lon="12.991232">
 <ele>1370.67</ele>
 <time>2010-07-28T08:46:19Z</time>
 </trkpt>
 <trkpt lat="47.093048" lon="12.991050">
 <ele>1372.59</ele>
 <time>2010-07-28T08:46:27Z</time>
 </trkpt>
 <trkpt lat="47.093044" lon="12.990904">
 <ele>1373.99</ele>
 <time>2010-07-28T08:46:35Z</time>
 </trkpt>
 <trkpt lat="47.092979" lon="12.990826">
 <ele>1375.38</ele>
 <time>2010-07-28T08:46:44Z</time>
 </trkpt>
 <trkpt lat="47.092876" lon="12.990712">
 <ele>1377.05</ele>
 <time>2010-07-28T08:46:53Z</time>
 </trkpt>
 <trkpt lat="47.092731" lon="12.990547">
 <ele>1378.70</ele>
 <time>2010-07-28T08:47:06Z</time>
 </trkpt>
 <trkpt lat="47.092648" lon="12.990449">
 <ele>1380.04</ele>
 <time>2010-07-28T08:47:14Z</time>
 </trkpt>
 <trkpt lat="47.092541" lon="12.990330">
 <ele>1381.86</ele>
 <time>2010-07-28T08:47:24Z</time>
 </trkpt>
 <trkpt lat="47.092464" lon="12.990241">
 <ele>1383.08</ele>
 <time>2010-07-28T08:47:31Z</time>
 </trkpt>
 <trkpt lat="47.092403" lon="12.990125">
 <ele>1384.30</ele>
 <time>2010-07-28T08:47:39Z</time>
 </trkpt>
 <trkpt lat="47.092342" lon="12.989924">
 <ele>1386.54</ele>
 <time>2010-07-28T08:47:49Z</time>
 </trkpt>
 <trkpt lat="47.092297" lon="12.989770">
 <ele>1387.71</ele>
 <time>2010-07-28T08:47:57Z</time>
 </trkpt>
 <trkpt lat="47.092251" lon="12.989610">
 <ele>1388.75</ele>
 <time>2010-07-28T08:48:05Z</time>
 </trkpt>
 <trkpt lat="47.092205" lon="12.989450">
 <ele>1390.24</ele>
 <time>2010-07-28T08:48:13Z</time>
 </trkpt>
 <trkpt lat="47.092163" lon="12.989308">
 <ele>1391.22</ele>
 <time>2010-07-28T08:48:21Z</time>
 </trkpt>
 <trkpt lat="47.092117" lon="12.989151">
 <ele>1392.67</ele>
 <time>2010-07-28T08:48:29Z</time>
 </trkpt>
 <trkpt lat="47.092087" lon="12.989051">
 <ele>1393.66</ele>
 <time>2010-07-28T08:48:34Z</time>
 </trkpt>
 <trkpt lat="47.092033" lon="12.988875">
 <ele>1394.93</ele>
 <time>2010-07-28T08:48:43Z</time>
 </trkpt>
 <trkpt lat="47.091969" lon="12.988649">
 <ele>1396.56</ele>
 <time>2010-07-28T08:48:54Z</time>
 </trkpt>
 <trkpt lat="47.091908" lon="12.988442">
 <ele>1398.22</ele>
 <time>2010-07-28T08:49:04Z</time>
 </trkpt>
 <trkpt lat="47.091843" lon="12.988226">
 <ele>1400.10</ele>
 <time>2010-07-28T08:49:15Z</time>
 </trkpt>
 <trkpt lat="47.091789" lon="12.988015">
 <ele>1402.17</ele>
 <time>2010-07-28T08:49:26Z</time>
 </trkpt>
 <trkpt lat="47.091747" lon="12.987823">
 <ele>1403.41</ele>
 <time>2010-07-28T08:49:36Z</time>
 </trkpt>
 <trkpt lat="47.091713" lon="12.987684">
 <ele>1404.97</ele>
 <time>2010-07-28T08:49:43Z</time>
 </trkpt>
 <trkpt lat="47.091679" lon="12.987529">
 <ele>1406.35</ele>
 <time>2010-07-28T08:49:51Z</time>
 </trkpt>
 <trkpt lat="47.091633" lon="12.987331">
 <ele>1407.93</ele>
 <time>2010-07-28T08:50:01Z</time>
 </trkpt>
 <trkpt lat="47.091583" lon="12.987117">
 <ele>1409.68</ele>
 <time>2010-07-28T08:50:12Z</time>
 </trkpt>
 <trkpt lat="47.091499" lon="12.986915">
 <ele>1411.03</ele>
 <time>2010-07-28T08:50:21Z</time>
 </trkpt>
 <trkpt lat="47.091408" lon="12.986832">
 <ele>1412.67</ele>
 <time>2010-07-28T08:50:29Z</time>
 </trkpt>
 <trkpt lat="47.091312" lon="12.986745">
 <ele>1413.87</ele>
 <time>2010-07-28T08:50:37Z</time>
 </trkpt>
 <trkpt lat="47.091183" lon="12.986626">
 <ele>1415.71</ele>
 <time>2010-07-28T08:50:48Z</time>
 </trkpt>
 <trkpt lat="47.091095" lon="12.986545">
 <ele>1417.38</ele>
 <time>2010-07-28T08:50:56Z</time>
 </trkpt>
 <trkpt lat="47.091007" lon="12.986543">
 <ele>1418.59</ele>
 <time>2010-07-28T08:51:04Z</time>
 </trkpt>
 <trkpt lat="47.090927" lon="12.986612">
 <ele>1420.09</ele>
 <time>2010-07-28T08:51:13Z</time>
 </trkpt>
 <trkpt lat="47.090813" lon="12.986712">
 <ele>1421.38</ele>
 <time>2010-07-28T08:51:22Z</time>
 </trkpt>
 <trkpt lat="47.090702" lon="12.986805">
 <ele>1422.65</ele>
 <time>2010-07-28T08:51:31Z</time>
 </trkpt>
 <trkpt lat="47.090603" lon="12.986892">
 <ele>1423.64</ele>
 <time>2010-07-28T08:51:39Z</time>
 </trkpt>
 <trkpt lat="47.090530" lon="12.987035">
 <ele>1425.59</ele>
 <time>2010-07-28T08:51:48Z</time>
 </trkpt>
 <trkpt lat="47.090481" lon="12.987167">
 <ele>1427.04</ele>
 <time>2010-07-28T08:51:56Z</time>
 </trkpt>
 <trkpt lat="47.090408" lon="12.987354">
 <ele>1428.92</ele>
 <time>2010-07-28T08:52:07Z</time>
 </trkpt>
 <trkpt lat="47.090347" lon="12.987514">
 <ele>1430.56</ele>
 <time>2010-07-28T08:52:17Z</time>
 </trkpt>
 <trkpt lat="47.090286" lon="12.987675">
 <ele>1431.65</ele>
 <time>2010-07-28T08:52:26Z</time>
 </trkpt>
 <trkpt lat="47.090218" lon="12.987854">
 <ele>1433.65</ele>
 <time>2010-07-28T08:52:36Z</time>
 </trkpt>
 <trkpt lat="47.090157" lon="12.988009">
 <ele>1435.10</ele>
 <time>2010-07-28T08:52:44Z</time>
 </trkpt>
 <trkpt lat="47.090080" lon="12.988215">
 <ele>1436.51</ele>
 <time>2010-07-28T08:52:55Z</time>
 </trkpt>
 <trkpt lat="47.090015" lon="12.988386">
 <ele>1438.42</ele>
 <time>2010-07-28T08:53:05Z</time>
 </trkpt>
 <trkpt lat="47.089973" lon="12.988492">
 <ele>1439.62</ele>
 <time>2010-07-28T08:53:11Z</time>
 </trkpt>
 <trkpt lat="47.089905" lon="12.988665">
 <ele>1440.74</ele>
 <time>2010-07-28T08:53:21Z</time>
 </trkpt>
 <trkpt lat="47.089867" lon="12.988829">
 <ele>1442.64</ele>
 <time>2010-07-28T08:53:30Z</time>
 </trkpt>
 <trkpt lat="47.089859" lon="12.988974">
 <ele>1444.18</ele>
 <time>2010-07-28T08:53:39Z</time>
 </trkpt>
 <trkpt lat="47.089851" lon="12.989146">
 <ele>1445.72</ele>
 <time>2010-07-28T08:53:49Z</time>
 </trkpt>
 <trkpt lat="47.089844" lon="12.989303">
 <ele>1446.94</ele>
 <time>2010-07-28T08:53:58Z</time>
 </trkpt>
 <trkpt lat="47.089378" lon="12.989443">
 <ele>1448.85</ele>
 <time>2010-07-28T08:54:08Z</time>
 </trkpt>
 <trkpt lat="47.089363" lon="12.989711">
 <ele>1451.13</ele>
 <time>2010-07-28T08:54:22Z</time>
 </trkpt>
 <trkpt lat="47.089359" lon="12.989860">
 <ele>1452.74</ele>
 <time>2010-07-28T08:54:31Z</time>
 </trkpt>
 <trkpt lat="47.089355" lon="12.989917">
 <ele>1453.94</ele>
 <time>2010-07-28T08:54:39Z</time>
 </trkpt>
 <trkpt lat="47.089355" lon="12.989892">
 <ele>1454.90</ele>
 <time>2010-07-28T08:54:45Z</time>
 </trkpt>
 <trkpt lat="47.089363" lon="12.989773">
 <ele>1456.26</ele>
 <time>2010-07-28T08:54:53Z</time>
 </trkpt>
 <trkpt lat="47.089371" lon="12.989570">
 <ele>1457.81</ele>
 <time>2010-07-28T08:55:03Z</time>
 </trkpt>
 <trkpt lat="47.089378" lon="12.989420">
 <ele>1459.07</ele>
 <time>2010-07-28T08:55:10Z</time>
 </trkpt>
 <trkpt lat="47.089390" lon="12.989212">
 <ele>1460.53</ele>
 <time>2010-07-28T08:55:20Z</time>
 </trkpt>
 <trkpt lat="47.089397" lon="12.989017">
 <ele>1462.41</ele>
 <time>2010-07-28T08:55:29Z</time>
 </trkpt>
 <trkpt lat="47.089409" lon="12.988804">
 <ele>1464.14</ele>
 <time>2010-07-28T08:55:39Z</time>
 </trkpt>
 <trkpt lat="47.089417" lon="12.988613">
 <ele>1466.15</ele>
 <time>2010-07-28T08:55:48Z</time>
 </trkpt>
 <trkpt lat="47.089424" lon="12.988450">
 <ele>1467.10</ele>
 <time>2010-07-28T08:55:56Z</time>
 </trkpt>
 <trkpt lat="47.089432" lon="12.988303">
 <ele>1468.66</ele>
 <time>2010-07-28T08:56:03Z</time>
 </trkpt>
 <trkpt lat="47.089439" lon="12.988144">
 <ele>1470.22</ele>
 <time>2010-07-28T08:56:11Z</time>
 </trkpt>
 <trkpt lat="47.089447" lon="12.987986">
 <ele>1471.44</ele>
 <time>2010-07-28T08:56:19Z</time>
 </trkpt>
 <trkpt lat="47.089455" lon="12.987834">
 <ele>1472.91</ele>
 <time>2010-07-28T08:56:27Z</time>
 </trkpt>
 <trkpt lat="47.089462" lon="12.987665">
 <ele>1474.60</ele>
 <time>2010-07-28T08:56:36Z</time>
 </trkpt>
 <trkpt lat="47.089470" lon="12.987483">
 <ele>1476.30</ele>
 <time>2010-07-28T08:56:45Z</time>
 </trkpt>
 <trkpt lat="47.089478" lon="12.987324">
 <ele>1477.70</ele>
 <time>2010-07-28T08:56:53Z</time>
 </trkpt>
 <trkpt lat="47.089485" lon="12.987156">
 <ele>1479.13</ele>
 <time>2010-07-28T08:57:02Z</time>
 </trkpt>
 <trkpt lat="47.089485" lon="12.987018">
 <ele>1480.20</ele>
 <time>2010-07-28T08:57:09Z</time>
 </trkpt>
 <trkpt lat="47.089485" lon="12.986891">
 <ele>1481.30</ele>
 <time>2010-07-28T08:57:15Z</time>
 </trkpt>
 <trkpt lat="47.089489" lon="12.986707">
 <ele>1482.97</ele>
 <time>2010-07-28T08:57:24Z</time>
 </trkpt>
 <trkpt lat="47.089493" lon="12.986545">
 <ele>1484.17</ele>
 <time>2010-07-28T08:57:32Z</time>
 </trkpt>
 <trkpt lat="47.089493" lon="12.986345">
 <ele>1486.13</ele>
 <time>2010-07-28T08:57:42Z</time>
 </trkpt>
 <trkpt lat="47.089497" lon="12.986205">
 <ele>1487.27</ele>
 <time>2010-07-28T08:57:49Z</time>
 </trkpt>
 <trkpt lat="47.089497" lon="12.986055">
 <ele>1488.38</ele>
 <time>2010-07-28T08:57:56Z</time>
 </trkpt>
 <trkpt lat="47.089497" lon="12.985875">
 <ele>1489.95</ele>
 <time>2010-07-28T08:58:05Z</time>
 </trkpt>
 <trkpt lat="47.089500" lon="12.985707">
 <ele>1491.39</ele>
 <time>2010-07-28T08:58:13Z</time>
 </trkpt>
 <trkpt lat="47.089500" lon="12.985513">
 <ele>1492.99</ele>
 <time>2010-07-28T08:58:23Z</time>
 </trkpt>
 <trkpt lat="47.089504" lon="12.985328">
 <ele>1494.55</ele>
 <time>2010-07-28T08:58:32Z</time>
 </trkpt>
 <trkpt lat="47.089474" lon="12.985114">
 <ele>1496.07</ele>
 <time>2010-07-28T08:58:41Z</time>
 </trkpt>
 <trkpt lat="47.089466" lon="12.985105">
 <ele>1496.15</ele>
 <time>2010-07-28T08:58:42Z</time>
 </trkpt>
 <trkpt lat="47.089378" lon="12.985003">
 <ele>1497.78</ele>
 <time>2010-07-28T08:58:54Z</time>
 </trkpt>
 <trkpt lat="47.089378" lon="12.985003">
 <ele>1497.87</ele>
 <time>2010-07-28T08:58:55Z</time>
 </trkpt>
 <trkpt lat="47.089378" lon="12.985003">
 <ele>1498.41</ele>
 <time>2010-07-28T08:59:01Z</time>
 </trkpt>
 <trkpt lat="47.089294" lon="12.985066">
 <ele>1499.01</ele>
 <time>2010-07-28T08:59:09Z</time>
 </trkpt>
 <trkpt lat="47.089287" lon="12.985103">
 <ele>1499.43</ele>
 <time>2010-07-28T08:59:15Z</time>
 </trkpt>
 <trkpt lat="47.089287" lon="12.985103">
 <ele>1499.75</ele>
 <time>2010-07-28T08:59:17Z</time>
 </trkpt>
 <trkpt lat="47.089283" lon="12.985128">
 <ele>1500.27</ele>
 <time>2010-07-28T09:01:30Z</time>
 </trkpt>
 <trkpt lat="47.089272" lon="12.985211">
 <ele>1501.10</ele>
 <time>2010-07-28T09:01:38Z</time>
 </trkpt>
 <trkpt lat="47.089252" lon="12.985345">
 <ele>1502.42</ele>
 <time>2010-07-28T09:01:47Z</time>
 </trkpt>
 <trkpt lat="47.089230" lon="12.985497">
 <ele>1503.96</ele>
 <time>2010-07-28T09:01:56Z</time>
 </trkpt>
 <trkpt lat="47.089211" lon="12.985626">
 <ele>1504.99</ele>
 <time>2010-07-28T09:02:03Z</time>
 </trkpt>
 <trkpt lat="47.089191" lon="12.985776">
 <ele>1506.33</ele>
 <time>2010-07-28T09:02:11Z</time>
 </trkpt>
 <trkpt lat="47.089146" lon="12.985954">
 <ele>1507.80</ele>
 <time>2010-07-28T09:02:20Z</time>
 </trkpt>
 <trkpt lat="47.089092" lon="12.986130">
 <ele>1509.47</ele>
 <time>2010-07-28T09:02:29Z</time>
 </trkpt>
 <trkpt lat="47.089046" lon="12.986298">
 <ele>1511.22</ele>
 <time>2010-07-28T09:02:38Z</time>
 </trkpt>
 <trkpt lat="47.088997" lon="12.986470">
 <ele>1513.03</ele>
 <time>2010-07-28T09:02:48Z</time>
 </trkpt>
 <trkpt lat="47.088951" lon="12.986629">
 <ele>1514.42</ele>
 <time>2010-07-28T09:02:57Z</time>
 </trkpt>
 <trkpt lat="47.088898" lon="12.986810">
 <ele>1516.16</ele>
 <time>2010-07-28T09:03:07Z</time>
 </trkpt>
 <trkpt lat="47.088860" lon="12.986939">
 <ele>1517.35</ele>
 <time>2010-07-28T09:03:14Z</time>
 </trkpt>
 <trkpt lat="47.088810" lon="12.987127">
 <ele>1519.13</ele>
 <time>2010-07-28T09:03:24Z</time>
 </trkpt>
 <trkpt lat="47.088776" lon="12.987297">
 <ele>1519.83</ele>
 <time>2010-07-28T09:03:33Z</time>
 </trkpt>
 <trkpt lat="47.088741" lon="12.987457">
 <ele>1521.05</ele>
 <time>2010-07-28T09:03:41Z</time>
 </trkpt>
 <trkpt lat="47.088699" lon="12.987515">
 <ele>1521.79</ele>
 <time>2010-07-28T09:03:48Z</time>
 </trkpt>
 <trkpt lat="47.088688" lon="12.987523">
 <ele>1521.92</ele>
 <time>2010-07-28T09:03:49Z</time>
 </trkpt>
 <trkpt lat="47.088634" lon="12.987462">
 <ele>1522.78</ele>
 <time>2010-07-28T09:03:56Z</time>
 </trkpt>
 <trkpt lat="47.088631" lon="12.987398">
 <ele>1522.85</ele>
 <time>2010-07-28T09:03:59Z</time>
 </trkpt>
 <trkpt lat="47.088654" lon="12.987159">
 <ele>1524.11</ele>
 <time>2010-07-28T09:04:10Z</time>
 </trkpt>
 <trkpt lat="47.088669" lon="12.986994">
 <ele>1525.25</ele>
 <time>2010-07-28T09:04:18Z</time>
 </trkpt>
 <trkpt lat="47.088612" lon="12.986824">
 <ele>1526.64</ele>
 <time>2010-07-28T09:04:27Z</time>
 </trkpt>
 <trkpt lat="47.088551" lon="12.986664">
 <ele>1527.91</ele>
 <time>2010-07-28T09:04:36Z</time>
 </trkpt>
 <trkpt lat="47.088497" lon="12.986516">
 <ele>1529.42</ele>
 <time>2010-07-28T09:04:44Z</time>
 </trkpt>
 <trkpt lat="47.088428" lon="12.986418">
 <ele>1530.06</ele>
 <time>2010-07-28T09:04:48Z</time>
 </trkpt>
 <trkpt lat="47.088337" lon="12.986328">
 <ele>1531.55</ele>
 <time>2010-07-28T09:04:55Z</time>
 </trkpt>
 <trkpt lat="47.088181" lon="12.986178">
 <ele>1533.46</ele>
 <time>2010-07-28T09:05:07Z</time>
 </trkpt>
 <trkpt lat="47.088062" lon="12.986066">
 <ele>1535.16</ele>
 <time>2010-07-28T09:05:16Z</time>
 </trkpt>
 <trkpt lat="47.087944" lon="12.985950">
 <ele>1537.14</ele>
 <time>2010-07-28T09:05:26Z</time>
 </trkpt>
 <trkpt lat="47.087837" lon="12.985849">
 <ele>1538.27</ele>
 <time>2010-07-28T09:05:35Z</time>
 </trkpt>
 <trkpt lat="47.087723" lon="12.985738">
 <ele>1540.03</ele>
 <time>2010-07-28T09:05:44Z</time>
 </trkpt>
 <trkpt lat="47.087616" lon="12.985638">
 <ele>1540.90</ele>
 <time>2010-07-28T09:05:52Z</time>
 </trkpt>
 <trkpt lat="47.087517" lon="12.985541">
 <ele>1542.82</ele>
 <time>2010-07-28T09:06:00Z</time>
 </trkpt>
 <trkpt lat="47.087399" lon="12.985428">
 <ele>1544.64</ele>
 <time>2010-07-28T09:06:09Z</time>
 </trkpt>
 <trkpt lat="47.087242" lon="12.985378">
 <ele>1545.77</ele>
 <time>2010-07-28T09:06:16Z</time>
 </trkpt>
 <trkpt lat="47.087082" lon="12.985340">
 <ele>1547.09</ele>
 <time>2010-07-28T09:06:25Z</time>
 </trkpt>
 <trkpt lat="47.086933" lon="12.985304">
 <ele>1548.16</ele>
 <time>2010-07-28T09:06:33Z</time>
 </trkpt>
 <trkpt lat="47.086784" lon="12.985269">
 <ele>1548.64</ele>
 <time>2010-07-28T09:06:40Z</time>
 </trkpt>
 <trkpt lat="47.086571" lon="12.985217">
 <ele>1548.93</ele>
 <time>2010-07-28T09:06:49Z</time>
 </trkpt>
 <trkpt lat="47.086308" lon="12.985155">
 <ele>1549.51</ele>
 <time>2010-07-28T09:06:58Z</time>
 </trkpt>
 <trkpt lat="47.086121" lon="12.985111">
 <ele>1550.16</ele>
 <time>2010-07-28T09:07:05Z</time>
 </trkpt>
 <trkpt lat="47.086029" lon="12.985089">
 <ele>1550.65</ele>
 <time>2010-07-28T09:07:10Z</time>
 </trkpt>
 <trkpt lat="47.085861" lon="12.985122">
 <ele>1551.71</ele>
 <time>2010-07-28T09:07:17Z</time>
 </trkpt>
 <trkpt lat="47.085735" lon="12.985146">
 <ele>1553.09</ele>
 <time>2010-07-28T09:07:24Z</time>
 </trkpt>
 <trkpt lat="47.085629" lon="12.985167">
 <ele>1553.68</ele>
 <time>2010-07-28T09:07:31Z</time>
 </trkpt>
 <trkpt lat="47.085548" lon="12.985182">
 <ele>1555.44</ele>
 <time>2010-07-28T09:07:37Z</time>
 </trkpt>
 <trkpt lat="47.085438" lon="12.985204">
 <ele>1556.92</ele>
 <time>2010-07-28T09:07:43Z</time>
 </trkpt>
 <trkpt lat="47.085320" lon="12.985227">
 <ele>1558.80</ele>
 <time>2010-07-28T09:07:51Z</time>
 </trkpt>
 <trkpt lat="47.085232" lon="12.985313">
 <ele>1559.71</ele>
 <time>2010-07-28T09:07:57Z</time>
 </trkpt>
 <trkpt lat="47.085197" lon="12.985415">
 <ele>1560.77</ele>
 <time>2010-07-28T09:08:04Z</time>
 </trkpt>
 <trkpt lat="47.085182" lon="12.985571">
 <ele>1562.56</ele>
 <time>2010-07-28T09:08:13Z</time>
 </trkpt>
 <trkpt lat="47.085175" lon="12.985695">
 <ele>1563.81</ele>
 <time>2010-07-28T09:08:20Z</time>
 </trkpt>
 <trkpt lat="47.085171" lon="12.985789">
 <ele>1564.58</ele>
 <time>2010-07-28T09:08:25Z</time>
 </trkpt>
 <trkpt lat="47.085163" lon="12.985879">
 <ele>1565.32</ele>
 <time>2010-07-28T09:08:30Z</time>
 </trkpt>
 <trkpt lat="47.085152" lon="12.986051">
 <ele>1566.88</ele>
 <time>2010-07-28T09:08:38Z</time>
 </trkpt>
 <trkpt lat="47.085140" lon="12.986224">
 <ele>1568.43</ele>
 <time>2010-07-28T09:08:46Z</time>
 </trkpt>
 <trkpt lat="47.085133" lon="12.986372">
 <ele>1569.58</ele>
 <time>2010-07-28T09:08:53Z</time>
 </trkpt>
 <trkpt lat="47.085110" lon="12.986476">
 <ele>1570.63</ele>
 <time>2010-07-28T09:09:00Z</time>
 </trkpt>
 <trkpt lat="47.085060" lon="12.986564">
 <ele>1571.80</ele>
 <time>2010-07-28T09:09:08Z</time>
 </trkpt>
 <trkpt lat="47.085041" lon="12.986514">
 <ele>1572.75</ele>
 <time>2010-07-28T09:09:15Z</time>
 </trkpt>
 <trkpt lat="47.084995" lon="12.986435">
 <ele>1573.64</ele>
 <time>2010-07-28T09:09:21Z</time>
 </trkpt>
 <trkpt lat="47.084927" lon="12.986340">
 <ele>1575.26</ele>
 <time>2010-07-28T09:09:28Z</time>
 </trkpt>
 <trkpt lat="47.084667" lon="12.986393">
 <ele>1576.74</ele>
 <time>2010-07-28T09:09:37Z</time>
 </trkpt>
 <trkpt lat="47.084595" lon="12.986273">
 <ele>1577.68</ele>
 <time>2010-07-28T09:09:44Z</time>
 </trkpt>
 <trkpt lat="47.084587" lon="12.986264">
 <ele>1577.89</ele>
 <time>2010-07-28T09:09:45Z</time>
 </trkpt>
 <trkpt lat="47.084530" lon="12.986166">
 <ele>1578.74</ele>
 <time>2010-07-28T09:09:51Z</time>
 </trkpt>
 <trkpt lat="47.084473" lon="12.986078">
 <ele>1580.02</ele>
 <time>2010-07-28T09:09:58Z</time>
 </trkpt>
 <trkpt lat="47.084404" lon="12.985962">
 <ele>1580.89</ele>
 <time>2010-07-28T09:10:06Z</time>
 </trkpt>
 <trkpt lat="47.084385" lon="12.985931">
 <ele>1581.18</ele>
 <time>2010-07-28T09:10:08Z</time>
 </trkpt>
 <trkpt lat="47.084366" lon="12.985902">
 <ele>1581.41</ele>
 <time>2010-07-28T09:10:10Z</time>
 </trkpt>
 <trkpt lat="47.084328" lon="12.985835">
 <ele>1581.99</ele>
 <time>2010-07-28T09:10:14Z</time>
 </trkpt>
 <trkpt lat="47.084217" lon="12.985654">
 <ele>1583.25</ele>
 <time>2010-07-28T09:10:23Z</time>
 </trkpt>
 <trkpt lat="47.084148" lon="12.985539">
 <ele>1583.99</ele>
 <time>2010-07-28T09:10:30Z</time>
 </trkpt>
 <trkpt lat="47.084137" lon="12.985522">
 <ele>1583.99</ele>
 <time>2010-07-28T09:10:31Z</time>
 </trkpt>
 <trkpt lat="47.084007" lon="12.985382">
 <ele>1584.56</ele>
 <time>2010-07-28T09:10:38Z</time>
 </trkpt>
 <trkpt lat="47.083996" lon="12.985380">
 <ele>1584.61</ele>
 <time>2010-07-28T09:10:39Z</time>
 </trkpt>
 <trkpt lat="47.083893" lon="12.985365">
 <ele>1584.66</ele>
 <time>2010-07-28T09:10:47Z</time>
 </trkpt>
 <trkpt lat="47.083855" lon="12.985360">
 <ele>1584.84</ele>
 <time>2010-07-28T09:10:52Z</time>
 </trkpt>
 <trkpt lat="47.083729" lon="12.985341">
 <ele>1584.60</ele>
 <time>2010-07-28T09:10:58Z</time>
 </trkpt>
 <trkpt lat="47.083557" lon="12.985316">
 <ele>1584.93</ele>
 <time>2010-07-28T09:11:04Z</time>
 </trkpt>
 <trkpt lat="47.083344" lon="12.985227">
 <ele>1585.31</ele>
 <time>2010-07-28T09:11:12Z</time>
 </trkpt>
 <trkpt lat="47.083145" lon="12.985114">
 <ele>1585.87</ele>
 <time>2010-07-28T09:11:19Z</time>
 </trkpt>
 <trkpt lat="47.083004" lon="12.985034">
 <ele>1586.38</ele>
 <time>2010-07-28T09:11:25Z</time>
 </trkpt>
 <trkpt lat="47.082909" lon="12.984979">
 <ele>1587.02</ele>
 <time>2010-07-28T09:11:30Z</time>
 </trkpt>
 <trkpt lat="47.082775" lon="12.984941">
 <ele>1587.50</ele>
 <time>2010-07-28T09:11:35Z</time>
 </trkpt>
 <trkpt lat="47.082676" lon="12.984923">
 <ele>1588.04</ele>
 <time>2010-07-28T09:11:40Z</time>
 </trkpt>
 <trkpt lat="47.082661" lon="12.984920">
 <ele>1588.14</ele>
 <time>2010-07-28T09:11:41Z</time>
 </trkpt>
 <trkpt lat="47.082520" lon="12.984893">
 <ele>1588.85</ele>
 <time>2010-07-28T09:11:47Z</time>
 </trkpt>
 <trkpt lat="47.082363" lon="12.984864">
 <ele>1589.17</ele>
 <time>2010-07-28T09:11:52Z</time>
 </trkpt>
 <trkpt lat="47.082214" lon="12.984835">
 <ele>1589.92</ele>
 <time>2010-07-28T09:11:57Z</time>
 </trkpt>
 <trkpt lat="47.082020" lon="12.984798">
 <ele>1590.39</ele>
 <time>2010-07-28T09:12:03Z</time>
 </trkpt>
 <trkpt lat="47.081829" lon="12.984762">
 <ele>1591.03</ele>
 <time>2010-07-28T09:12:10Z</time>
 </trkpt>
 <trkpt lat="47.081669" lon="12.984731">
 <ele>1591.21</ele>
 <time>2010-07-28T09:12:16Z</time>
 </trkpt>
 <trkpt lat="47.081501" lon="12.984681">
 <ele>1591.00</ele>
 <time>2010-07-28T09:12:23Z</time>
 </trkpt>
 <trkpt lat="47.081417" lon="12.984660">
 <ele>1590.76</ele>
 <time>2010-07-28T09:12:29Z</time>
 </trkpt>
 <trkpt lat="47.081417" lon="12.984660">
 <ele>1590.70</ele>
 <time>2010-07-28T09:12:34Z</time>
 </trkpt>
 <trkpt lat="47.081104" lon="12.984642">
 <ele>1591.41</ele>
 <time>2010-07-28T09:12:40Z</time>
 </trkpt>
 <trkpt lat="47.080959" lon="12.984486">
 <ele>1591.45</ele>
 <time>2010-07-28T09:12:45Z</time>
 </trkpt>
 <trkpt lat="47.080948" lon="12.984461">
 <ele>1591.45</ele>
 <time>2010-07-28T09:12:46Z</time>
 </trkpt>
 <trkpt lat="47.080933" lon="12.984426">
 <ele>1591.50</ele>
 <time>2010-07-28T09:12:48Z</time>
 </trkpt>
 <trkpt lat="47.081501" lon="12.984681">
 <ele>1591.45</ele>
 <time>2010-07-28T09:12:53Z</time>
 </trkpt>
 <trkpt lat="47.080902" lon="12.984369">
 <ele>1591.54</ele>
 <time>2010-07-28T09:12:55Z</time>
 </trkpt>
 <trkpt lat="47.080784" lon="12.984112">
 <ele>1592.20</ele>
 <time>2010-07-28T09:13:02Z</time>
 </trkpt>
 <trkpt lat="47.080708" lon="12.983877">
 <ele>1592.09</ele>
 <time>2010-07-28T09:13:08Z</time>
 </trkpt>
 <trkpt lat="47.080654" lon="12.983628">
 <ele>1593.72</ele>
 <time>2010-07-28T09:13:15Z</time>
 </trkpt>
 <trkpt lat="47.080650" lon="12.983591">
 <ele>1594.00</ele>
 <time>2010-07-28T09:13:16Z</time>
 </trkpt>
 <trkpt lat="47.080627" lon="12.983420">
 <ele>1594.59</ele>
 <time>2010-07-28T09:13:20Z</time>
 </trkpt>
 <trkpt lat="47.080601" lon="12.983200">
 <ele>1595.27</ele>
 <time>2010-07-28T09:13:27Z</time>
 </trkpt>
 <trkpt lat="47.080551" lon="12.982969">
 <ele>1596.57</ele>
 <time>2010-07-28T09:13:34Z</time>
 </trkpt>
 <trkpt lat="47.080467" lon="12.982845">
 <ele>1598.23</ele>
 <time>2010-07-28T09:13:41Z</time>
 </trkpt>
 <trkpt lat="47.080399" lon="12.982740">
 <ele>1599.44</ele>
 <time>2010-07-28T09:13:47Z</time>
 </trkpt>
 <trkpt lat="47.080330" lon="12.982640">
 <ele>1600.10</ele>
 <time>2010-07-28T09:13:52Z</time>
 </trkpt>
 <trkpt lat="47.080257" lon="12.982534">
 <ele>1600.53</ele>
 <time>2010-07-28T09:13:57Z</time>
 </trkpt>
 <trkpt lat="47.080154" lon="12.982380">
 <ele>1601.04</ele>
 <time>2010-07-28T09:14:03Z</time>
 </trkpt>
 <trkpt lat="47.080082" lon="12.982276">
 <ele>1601.67</ele>
 <time>2010-07-28T09:14:07Z</time>
 </trkpt>
 <trkpt lat="47.080048" lon="12.982226">
 <ele>1601.76</ele>
 <time>2010-07-28T09:14:09Z</time>
 </trkpt>
 <trkpt lat="47.079956" lon="12.982087">
 <ele>1602.22</ele>
 <time>2010-07-28T09:14:15Z</time>
 </trkpt>
 <trkpt lat="47.079880" lon="12.981975">
 <ele>1602.50</ele>
 <time>2010-07-28T09:14:19Z</time>
 </trkpt>
 <trkpt lat="47.079681" lon="12.981713">
 <ele>1602.76</ele>
 <time>2010-07-28T09:14:28Z</time>
 </trkpt>
 <trkpt lat="47.079460" lon="12.981547">
 <ele>1603.95</ele>
 <time>2010-07-28T09:14:38Z</time>
 </trkpt>
 <trkpt lat="47.079304" lon="12.981430">
 <ele>1604.54</ele>
 <time>2010-07-28T09:14:45Z</time>
 </trkpt>
 <trkpt lat="47.079147" lon="12.981311">
 <ele>1605.59</ele>
 <time>2010-07-28T09:14:52Z</time>
 </trkpt>
 <trkpt lat="47.078972" lon="12.981081">
 <ele>1606.85</ele>
 <time>2010-07-28T09:15:01Z</time>
 </trkpt>
 <trkpt lat="47.078896" lon="12.980897">
 <ele>1608.39</ele>
 <time>2010-07-28T09:15:08Z</time>
 </trkpt>
 <trkpt lat="47.078831" lon="12.980751">
 <ele>1609.81</ele>
 <time>2010-07-28T09:15:14Z</time>
 </trkpt>
 <trkpt lat="47.078777" lon="12.980624">
 <ele>1611.10</ele>
 <time>2010-07-28T09:15:19Z</time>
 </trkpt>
 <trkpt lat="47.078690" lon="12.980410">
 <ele>1613.08</ele>
 <time>2010-07-28T09:15:26Z</time>
 </trkpt>
 <trkpt lat="47.078495" lon="12.980249">
 <ele>1615.20</ele>
 <time>2010-07-28T09:15:35Z</time>
 </trkpt>
 <trkpt lat="47.078419" lon="12.980196">
 <ele>1615.82</ele>
 <time>2010-07-28T09:15:39Z</time>
 </trkpt>
 <trkpt lat="47.078320" lon="12.980128">
 <ele>1616.94</ele>
 <time>2010-07-28T09:15:45Z</time>
 </trkpt>
 <trkpt lat="47.078175" lon="12.980027">
 <ele>1619.85</ele>
 <time>2010-07-28T09:15:53Z</time>
 </trkpt>
 <trkpt lat="47.078083" lon="12.979965">
 <ele>1621.16</ele>
 <time>2010-07-28T09:15:59Z</time>
 </trkpt>
 <trkpt lat="47.077988" lon="12.979947">
 <ele>1621.25</ele>
 <time>2010-07-28T09:16:05Z</time>
 </trkpt>
 <trkpt lat="47.077797" lon="12.979975">
 <ele>1620.45</ele>
 <time>2010-07-28T09:16:13Z</time>
 </trkpt>
 <trkpt lat="47.077637" lon="12.979998">
 <ele>1619.94</ele>
 <time>2010-07-28T09:16:18Z</time>
 </trkpt>
 <trkpt lat="47.077335" lon="12.980040">
 <ele>1617.66</ele>
 <time>2010-07-28T09:16:24Z</time>
 </trkpt>
 <trkpt lat="47.076900" lon="12.980314">
 <ele>1617.97</ele>
 <time>2010-07-28T09:16:33Z</time>
 </trkpt>
 <trkpt lat="47.076679" lon="12.980465">
 <ele>1618.79</ele>
 <time>2010-07-28T09:16:39Z</time>
 </trkpt>
 <trkpt lat="47.076504" lon="12.980584">
 <ele>1619.13</ele>
 <time>2010-07-28T09:16:45Z</time>
 </trkpt>
 <trkpt lat="47.076302" lon="12.980721">
 <ele>1618.04</ele>
 <time>2010-07-28T09:16:51Z</time>
 </trkpt>
 <trkpt lat="47.076263" lon="12.980749">
 <ele>1618.06</ele>
 <time>2010-07-28T09:16:52Z</time>
 </trkpt>
 <trkpt lat="47.076103" lon="12.980835">
 <ele>1618.06</ele>
 <time>2010-07-28T09:16:56Z</time>
 </trkpt>
 <trkpt lat="47.075745" lon="12.980940">
 <ele>1618.76</ele>
 <time>2010-07-28T09:17:04Z</time>
 </trkpt>
 <trkpt lat="47.075302" lon="12.981071">
 <ele>1619.15</ele>
 <time>2010-07-28T09:17:14Z</time>
 </trkpt>
 <trkpt lat="47.074940" lon="12.981177">
 <ele>1619.47</ele>
 <time>2010-07-28T09:17:22Z</time>
 </trkpt>
 <trkpt lat="47.074577" lon="12.981242">
 <ele>1620.05</ele>
 <time>2010-07-28T09:17:30Z</time>
 </trkpt>
 <trkpt lat="47.074265" lon="12.981227">
 <ele>1620.72</ele>
 <time>2010-07-28T09:17:37Z</time>
 </trkpt>
 <trkpt lat="47.073898" lon="12.981209">
 <ele>1620.76</ele>
 <time>2010-07-28T09:17:45Z</time>
 </trkpt>
 <trkpt lat="47.073521" lon="12.981325">
 <ele>1621.00</ele>
 <time>2010-07-28T09:17:53Z</time>
 </trkpt>
 <trkpt lat="47.073338" lon="12.981398">
 <ele>1621.53</ele>
 <time>2010-07-28T09:17:57Z</time>
 </trkpt>
 <trkpt lat="47.073044" lon="12.981452">
 <ele>1621.97</ele>
 <time>2010-07-28T09:18:04Z</time>
 </trkpt>
 <trkpt lat="47.073002" lon="12.981449">
 <ele>1621.89</ele>
 <time>2010-07-28T09:18:05Z</time>
 </trkpt>
 <trkpt lat="47.072918" lon="12.981442">
 <ele>1622.24</ele>
 <time>2010-07-28T09:18:07Z</time>
 </trkpt>
 <trkpt lat="47.072578" lon="12.981414">
 <ele>1623.51</ele>
 <time>2010-07-28T09:18:16Z</time>
 </trkpt>
 <trkpt lat="47.072292" lon="12.981421">
 <ele>1624.61</ele>
 <time>2010-07-28T09:18:24Z</time>
 </trkpt>
 <trkpt lat="47.072025" lon="12.981487">
 <ele>1624.82</ele>
 <time>2010-07-28T09:18:30Z</time>
 </trkpt>
 <trkpt lat="47.071793" lon="12.981546">
 <ele>1627.52</ele>
 <time>2010-07-28T09:18:36Z</time>
 </trkpt>
 <trkpt lat="47.071712" lon="12.981565">
 <ele>1628.80</ele>
 <time>2010-07-28T09:18:39Z</time>
 </trkpt>
 <trkpt lat="47.071613" lon="12.981594">
 <ele>1628.84</ele>
 <time>2010-07-28T09:18:45Z</time>
 </trkpt>
 <trkpt lat="47.071522" lon="12.981622">
 <ele>1629.14</ele>
 <time>2010-07-28T09:18:51Z</time>
 </trkpt>
 <trkpt lat="47.071381" lon="12.981663">
 <ele>1629.58</ele>
 <time>2010-07-28T09:18:56Z</time>
 </trkpt>
 <trkpt lat="47.071106" lon="12.981745">
 <ele>1629.74</ele>
 <time>2010-07-28T09:19:04Z</time>
 </trkpt>
 <trkpt lat="47.070805" lon="12.981850">
 <ele>1630.48</ele>
 <time>2010-07-28T09:19:13Z</time>
 </trkpt>
 <trkpt lat="47.070583" lon="12.981962">
 <ele>1631.51</ele>
 <time>2010-07-28T09:19:20Z</time>
 </trkpt>
 <trkpt lat="47.070389" lon="12.982079">
 <ele>1632.27</ele>
 <time>2010-07-28T09:19:26Z</time>
 </trkpt>
 <trkpt lat="47.070103" lon="12.982252">
 <ele>1633.02</ele>
 <time>2010-07-28T09:19:35Z</time>
 </trkpt>
 <trkpt lat="47.069778" lon="12.982446">
 <ele>1633.73</ele>
 <time>2010-07-28T09:19:45Z</time>
 </trkpt>
 <trkpt lat="47.069576" lon="12.982624">
 <ele>1634.64</ele>
 <time>2010-07-28T09:19:52Z</time>
 </trkpt>
 <trkpt lat="47.069378" lon="12.982837">
 <ele>1634.70</ele>
 <time>2010-07-28T09:19:59Z</time>
 </trkpt>
 <trkpt lat="47.069107" lon="12.983126">
 <ele>1635.53</ele>
 <time>2010-07-28T09:20:09Z</time>
 </trkpt>
 <trkpt lat="47.068954" lon="12.983164">
 <ele>1635.41</ele>
 <time>2010-07-28T09:20:14Z</time>
 </trkpt>
 <trkpt lat="47.068722" lon="12.983177">
 <ele>1635.03</ele>
 <time>2010-07-28T09:20:20Z</time>
 </trkpt>
 <trkpt lat="47.068588" lon="12.983325">
 <ele>1636.30</ele>
 <time>2010-07-28T09:20:26Z</time>
 </trkpt>
 <trkpt lat="47.068401" lon="12.983591">
 <ele>1636.81</ele>
 <time>2010-07-28T09:20:36Z</time>
 </trkpt>
 <trkpt lat="47.068272" lon="12.983772">
 <ele>1637.55</ele>
 <time>2010-07-28T09:20:43Z</time>
 </trkpt>
 <trkpt lat="47.068138" lon="12.983960">
 <ele>1638.62</ele>
 <time>2010-07-28T09:20:51Z</time>
 </trkpt>
 <trkpt lat="47.068069" lon="12.984059">
 <ele>1639.47</ele>
 <time>2010-07-28T09:20:58Z</time>
 </trkpt>
 <trkpt lat="47.068069" lon="12.984059">
 <ele>1639.68</ele>
 <time>2010-07-28T09:21:02Z</time>
 </trkpt>
 <trkpt lat="47.068069" lon="12.984059">
 <ele>1639.78</ele>
 <time>2010-07-28T09:21:07Z</time>
 </trkpt>
 <trkpt lat="47.068069" lon="12.984059">
 <ele>1639.87</ele>
 <time>2010-07-28T09:21:10Z</time>
 </trkpt>
 <trkpt lat="47.068069" lon="12.984059">
 <ele>1640.23</ele>
 <time>2010-07-28T09:21:17Z</time>
 </trkpt>
 <trkpt lat="47.068077" lon="12.984060">
 <ele>1640.31</ele>
 <time>2010-07-28T09:21:20Z</time>
 </trkpt>
 <trkpt lat="47.071347" lon="12.981568">
 <ele>1261.42</ele>
 <time>2010-07-28T10:54:03Z</time>
 </trkpt>
 <trkpt lat="47.075323" lon="12.981188">
 <ele>1262.63</ele>
 <time>2010-07-28T10:54:10Z</time>
 </trkpt>
 <trkpt lat="47.078249" lon="12.979962">
 <ele>1263.39</ele>
 <time>2010-07-28T10:54:19Z</time>
 </trkpt>
 <trkpt lat="47.080871" lon="12.984487">
 <ele>1264.39</ele>
 <time>2010-07-28T10:54:26Z</time>
 </trkpt>
 <trkpt lat="47.085166" lon="12.985610">
 <ele>1264.80</ele>
 <time>2010-07-28T10:54:31Z</time>
 </trkpt>
 <trkpt lat="47.089412" lon="12.986815">
 <ele>1265.33</ele>
 <time>2010-07-28T10:54:36Z</time>
 </trkpt>
 <trkpt lat="47.089164" lon="12.990282">
 <ele>1265.30</ele>
 <time>2010-07-28T10:54:39Z</time>
 </trkpt>
 <trkpt lat="47.091031" lon="12.986753">
 <ele>1265.62</ele>
 <time>2010-07-28T10:55:30Z</time>
 </trkpt>
 <trkpt lat="47.092329" lon="12.990199">
 <ele>1265.62</ele>
 <time>2010-07-28T10:55:31Z</time>
 </trkpt>
 <trkpt lat="47.093699" lon="12.992618">
 <ele>1265.31</ele>
 <time>2010-07-28T10:55:36Z</time>
 </trkpt>
 <trkpt lat="47.095378" lon="12.992785">
 <ele>1266.44</ele>
 <time>2010-07-28T10:55:42Z</time>
 </trkpt>
 <trkpt lat="47.099704" lon="12.993780">
 <ele>1266.60</ele>
 <time>2010-07-28T10:55:45Z</time>
 </trkpt>
 <trkpt lat="47.104110" lon="12.992212">
 <ele>1267.48</ele>
 <time>2010-07-28T10:55:54Z</time>
 </trkpt>
 <trkpt lat="47.105082" lon="12.991220">
 <ele>1267.74</ele>
 <time>2010-07-28T10:56:02Z</time>
 </trkpt>
 <trkpt lat="47.108444" lon="12.993037">
 <ele>1268.37</ele>
 <time>2010-07-28T10:56:11Z</time>
 </trkpt>
 <trkpt lat="47.110086" lon="12.991740">
 <ele>1268.84</ele>
 <time>2010-07-28T10:56:18Z</time>
 </trkpt>
 <trkpt lat="47.112663" lon="12.991149">
 <ele>1269.53</ele>
 <time>2010-07-28T10:56:28Z</time>
 </trkpt>
 <trkpt lat="47.113995" lon="12.989465">
 <ele>1270.17</ele>
 <time>2010-07-28T10:56:38Z</time>
 </trkpt>
 <trkpt lat="47.115794" lon="12.987521">
 <ele>1271.23</ele>
 <time>2010-07-28T10:56:48Z</time>
 </trkpt>
 <trkpt lat="47.117855" lon="12.987015">
 <ele>1272.04</ele>
 <time>2010-07-28T10:56:59Z</time>
 </trkpt>
 <trkpt lat="47.119246" lon="12.986138">
 <ele>1271.49</ele>
 <time>2010-07-28T10:57:08Z</time>
 </trkpt>
 <trkpt lat="47.119704" lon="12.985923">
 <ele>1270.61</ele>
 <time>2010-07-28T10:57:15Z</time>
 </trkpt>
 <trkpt lat="47.120298" lon="12.985835">
 <ele>1269.14</ele>
 <time>2010-07-28T10:57:25Z</time>
 </trkpt>
 <trkpt lat="47.120749" lon="12.985900">
 <ele>1268.15</ele>
 <time>2010-07-28T10:57:33Z</time>
 </trkpt>
 <trkpt lat="47.121180" lon="12.986098">
 <ele>1266.94</ele>
 <time>2010-07-28T10:57:41Z</time>
 </trkpt>
 <trkpt lat="47.122978" lon="12.986681">
 <ele>1265.71</ele>
 <time>2010-07-28T10:57:50Z</time>
 </trkpt>
 <trkpt lat="47.123531" lon="12.986810">
 <ele>1264.06</ele>
 <time>2010-07-28T10:57:58Z</time>
 </trkpt>
 <trkpt lat="47.124039" lon="12.986855">
 <ele>1262.36</ele>
 <time>2010-07-28T10:58:05Z</time>
 </trkpt>
 <trkpt lat="47.124634" lon="12.986853">
 <ele>1260.45</ele>
 <time>2010-07-28T10:58:13Z</time>
 </trkpt>
 <trkpt lat="47.125160" lon="12.986727">
 <ele>1259.22</ele>
 <time>2010-07-28T10:58:20Z</time>
 </trkpt>
 <trkpt lat="47.125282" lon="12.986606">
 <ele>1258.69</ele>
 <time>2010-07-28T10:58:22Z</time>
 </trkpt>
 <trkpt lat="47.125599" lon="12.986289">
 <ele>1257.09</ele>
 <time>2010-07-28T10:58:27Z</time>
 </trkpt>
 <trkpt lat="47.125645" lon="12.986214">
 <ele>1257.08</ele>
 <time>2010-07-28T10:58:28Z</time>
 </trkpt>
 <trkpt lat="47.126083" lon="12.985328">
 <ele>1254.31</ele>
 <time>2010-07-28T10:58:38Z</time>
 </trkpt>
 <trkpt lat="47.126377" lon="12.984758">
 <ele>1252.84</ele>
 <time>2010-07-28T10:58:45Z</time>
 </trkpt>
 <trkpt lat="47.126648" lon="12.984469">
 <ele>1251.54</ele>
 <time>2010-07-28T10:58:50Z</time>
 </trkpt>
 <trkpt lat="47.126995" lon="12.984386">
 <ele>1250.24</ele>
 <time>2010-07-28T10:58:55Z</time>
 </trkpt>
 <trkpt lat="47.127064" lon="12.984374">
 <ele>1249.90</ele>
 <time>2010-07-28T10:58:56Z</time>
 </trkpt>
 <trkpt lat="47.127483" lon="12.984562">
 <ele>1247.97</ele>
 <time>2010-07-28T10:59:02Z</time>
 </trkpt>
 <trkpt lat="47.127834" lon="12.984717">
 <ele>1246.36</ele>
 <time>2010-07-28T10:59:07Z</time>
 </trkpt>
 <trkpt lat="47.128361" lon="12.984786">
 <ele>1245.27</ele>
 <time>2010-07-28T10:59:14Z</time>
 </trkpt>
 <trkpt lat="47.128773" lon="12.984831">
 <ele>1244.37</ele>
 <time>2010-07-28T10:59:20Z</time>
 </trkpt>
 <trkpt lat="47.128952" lon="12.984831">
 <ele>1242.66</ele>
 <time>2010-07-28T10:59:24Z</time>
 </trkpt>
 <trkpt lat="47.129002" lon="12.984716">
 <ele>1241.93</ele>
 <time>2010-07-28T10:59:29Z</time>
 </trkpt>
 <trkpt lat="47.129002" lon="12.984716">
 <ele>1241.89</ele>
 <time>2010-07-28T10:59:31Z</time>
 </trkpt>
 <trkpt lat="47.129066" lon="12.984752">
 <ele>1241.47</ele>
 <time>2010-07-28T10:59:50Z</time>
 </trkpt>
 <trkpt lat="47.129204" lon="12.984831">
 <ele>1241.06</ele>
 <time>2010-07-28T10:59:56Z</time>
 </trkpt>
 <trkpt lat="47.129604" lon="12.984862">
 <ele>1240.09</ele>
 <time>2010-07-28T11:00:03Z</time>
 </trkpt>
 <trkpt lat="47.129986" lon="12.984892">
 <ele>1238.51</ele>
 <time>2010-07-28T11:00:10Z</time>
 </trkpt>
 <trkpt lat="47.130283" lon="12.984796">
 <ele>1237.10</ele>
 <time>2010-07-28T11:00:16Z</time>
 </trkpt>
 <trkpt lat="47.130615" lon="12.984663">
 <ele>1235.60</ele>
 <time>2010-07-28T11:00:22Z</time>
 </trkpt>
 <trkpt lat="47.130939" lon="12.984453">
 <ele>1233.38</ele>
 <time>2010-07-28T11:00:28Z</time>
 </trkpt>
 <trkpt lat="47.131214" lon="12.984137">
 <ele>1232.19</ele>
 <time>2010-07-28T11:00:34Z</time>
 </trkpt>
 <trkpt lat="47.131618" lon="12.983676">
 <ele>1228.68</ele>
 <time>2010-07-28T11:00:42Z</time>
 </trkpt>
 <trkpt lat="47.131664" lon="12.983623">
 <ele>1228.39</ele>
 <time>2010-07-28T11:00:43Z</time>
 </trkpt>
 <trkpt lat="47.132038" lon="12.983240">
 <ele>1224.61</ele>
 <time>2010-07-28T11:00:51Z</time>
 </trkpt>
 <trkpt lat="47.132145" lon="12.983133">
 <ele>1223.14</ele>
 <time>2010-07-28T11:00:55Z</time>
 </trkpt>
 <trkpt lat="47.132145" lon="12.983133">
 <ele>1222.90</ele>
 <time>2010-07-28T11:00:57Z</time>
 </trkpt>
 <trkpt lat="47.132229" lon="12.983050">
 <ele>1222.31</ele>
 <time>2010-07-28T11:01:37Z</time>
 </trkpt>
 <trkpt lat="47.132366" lon="12.982911">
 <ele>1221.65</ele>
 <time>2010-07-28T11:01:42Z</time>
 </trkpt>
 <trkpt lat="47.132622" lon="12.982659">
 <ele>1220.46</ele>
 <time>2010-07-28T11:01:48Z</time>
 </trkpt>
 <trkpt lat="47.132900" lon="12.982377">
 <ele>1218.60</ele>
 <time>2010-07-28T11:01:54Z</time>
 </trkpt>
 <trkpt lat="47.133133" lon="12.982147">
 <ele>1215.97</ele>
 <time>2010-07-28T11:01:59Z</time>
 </trkpt>
 <trkpt lat="47.133411" lon="12.981867">
 <ele>1213.99</ele>
 <time>2010-07-28T11:02:05Z</time>
 </trkpt>
 <trkpt lat="47.133732" lon="12.981548">
 <ele>1211.48</ele>
 <time>2010-07-28T11:02:11Z</time>
 </trkpt>
 <trkpt lat="47.134064" lon="12.981292">
 <ele>1209.29</ele>
 <time>2010-07-28T11:02:17Z</time>
 </trkpt>
 <trkpt lat="47.134190" lon="12.981197">
 <ele>1207.81</ele>
 <time>2010-07-28T11:02:20Z</time>
 </trkpt>
 <trkpt lat="47.134502" lon="12.980965">
 <ele>1205.74</ele>
 <time>2010-07-28T11:02:27Z</time>
 </trkpt>
 <trkpt lat="47.134724" lon="12.980771">
 <ele>1204.22</ele>
 <time>2010-07-28T11:02:33Z</time>
 </trkpt>
 <trkpt lat="47.134979" lon="12.980523">
 <ele>1202.21</ele>
 <time>2010-07-28T11:02:40Z</time>
 </trkpt>
 <trkpt lat="47.135307" lon="12.980205">
 <ele>1199.50</ele>
 <time>2010-07-28T11:02:48Z</time>
 </trkpt>
 <trkpt lat="47.135601" lon="12.980019">
 <ele>1198.27</ele>
 <time>2010-07-28T11:02:53Z</time>
 </trkpt>
 <trkpt lat="47.135967" lon="12.979875">
 <ele>1196.37</ele>
 <time>2010-07-28T11:02:58Z</time>
 </trkpt>
 <trkpt lat="47.136391" lon="12.979708">
 <ele>1194.21</ele>
 <time>2010-07-28T11:03:03Z</time>
 </trkpt>
 <trkpt lat="47.136982" lon="12.979460">
 <ele>1189.52</ele>
 <time>2010-07-28T11:03:09Z</time>
 </trkpt>
 <trkpt lat="47.137466" lon="12.979058">
 <ele>1184.55</ele>
 <time>2010-07-28T11:03:14Z</time>
 </trkpt>
 <trkpt lat="47.138084" lon="12.978564">
 <ele>1178.73</ele>
 <time>2010-07-28T11:03:20Z</time>
 </trkpt>
 <trkpt lat="47.138763" lon="12.978134">
 <ele>1172.04</ele>
 <time>2010-07-28T11:03:26Z</time>
 </trkpt>
 <trkpt lat="47.138996" lon="12.977987">
 <ele>1170.77</ele>
 <time>2010-07-28T11:03:28Z</time>
 </trkpt>
 <trkpt lat="47.139614" lon="12.977723">
 <ele>1164.76</ele>
 <time>2010-07-28T11:03:33Z</time>
 </trkpt>
 <trkpt lat="47.140339" lon="12.977488">
 <ele>1160.14</ele>
 <time>2010-07-28T11:03:39Z</time>
 </trkpt>
 <trkpt lat="47.140961" lon="12.977285">
 <ele>1158.24</ele>
 <time>2010-07-28T11:03:45Z</time>
 </trkpt>
 <trkpt lat="47.141579" lon="12.977085">
 <ele>1155.66</ele>
 <time>2010-07-28T11:03:52Z</time>
 </trkpt>
 <trkpt lat="47.142208" lon="12.976831">
 <ele>1154.15</ele>
 <time>2010-07-28T11:04:00Z</time>
 </trkpt>
 <trkpt lat="47.142559" lon="12.976662">
 <ele>1154.03</ele>
 <time>2010-07-28T11:04:05Z</time>
 </trkpt>
 <trkpt lat="47.143272" lon="12.976329">
 <ele>1153.21</ele>
 <time>2010-07-28T11:04:16Z</time>
 </trkpt>
 <trkpt lat="47.143677" lon="12.976175">
 <ele>1152.91</ele>
 <time>2010-07-28T11:04:22Z</time>
 </trkpt>
 <trkpt lat="47.144310" lon="12.975931">
 <ele>1150.10</ele>
 <time>2010-07-28T11:04:31Z</time>
 </trkpt>
 <trkpt lat="47.144848" lon="12.975724">
 <ele>1148.07</ele>
 <time>2010-07-28T11:04:39Z</time>
 </trkpt>
 <trkpt lat="47.145241" lon="12.975521">
 <ele>1147.87</ele>
 <time>2010-07-28T11:04:46Z</time>
 </trkpt>
 <trkpt lat="47.145599" lon="12.975246">
 <ele>1147.75</ele>
 <time>2010-07-28T11:04:54Z</time>
 </trkpt>
 <trkpt lat="47.146034" lon="12.974912">
 <ele>1147.92</ele>
 <time>2010-07-28T11:05:04Z</time>
 </trkpt>
 <trkpt lat="47.146458" lon="12.974616">
 <ele>1148.37</ele>
 <time>2010-07-28T11:05:14Z</time>
 </trkpt>
 <trkpt lat="47.146885" lon="12.974471">
 <ele>1148.03</ele>
 <time>2010-07-28T11:05:23Z</time>
 </trkpt>
 <trkpt lat="47.147430" lon="12.974288">
 <ele>1147.70</ele>
 <time>2010-07-28T11:05:34Z</time>
 </trkpt>
 <trkpt lat="47.147915" lon="12.974124">
 <ele>1146.90</ele>
 <time>2010-07-28T11:05:44Z</time>
 </trkpt>
 <trkpt lat="47.148323" lon="12.973920">
 <ele>1145.94</ele>
 <time>2010-07-28T11:05:52Z</time>
 </trkpt>
 <trkpt lat="47.148739" lon="12.973699">
 <ele>1144.69</ele>
 <time>2010-07-28T11:05:59Z</time>
 </trkpt>
 <trkpt lat="47.149452" lon="12.973320">
 <ele>1140.69</ele>
 <time>2010-07-28T11:06:10Z</time>
 </trkpt>
 <trkpt lat="47.149834" lon="12.973157">
 <ele>1138.27</ele>
 <time>2010-07-28T11:06:16Z</time>
 </trkpt>
 <trkpt lat="47.150276" lon="12.973147">
 <ele>1136.86</ele>
 <time>2010-07-28T11:06:23Z</time>
 </trkpt>
 <trkpt lat="47.150925" lon="12.973133">
 <ele>1135.76</ele>
 <time>2010-07-28T11:06:34Z</time>
 </trkpt>
 <trkpt lat="47.151566" lon="12.973119">
 <ele>1134.33</ele>
 <time>2010-07-28T11:06:45Z</time>
 </trkpt>
 <trkpt lat="47.152050" lon="12.973019">
 <ele>1133.21</ele>
 <time>2010-07-28T11:06:53Z</time>
 </trkpt>
 <trkpt lat="47.152317" lon="12.972858">
 <ele>1132.39</ele>
 <time>2010-07-28T11:06:58Z</time>
 </trkpt>
 <trkpt lat="47.152657" lon="12.972460">
 <ele>1131.53</ele>
 <time>2010-07-28T11:07:05Z</time>
 </trkpt>
 <trkpt lat="47.152859" lon="12.972249">
 <ele>1131.33</ele>
 <time>2010-07-28T11:07:09Z</time>
 </trkpt>
 <trkpt lat="47.153172" lon="12.971935">
 <ele>1130.93</ele>
 <time>2010-07-28T11:07:15Z</time>
 </trkpt>
 <trkpt lat="47.153301" lon="12.971918">
 <ele>1130.72</ele>
 <time>2010-07-28T11:07:17Z</time>
 </trkpt>
 <trkpt lat="47.153645" lon="12.971873">
 <ele>1129.05</ele>
 <time>2010-07-28T11:07:22Z</time>
 </trkpt>
 <trkpt lat="47.153873" lon="12.972024">
 <ele>1127.91</ele>
 <time>2010-07-28T11:07:26Z</time>
 </trkpt>
 <trkpt lat="47.154175" lon="12.972197">
 <ele>1127.41</ele>
 <time>2010-07-28T11:07:31Z</time>
 </trkpt>
 <trkpt lat="47.154507" lon="12.972362">
 <ele>1127.59</ele>
 <time>2010-07-28T11:07:37Z</time>
 </trkpt>
 <trkpt lat="47.154800" lon="12.972443">
 <ele>1127.49</ele>
 <time>2010-07-28T11:07:44Z</time>
 </trkpt>
 <trkpt lat="47.155060" lon="12.972513">
 <ele>1128.76</ele>
 <time>2010-07-28T11:07:51Z</time>
 </trkpt>
 <trkpt lat="47.155300" lon="12.972509">
 <ele>1130.23</ele>
 <time>2010-07-28T11:07:58Z</time>
 </trkpt>
 <trkpt lat="47.155552" lon="12.972465">
 <ele>1131.20</ele>
 <time>2010-07-28T11:08:05Z</time>
 </trkpt>
 <trkpt lat="47.155804" lon="12.972377">
 <ele>1132.24</ele>
 <time>2010-07-28T11:08:12Z</time>
 </trkpt>
 <trkpt lat="47.156132" lon="12.972232">
 <ele>1132.07</ele>
 <time>2010-07-28T11:08:21Z</time>
 </trkpt>
 <trkpt lat="47.156433" lon="12.972021">
 <ele>1132.44</ele>
 <time>2010-07-28T11:08:29Z</time>
 </trkpt>
 <trkpt lat="47.156803" lon="12.971672">
 <ele>1132.35</ele>
 <time>2010-07-28T11:08:39Z</time>
 </trkpt>
 <trkpt lat="47.156998" lon="12.971309">
 <ele>1132.89</ele>
 <time>2010-07-28T11:08:46Z</time>
 </trkpt>
 <trkpt lat="47.157257" lon="12.970960">
 <ele>1133.69</ele>
 <time>2010-07-28T11:08:54Z</time>
 </trkpt>
 <trkpt lat="47.157490" lon="12.970792">
 <ele>1134.01</ele>
 <time>2010-07-28T11:09:00Z</time>
 </trkpt>
 <trkpt lat="47.157833" lon="12.970642">
 <ele>1133.68</ele>
 <time>2010-07-28T11:09:07Z</time>
 </trkpt>
 <trkpt lat="47.157948" lon="12.970492">
 <ele>1133.56</ele>
 <time>2010-07-28T11:09:10Z</time>
 </trkpt>
 <trkpt lat="47.158180" lon="12.970158">
 <ele>1133.52</ele>
 <time>2010-07-28T11:09:16Z</time>
 </trkpt>
 <trkpt lat="47.158413" lon="12.969802">
 <ele>1133.21</ele>
 <time>2010-07-28T11:09:22Z</time>
 </trkpt>
 <trkpt lat="47.158676" lon="12.969593">
 <ele>1132.38</ele>
 <time>2010-07-28T11:09:27Z</time>
 </trkpt>
 <trkpt lat="47.158913" lon="12.969429">
 <ele>1131.48</ele>
 <time>2010-07-28T11:09:31Z</time>
 </trkpt>
 <trkpt lat="47.159275" lon="12.969296">
 <ele>1129.66</ele>
 <time>2010-07-28T11:09:36Z</time>
 </trkpt>
 <trkpt lat="47.159599" lon="12.969296">
 <ele>1127.43</ele>
 <time>2010-07-28T11:09:40Z</time>
 </trkpt>
 <trkpt lat="47.160110" lon="12.969320">
 <ele>1125.07</ele>
 <time>2010-07-28T11:09:46Z</time>
 </trkpt>
 <trkpt lat="47.160503" lon="12.969465">
 <ele>1123.17</ele>
 <time>2010-07-28T11:09:51Z</time>
 </trkpt>
 <trkpt lat="47.160988" lon="12.969685">
 <ele>1121.24</ele>
 <time>2010-07-28T11:09:58Z</time>
 </trkpt>
 <trkpt lat="47.161400" lon="12.969859">
 <ele>1120.27</ele>
 <time>2010-07-28T11:10:04Z</time>
 </trkpt>
 <trkpt lat="47.161541" lon="12.969903">
 <ele>1120.11</ele>
 <time>2010-07-28T11:10:06Z</time>
 </trkpt>
 <trkpt lat="47.161972" lon="12.970004">
 <ele>1119.63</ele>
 <time>2010-07-28T11:10:12Z</time>
 </trkpt>
 <trkpt lat="47.162464" lon="12.970174">
 <ele>1118.43</ele>
 <time>2010-07-28T11:10:19Z</time>
 </trkpt>
 <trkpt lat="47.162964" lon="12.970382">
 <ele>1118.69</ele>
 <time>2010-07-28T11:10:27Z</time>
 </trkpt>
 <trkpt lat="47.163319" lon="12.970493">
 <ele>1119.51</ele>
 <time>2010-07-28T11:10:33Z</time>
 </trkpt>
 <trkpt lat="47.163368" lon="12.970514">
 <ele>1119.77</ele>
 <time>2010-07-28T11:10:34Z</time>
 </trkpt>
 <trkpt lat="47.163708" lon="12.970627">
 <ele>1121.04</ele>
 <time>2010-07-28T11:10:41Z</time>
 </trkpt>
 <trkpt lat="47.164047" lon="12.970751">
 <ele>1122.04</ele>
 <time>2010-07-28T11:10:48Z</time>
 </trkpt>
 <trkpt lat="47.164249" lon="12.970827">
 <ele>1122.57</ele>
 <time>2010-07-28T11:10:52Z</time>
 </trkpt>
 <trkpt lat="47.164482" lon="12.970927">
 <ele>1122.93</ele>
 <time>2010-07-28T11:10:57Z</time>
 </trkpt>
 <trkpt lat="47.164776" lon="12.971068">
 <ele>1122.20</ele>
 <time>2010-07-28T11:11:03Z</time>
 </trkpt>
 <trkpt lat="47.165184" lon="12.971226">
 <ele>1121.17</ele>
 <time>2010-07-28T11:11:10Z</time>
 </trkpt>
 <trkpt lat="47.165539" lon="12.971316">
 <ele>1119.94</ele>
 <time>2010-07-28T11:11:16Z</time>
 </trkpt>
 <trkpt lat="47.165695" lon="12.971288">
 <ele>1118.77</ele>
 <time>2010-07-28T11:11:21Z</time>
 </trkpt>
 <trkpt lat="47.165752" lon="12.971312">
 <ele>1118.06</ele>
 <time>2010-07-28T11:11:25Z</time>
 </trkpt>
 <trkpt lat="47.165737" lon="12.971311">
 <ele>1118.16</ele>
 <time>2010-07-28T11:12:06Z</time>
 </trkpt>
 <trkpt lat="47.165737" lon="12.971310">
 <ele>1118.16</ele>
 <time>2010-07-28T11:12:07Z</time>
 </trkpt>
 <trkpt lat="47.165798" lon="12.971230">
 <ele>1118.04</ele>
 <time>2010-07-28T11:12:17Z</time>
 </trkpt>
 <trkpt lat="47.165874" lon="12.971186">
 <ele>1117.85</ele>
 <time>2010-07-28T11:12:19Z</time>
 </trkpt>
 <trkpt lat="47.166138" lon="12.970928">
 <ele>1116.13</ele>
 <time>2010-07-28T11:12:25Z</time>
 </trkpt>
 <trkpt lat="47.166435" lon="12.970601">
 <ele>1114.01</ele>
 <time>2010-07-28T11:12:30Z</time>
 </trkpt>
 <trkpt lat="47.166782" lon="12.970292">
 <ele>1111.80</ele>
 <time>2010-07-28T11:12:35Z</time>
 </trkpt>
 <trkpt lat="47.167149" lon="12.970245">
 <ele>1109.33</ele>
 <time>2010-07-28T11:12:39Z</time>
 </trkpt>
 <trkpt lat="47.167255" lon="12.970315">
 <ele>1108.59</ele>
 <time>2010-07-28T11:12:41Z</time>
 </trkpt>
 <trkpt lat="47.167484" lon="12.970543">
 <ele>1106.16</ele>
 <time>2010-07-28T11:12:44Z</time>
 </trkpt>
 <trkpt lat="47.167648" lon="12.970709">
 <ele>1104.53</ele>
 <time>2010-07-28T11:12:46Z</time>
 </trkpt>
 <trkpt lat="47.168091" lon="12.971173">
 <ele>1099.60</ele>
 <time>2010-07-28T11:12:51Z</time>
 </trkpt>
 <trkpt lat="47.168343" lon="12.971441">
 <ele>1095.73</ele>
 <time>2010-07-28T11:12:54Z</time>
 </trkpt>
 <trkpt lat="47.168831" lon="12.971586">
 <ele>1089.67</ele>
 <time>2010-07-28T11:12:59Z</time>
 </trkpt>
 <trkpt lat="47.169216" lon="12.971674">
 <ele>1085.22</ele>
 <time>2010-07-28T11:13:03Z</time>
 </trkpt>
 <trkpt lat="47.169422" lon="12.971791">
 <ele>1083.26</ele>
 <time>2010-07-28T11:13:06Z</time>
 </trkpt>
 <trkpt lat="47.169655" lon="12.972010">
 <ele>1080.78</ele>
 <time>2010-07-28T11:13:09Z</time>
 </trkpt>
 <trkpt lat="47.170307" lon="12.972621">
 <ele>1075.94</ele>
 <time>2010-07-28T11:13:17Z</time>
 </trkpt>
 <trkpt lat="47.170742" lon="12.972870">
 <ele>1073.72</ele>
 <time>2010-07-28T11:13:22Z</time>
 </trkpt>
 <trkpt lat="47.171314" lon="12.973144">
 <ele>1072.24</ele>
 <time>2010-07-28T11:13:29Z</time>
 </trkpt>
 <trkpt lat="47.171841" lon="12.973357">
 <ele>1071.56</ele>
 <time>2010-07-28T11:13:36Z</time>
 </trkpt>
 <trkpt lat="47.172581" lon="12.973656">
 <ele>1070.57</ele>
 <time>2010-07-28T11:13:47Z</time>
 </trkpt>
 <trkpt lat="47.172974" lon="12.973781">
 <ele>1070.22</ele>
 <time>2010-07-28T11:13:53Z</time>
 </trkpt>
 <trkpt lat="47.173618" lon="12.973927">
 <ele>1069.78</ele>
 <time>2010-07-28T11:14:03Z</time>
 </trkpt>
 <trkpt lat="47.174145" lon="12.974045">
 <ele>1070.33</ele>
 <time>2010-07-28T11:14:12Z</time>
 </trkpt>
 <trkpt lat="47.174572" lon="12.974142">
 <ele>1070.32</ele>
 <time>2010-07-28T11:14:20Z</time>
 </trkpt>
 <trkpt lat="47.175129" lon="12.974249">
 <ele>1069.82</ele>
 <time>2010-07-28T11:14:30Z</time>
 </trkpt>
 <trkpt lat="47.175537" lon="12.974319">
 <ele>1069.34</ele>
 <time>2010-07-28T11:14:37Z</time>
 </trkpt>
 <trkpt lat="47.175999" lon="12.974398">
 <ele>1068.89</ele>
 <time>2010-07-28T11:14:45Z</time>
 </trkpt>
 <trkpt lat="47.176338" lon="12.974361">
 <ele>1068.35</ele>
 <time>2010-07-28T11:14:51Z</time>
 </trkpt>
 <trkpt lat="47.176712" lon="12.974233">
 <ele>1067.59</ele>
 <time>2010-07-28T11:14:57Z</time>
 </trkpt>
 <trkpt lat="47.177238" lon="12.974080">
 <ele>1066.71</ele>
 <time>2010-07-28T11:15:05Z</time>
 </trkpt>
 <trkpt lat="47.177559" lon="12.974011">
 <ele>1066.51</ele>
 <time>2010-07-28T11:15:10Z</time>
 </trkpt>
 <trkpt lat="47.177616" lon="12.973999">
 <ele>1066.41</ele>
 <time>2010-07-28T11:15:11Z</time>
 </trkpt>
 <trkpt lat="47.178188" lon="12.974351">
 <ele>1066.10</ele>
 <time>2010-07-28T11:15:21Z</time>
 </trkpt>
 <trkpt lat="47.178738" lon="12.974701">
 <ele>1065.44</ele>
 <time>2010-07-28T11:15:31Z</time>
 </trkpt>
 <trkpt lat="47.179230" lon="12.975013">
 <ele>1064.95</ele>
 <time>2010-07-28T11:15:40Z</time>
 </trkpt>
 <trkpt lat="47.179600" lon="12.975245">
 <ele>1065.19</ele>
 <time>2010-07-28T11:15:47Z</time>
 </trkpt>
 <trkpt lat="47.180088" lon="12.975394">
 <ele>1065.33</ele>
 <time>2010-07-28T11:15:56Z</time>
 </trkpt>
 <trkpt lat="47.180611" lon="12.975554">
 <ele>1065.19</ele>
 <time>2010-07-28T11:16:06Z</time>
 </trkpt>
 <trkpt lat="47.180988" lon="12.975668">
 <ele>1065.97</ele>
 <time>2010-07-28T11:16:14Z</time>
 </trkpt>
 <trkpt lat="47.181343" lon="12.975865">
 <ele>1066.97</ele>
 <time>2010-07-28T11:16:23Z</time>
 </trkpt>
 <trkpt lat="47.181828" lon="12.976211">
 <ele>1067.33</ele>
 <time>2010-07-28T11:16:35Z</time>
 </trkpt>
 <trkpt lat="47.182316" lon="12.976549">
 <ele>1067.56</ele>
 <time>2010-07-28T11:16:47Z</time>
 </trkpt>
 <trkpt lat="47.182755" lon="12.976854">
 <ele>1068.08</ele>
 <time>2010-07-28T11:16:58Z</time>
 </trkpt>
 <trkpt lat="47.183132" lon="12.977118">
 <ele>1069.41</ele>
 <time>2010-07-28T11:17:08Z</time>
 </trkpt>
 <trkpt lat="47.183525" lon="12.977317">
 <ele>1070.67</ele>
 <time>2010-07-28T11:17:18Z</time>
 </trkpt>
 <trkpt lat="47.183895" lon="12.977491">
 <ele>1072.33</ele>
 <time>2010-07-28T11:17:28Z</time>
 </trkpt>
 <trkpt lat="47.184261" lon="12.977661">
 <ele>1074.30</ele>
 <time>2010-07-28T11:17:39Z</time>
 </trkpt>
 <trkpt lat="47.184593" lon="12.977816">
 <ele>1076.00</ele>
 <time>2010-07-28T11:17:49Z</time>
 </trkpt>
 <trkpt lat="47.184898" lon="12.977932">
 <ele>1077.36</ele>
 <time>2010-07-28T11:17:58Z</time>
 </trkpt>
 <trkpt lat="47.185242" lon="12.977975">
 <ele>1078.67</ele>
 <time>2010-07-28T11:18:08Z</time>
 </trkpt>
 <trkpt lat="47.185570" lon="12.977983">
 <ele>1078.72</ele>
 <time>2010-07-28T11:18:17Z</time>
 </trkpt>
 <trkpt lat="47.185844" lon="12.977870">
 <ele>1077.58</ele>
 <time>2010-07-28T11:18:24Z</time>
 </trkpt>
 <trkpt lat="47.185974" lon="12.977816">
 <ele>1077.18</ele>
 <time>2010-07-28T11:18:27Z</time>
 </trkpt>
 <trkpt lat="47.186367" lon="12.977792">
 <ele>1075.25</ele>
 <time>2010-07-28T11:18:33Z</time>
 </trkpt>
 <trkpt lat="47.186516" lon="12.977809">
 <ele>1073.88</ele>
 <time>2010-07-28T11:18:35Z</time>
 </trkpt>
 <trkpt lat="47.186974" lon="12.977884">
 <ele>1069.65</ele>
 <time>2010-07-28T11:18:41Z</time>
 </trkpt>
 <trkpt lat="47.187382" lon="12.977972">
 <ele>1065.45</ele>
 <time>2010-07-28T11:18:46Z</time>
 </trkpt>
 <trkpt lat="47.187805" lon="12.978064">
 <ele>1060.54</ele>
 <time>2010-07-28T11:18:51Z</time>
 </trkpt>
 <trkpt lat="47.188110" lon="12.978289">
 <ele>1055.96</ele>
 <time>2010-07-28T11:18:56Z</time>
 </trkpt>
 <trkpt lat="47.188160" lon="12.978331">
 <ele>1055.13</ele>
 <time>2010-07-28T11:18:57Z</time>
 </trkpt>
 <trkpt lat="47.188419" lon="12.978545">
 <ele>1050.66</ele>
 <time>2010-07-28T11:19:04Z</time>
 </trkpt>
 <trkpt lat="47.188587" lon="12.978680">
 <ele>1048.47</ele>
 <time>2010-07-28T11:19:10Z</time>
 </trkpt>
 <trkpt lat="47.188778" lon="12.978835">
 <ele>1046.18</ele>
 <time>2010-07-28T11:19:16Z</time>
 </trkpt>
 <trkpt lat="47.188904" lon="12.978939">
 <ele>1044.29</ele>
 <time>2010-07-28T11:19:20Z</time>
 </trkpt>
 <trkpt lat="47.188976" lon="12.978997">
 <ele>1043.11</ele>
 <time>2010-07-28T11:19:25Z</time>
 </trkpt>
 <trkpt lat="47.188976" lon="12.978997">
 <ele>1042.64</ele>
 <time>2010-07-28T11:19:27Z</time>
 </trkpt>
 <trkpt lat="47.189034" lon="12.979046">
 <ele>1041.94</ele>
 <time>2010-07-28T11:20:08Z</time>
 </trkpt>
 <trkpt lat="47.189224" lon="12.979200">
 <ele>1040.38</ele>
 <time>2010-07-28T11:20:13Z</time>
 </trkpt>
 <trkpt lat="47.189476" lon="12.979383">
 <ele>1038.30</ele>
 <time>2010-07-28T11:20:17Z</time>
 </trkpt>
 <trkpt lat="47.189754" lon="12.979584">
 <ele>1035.00</ele>
 <time>2010-07-28T11:20:21Z</time>
 </trkpt>
 <trkpt lat="47.189823" lon="12.979631">
 <ele>1034.13</ele>
 <time>2010-07-28T11:20:22Z</time>
 </trkpt>
 <trkpt lat="47.190460" lon="12.979693">
 <ele>1027.42</ele>
 <time>2010-07-28T11:20:30Z</time>
 </trkpt>
 <trkpt lat="47.190849" lon="12.979584">
 <ele>1022.68</ele>
 <time>2010-07-28T11:20:35Z</time>
 </trkpt>
 <trkpt lat="47.191139" lon="12.979405">
 <ele>1020.30</ele>
 <time>2010-07-28T11:20:39Z</time>
 </trkpt>
 <trkpt lat="47.191471" lon="12.978987">
 <ele>1016.08</ele>
 <time>2010-07-28T11:20:44Z</time>
 </trkpt>
 <trkpt lat="47.191799" lon="12.978512">
 <ele>1012.85</ele>
 <time>2010-07-28T11:20:49Z</time>
 </trkpt>
 <trkpt lat="47.191971" lon="12.978219">
 <ele>1011.56</ele>
 <time>2010-07-28T11:20:52Z</time>
 </trkpt>
 <trkpt lat="47.192123" lon="12.977949">
 <ele>1011.31</ele>
 <time>2010-07-28T11:20:55Z</time>
 </trkpt>
 <trkpt lat="47.192375" lon="12.977520">
 <ele>1010.91</ele>
 <time>2010-07-28T11:21:01Z</time>
 </trkpt>
 <trkpt lat="47.193020" lon="12.976987">
 <ele>1010.17</ele>
 <time>2010-07-28T11:21:13Z</time>
 </trkpt>
 <trkpt lat="47.193539" lon="12.976712">
 <ele>1009.49</ele>
 <time>2010-07-28T11:21:22Z</time>
 </trkpt>
 <trkpt lat="47.193878" lon="12.976511">
 <ele>1009.61</ele>
 <time>2010-07-28T11:21:28Z</time>
 </trkpt>
 <trkpt lat="47.194286" lon="12.976267">
 <ele>1009.67</ele>
 <time>2010-07-28T11:21:36Z</time>
 </trkpt>
 <trkpt lat="47.194569" lon="12.976203">
 <ele>1009.65</ele>
 <time>2010-07-28T11:21:41Z</time>
 </trkpt>
 <trkpt lat="47.194798" lon="12.976151">
 <ele>1009.35</ele>
 <time>2010-07-28T11:21:45Z</time>
 </trkpt>
 <trkpt lat="47.194908" lon="12.976127">
 <ele>1009.22</ele>
 <time>2010-07-28T11:21:47Z</time>
 </trkpt>
 <trkpt lat="47.195137" lon="12.976056">
 <ele>1008.77</ele>
 <time>2010-07-28T11:21:51Z</time>
 </trkpt>
 <trkpt lat="47.195316" lon="12.975981">
 <ele>1008.13</ele>
 <time>2010-07-28T11:21:54Z</time>
 </trkpt>
 <trkpt lat="47.195629" lon="12.975852">
 <ele>1007.43</ele>
 <time>2010-07-28T11:21:59Z</time>
 </trkpt>
 <trkpt lat="47.196110" lon="12.975481">
 <ele>1006.63</ele>
 <time>2010-07-28T11:22:07Z</time>
 </trkpt>
 <trkpt lat="47.196171" lon="12.975434">
 <ele>1006.65</ele>
 <time>2010-07-28T11:22:08Z</time>
 </trkpt>
 <trkpt lat="47.196507" lon="12.975164">
 <ele>1005.68</ele>
 <time>2010-07-28T11:22:14Z</time>
 </trkpt>
 <trkpt lat="47.196724" lon="12.974978">
 <ele>1004.78</ele>
 <time>2010-07-28T11:22:18Z</time>
 </trkpt>
 <trkpt lat="47.196838" lon="12.974875">
 <ele>1004.73</ele>
 <time>2010-07-28T11:22:21Z</time>
 </trkpt>
 <trkpt lat="47.196838" lon="12.974875">
 <ele>1004.48</ele>
 <time>2010-07-28T11:22:25Z</time>
 </trkpt>
 <trkpt lat="47.197117" lon="12.974678">
 <ele>1004.37</ele>
 <time>2010-07-28T11:22:26Z</time>
 </trkpt>
 <trkpt lat="47.197487" lon="12.974842">
 <ele>1003.68</ele>
 <time>2010-07-28T11:22:31Z</time>
 </trkpt>
 <trkpt lat="47.197769" lon="12.975318">
 <ele>1002.64</ele>
 <time>2010-07-28T11:22:37Z</time>
 </trkpt>
 <trkpt lat="47.198090" lon="12.975864">
 <ele>1001.80</ele>
 <time>2010-07-28T11:22:44Z</time>
 </trkpt>
 <trkpt lat="47.198307" lon="12.976241">
 <ele>1001.51</ele>
 <time>2010-07-28T11:22:49Z</time>
 </trkpt>
 <trkpt lat="47.198673" lon="12.976913">
 <ele>1001.12</ele>
 <time>2010-07-28T11:22:58Z</time>
 </trkpt>
 <trkpt lat="47.198963" lon="12.977427">
 <ele>1000.44</ele>
 <time>2010-07-28T11:23:05Z</time>
 </trkpt>
 <trkpt lat="47.199257" lon="12.977812">
 <ele>1000.03</ele>
 <time>2010-07-28T11:23:11Z</time>
 </trkpt>
 <trkpt lat="47.199520" lon="12.978058">
 <ele>999.70</ele>
 <time>2010-07-28T11:23:16Z</time>
 </trkpt>
 <trkpt lat="47.200123" lon="12.978304">
 <ele>998.85</ele>
 <time>2010-07-28T11:23:26Z</time>
 </trkpt>
 <trkpt lat="47.200356" lon="12.978437">
 <ele>998.72</ele>
 <time>2010-07-28T11:23:30Z</time>
 </trkpt>
 <trkpt lat="47.200634" lon="12.978695">
 <ele>998.29</ele>
 <time>2010-07-28T11:23:36Z</time>
 </trkpt>
 <trkpt lat="47.200634" lon="12.978695">
 <ele>998.32</ele>
 <time>2010-07-28T11:23:38Z</time>
 </trkpt>
 <trkpt lat="47.200958" lon="12.979252">
 <ele>999.54</ele>
 <time>2010-07-28T11:23:47Z</time>
 </trkpt>
 <trkpt lat="47.201286" lon="12.979853">
 <ele>999.97</ele>
 <time>2010-07-28T11:23:54Z</time>
 </trkpt>
 <trkpt lat="47.201622" lon="12.980273">
 <ele>1000.05</ele>
 <time>2010-07-28T11:24:02Z</time>
 </trkpt>
 <trkpt lat="47.202072" lon="12.980761">
 <ele>998.81</ele>
 <time>2010-07-28T11:24:11Z</time>
 </trkpt>
 <trkpt lat="47.202576" lon="12.981348">
 <ele>998.01</ele>
 <time>2010-07-28T11:24:21Z</time>
 </trkpt>
 <trkpt lat="47.202934" lon="12.981785">
 <ele>998.22</ele>
 <time>2010-07-28T11:24:29Z</time>
 </trkpt>
 <trkpt lat="47.203255" lon="12.982280">
 <ele>998.84</ele>
 <time>2010-07-28T11:24:38Z</time>
 </trkpt>
 <trkpt lat="47.203571" lon="12.982816">
 <ele>999.70</ele>
 <time>2010-07-28T11:24:48Z</time>
 </trkpt>
 <trkpt lat="47.203922" lon="12.983317">
 <ele>999.48</ele>
 <time>2010-07-28T11:24:58Z</time>
 </trkpt>
 <trkpt lat="47.204178" lon="12.983583">
 <ele>999.48</ele>
 <time>2010-07-28T11:25:04Z</time>
 </trkpt>
 <trkpt lat="47.204594" lon="12.983883">
 <ele>998.20</ele>
 <time>2010-07-28T11:25:12Z</time>
 </trkpt>
 <trkpt lat="47.205044" lon="12.984139">
 <ele>996.71</ele>
 <time>2010-07-28T11:25:19Z</time>
 </trkpt>
 <trkpt lat="47.205467" lon="12.984463">
 <ele>995.17</ele>
 <time>2010-07-28T11:25:26Z</time>
 </trkpt>
 <trkpt lat="47.205811" lon="12.984797">
 <ele>994.32</ele>
 <time>2010-07-28T11:25:32Z</time>
 </trkpt>
 <trkpt lat="47.206188" lon="12.985127">
 <ele>993.53</ele>
 <time>2010-07-28T11:25:39Z</time>
 </trkpt>
 <trkpt lat="47.206566" lon="12.985443">
 <ele>993.36</ele>
 <time>2010-07-28T11:25:47Z</time>
 </trkpt>
 <trkpt lat="47.206902" lon="12.985600">
 <ele>993.21</ele>
 <time>2010-07-28T11:25:54Z</time>
 </trkpt>
 <trkpt lat="47.207401" lon="12.985745">
 <ele>992.32</ele>
 <time>2010-07-28T11:26:04Z</time>
 </trkpt>
 <trkpt lat="47.207989" lon="12.985892">
 <ele>991.75</ele>
 <time>2010-07-28T11:26:16Z</time>
 </trkpt>
 <trkpt lat="47.208584" lon="12.986041">
 <ele>991.44</ele>
 <time>2010-07-28T11:26:28Z</time>
 </trkpt>
 <trkpt lat="47.209126" lon="12.986122">
 <ele>991.14</ele>
 <time>2010-07-28T11:26:39Z</time>
 </trkpt>
 <trkpt lat="47.209564" lon="12.986090">
 <ele>991.15</ele>
 <time>2010-07-28T11:26:48Z</time>
 </trkpt>
 <trkpt lat="47.209858" lon="12.986021">
 <ele>991.13</ele>
 <time>2010-07-28T11:26:54Z</time>
 </trkpt>
 <trkpt lat="47.210274" lon="12.985951">
 <ele>989.90</ele>
 <time>2010-07-28T11:27:02Z</time>
 </trkpt>
 <trkpt lat="47.210663" lon="12.985896">
 <ele>989.47</ele>
 <time>2010-07-28T11:27:09Z</time>
 </trkpt>
 <trkpt lat="47.211113" lon="12.985878">
 <ele>988.55</ele>
 <time>2010-07-28T11:27:17Z</time>
 </trkpt>
 <trkpt lat="47.211788" lon="12.985936">
 <ele>987.76</ele>
 <time>2010-07-28T11:27:29Z</time>
 </trkpt>
 <trkpt lat="47.212418" lon="12.986012">
 <ele>987.39</ele>
 <time>2010-07-28T11:27:40Z</time>
 </trkpt>
 <trkpt lat="47.213017" lon="12.986128">
 <ele>986.93</ele>
 <time>2010-07-28T11:27:51Z</time>
 </trkpt>
 <trkpt lat="47.213501" lon="12.986300">
 <ele>986.59</ele>
 <time>2010-07-28T11:28:00Z</time>
 </trkpt>
 <trkpt lat="47.213970" lon="12.986587">
 <ele>986.12</ele>
 <time>2010-07-28T11:28:09Z</time>
 </trkpt>
 <trkpt lat="47.214546" lon="12.986974">
 <ele>986.17</ele>
 <time>2010-07-28T11:28:20Z</time>
 </trkpt>
 <trkpt lat="47.214943" lon="12.987145">
 <ele>985.11</ele>
 <time>2010-07-28T11:28:27Z</time>
 </trkpt>
 <trkpt lat="47.215477" lon="12.987311">
 <ele>984.76</ele>
 <time>2010-07-28T11:28:36Z</time>
 </trkpt>
 <trkpt lat="47.215973" lon="12.987447">
 <ele>984.13</ele>
 <time>2010-07-28T11:28:45Z</time>
 </trkpt>
 <trkpt lat="47.216377" lon="12.987434">
 <ele>983.59</ele>
 <time>2010-07-28T11:28:52Z</time>
 </trkpt>
 <trkpt lat="47.216991" lon="12.987398">
 <ele>983.47</ele>
 <time>2010-07-28T11:29:03Z</time>
 </trkpt>
 <trkpt lat="47.217495" lon="12.987451">
 <ele>982.90</ele>
 <time>2010-07-28T11:29:12Z</time>
 </trkpt>
 <trkpt lat="47.217857" lon="12.987662">
 <ele>982.60</ele>
 <time>2010-07-28T11:29:19Z</time>
 </trkpt>
 <trkpt lat="47.218182" lon="12.987981">
 <ele>982.48</ele>
 <time>2010-07-28T11:29:26Z</time>
 </trkpt>
 <trkpt lat="47.218388" lon="12.988236">
 <ele>982.22</ele>
 <time>2010-07-28T11:29:31Z</time>
 </trkpt>
 <trkpt lat="47.218578" lon="12.988630">
 <ele>981.85</ele>
 <time>2010-07-28T11:29:37Z</time>
 </trkpt>
 <trkpt lat="47.218887" lon="12.989207">
 <ele>980.98</ele>
 <time>2010-07-28T11:29:46Z</time>
 </trkpt>
 <trkpt lat="47.219158" lon="12.989580">
 <ele>980.93</ele>
 <time>2010-07-28T11:29:53Z</time>
 </trkpt>
 <trkpt lat="47.219429" lon="12.989839">
 <ele>980.78</ele>
 <time>2010-07-28T11:29:59Z</time>
 </trkpt>
 <trkpt lat="47.219944" lon="12.990066">
 <ele>980.79</ele>
 <time>2010-07-28T11:30:09Z</time>
 </trkpt>
 <trkpt lat="47.219997" lon="12.990092">
 <ele>980.68</ele>
 <time>2010-07-28T11:30:10Z</time>
 </trkpt>
 <trkpt lat="47.220078" lon="12.990132">
 <ele>980.07</ele>
 <time>2010-07-28T11:30:14Z</time>
 </trkpt>
 <trkpt lat="47.220230" lon="12.990324">
 <ele>979.90</ele>
 <time>2010-07-28T11:30:15Z</time>
 </trkpt>
 <trkpt lat="47.220421" lon="12.990557">
 <ele>979.61</ele>
 <time>2010-07-28T11:30:19Z</time>
 </trkpt>
 <trkpt lat="47.220818" lon="12.991016">
 <ele>979.49</ele>
 <time>2010-07-28T11:30:27Z</time>
 </trkpt>
 <trkpt lat="47.221226" lon="12.991325">
 <ele>978.61</ele>
 <time>2010-07-28T11:30:35Z</time>
 </trkpt>
 <trkpt lat="47.221756" lon="12.991747">
 <ele>978.40</ele>
 <time>2010-07-28T11:30:46Z</time>
 </trkpt>
 <trkpt lat="47.222343" lon="12.992237">
 <ele>977.86</ele>
 <time>2010-07-28T11:30:58Z</time>
 </trkpt>
 <trkpt lat="47.222862" lon="12.992732">
 <ele>977.50</ele>
 <time>2010-07-28T11:31:09Z</time>
 </trkpt>
 <trkpt lat="47.223339" lon="12.993166">
 <ele>977.25</ele>
 <time>2010-07-28T11:31:19Z</time>
 </trkpt>
 <trkpt lat="47.223537" lon="12.993274">
 <ele>977.11</ele>
 <time>2010-07-28T11:31:23Z</time>
 </trkpt>
 <trkpt lat="47.223743" lon="12.993372">
 <ele>977.46</ele>
 <time>2010-07-28T11:31:29Z</time>
 </trkpt>
 <trkpt lat="47.223743" lon="12.993372">
 <ele>977.65</ele>
 <time>2010-07-28T11:31:31Z</time>
 </trkpt>
 <trkpt lat="47.224285" lon="12.993535">
 <ele>977.83</ele>
 <time>2010-07-28T11:31:38Z</time>
 </trkpt>
 <trkpt lat="47.224590" lon="12.993619">
 <ele>978.02</ele>
 <time>2010-07-28T11:31:45Z</time>
 </trkpt>
 <trkpt lat="47.224838" lon="12.993749">
 <ele>978.26</ele>
 <time>2010-07-28T11:31:52Z</time>
 </trkpt>
 <trkpt lat="47.225117" lon="12.993958">
 <ele>979.78</ele>
 <time>2010-07-28T11:32:01Z</time>
 </trkpt>
 <trkpt lat="47.225277" lon="12.994116">
 <ele>980.45</ele>
 <time>2010-07-28T11:32:07Z</time>
 </trkpt>
 <trkpt lat="47.225441" lon="12.994326">
 <ele>981.74</ele>
 <time>2010-07-28T11:32:14Z</time>
 </trkpt>
 <trkpt lat="47.225616" lon="12.994359">
 <ele>982.28</ele>
 <time>2010-07-28T11:32:20Z</time>
 </trkpt>
 <trkpt lat="47.225906" lon="12.994338">
 <ele>983.06</ele>
 <time>2010-07-28T11:32:29Z</time>
 </trkpt>
 <trkpt lat="47.226154" lon="12.994309">
 <ele>983.64</ele>
 <time>2010-07-28T11:32:37Z</time>
 </trkpt>
 <trkpt lat="47.226372" lon="12.994286">
 <ele>984.23</ele>
 <time>2010-07-28T11:32:44Z</time>
 </trkpt>
 <trkpt lat="47.226620" lon="12.994261">
 <ele>984.72</ele>
 <time>2010-07-28T11:32:52Z</time>
 </trkpt>
 <trkpt lat="47.226803" lon="12.994242">
 <ele>985.48</ele>
 <time>2010-07-28T11:32:58Z</time>
 </trkpt>
 <trkpt lat="47.227020" lon="12.994237">
 <ele>985.99</ele>
 <time>2010-07-28T11:33:05Z</time>
 </trkpt>
 <trkpt lat="47.227222" lon="12.994251">
 <ele>986.09</ele>
 <time>2010-07-28T11:33:12Z</time>
 </trkpt>
 <trkpt lat="47.227222" lon="12.994251">
 <ele>986.55</ele>
 <time>2010-07-28T11:33:19Z</time>
 </trkpt>
 <trkpt lat="47.227634" lon="12.994288">
 <ele>986.34</ele>
 <time>2010-07-28T11:33:25Z</time>
 </trkpt>
 <trkpt lat="47.227837" lon="12.994314">
 <ele>986.70</ele>
 <time>2010-07-28T11:33:32Z</time>
 </trkpt>
 <trkpt lat="47.227985" lon="12.994337">
 <ele>987.08</ele>
 <time>2010-07-28T11:33:37Z</time>
 </trkpt>
 <trkpt lat="47.228016" lon="12.994342">
 <ele>987.29</ele>
 <time>2010-07-28T11:33:38Z</time>
 </trkpt>
 <trkpt lat="47.228142" lon="12.994361">
 <ele>987.38</ele>
 <time>2010-07-28T11:33:42Z</time>
 </trkpt>
 <trkpt lat="47.228344" lon="12.994380">
 <ele>988.02</ele>
 <time>2010-07-28T11:33:49Z</time>
 </trkpt>
 <trkpt lat="47.228539" lon="12.994398">
 <ele>987.83</ele>
 <time>2010-07-28T11:33:55Z</time>
 </trkpt>
 <trkpt lat="47.228573" lon="12.994402">
 <ele>987.83</ele>
 <time>2010-07-28T11:34:00Z</time>
 </trkpt>
 <trkpt lat="47.228924" lon="12.994356">
 <ele>987.88</ele>
 <time>2010-07-28T11:34:06Z</time>
 </trkpt>
 <trkpt lat="47.229183" lon="12.994347">
 <ele>988.27</ele>
 <time>2010-07-28T11:34:14Z</time>
 </trkpt>
 <trkpt lat="47.229355" lon="12.994359">
 <ele>988.08</ele>
 <time>2010-07-28T11:34:19Z</time>
 </trkpt>
 <trkpt lat="47.229584" lon="12.994359">
 <ele>988.10</ele>
 <time>2010-07-28T11:34:25Z</time>
 </trkpt>
 <trkpt lat="47.229900" lon="12.994329">
 <ele>986.71</ele>
 <time>2010-07-28T11:34:32Z</time>
 </trkpt>
 <trkpt lat="47.230354" lon="12.994251">
 <ele>985.35</ele>
 <time>2010-07-28T11:34:40Z</time>
 </trkpt>
 <trkpt lat="47.230724" lon="12.994327">
 <ele>984.35</ele>
 <time>2010-07-28T11:34:46Z</time>
 </trkpt>
 <trkpt lat="47.231007" lon="12.994367">
 <ele>983.59</ele>
 <time>2010-07-28T11:34:51Z</time>
 </trkpt>
 <trkpt lat="47.231422" lon="12.994160">
 <ele>982.23</ele>
 <time>2010-07-28T11:34:58Z</time>
 </trkpt>
 <trkpt lat="47.231850" lon="12.993911">
 <ele>979.91</ele>
 <time>2010-07-28T11:35:05Z</time>
 </trkpt>
 <trkpt lat="47.232300" lon="12.993675">
 <ele>977.61</ele>
 <time>2010-07-28T11:35:11Z</time>
 </trkpt>
 <trkpt lat="47.232586" lon="12.993500">
 <ele>976.01</ele>
 <time>2010-07-28T11:35:15Z</time>
 </trkpt>
 <trkpt lat="47.232964" lon="12.993161">
 <ele>974.31</ele>
 <time>2010-07-28T11:35:21Z</time>
 </trkpt>
 <trkpt lat="47.233368" lon="12.992979">
 <ele>973.14</ele>
 <time>2010-07-28T11:35:27Z</time>
 </trkpt>
 <trkpt lat="47.233730" lon="12.992748">
 <ele>971.70</ele>
 <time>2010-07-28T11:35:33Z</time>
 </trkpt>
 <trkpt lat="47.234077" lon="12.992456">
 <ele>970.41</ele>
 <time>2010-07-28T11:35:39Z</time>
 </trkpt>
 <trkpt lat="47.234287" lon="12.992302">
 <ele>970.29</ele>
 <time>2010-07-28T11:35:43Z</time>
 </trkpt>
 <trkpt lat="47.234486" lon="12.992106">
 <ele>970.42</ele>
 <time>2010-07-28T11:35:48Z</time>
 </trkpt>
 <trkpt lat="47.234581" lon="12.991955">
 <ele>970.17</ele>
 <time>2010-07-28T11:35:52Z</time>
 </trkpt>
 <trkpt lat="47.234726" lon="12.992028">
 <ele>970.24</ele>
 <time>2010-07-28T11:35:54Z</time>
 </trkpt>
 <trkpt lat="47.234959" lon="12.992164">
 <ele>970.15</ele>
 <time>2010-07-28T11:35:59Z</time>
 </trkpt>
 <trkpt lat="47.235405" lon="12.992330">
 <ele>970.16</ele>
 <time>2010-07-28T11:36:08Z</time>
 </trkpt>
 <trkpt lat="47.235905" lon="12.992424">
 <ele>969.49</ele>
 <time>2010-07-28T11:36:18Z</time>
 </trkpt>
 <trkpt lat="47.236206" lon="12.992437">
 <ele>969.44</ele>
 <time>2010-07-28T11:36:24Z</time>
 </trkpt>
 <trkpt lat="47.236706" lon="12.992351">
 <ele>969.57</ele>
 <time>2010-07-28T11:36:34Z</time>
 </trkpt>
 <trkpt lat="47.237106" lon="12.992202">
 <ele>968.61</ele>
 <time>2010-07-28T11:36:42Z</time>
 </trkpt>
 <trkpt lat="47.237556" lon="12.991928">
 <ele>967.38</ele>
 <time>2010-07-28T11:36:51Z</time>
 </trkpt>
 <trkpt lat="47.238110" lon="12.991481">
 <ele>966.48</ele>
 <time>2010-07-28T11:37:02Z</time>
 </trkpt>
 <trkpt lat="47.238663" lon="12.991107">
 <ele>965.28</ele>
 <time>2010-07-28T11:37:12Z</time>
 </trkpt>
 <trkpt lat="47.239323" lon="12.990769">
 <ele>965.60</ele>
 <time>2010-07-28T11:37:24Z</time>
 </trkpt>
 <trkpt lat="47.239899" lon="12.990498">
 <ele>965.83</ele>
 <time>2010-07-28T11:37:35Z</time>
 </trkpt>
 <trkpt lat="47.240536" lon="12.990205">
 <ele>965.71</ele>
 <time>2010-07-28T11:37:47Z</time>
 </trkpt>
 <trkpt lat="47.241154" lon="12.989965">
 <ele>965.56</ele>
 <time>2010-07-28T11:37:58Z</time>
 </trkpt>
 <trkpt lat="47.241707" lon="12.989735">
 <ele>964.69</ele>
 <time>2010-07-28T11:38:08Z</time>
 </trkpt>
 <trkpt lat="47.242172" lon="12.989481">
 <ele>963.43</ele>
 <time>2010-07-28T11:38:17Z</time>
 </trkpt>
 <trkpt lat="47.242611" lon="12.989119">
 <ele>962.65</ele>
 <time>2010-07-28T11:38:26Z</time>
 </trkpt>
 <trkpt lat="47.243019" lon="12.988640">
 <ele>962.27</ele>
 <time>2010-07-28T11:38:36Z</time>
 </trkpt>
 <trkpt lat="47.243385" lon="12.988065">
 <ele>961.71</ele>
 <time>2010-07-28T11:38:46Z</time>
 </trkpt>
 <trkpt lat="47.243889" lon="12.987262">
 <ele>960.75</ele>
 <time>2010-07-28T11:38:59Z</time>
 </trkpt>
 <trkpt lat="47.244270" lon="12.986684">
 <ele>960.34</ele>
 <time>2010-07-28T11:39:08Z</time>
 </trkpt>
 <trkpt lat="47.244728" lon="12.986120">
 <ele>960.02</ele>
 <time>2010-07-28T11:39:18Z</time>
 </trkpt>
 <trkpt lat="47.245209" lon="12.985641">
 <ele>959.16</ele>
 <time>2010-07-28T11:39:28Z</time>
 </trkpt>
 <trkpt lat="47.245781" lon="12.985232">
 <ele>959.23</ele>
 <time>2010-07-28T11:39:39Z</time>
 </trkpt>
 <trkpt lat="47.246254" lon="12.985008">
 <ele>958.58</ele>
 <time>2010-07-28T11:39:48Z</time>
 </trkpt>
 <trkpt lat="47.246754" lon="12.984811">
 <ele>958.30</ele>
 <time>2010-07-28T11:39:57Z</time>
 </trkpt>
 <trkpt lat="47.247597" lon="12.984534">
 <ele>958.09</ele>
 <time>2010-07-28T11:40:12Z</time>
 </trkpt>
 <trkpt lat="47.247986" lon="12.984408">
 <ele>957.86</ele>
 <time>2010-07-28T11:40:19Z</time>
 </trkpt>
 <trkpt lat="47.248444" lon="12.984303">
 <ele>957.32</ele>
 <time>2010-07-28T11:40:27Z</time>
 </trkpt>
 <trkpt lat="47.248966" lon="12.984214">
 <ele>956.96</ele>
 <time>2010-07-28T11:40:36Z</time>
 </trkpt>
 <trkpt lat="47.249500" lon="12.984196">
 <ele>956.50</ele>
 <time>2010-07-28T11:40:45Z</time>
 </trkpt>
 <trkpt lat="47.249847" lon="12.984306">
 <ele>955.88</ele>
 <time>2010-07-28T11:40:51Z</time>
 </trkpt>
 <trkpt lat="47.250275" lon="12.984646">
 <ele>955.81</ele>
 <time>2010-07-28T11:40:59Z</time>
 </trkpt>
 <trkpt lat="47.250801" lon="12.985146">
 <ele>955.45</ele>
 <time>2010-07-28T11:41:10Z</time>
 </trkpt>
 <trkpt lat="47.251259" lon="12.985487">
 <ele>954.91</ele>
 <time>2010-07-28T11:41:19Z</time>
 </trkpt>
 <trkpt lat="47.251797" lon="12.985842">
 <ele>954.80</ele>
 <time>2010-07-28T11:41:29Z</time>
 </trkpt>
 <trkpt lat="47.252357" lon="12.986166">
 <ele>954.43</ele>
 <time>2010-07-28T11:41:40Z</time>
 </trkpt>
 <trkpt lat="47.252869" lon="12.986339">
 <ele>954.73</ele>
 <time>2010-07-28T11:41:50Z</time>
 </trkpt>
 <trkpt lat="47.253277" lon="12.986365">
 <ele>954.55</ele>
 <time>2010-07-28T11:41:58Z</time>
 </trkpt>
 <trkpt lat="47.253693" lon="12.986272">
 <ele>955.00</ele>
 <time>2010-07-28T11:42:07Z</time>
 </trkpt>
 <trkpt lat="47.254002" lon="12.986134">
 <ele>955.96</ele>
 <time>2010-07-28T11:42:15Z</time>
 </trkpt>
 <trkpt lat="47.254272" lon="12.985951">
 <ele>956.78</ele>
 <time>2010-07-28T11:42:24Z</time>
 </trkpt>
 <trkpt lat="47.254539" lon="12.985708">
 <ele>958.44</ele>
 <time>2010-07-28T11:42:34Z</time>
 </trkpt>
 <trkpt lat="47.254772" lon="12.985441">
 <ele>959.50</ele>
 <time>2010-07-28T11:42:43Z</time>
 </trkpt>
 <trkpt lat="47.255081" lon="12.985124">
 <ele>960.43</ele>
 <time>2010-07-28T11:42:54Z</time>
 </trkpt>
 <trkpt lat="47.255318" lon="12.984874">
 <ele>961.37</ele>
 <time>2010-07-28T11:43:02Z</time>
 </trkpt>
 <trkpt lat="47.255581" lon="12.984627">
 <ele>961.24</ele>
 <time>2010-07-28T11:43:10Z</time>
 </trkpt>
 <trkpt lat="47.255913" lon="12.984352">
 <ele>960.83</ele>
 <time>2010-07-28T11:43:18Z</time>
 </trkpt>
 <trkpt lat="47.256268" lon="12.984035">
 <ele>959.71</ele>
 <time>2010-07-28T11:43:25Z</time>
 </trkpt>
 <trkpt lat="47.256668" lon="12.983627">
 <ele>958.27</ele>
 <time>2010-07-28T11:43:32Z</time>
 </trkpt>
 <trkpt lat="47.257050" lon="12.983106">
 <ele>956.85</ele>
 <time>2010-07-28T11:43:39Z</time>
 </trkpt>
 <trkpt lat="47.257496" lon="12.982354">
 <ele>956.28</ele>
 <time>2010-07-28T11:43:49Z</time>
 </trkpt>
 <trkpt lat="47.257912" lon="12.981693">
 <ele>955.26</ele>
 <time>2010-07-28T11:43:59Z</time>
 </trkpt>
 <trkpt lat="47.258305" lon="12.981237">
 <ele>955.20</ele>
 <time>2010-07-28T11:44:07Z</time>
 </trkpt>
 <trkpt lat="47.258747" lon="12.980898">
 <ele>954.78</ele>
 <time>2010-07-28T11:44:15Z</time>
 </trkpt>
 <trkpt lat="47.259167" lon="12.980709">
 <ele>954.52</ele>
 <time>2010-07-28T11:44:22Z</time>
 </trkpt>
 <trkpt lat="47.259232" lon="12.980698">
 <ele>954.49</ele>
 <time>2010-07-28T11:44:23Z</time>
 </trkpt>
 <trkpt lat="47.259438" lon="12.980713">
 <ele>954.09</ele>
 <time>2010-07-28T11:44:26Z</time>
 </trkpt>
 <trkpt lat="47.259869" lon="12.980888">
 <ele>952.72</ele>
 <time>2010-07-28T11:44:32Z</time>
 </trkpt>
 <trkpt lat="47.260513" lon="12.981392">
 <ele>950.35</ele>
 <time>2010-07-28T11:44:41Z</time>
 </trkpt>
 <trkpt lat="47.260910" lon="12.981736">
 <ele>949.09</ele>
 <time>2010-07-28T11:44:47Z</time>
 </trkpt>
 <trkpt lat="47.261185" lon="12.982236">
 <ele>948.25</ele>
 <time>2010-07-28T11:44:53Z</time>
 </trkpt>
 <trkpt lat="47.261429" lon="12.982745">
 <ele>948.46</ele>
 <time>2010-07-28T11:44:59Z</time>
 </trkpt>
 <trkpt lat="47.261723" lon="12.983015">
 <ele>947.67</ele>
 <time>2010-07-28T11:45:04Z</time>
 </trkpt>
 <trkpt lat="47.262112" lon="12.983177">
 <ele>947.60</ele>
 <time>2010-07-28T11:45:10Z</time>
 </trkpt>
 <trkpt lat="47.262691" lon="12.983394">
 <ele>946.76</ele>
 <time>2010-07-28T11:45:19Z</time>
 </trkpt>
 <trkpt lat="47.263008" lon="12.983476">
 <ele>946.24</ele>
 <time>2010-07-28T11:45:24Z</time>
 </trkpt>
 <trkpt lat="47.263416" lon="12.983416">
 <ele>945.70</ele>
 <time>2010-07-28T11:45:30Z</time>
 </trkpt>
 <trkpt lat="47.263783" lon="12.983211">
 <ele>945.28</ele>
 <time>2010-07-28T11:45:36Z</time>
 </trkpt>
 <trkpt lat="47.263905" lon="12.983137">
 <ele>944.98</ele>
 <time>2010-07-28T11:45:38Z</time>
 </trkpt>
 <trkpt lat="47.264370" lon="12.982940">
 <ele>944.59</ele>
 <time>2010-07-28T11:45:45Z</time>
 </trkpt>
 <trkpt lat="47.264717" lon="12.982808">
 <ele>944.55</ele>
 <time>2010-07-28T11:45:50Z</time>
 </trkpt>
 <trkpt lat="47.265038" lon="12.982590">
 <ele>944.37</ele>
 <time>2010-07-28T11:45:55Z</time>
 </trkpt>
 <trkpt lat="47.265526" lon="12.982087">
 <ele>942.78</ele>
 <time>2010-07-28T11:46:03Z</time>
 </trkpt>
 <trkpt lat="47.266026" lon="12.981801">
 <ele>941.09</ele>
 <time>2010-07-28T11:46:10Z</time>
 </trkpt>
 <trkpt lat="47.266155" lon="12.981702">
 <ele>940.85</ele>
 <time>2010-07-28T11:46:12Z</time>
 </trkpt>
 <trkpt lat="47.266415" lon="12.981405">
 <ele>939.33</ele>
 <time>2010-07-28T11:46:18Z</time>
 </trkpt>
 <trkpt lat="47.266590" lon="12.980977">
 <ele>938.16</ele>
 <time>2010-07-28T11:46:23Z</time>
 </trkpt>
 <trkpt lat="47.266750" lon="12.980341">
 <ele>935.22</ele>
 <time>2010-07-28T11:46:29Z</time>
 </trkpt>
 <trkpt lat="47.266941" lon="12.979924">
 <ele>933.68</ele>
 <time>2010-07-28T11:46:33Z</time>
 </trkpt>
 <trkpt lat="47.267097" lon="12.979691">
 <ele>932.81</ele>
 <time>2010-07-28T11:46:36Z</time>
 </trkpt>
 <trkpt lat="47.267132" lon="12.979639">
 <ele>931.73</ele>
 <time>2010-07-28T11:46:40Z</time>
 </trkpt>
 <trkpt lat="47.267235" lon="12.979719">
 <ele>931.73</ele>
 <time>2010-07-28T11:46:41Z</time>
 </trkpt>
 <trkpt lat="47.267509" lon="12.979882">
 <ele>932.61</ele>
 <time>2010-07-28T11:46:50Z</time>
 </trkpt>
 <trkpt lat="47.267658" lon="12.979924">
 <ele>933.08</ele>
 <time>2010-07-28T11:46:54Z</time>
 </trkpt>
 <trkpt lat="47.267796" lon="12.979870">
 <ele>933.44</ele>
 <time>2010-07-28T11:47:00Z</time>
 </trkpt>
 <trkpt lat="47.267956" lon="12.979737">
 <ele>933.69</ele>
 <time>2010-07-28T11:47:06Z</time>
 </trkpt>
 <trkpt lat="47.268112" lon="12.979642">
 <ele>934.66</ele>
 <time>2010-07-28T11:47:13Z</time>
 </trkpt>
 <trkpt lat="47.268257" lon="12.979655">
 <ele>935.90</ele>
 <time>2010-07-28T11:47:19Z</time>
 </trkpt>
 <trkpt lat="47.268383" lon="12.979667">
 <ele>937.41</ele>
 <time>2010-07-28T11:47:25Z</time>
 </trkpt>
 <trkpt lat="47.268494" lon="12.979678">
 <ele>938.80</ele>
 <time>2010-07-28T11:47:32Z</time>
 </trkpt>
 <trkpt lat="47.268612" lon="12.979690">
 <ele>940.51</ele>
 <time>2010-07-28T11:47:39Z</time>
 </trkpt>
 <trkpt lat="47.268845" lon="12.979670">
 <ele>942.25</ele>
 <time>2010-07-28T11:47:48Z</time>
 </trkpt>
 <trkpt lat="47.269016" lon="12.979614">
 <ele>943.64</ele>
 <time>2010-07-28T11:47:56Z</time>
 </trkpt>
 <trkpt lat="47.269165" lon="12.979566">
 <ele>944.67</ele>
 <time>2010-07-28T11:48:03Z</time>
 </trkpt>
 <trkpt lat="47.269363" lon="12.979502">
 <ele>946.54</ele>
 <time>2010-07-28T11:48:13Z</time>
 </trkpt>
 <trkpt lat="47.269470" lon="12.979453">
 <ele>947.22</ele>
 <time>2010-07-28T11:48:18Z</time>
 </trkpt>
 <trkpt lat="47.269600" lon="12.979382">
 <ele>948.37</ele>
 <time>2010-07-28T11:48:25Z</time>
 </trkpt>
 <trkpt lat="47.269600" lon="12.979382">
 <ele>948.60</ele>
 <time>2010-07-28T11:48:26Z</time>
 </trkpt>
 <trkpt lat="47.269634" lon="12.979361">
 <ele>948.95</ele>
 <time>2010-07-28T11:48:33Z</time>
 </trkpt>
 <trkpt lat="47.269634" lon="12.979361">
 <ele>949.34</ele>
 <time>2010-07-28T11:49:03Z</time>
 </trkpt>
 <trkpt lat="47.269634" lon="12.979361">
 <ele>949.38</ele>
 <time>2010-07-28T11:49:04Z</time>
 </trkpt>
 <trkpt lat="47.269756" lon="12.979295">
 <ele>949.96</ele>
 <time>2010-07-28T11:49:14Z</time>
 </trkpt>
 <trkpt lat="47.269936" lon="12.979161">
 <ele>952.10</ele>
 <time>2010-07-28T11:49:27Z</time>
 </trkpt>
 <trkpt lat="47.270103" lon="12.979026">
 <ele>953.56</ele>
 <time>2010-07-28T11:49:36Z</time>
 </trkpt>
 <trkpt lat="47.270275" lon="12.978984">
 <ele>955.36</ele>
 <time>2010-07-28T11:49:43Z</time>
 </trkpt>
 <trkpt lat="47.270496" lon="12.979032">
 <ele>957.83</ele>
 <time>2010-07-28T11:49:53Z</time>
 </trkpt>
 <trkpt lat="47.270649" lon="12.979085">
 <ele>959.36</ele>
 <time>2010-07-28T11:50:02Z</time>
 </trkpt>
 <trkpt lat="47.270790" lon="12.979128">
 <ele>961.30</ele>
 <time>2010-07-28T11:50:11Z</time>
 </trkpt>
 <trkpt lat="47.270977" lon="12.979155">
 <ele>963.41</ele>
 <time>2010-07-28T11:50:19Z</time>
 </trkpt>
 <trkpt lat="47.271107" lon="12.979173">
 <ele>964.22</ele>
 <time>2010-07-28T11:50:26Z</time>
 </trkpt>
 <trkpt lat="47.271160" lon="12.979181">
 <ele>964.60</ele>
 <time>2010-07-28T11:50:32Z</time>
 </trkpt>
 <trkpt lat="47.271278" lon="12.979198">
 <ele>966.10</ele>
 <time>2010-07-28T11:50:43Z</time>
 </trkpt>
 <trkpt lat="47.271397" lon="12.979190">
 <ele>967.06</ele>
 <time>2010-07-28T11:50:54Z</time>
 </trkpt>
 <trkpt lat="47.271519" lon="12.979125">
 <ele>968.26</ele>
 <time>2010-07-28T11:51:06Z</time>
 </trkpt>
 <trkpt lat="47.271618" lon="12.979071">
 <ele>969.11</ele>
 <time>2010-07-28T11:51:16Z</time>
 </trkpt>
 <trkpt lat="47.271637" lon="12.979061">
 <ele>969.76</ele>
 <time>2010-07-28T11:51:21Z</time>
 </trkpt>
 <trkpt lat="47.271702" lon="12.979034">
 <ele>970.23</ele>
 <time>2010-07-28T11:51:27Z</time>
 </trkpt>
 <trkpt lat="47.271778" lon="12.979021">
 <ele>971.36</ele>
 <time>2010-07-28T11:51:36Z</time>
 </trkpt>
 <trkpt lat="47.271877" lon="12.979004">
 <ele>971.85</ele>
 <time>2010-07-28T11:51:45Z</time>
 </trkpt>
 <trkpt lat="47.271919" lon="12.978997">
 <ele>972.55</ele>
 <time>2010-07-28T11:51:53Z</time>
 </trkpt>
 <trkpt lat="47.271919" lon="12.978997">
 <ele>972.63</ele>
 <time>2010-07-28T11:51:54Z</time>
 </trkpt>
 <trkpt lat="47.271919" lon="12.978997">
 <ele>973.01</ele>
 <time>2010-07-28T11:52:19Z</time>
 </trkpt>
 <trkpt lat="47.271919" lon="12.978997">
 <ele>972.97</ele>
 <time>2010-07-28T11:52:21Z</time>
 </trkpt>
 <trkpt lat="47.271919" lon="12.978997">
 <ele>972.95</ele>
 <time>2010-07-28T11:52:33Z</time>
 </trkpt>
 <trkpt lat="47.271919" lon="12.978997">
 <ele>972.83</ele>
 <time>2010-07-28T11:52:34Z</time>
 </trkpt>
 <trkpt lat="47.272015" lon="12.979077">
 <ele>972.79</ele>
 <time>2010-07-28T11:52:40Z</time>
 </trkpt>
 <trkpt lat="47.272015" lon="12.979072">
 <ele>972.94</ele>
 <time>2010-07-28T11:52:41Z</time>
 </trkpt>
 <trkpt lat="47.272057" lon="12.979066">
 <ele>973.38</ele>
 <time>2010-07-28T11:52:47Z</time>
 </trkpt>
 <trkpt lat="47.272076" lon="12.979050">
 <ele>973.63</ele>
 <time>2010-07-28T11:52:50Z</time>
 </trkpt>
 <trkpt lat="47.272095" lon="12.978967">
 <ele>973.63</ele>
 <time>2010-07-28T11:52:54Z</time>
 </trkpt>
 <trkpt lat="47.272148" lon="12.978958">
 <ele>974.69</ele>
 <time>2010-07-28T11:53:00Z</time>
 </trkpt>
 <trkpt lat="47.272243" lon="12.978942">
 <ele>975.17</ele>
 <time>2010-07-28T11:53:06Z</time>
 </trkpt>
 <trkpt lat="47.272289" lon="12.978934">
 <ele>976.00</ele>
 <time>2010-07-28T11:53:12Z</time>
 </trkpt>
 <trkpt lat="47.272289" lon="12.978934">
 <ele>976.12</ele>
 <time>2010-07-28T11:53:14Z</time>
 </trkpt>
 <trkpt lat="47.272423" lon="12.978911">
 <ele>976.85</ele>
 <time>2010-07-28T11:53:27Z</time>
 </trkpt>
 <trkpt lat="47.272423" lon="12.978911">
 <ele>977.03</ele>
 <time>2010-07-28T11:53:28Z</time>
 </trkpt>
 <trkpt lat="47.272495" lon="12.978899">
 <ele>977.34</ele>
 <time>2010-07-28T11:53:34Z</time>
 </trkpt>
 <trkpt lat="47.272652" lon="12.978826">
 <ele>978.81</ele>
 <time>2010-07-28T11:53:42Z</time>
 </trkpt>
 <trkpt lat="47.272781" lon="12.978739">
 <ele>979.84</ele>
 <time>2010-07-28T11:53:49Z</time>
 </trkpt>
 <trkpt lat="47.272930" lon="12.978638">
 <ele>981.15</ele>
 <time>2010-07-28T11:53:57Z</time>
 </trkpt>
 <trkpt lat="47.273045" lon="12.978560">
 <ele>982.03</ele>
 <time>2010-07-28T11:54:03Z</time>
 </trkpt>
 <trkpt lat="47.273140" lon="12.978495">
 <ele>983.28</ele>
 <time>2010-07-28T11:54:08Z</time>
 </trkpt>
 <trkpt lat="47.273224" lon="12.978436">
 <ele>984.44</ele>
 <time>2010-07-28T11:54:13Z</time>
 </trkpt>
 <trkpt lat="47.273342" lon="12.978355">
 <ele>985.60</ele>
 <time>2010-07-28T11:54:19Z</time>
 </trkpt>
 <trkpt lat="47.273472" lon="12.978266">
 <ele>986.64</ele>
 <time>2010-07-28T11:54:26Z</time>
 </trkpt>
 <trkpt lat="47.273628" lon="12.978158">
 <ele>987.86</ele>
 <time>2010-07-28T11:54:34Z</time>
 </trkpt>
 <trkpt lat="47.273739" lon="12.978066">
 <ele>989.26</ele>
 <time>2010-07-28T11:54:40Z</time>
 </trkpt>
 <trkpt lat="47.273827" lon="12.977947">
 <ele>990.33</ele>
 <time>2010-07-28T11:54:46Z</time>
 </trkpt>
 <trkpt lat="47.273895" lon="12.977850">
 <ele>991.38</ele>
 <time>2010-07-28T11:54:51Z</time>
 </trkpt>
 <trkpt lat="47.274006" lon="12.977692">
 <ele>992.70</ele>
 <time>2010-07-28T11:54:59Z</time>
 </trkpt>
 <trkpt lat="47.274105" lon="12.977555">
 <ele>992.81</ele>
 <time>2010-07-28T11:55:06Z</time>
 </trkpt>
 <trkpt lat="47.274242" lon="12.977417">
 <ele>995.31</ele>
 <time>2010-07-28T11:55:15Z</time>
 </trkpt>
 <trkpt lat="47.274399" lon="12.977383">
 <ele>996.21</ele>
 <time>2010-07-28T11:55:22Z</time>
 </trkpt>
 <trkpt lat="47.274605" lon="12.977337">
 <ele>997.19</ele>
 <time>2010-07-28T11:55:31Z</time>
 </trkpt>
 <trkpt lat="47.274826" lon="12.977312">
 <ele>997.69</ele>
 <time>2010-07-28T11:55:40Z</time>
 </trkpt>
 <trkpt lat="47.275009" lon="12.977371">
 <ele>997.81</ele>
 <time>2010-07-28T11:55:47Z</time>
 </trkpt>
 <trkpt lat="47.275146" lon="12.977634">
 <ele>998.15</ele>
 <time>2010-07-28T11:55:54Z</time>
 </trkpt>
 <trkpt lat="47.275295" lon="12.977787">
 <ele>997.75</ele>
 <time>2010-07-28T11:55:59Z</time>
 </trkpt>
 <trkpt lat="47.275467" lon="12.977827">
 <ele>997.74</ele>
 <time>2010-07-28T11:56:04Z</time>
 </trkpt>
 <trkpt lat="47.275627" lon="12.977724">
 <ele>998.32</ele>
 <time>2010-07-28T11:56:09Z</time>
 </trkpt>
 <trkpt lat="47.275784" lon="12.977631">
 <ele>999.33</ele>
 <time>2010-07-28T11:56:15Z</time>
 </trkpt>
 <trkpt lat="47.275986" lon="12.977578">
 <ele>1000.41</ele>
 <time>2010-07-28T11:56:22Z</time>
 </trkpt>
 <trkpt lat="47.276188" lon="12.977539">
 <ele>1000.65</ele>
 <time>2010-07-28T11:56:28Z</time>
 </trkpt>
 <trkpt lat="47.276604" lon="12.977459">
 <ele>1001.16</ele>
 <time>2010-07-28T11:56:38Z</time>
 </trkpt>
 <trkpt lat="47.276962" lon="12.977392">
 <ele>1001.98</ele>
 <time>2010-07-28T11:56:47Z</time>
 </trkpt>
 <trkpt lat="47.277142" lon="12.977357">
 <ele>1002.32</ele>
 <time>2010-07-28T11:56:52Z</time>
 </trkpt>
 <trkpt lat="47.277302" lon="12.977189">
 <ele>1003.18</ele>
 <time>2010-07-28T11:56:57Z</time>
 </trkpt>
 <trkpt lat="47.277485" lon="12.977057">
 <ele>1004.19</ele>
 <time>2010-07-28T11:57:04Z</time>
 </trkpt>
 <trkpt lat="47.277630" lon="12.977004">
 <ele>1005.31</ele>
 <time>2010-07-28T11:57:10Z</time>
 </trkpt>
 <trkpt lat="47.277859" lon="12.976920">
 <ele>1006.94</ele>
 <time>2010-07-28T11:57:20Z</time>
 </trkpt>
 <trkpt lat="47.278030" lon="12.976857">
 <ele>1008.07</ele>
 <time>2010-07-28T11:57:27Z</time>
 </trkpt>
 <trkpt lat="47.278198" lon="12.976762">
 <ele>1009.32</ele>
 <time>2010-07-28T11:57:36Z</time>
 </trkpt>
 <trkpt lat="47.278297" lon="12.976703">
 <ele>1010.95</ele>
 <time>2010-07-28T11:57:42Z</time>
 </trkpt>
 <trkpt lat="47.278423" lon="12.976629">
 <ele>1012.39</ele>
 <time>2010-07-28T11:57:49Z</time>
 </trkpt>
 <trkpt lat="47.278561" lon="12.976547">
 <ele>1013.60</ele>
 <time>2010-07-28T11:57:56Z</time>
 </trkpt>
 <trkpt lat="47.278717" lon="12.976454">
 <ele>1015.30</ele>
 <time>2010-07-28T11:58:05Z</time>
 </trkpt>
 <trkpt lat="47.278866" lon="12.976365">
 <ele>1017.05</ele>
 <time>2010-07-28T11:58:13Z</time>
 </trkpt>
 <trkpt lat="47.279011" lon="12.976288">
 <ele>1018.35</ele>
 <time>2010-07-28T11:58:20Z</time>
 </trkpt>
 <trkpt lat="47.279133" lon="12.976230">
 <ele>1020.21</ele>
 <time>2010-07-28T11:58:27Z</time>
 </trkpt>
 <trkpt lat="47.279282" lon="12.976163">
 <ele>1022.20</ele>
 <time>2010-07-28T11:58:35Z</time>
 </trkpt>
 <trkpt lat="47.279423" lon="12.976097">
 <ele>1023.60</ele>
 <time>2010-07-28T11:58:43Z</time>
 </trkpt>
 <trkpt lat="47.279575" lon="12.976134">
 <ele>1024.21</ele>
 <time>2010-07-28T11:58:50Z</time>
 </trkpt>
 <trkpt lat="47.279678" lon="12.976260">
 <ele>1024.71</ele>
 <time>2010-07-28T11:58:57Z</time>
 </trkpt>
 <trkpt lat="47.279812" lon="12.976428">
 <ele>1025.63</ele>
 <time>2010-07-28T11:59:06Z</time>
 </trkpt>
 <trkpt lat="47.279907" lon="12.976577">
 <ele>1026.98</ele>
 <time>2010-07-28T11:59:13Z</time>
 </trkpt>
 <trkpt lat="47.279991" lon="12.976738">
 <ele>1028.17</ele>
 <time>2010-07-28T11:59:20Z</time>
 </trkpt>
 <trkpt lat="47.280083" lon="12.976904">
 <ele>1029.56</ele>
 <time>2010-07-28T11:59:28Z</time>
 </trkpt>
 <trkpt lat="47.280190" lon="12.977101">
 <ele>1031.21</ele>
 <time>2010-07-28T11:59:37Z</time>
 </trkpt>
 <trkpt lat="47.280312" lon="12.977330">
 <ele>1033.01</ele>
 <time>2010-07-28T11:59:47Z</time>
 </trkpt>
 <trkpt lat="47.280430" lon="12.977635">
 <ele>1034.15</ele>
 <time>2010-07-28T11:59:59Z</time>
 </trkpt>
 <trkpt lat="47.280521" lon="12.977878">
 <ele>1034.91</ele>
 <time>2010-07-28T12:00:08Z</time>
 </trkpt>
 <trkpt lat="47.280605" lon="12.978098">
 <ele>1035.68</ele>
 <time>2010-07-28T12:00:16Z</time>
 </trkpt>
 <trkpt lat="47.280701" lon="12.978351">
 <ele>1036.32</ele>
 <time>2010-07-28T12:00:25Z</time>
 </trkpt>
 <trkpt lat="47.280788" lon="12.978578">
 <ele>1037.07</ele>
 <time>2010-07-28T12:00:33Z</time>
 </trkpt>
 <trkpt lat="47.280872" lon="12.978814">
 <ele>1037.62</ele>
 <time>2010-07-28T12:00:41Z</time>
 </trkpt>
 <trkpt lat="47.280952" lon="12.979047">
 <ele>1038.42</ele>
 <time>2010-07-28T12:00:49Z</time>
 </trkpt>
 <trkpt lat="47.281033" lon="12.979268">
 <ele>1039.30</ele>
 <time>2010-07-28T12:00:57Z</time>
 </trkpt>
 <trkpt lat="47.281124" lon="12.979452">
 <ele>1040.09</ele>
 <time>2010-07-28T12:01:04Z</time>
 </trkpt>
 <trkpt lat="47.281284" lon="12.979624">
 <ele>1041.24</ele>
 <time>2010-07-28T12:01:13Z</time>
 </trkpt>
 <trkpt lat="47.281464" lon="12.979649">
 <ele>1042.15</ele>
 <time>2010-07-28T12:01:21Z</time>
 </trkpt>
 <trkpt lat="47.281612" lon="12.979555">
 <ele>1043.02</ele>
 <time>2010-07-28T12:01:28Z</time>
 </trkpt>
 <trkpt lat="47.281742" lon="12.979364">
 <ele>1044.18</ele>
 <time>2010-07-28T12:01:36Z</time>
 </trkpt>
 <trkpt lat="47.281925" lon="12.979151">
 <ele>1045.45</ele>
 <time>2010-07-28T12:01:46Z</time>
 </trkpt>
 <trkpt lat="47.282154" lon="12.978962">
 <ele>1047.23</ele>
 <time>2010-07-28T12:01:57Z</time>
 </trkpt>
 <trkpt lat="47.282368" lon="12.978784">
 <ele>1048.55</ele>
 <time>2010-07-28T12:02:07Z</time>
 </trkpt>
 <trkpt lat="47.282570" lon="12.978618">
 <ele>1050.64</ele>
 <time>2010-07-28T12:02:17Z</time>
 </trkpt>
 <trkpt lat="47.282757" lon="12.978528">
 <ele>1052.56</ele>
 <time>2010-07-28T12:02:26Z</time>
 </trkpt>
 <trkpt lat="47.282951" lon="12.978497">
 <ele>1054.30</ele>
 <time>2010-07-28T12:02:36Z</time>
 </trkpt>
 <trkpt lat="47.283119" lon="12.978630">
 <ele>1055.88</ele>
 <time>2010-07-28T12:02:45Z</time>
 </trkpt>
 <trkpt lat="47.283218" lon="12.978819">
 <ele>1057.34</ele>
 <time>2010-07-28T12:02:53Z</time>
 </trkpt>
 <trkpt lat="47.283337" lon="12.979051">
 <ele>1058.15</ele>
 <time>2010-07-28T12:03:02Z</time>
 </trkpt>
 <trkpt lat="47.283424" lon="12.979260">
 <ele>1058.68</ele>
 <time>2010-07-28T12:03:09Z</time>
 </trkpt>
 <trkpt lat="47.283527" lon="12.979595">
 <ele>1059.33</ele>
 <time>2010-07-28T12:03:18Z</time>
 </trkpt>
 <trkpt lat="47.283672" lon="12.980076">
 <ele>1060.19</ele>
 <time>2010-07-28T12:03:30Z</time>
 </trkpt>
 <trkpt lat="47.283779" lon="12.980435">
 <ele>1060.70</ele>
 <time>2010-07-28T12:03:38Z</time>
 </trkpt>
 <trkpt lat="47.283916" lon="12.980897">
 <ele>1061.04</ele>
 <time>2010-07-28T12:03:47Z</time>
 </trkpt>
 <trkpt lat="47.284073" lon="12.981504">
 <ele>1060.87</ele>
 <time>2010-07-28T12:03:57Z</time>
 </trkpt>
 <trkpt lat="47.284191" lon="12.981984">
 <ele>1060.36</ele>
 <time>2010-07-28T12:04:04Z</time>
 </trkpt>
 <trkpt lat="47.284370" lon="12.982469">
 <ele>1059.88</ele>
 <time>2010-07-28T12:04:11Z</time>
 </trkpt>
 <trkpt lat="47.284534" lon="12.982898">
 <ele>1058.50</ele>
 <time>2010-07-28T12:04:16Z</time>
 </trkpt>
 <trkpt lat="47.284748" lon="12.983449">
 <ele>1056.26</ele>
 <time>2010-07-28T12:04:21Z</time>
 </trkpt>
 <trkpt lat="47.285076" lon="12.984210">
 <ele>1052.35</ele>
 <time>2010-07-28T12:04:27Z</time>
 </trkpt>
 <trkpt lat="47.285343" lon="12.984724">
 <ele>1050.08</ele>
 <time>2010-07-28T12:04:31Z</time>
 </trkpt>
 <trkpt lat="47.285408" lon="12.984847">
 <ele>1049.99</ele>
 <time>2010-07-28T12:04:32Z</time>
 </trkpt>
 <trkpt lat="47.285641" lon="12.985246">
 <ele>1050.79</ele>
 <time>2010-07-28T12:04:36Z</time>
 </trkpt>
 <trkpt lat="47.285816" lon="12.985361">
 <ele>1051.93</ele>
 <time>2010-07-28T12:04:39Z</time>
 </trkpt>
 <trkpt lat="47.286102" lon="12.985444">
 <ele>1053.95</ele>
 <time>2010-07-28T12:04:46Z</time>
 </trkpt>
 <trkpt lat="47.286255" lon="12.985559">
 <ele>1056.09</ele>
 <time>2010-07-28T12:04:52Z</time>
 </trkpt>
 <trkpt lat="47.286354" lon="12.985736">
 <ele>1057.85</ele>
 <time>2010-07-28T12:04:57Z</time>
 </trkpt>
 <trkpt lat="47.286461" lon="12.985930">
 <ele>1058.44</ele>
 <time>2010-07-28T12:05:02Z</time>
 </trkpt>
 <trkpt lat="47.286568" lon="12.986122">
 <ele>1059.26</ele>
 <time>2010-07-28T12:05:07Z</time>
 </trkpt>
 <trkpt lat="47.286716" lon="12.986391">
 <ele>1060.65</ele>
 <time>2010-07-28T12:05:14Z</time>
 </trkpt>
 <trkpt lat="47.286869" lon="12.986666">
 <ele>1061.66</ele>
 <time>2010-07-28T12:05:21Z</time>
 </trkpt>
 <trkpt lat="47.287045" lon="12.987147">
 <ele>1063.45</ele>
 <time>2010-07-28T12:05:32Z</time>
 </trkpt>
 <trkpt lat="47.287193" lon="12.987559">
 <ele>1064.22</ele>
 <time>2010-07-28T12:05:42Z</time>
 </trkpt>
 <trkpt lat="47.287327" lon="12.987922">
 <ele>1065.40</ele>
 <time>2010-07-28T12:05:51Z</time>
 </trkpt>
 <trkpt lat="47.287422" lon="12.988256">
 <ele>1066.39</ele>
 <time>2010-07-28T12:05:59Z</time>
 </trkpt>
 <trkpt lat="47.287510" lon="12.988699">
 <ele>1067.51</ele>
 <time>2010-07-28T12:06:09Z</time>
 </trkpt>
 <trkpt lat="47.287613" lon="12.989192">
 <ele>1068.60</ele>
 <time>2010-07-28T12:06:20Z</time>
 </trkpt>
 <trkpt lat="47.287800" lon="12.989686">
 <ele>1070.01</ele>
 <time>2010-07-28T12:06:32Z</time>
 </trkpt>
 <trkpt lat="47.288002" lon="12.990213">
 <ele>1070.65</ele>
 <time>2010-07-28T12:06:44Z</time>
 </trkpt>
 <trkpt lat="47.288177" lon="12.990659">
 <ele>1070.55</ele>
 <time>2010-07-28T12:06:54Z</time>
 </trkpt>
 <trkpt lat="47.288315" lon="12.990982">
 <ele>1069.75</ele>
 <time>2010-07-28T12:07:01Z</time>
 </trkpt>
 <trkpt lat="47.288513" lon="12.991436">
 <ele>1069.09</ele>
 <time>2010-07-28T12:07:09Z</time>
 </trkpt>
 <trkpt lat="47.288727" lon="12.991909">
 <ele>1067.65</ele>
 <time>2010-07-28T12:07:16Z</time>
 </trkpt>
 <trkpt lat="47.288952" lon="12.992414">
 <ele>1065.20</ele>
 <time>2010-07-28T12:07:24Z</time>
 </trkpt>
 <trkpt lat="47.289024" lon="12.992710">
 <ele>1064.03</ele>
 <time>2010-07-28T12:07:29Z</time>
 </trkpt>
 <trkpt lat="47.289093" lon="12.993068">
 <ele>1062.68</ele>
 <time>2010-07-28T12:07:35Z</time>
 </trkpt>
 <trkpt lat="47.289181" lon="12.993631">
 <ele>1060.88</ele>
 <time>2010-07-28T12:07:42Z</time>
 </trkpt>
 <trkpt lat="47.289207" lon="12.993907">
 <ele>1059.99</ele>
 <time>2010-07-28T12:07:45Z</time>
 </trkpt>
 <trkpt lat="47.289242" lon="12.994198">
 <ele>1058.59</ele>
 <time>2010-07-28T12:07:50Z</time>
 </trkpt>
 <trkpt lat="47.289246" lon="12.994220">
 <ele>1058.22</ele>
 <time>2010-07-28T12:07:53Z</time>
 </trkpt>
 <trkpt lat="47.289246" lon="12.994226">
 <ele>1057.74</ele>
 <time>2010-07-28T12:08:33Z</time>
 </trkpt>
 <trkpt lat="47.289265" lon="12.994392">
 <ele>1057.29</ele>
 <time>2010-07-28T12:08:38Z</time>
 </trkpt>
 <trkpt lat="47.289272" lon="12.994491">
 <ele>1056.98</ele>
 <time>2010-07-28T12:08:40Z</time>
 </trkpt>
 <trkpt lat="47.289318" lon="12.994900">
 <ele>1056.52</ele>
 <time>2010-07-28T12:08:46Z</time>
 </trkpt>
 <trkpt lat="47.289383" lon="12.995472">
 <ele>1054.40</ele>
 <time>2010-07-28T12:08:52Z</time>
 </trkpt>
 <trkpt lat="47.289448" lon="12.996056">
 <ele>1051.67</ele>
 <time>2010-07-28T12:08:57Z</time>
 </trkpt>
 <trkpt lat="47.289516" lon="12.996690">
 <ele>1049.55</ele>
 <time>2010-07-28T12:09:02Z</time>
 </trkpt>
 <trkpt lat="47.289543" lon="12.996917">
 <ele>1048.96</ele>
 <time>2010-07-28T12:09:04Z</time>
 </trkpt>
 <trkpt lat="47.289600" lon="12.997498">
 <ele>1048.06</ele>
 <time>2010-07-28T12:09:10Z</time>
 </trkpt>
 <trkpt lat="47.289631" lon="12.997855">
 <ele>1048.80</ele>
 <time>2010-07-28T12:09:15Z</time>
 </trkpt>
 <trkpt lat="47.289661" lon="12.998228">
 <ele>1049.06</ele>
 <time>2010-07-28T12:09:22Z</time>
 </trkpt>
 <trkpt lat="47.289696" lon="12.998609">
 <ele>1049.41</ele>
 <time>2010-07-28T12:09:29Z</time>
 </trkpt>
 <trkpt lat="47.289734" lon="12.999006">
 <ele>1049.42</ele>
 <time>2010-07-28T12:09:36Z</time>
 </trkpt>
 <trkpt lat="47.289761" lon="12.999327">
 <ele>1049.03</ele>
 <time>2010-07-28T12:09:42Z</time>
 </trkpt>
 <trkpt lat="47.289799" lon="12.999715">
 <ele>1048.40</ele>
 <time>2010-07-28T12:09:48Z</time>
 </trkpt>
 <trkpt lat="47.289841" lon="13.000185">
 <ele>1046.51</ele>
 <time>2010-07-28T12:09:54Z</time>
 </trkpt>
 <trkpt lat="47.289894" lon="13.000528">
 <ele>1045.86</ele>
 <time>2010-07-28T12:09:59Z</time>
 </trkpt>
 <trkpt lat="47.289936" lon="13.000700">
 <ele>1044.72</ele>
 <time>2010-07-28T12:10:03Z</time>
 </trkpt>
 <trkpt lat="47.289963" lon="13.000817">
 <ele>1044.25</ele>
 <time>2010-07-28T12:10:08Z</time>
 </trkpt>
 <trkpt lat="47.290016" lon="13.001040">
 <ele>1043.22</ele>
 <time>2010-07-28T12:10:13Z</time>
 </trkpt>
 <trkpt lat="47.290047" lon="13.001172">
 <ele>1042.88</ele>
 <time>2010-07-28T12:10:15Z</time>
 </trkpt>
 <trkpt lat="47.290180" lon="13.001822">
 <ele>1041.95</ele>
 <time>2010-07-28T12:10:24Z</time>
 </trkpt>
 <trkpt lat="47.290295" lon="13.002331">
 <ele>1041.74</ele>
 <time>2010-07-28T12:10:31Z</time>
 </trkpt>
 <trkpt lat="47.290329" lon="13.002497">
 <ele>1041.68</ele>
 <time>2010-07-28T12:10:33Z</time>
 </trkpt>
 <trkpt lat="47.290462" lon="13.002874">
 <ele>1041.28</ele>
 <time>2010-07-28T12:10:38Z</time>
 </trkpt>
 <trkpt lat="47.290627" lon="13.003259">
 <ele>1038.02</ele>
 <time>2010-07-28T12:10:44Z</time>
 </trkpt>
 <trkpt lat="47.290771" lon="13.003601">
 <ele>1035.23</ele>
 <time>2010-07-28T12:10:48Z</time>
 </trkpt>
 <trkpt lat="47.290817" lon="13.003709">
 <ele>1035.22</ele>
 <time>2010-07-28T12:10:49Z</time>
 </trkpt>
 <trkpt lat="47.291031" lon="13.004215">
 <ele>1031.27</ele>
 <time>2010-07-28T12:10:53Z</time>
 </trkpt>
 <trkpt lat="47.291214" lon="13.004617">
 <ele>1028.02</ele>
 <time>2010-07-28T12:10:56Z</time>
 </trkpt>
 <trkpt lat="47.291595" lon="13.005410">
 <ele>1022.84</ele>
 <time>2010-07-28T12:11:02Z</time>
 </trkpt>
 <trkpt lat="47.291855" lon="13.005960">
 <ele>1020.05</ele>
 <time>2010-07-28T12:11:06Z</time>
 </trkpt>
 <trkpt lat="47.292160" lon="13.006618">
 <ele>1017.07</ele>
 <time>2010-07-28T12:11:11Z</time>
 </trkpt>
 <trkpt lat="47.292282" lon="13.007011">
 <ele>1015.54</ele>
 <time>2010-07-28T12:11:14Z</time>
 </trkpt>
 <trkpt lat="47.292339" lon="13.007281">
 <ele>1014.48</ele>
 <time>2010-07-28T12:11:16Z</time>
 </trkpt>
 <trkpt lat="47.292454" lon="13.007832">
 <ele>1012.73</ele>
 <time>2010-07-28T12:11:21Z</time>
 </trkpt>
 <trkpt lat="47.292496" lon="13.008034">
 <ele>1011.28</ele>
 <time>2010-07-28T12:11:24Z</time>
 </trkpt>
 <trkpt lat="47.292503" lon="13.008067">
 <ele>1010.99</ele>
 <time>2010-07-28T12:11:25Z</time>
 </trkpt>
 <trkpt lat="47.292519" lon="13.008132">
 <ele>1010.53</ele>
 <time>2010-07-28T12:11:27Z</time>
 </trkpt>
 <trkpt lat="47.292595" lon="13.008437">
 <ele>1009.04</ele>
 <time>2010-07-28T12:11:31Z</time>
 </trkpt>
 <trkpt lat="47.292736" lon="13.009019">
 <ele>1007.06</ele>
 <time>2010-07-28T12:11:36Z</time>
 </trkpt>
 <trkpt lat="47.292885" lon="13.009637">
 <ele>1005.63</ele>
 <time>2010-07-28T12:11:41Z</time>
 </trkpt>
 <trkpt lat="47.293087" lon="13.010468">
 <ele>1002.01</ele>
 <time>2010-07-28T12:11:47Z</time>
 </trkpt>
 <trkpt lat="47.293308" lon="13.011397">
 <ele>998.17</ele>
 <time>2010-07-28T12:11:53Z</time>
 </trkpt>
 <trkpt lat="47.293453" lon="13.012030">
 <ele>995.96</ele>
 <time>2010-07-28T12:11:57Z</time>
 </trkpt>
 <trkpt lat="47.293629" lon="13.012768">
 <ele>994.08</ele>
 <time>2010-07-28T12:12:02Z</time>
 </trkpt>
 <trkpt lat="47.293869" lon="13.013580">
 <ele>992.13</ele>
 <time>2010-07-28T12:12:08Z</time>
 </trkpt>
 <trkpt lat="47.294178" lon="13.014598">
 <ele>988.94</ele>
 <time>2010-07-28T12:12:15Z</time>
 </trkpt>
 <trkpt lat="47.294533" lon="13.015420">
 <ele>986.77</ele>
 <time>2010-07-28T12:12:21Z</time>
 </trkpt>
 <trkpt lat="47.294891" lon="13.016175">
 <ele>984.97</ele>
 <time>2010-07-28T12:12:27Z</time>
 </trkpt>
 <trkpt lat="47.294949" lon="13.016297">
 <ele>984.96</ele>
 <time>2010-07-28T12:12:28Z</time>
 </trkpt>
 <trkpt lat="47.295090" lon="13.016838">
 <ele>983.01</ele>
 <time>2010-07-28T12:12:32Z</time>
 </trkpt>
 <trkpt lat="47.295113" lon="13.017121">
 <ele>982.16</ele>
 <time>2010-07-28T12:12:34Z</time>
 </trkpt>
 <trkpt lat="47.295139" lon="13.017532">
 <ele>981.72</ele>
 <time>2010-07-28T12:12:37Z</time>
 </trkpt>
 <trkpt lat="47.295227" lon="13.017979">
 <ele>981.89</ele>
 <time>2010-07-28T12:12:41Z</time>
 </trkpt>
 <trkpt lat="47.295383" lon="13.018481">
 <ele>981.02</ele>
 <time>2010-07-28T12:12:46Z</time>
 </trkpt>
 <trkpt lat="47.295593" lon="13.019179">
 <ele>979.63</ele>
 <time>2010-07-28T12:12:53Z</time>
 </trkpt>
 <trkpt lat="47.295799" lon="13.020108">
 <ele>976.33</ele>
 <time>2010-07-28T12:13:01Z</time>
 </trkpt>
 <trkpt lat="47.295975" lon="13.020911">
 <ele>972.62</ele>
 <time>2010-07-28T12:13:07Z</time>
 </trkpt>
 <trkpt lat="47.296219" lon="13.022001">
 <ele>966.94</ele>
 <time>2010-07-28T12:13:14Z</time>
 </trkpt>
 <trkpt lat="47.296368" lon="13.022686">
 <ele>963.82</ele>
 <time>2010-07-28T12:13:18Z</time>
 </trkpt>
 <trkpt lat="47.296577" lon="13.023556">
 <ele>959.32</ele>
 <time>2010-07-28T12:13:23Z</time>
 </trkpt>
 <trkpt lat="47.296787" lon="13.024402">
 <ele>955.21</ele>
 <time>2010-07-28T12:13:28Z</time>
 </trkpt>
 <trkpt lat="47.296978" lon="13.025182">
 <ele>952.96</ele>
 <time>2010-07-28T12:13:33Z</time>
 </trkpt>
 <trkpt lat="47.297138" lon="13.025873">
 <ele>952.13</ele>
 <time>2010-07-28T12:13:38Z</time>
 </trkpt>
 <trkpt lat="47.297314" lon="13.026620">
 <ele>951.83</ele>
 <time>2010-07-28T12:13:44Z</time>
 </trkpt>
 <trkpt lat="47.297611" lon="13.027304">
 <ele>950.72</ele>
 <time>2010-07-28T12:13:51Z</time>
 </trkpt>
 <trkpt lat="47.297913" lon="13.027869">
 <ele>949.13</ele>
 <time>2010-07-28T12:13:58Z</time>
 </trkpt>
 <trkpt lat="47.298267" lon="13.028227">
 <ele>946.92</ele>
 <time>2010-07-28T12:14:04Z</time>
 </trkpt>
 <trkpt lat="47.298664" lon="13.028502">
 <ele>944.95</ele>
 <time>2010-07-28T12:14:09Z</time>
 </trkpt>
 <trkpt lat="47.298809" lon="13.028583">
 <ele>943.70</ele>
 <time>2010-07-28T12:14:11Z</time>
 </trkpt>
 <trkpt lat="47.299263" lon="13.028567">
 <ele>939.59</ele>
 <time>2010-07-28T12:14:16Z</time>
 </trkpt>
 <trkpt lat="47.299572" lon="13.028357">
 <ele>936.88</ele>
 <time>2010-07-28T12:14:20Z</time>
 </trkpt>
 <trkpt lat="47.299854" lon="13.028006">
 <ele>934.90</ele>
 <time>2010-07-28T12:14:24Z</time>
 </trkpt>
 <trkpt lat="47.300125" lon="13.027670">
 <ele>932.75</ele>
 <time>2010-07-28T12:14:28Z</time>
 </trkpt>
 <trkpt lat="47.300453" lon="13.027249">
 <ele>929.82</ele>
 <time>2010-07-28T12:14:33Z</time>
 </trkpt>
 <trkpt lat="47.300522" lon="13.027161">
 <ele>929.15</ele>
 <time>2010-07-28T12:14:34Z</time>
 </trkpt>
 <trkpt lat="47.300671" lon="13.027010">
 <ele>927.41</ele>
 <time>2010-07-28T12:14:36Z</time>
 </trkpt>
 <trkpt lat="47.300991" lon="13.026737">
 <ele>923.33</ele>
 <time>2010-07-28T12:14:40Z</time>
 </trkpt>
 <trkpt lat="47.301224" lon="13.026538">
 <ele>919.41</ele>
 <time>2010-07-28T12:14:43Z</time>
 </trkpt>
 <trkpt lat="47.301487" lon="13.026356">
 <ele>913.89</ele>
 <time>2010-07-28T12:14:47Z</time>
 </trkpt>
 <trkpt lat="47.301712" lon="13.026210">
 <ele>910.73</ele>
 <time>2010-07-28T12:14:50Z</time>
 </trkpt>
 <trkpt lat="47.301971" lon="13.026041">
 <ele>906.25</ele>
 <time>2010-07-28T12:14:54Z</time>
 </trkpt>
 <trkpt lat="47.302181" lon="13.026020">
 <ele>903.82</ele>
 <time>2010-07-28T12:14:57Z</time>
 </trkpt>
 <trkpt lat="47.302132" lon="13.026009">
 <ele>903.82</ele>
 <time>2010-07-28T12:14:58Z</time>
 </trkpt>
 <trkpt lat="47.302086" lon="13.026221">
 <ele>901.82</ele>
 <time>2010-07-28T12:15:01Z</time>
 </trkpt>
 <trkpt lat="47.302013" lon="13.026572">
 <ele>900.00</ele>
 <time>2010-07-28T12:15:04Z</time>
 </trkpt>
 <trkpt lat="47.301834" lon="13.027437">
 <ele>893.33</ele>
 <time>2010-07-28T12:15:10Z</time>
 </trkpt>
 <trkpt lat="47.301674" lon="13.028221">
 <ele>886.55</ele>
 <time>2010-07-28T12:15:15Z</time>
 </trkpt>
 <trkpt lat="47.301556" lon="13.028793">
 <ele>881.67</ele>
 <time>2010-07-28T12:15:19Z</time>
 </trkpt>
 <trkpt lat="47.301338" lon="13.029241">
 <ele>878.45</ele>
 <time>2010-07-28T12:15:23Z</time>
 </trkpt>
 <trkpt lat="47.301208" lon="13.029402">
 <ele>876.48</ele>
 <time>2010-07-28T12:15:25Z</time>
 </trkpt>
 <trkpt lat="47.301079" lon="13.029755">
 <ele>872.65</ele>
 <time>2010-07-28T12:15:29Z</time>
 </trkpt>
 <trkpt lat="47.301052" lon="13.029865">
 <ele>871.87</ele>
 <time>2010-07-28T12:15:30Z</time>
 </trkpt>
 <trkpt lat="47.301029" lon="13.030555">
 <ele>867.42</ele>
 <time>2010-07-28T12:15:35Z</time>
 </trkpt>
 <trkpt lat="47.301086" lon="13.031486">
 <ele>859.80</ele>
 <time>2010-07-28T12:15:41Z</time>
 </trkpt>
 <trkpt lat="47.301060" lon="13.031614">
 <ele>858.58</ele>
 <time>2010-07-28T12:15:42Z</time>
 </trkpt>
 <trkpt lat="47.300953" lon="13.032173">
 <ele>853.22</ele>
 <time>2010-07-28T12:15:47Z</time>
 </trkpt>
 <trkpt lat="47.300911" lon="13.032282">
 <ele>853.22</ele>
 <time>2010-07-28T12:15:48Z</time>
 </trkpt>
 <trkpt lat="47.300823" lon="13.032485">
 <ele>851.75</ele>
 <time>2010-07-28T12:15:50Z</time>
 </trkpt>
 <trkpt lat="47.300720" lon="13.032754">
 <ele>849.56</ele>
 <time>2010-07-28T12:15:54Z</time>
 </trkpt>
 <trkpt lat="47.300846" lon="13.032893">
 <ele>848.49</ele>
 <time>2010-07-28T12:15:57Z</time>
 </trkpt>
 <trkpt lat="47.300945" lon="13.032865">
 <ele>847.65</ele>
 <time>2010-07-28T12:16:00Z</time>
 </trkpt>
 <trkpt lat="47.301090" lon="13.032523">
 <ele>846.49</ele>
 <time>2010-07-28T12:16:04Z</time>
 </trkpt>
 <trkpt lat="47.301178" lon="13.032335">
 <ele>845.66</ele>
 <time>2010-07-28T12:16:06Z</time>
 </trkpt>
 <trkpt lat="47.301273" lon="13.032140">
 <ele>844.71</ele>
 <time>2010-07-28T12:16:08Z</time>
 </trkpt>
 <trkpt lat="47.301540" lon="13.031606">
 <ele>841.95</ele>
 <time>2010-07-28T12:16:13Z</time>
 </trkpt>
 <trkpt lat="47.301735" lon="13.031219">
 <ele>837.24</ele>
 <time>2010-07-28T12:16:17Z</time>
 </trkpt>
 <trkpt lat="47.301868" lon="13.030953">
 <ele>833.46</ele>
 <time>2010-07-28T12:16:21Z</time>
 </trkpt>
 <trkpt lat="47.302059" lon="13.030654">
 <ele>829.97</ele>
 <time>2010-07-28T12:16:25Z</time>
 </trkpt>
 <trkpt lat="47.302094" lon="13.030602">
 <ele>829.14</ele>
 <time>2010-07-28T12:16:26Z</time>
 </trkpt>
 <trkpt lat="47.302227" lon="13.030423">
 <ele>825.28</ele>
 <time>2010-07-28T12:16:32Z</time>
 </trkpt>
 <trkpt lat="47.302383" lon="13.030320">
 <ele>823.37</ele>
 <time>2010-07-28T12:16:37Z</time>
 </trkpt>
 <trkpt lat="47.302551" lon="13.030214">
 <ele>820.74</ele>
 <time>2010-07-28T12:16:44Z</time>
 </trkpt>
 <trkpt lat="47.302601" lon="13.030182">
 <ele>819.98</ele>
 <time>2010-07-28T12:16:46Z</time>
 </trkpt>
 <trkpt lat="47.302677" lon="13.030132">
 <ele>818.92</ele>
 <time>2010-07-28T12:16:49Z</time>
 </trkpt>
 <trkpt lat="47.302849" lon="13.029991">
 <ele>817.75</ele>
 <time>2010-07-28T12:16:53Z</time>
 </trkpt>
 <trkpt lat="47.303089" lon="13.029610">
 <ele>814.67</ele>
 <time>2010-07-28T12:16:57Z</time>
 </trkpt>
 <trkpt lat="47.303391" lon="13.029127">
 <ele>809.79</ele>
 <time>2010-07-28T12:17:01Z</time>
 </trkpt>
 <trkpt lat="47.303638" lon="13.028740">
 <ele>806.94</ele>
 <time>2010-07-28T12:17:04Z</time>
 </trkpt>
 <trkpt lat="47.303951" lon="13.028245">
 <ele>800.19</ele>
 <time>2010-07-28T12:17:08Z</time>
 </trkpt>
 <trkpt lat="47.304131" lon="13.027769">
 <ele>794.16</ele>
 <time>2010-07-28T12:17:12Z</time>
 </trkpt>
 <trkpt lat="47.304222" lon="13.027501">
 <ele>791.73</ele>
 <time>2010-07-28T12:17:14Z</time>
 </trkpt>
 <trkpt lat="47.304474" lon="13.027042">
 <ele>785.99</ele>
 <time>2010-07-28T12:17:18Z</time>
 </trkpt>
 <trkpt lat="47.304943" lon="13.026317">
 <ele>777.41</ele>
 <time>2010-07-28T12:17:24Z</time>
 </trkpt>
 <trkpt lat="47.305233" lon="13.025915">
 <ele>772.77</ele>
 <time>2010-07-28T12:17:28Z</time>
 </trkpt>
 <trkpt lat="47.305355" lon="13.025738">
 <ele>770.20</ele>
 <time>2010-07-28T12:17:30Z</time>
 </trkpt>
 <trkpt lat="47.305546" lon="13.025492">
 <ele>766.14</ele>
 <time>2010-07-28T12:17:34Z</time>
 </trkpt>
 <trkpt lat="47.305695" lon="13.025479">
 <ele>764.42</ele>
 <time>2010-07-28T12:17:37Z</time>
 </trkpt>
 <trkpt lat="47.305779" lon="13.025472">
 <ele>762.91</ele>
 <time>2010-07-28T12:17:40Z</time>
 </trkpt>
 <trkpt lat="47.305779" lon="13.025472">
 <ele>761.41</ele>
 <time>2010-07-28T12:17:43Z</time>
 </trkpt>
 <trkpt lat="47.305779" lon="13.025472">
 <ele>761.10</ele>
 <time>2010-07-28T12:17:51Z</time>
 </trkpt>
 <trkpt lat="47.305779" lon="13.025472">
 <ele>761.16</ele>
 <time>2010-07-28T12:17:52Z</time>
 </trkpt>
 <trkpt lat="47.305779" lon="13.025472">
 <ele>761.61</ele>
 <time>2010-07-28T12:17:57Z</time>
 </trkpt>
 <trkpt lat="47.305779" lon="13.025472">
 <ele>762.02</ele>
 <time>2010-07-28T12:18:00Z</time>
 </trkpt>
 <trkpt lat="47.305779" lon="13.025472">
 <ele>762.08</ele>
 <time>2010-07-28T12:18:02Z</time>
 </trkpt>
 <trkpt lat="47.305779" lon="13.025472">
 <ele>762.34</ele>
 <time>2010-07-28T12:18:05Z</time>
 </trkpt>
 <trkpt lat="47.305779" lon="13.025472">
 <ele>762.46</ele>
 <time>2010-07-28T12:18:15Z</time>
 </trkpt>
 <trkpt lat="47.306141" lon="13.025811">
 <ele>761.95</ele>
 <time>2010-07-28T12:18:19Z</time>
 </trkpt>
 <trkpt lat="47.306183" lon="13.026105">
 <ele>760.99</ele>
 <time>2010-07-28T12:18:22Z</time>
 </trkpt>
 <trkpt lat="47.306229" lon="13.026588">
 <ele>757.90</ele>
 <time>2010-07-28T12:18:29Z</time>
 </trkpt>
 <trkpt lat="47.306164" lon="13.027425">
 <ele>754.86</ele>
 <time>2010-07-28T12:18:35Z</time>
 </trkpt>
 <trkpt lat="47.305950" lon="13.028366">
 <ele>751.62</ele>
 <time>2010-07-28T12:18:40Z</time>
 </trkpt>
 <trkpt lat="47.305744" lon="13.028847">
 <ele>749.24</ele>
 <time>2010-07-28T12:18:44Z</time>
 </trkpt>
 <trkpt lat="47.305412" lon="13.029539">
 <ele>743.62</ele>
 <time>2010-07-28T12:18:50Z</time>
 </trkpt>
 <trkpt lat="47.305138" lon="13.030113">
 <ele>738.23</ele>
 <time>2010-07-28T12:18:55Z</time>
 </trkpt>
 <trkpt lat="47.305035" lon="13.030330">
 <ele>735.76</ele>
 <time>2010-07-28T12:18:57Z</time>
 </trkpt>
 <trkpt lat="47.304787" lon="13.030914">
 <ele>730.37</ele>
 <time>2010-07-28T12:19:02Z</time>
 </trkpt>
 <trkpt lat="47.304714" lon="13.031421">
 <ele>725.74</ele>
 <time>2010-07-28T12:19:06Z</time>
 </trkpt>
 <trkpt lat="47.304707" lon="13.031655">
 <ele>724.62</ele>
 <time>2010-07-28T12:19:08Z</time>
 </trkpt>
 <trkpt lat="47.304695" lon="13.031873">
 <ele>722.39</ele>
 <time>2010-07-28T12:19:10Z</time>
 </trkpt>
 <trkpt lat="47.304653" lon="13.032367">
 <ele>717.72</ele>
 <time>2010-07-28T12:19:15Z</time>
 </trkpt>
 <trkpt lat="47.304569" lon="13.032851">
 <ele>714.63</ele>
 <time>2010-07-28T12:19:20Z</time>
 </trkpt>
 <trkpt lat="47.304497" lon="13.033411">
 <ele>712.43</ele>
 <time>2010-07-28T12:19:27Z</time>
 </trkpt>
 <trkpt lat="47.304382" lon="13.033945">
 <ele>710.86</ele>
 <time>2010-07-28T12:19:33Z</time>
 </trkpt>
 <trkpt lat="47.304352" lon="13.034048">
 <ele>710.86</ele>
 <time>2010-07-28T12:19:34Z</time>
 </trkpt>
 <trkpt lat="47.304226" lon="13.034489">
 <ele>708.13</ele>
 <time>2010-07-28T12:19:38Z</time>
 </trkpt>
 <trkpt lat="47.303867" lon="13.034970">
 <ele>704.41</ele>
 <time>2010-07-28T12:19:43Z</time>
 </trkpt>
 <trkpt lat="47.303699" lon="13.035116">
 <ele>703.10</ele>
 <time>2010-07-28T12:19:45Z</time>
 </trkpt>
 <trkpt lat="47.303352" lon="13.035357">
 <ele>701.78</ele>
 <time>2010-07-28T12:19:49Z</time>
 </trkpt>
 <trkpt lat="47.303261" lon="13.035386">
 <ele>701.67</ele>
 <time>2010-07-28T12:19:50Z</time>
 </trkpt>
 <trkpt lat="47.303085" lon="13.035386">
 <ele>701.40</ele>
 <time>2010-07-28T12:19:52Z</time>
 </trkpt>
 <trkpt lat="47.302769" lon="13.035386">
 <ele>700.64</ele>
 <time>2010-07-28T12:19:57Z</time>
 </trkpt>
 <trkpt lat="47.302574" lon="13.035409">
 <ele>700.35</ele>
 <time>2010-07-28T12:20:00Z</time>
 </trkpt>
 <trkpt lat="47.302078" lon="13.035631">
 <ele>699.81</ele>
 <time>2010-07-28T12:20:06Z</time>
 </trkpt>
 <trkpt lat="47.301769" lon="13.035894">
 <ele>699.78</ele>
 <time>2010-07-28T12:20:11Z</time>
 </trkpt>
 <trkpt lat="47.301445" lon="13.036306">
 <ele>699.42</ele>
 <time>2010-07-28T12:20:17Z</time>
 </trkpt>
 <trkpt lat="47.301273" lon="13.036722">
 <ele>698.97</ele>
 <time>2010-07-28T12:20:22Z</time>
 </trkpt>
 <trkpt lat="47.301163" lon="13.037302">
 <ele>698.70</ele>
 <time>2010-07-28T12:20:28Z</time>
 </trkpt>
 <trkpt lat="47.301121" lon="13.037990">
 <ele>698.44</ele>
 <time>2010-07-28T12:20:35Z</time>
 </trkpt>
 <trkpt lat="47.301121" lon="13.038891">
 <ele>697.76</ele>
 <time>2010-07-28T12:20:44Z</time>
 </trkpt>
 <trkpt lat="47.300995" lon="13.039789">
 <ele>696.83</ele>
 <time>2010-07-28T12:20:53Z</time>
 </trkpt>
 <trkpt lat="47.300907" lon="13.040448">
 <ele>696.30</ele>
 <time>2010-07-28T12:21:00Z</time>
 </trkpt>
 <trkpt lat="47.300808" lon="13.040982">
 <ele>695.86</ele>
 <time>2010-07-28T12:21:06Z</time>
 </trkpt>
 <trkpt lat="47.300644" lon="13.041500">
 <ele>695.40</ele>
 <time>2010-07-28T12:21:12Z</time>
 </trkpt>
 <trkpt lat="47.300461" lon="13.041968">
 <ele>695.21</ele>
 <time>2010-07-28T12:21:18Z</time>
 </trkpt>
 <trkpt lat="47.300262" lon="13.042401">
 <ele>695.26</ele>
 <time>2010-07-28T12:21:24Z</time>
 </trkpt>
 <trkpt lat="47.300076" lon="13.042788">
 <ele>695.26</ele>
 <time>2010-07-28T12:21:29Z</time>
 </trkpt>
 <trkpt lat="47.299992" lon="13.042966">
 <ele>695.13</ele>
 <time>2010-07-28T12:21:31Z</time>
 </trkpt>
 <trkpt lat="47.299870" lon="13.043545">
 <ele>694.27</ele>
 <time>2010-07-28T12:21:37Z</time>
 </trkpt>
 <trkpt lat="47.299854" lon="13.043636">
 <ele>694.19</ele>
 <time>2010-07-28T12:21:38Z</time>
 </trkpt>
 <trkpt lat="47.299751" lon="13.044090">
 <ele>693.87</ele>
 <time>2010-07-28T12:21:43Z</time>
 </trkpt>
 <trkpt lat="47.299686" lon="13.044332">
 <ele>693.62</ele>
 <time>2010-07-28T12:21:46Z</time>
 </trkpt>
 <trkpt lat="47.299511" lon="13.044655">
 <ele>693.32</ele>
 <time>2010-07-28T12:21:50Z</time>
 </trkpt>
 <trkpt lat="47.299248" lon="13.045039">
 <ele>693.00</ele>
 <time>2010-07-28T12:21:55Z</time>
 </trkpt>
 <trkpt lat="47.298794" lon="13.045354">
 <ele>692.43</ele>
 <time>2010-07-28T12:22:03Z</time>
 </trkpt>
 <trkpt lat="47.298573" lon="13.045541">
 <ele>692.20</ele>
 <time>2010-07-28T12:22:07Z</time>
 </trkpt>
 <trkpt lat="47.298367" lon="13.045769">
 <ele>692.10</ele>
 <time>2010-07-28T12:22:11Z</time>
 </trkpt>
 <trkpt lat="47.298004" lon="13.046473">
 <ele>691.00</ele>
 <time>2010-07-28T12:22:20Z</time>
 </trkpt>
 <trkpt lat="47.297882" lon="13.046919">
 <ele>690.68</ele>
 <time>2010-07-28T12:22:25Z</time>
 </trkpt>
 <trkpt lat="47.297817" lon="13.047177">
 <ele>690.63</ele>
 <time>2010-07-28T12:22:28Z</time>
 </trkpt>
 <trkpt lat="47.297726" lon="13.047853">
 <ele>690.70</ele>
 <time>2010-07-28T12:22:36Z</time>
 </trkpt>
 <trkpt lat="47.297691" lon="13.048092">
 <ele>691.07</ele>
 <time>2010-07-28T12:22:39Z</time>
 </trkpt>
 <trkpt lat="47.297626" lon="13.048602">
 <ele>691.15</ele>
 <time>2010-07-28T12:22:46Z</time>
 </trkpt>
 <trkpt lat="47.297615" lon="13.048736">
 <ele>691.16</ele>
 <time>2010-07-28T12:22:48Z</time>
 </trkpt>
 <trkpt lat="47.297585" lon="13.049102">
 <ele>691.00</ele>
 <time>2010-07-28T12:22:55Z</time>
 </trkpt>
 <trkpt lat="47.297401" lon="13.049259">
 <ele>691.85</ele>
 <time>2010-07-28T12:23:01Z</time>
 </trkpt>
 <trkpt lat="47.297314" lon="13.049317">
 <ele>693.51</ele>
 <time>2010-07-28T12:23:08Z</time>
 </trkpt>
 <trkpt lat="47.297222" lon="13.049392">
 <ele>694.77</ele>
 <time>2010-07-28T12:23:15Z</time>
 </trkpt>
 <trkpt lat="47.297115" lon="13.049509">
 <ele>696.57</ele>
 <time>2010-07-28T12:23:23Z</time>
 </trkpt>
 <trkpt lat="47.297005" lon="13.049629">
 <ele>697.90</ele>
 <time>2010-07-28T12:23:31Z</time>
 </trkpt>
 <trkpt lat="47.296917" lon="13.049730">
 <ele>699.06</ele>
 <time>2010-07-28T12:23:38Z</time>
 </trkpt>
 <trkpt lat="47.296833" lon="13.049849">
 <ele>700.52</ele>
 <time>2010-07-28T12:23:45Z</time>
 </trkpt>
 <trkpt lat="47.296761" lon="13.050024">
 <ele>702.62</ele>
 <time>2010-07-28T12:23:54Z</time>
 </trkpt>
 <trkpt lat="47.296646" lon="13.050143">
 <ele>704.29</ele>
 <time>2010-07-28T12:24:02Z</time>
 </trkpt>
 <trkpt lat="47.296535" lon="13.050236">
 <ele>706.14</ele>
 <time>2010-07-28T12:24:12Z</time>
 </trkpt>
 <trkpt lat="47.296452" lon="13.050305">
 <ele>708.22</ele>
 <time>2010-07-28T12:24:21Z</time>
 </trkpt>
 <trkpt lat="47.296364" lon="13.050396">
 <ele>710.06</ele>
 <time>2010-07-28T12:24:30Z</time>
 </trkpt>
 <trkpt lat="47.296288" lon="13.050562">
 <ele>712.06</ele>
 <time>2010-07-28T12:24:40Z</time>
 </trkpt>
 <trkpt lat="47.296207" lon="13.050739">
 <ele>714.23</ele>
 <time>2010-07-28T12:24:49Z</time>
 </trkpt>
 <trkpt lat="47.296131" lon="13.050915">
 <ele>716.38</ele>
 <time>2010-07-28T12:24:59Z</time>
 </trkpt>
 <trkpt lat="47.296082" lon="13.051018">
 <ele>717.48</ele>
 <time>2010-07-28T12:25:06Z</time>
 </trkpt>
 <trkpt lat="47.296040" lon="13.051139">
 <ele>718.91</ele>
 <time>2010-07-28T12:25:13Z</time>
 </trkpt>
 <trkpt lat="47.296001" lon="13.051258">
 <ele>720.32</ele>
 <time>2010-07-28T12:25:20Z</time>
 </trkpt>
 <trkpt lat="47.295952" lon="13.051402">
 <ele>721.96</ele>
 <time>2010-07-28T12:25:28Z</time>
 </trkpt>
 <trkpt lat="47.295898" lon="13.051556">
 <ele>724.06</ele>
 <time>2010-07-28T12:25:37Z</time>
 </trkpt>
 <trkpt lat="47.295860" lon="13.051681">
 <ele>725.56</ele>
 <time>2010-07-28T12:25:45Z</time>
 </trkpt>
 <trkpt lat="47.295849" lon="13.051818">
 <ele>726.63</ele>
 <time>2010-07-28T12:25:52Z</time>
 </trkpt>
 <trkpt lat="47.295868" lon="13.051991">
 <ele>728.03</ele>
 <time>2010-07-28T12:26:00Z</time>
 </trkpt>
 <trkpt lat="47.295895" lon="13.052103">
 <ele>729.64</ele>
 <time>2010-07-28T12:26:07Z</time>
 </trkpt>
 <trkpt lat="47.295933" lon="13.052253">
 <ele>731.72</ele>
 <time>2010-07-28T12:26:16Z</time>
 </trkpt>
 <trkpt lat="47.295971" lon="13.052445">
 <ele>734.00</ele>
 <time>2010-07-28T12:26:27Z</time>
 </trkpt>
 <trkpt lat="47.295971" lon="13.052600">
 <ele>735.96</ele>
 <time>2010-07-28T12:26:36Z</time>
 </trkpt>
 <trkpt lat="47.295963" lon="13.052780">
 <ele>737.40</ele>
 <time>2010-07-28T12:26:45Z</time>
 </trkpt>
 <trkpt lat="47.295933" lon="13.052972">
 <ele>738.98</ele>
 <time>2010-07-28T12:26:55Z</time>
 </trkpt>
 <trkpt lat="47.295864" lon="13.053142">
 <ele>740.83</ele>
 <time>2010-07-28T12:27:05Z</time>
 </trkpt>
 <trkpt lat="47.295761" lon="13.053365">
 <ele>742.31</ele>
 <time>2010-07-28T12:27:17Z</time>
 </trkpt>
 <trkpt lat="47.295700" lon="13.053501">
 <ele>743.69</ele>
 <time>2010-07-28T12:27:25Z</time>
 </trkpt>
 <trkpt lat="47.295692" lon="13.053517">
 <ele>744.18</ele>
 <time>2010-07-28T12:27:33Z</time>
 </trkpt>
 <trkpt lat="47.295692" lon="13.053517">
 <ele>745.53</ele>
 <time>2010-07-28T12:27:40Z</time>
 </trkpt>
 <trkpt lat="47.295692" lon="13.053517">
 <ele>745.67</ele>
 <time>2010-07-28T12:27:41Z</time>
 </trkpt>
 <trkpt lat="47.295692" lon="13.053517">
 <ele>746.21</ele>
 <time>2010-07-28T12:27:45Z</time>
 </trkpt>
 <trkpt lat="47.295635" lon="13.054061">
 <ele>748.15</ele>
 <time>2010-07-28T12:27:55Z</time>
 </trkpt>
 <trkpt lat="47.295631" lon="13.054118">
 <ele>748.60</ele>
 <time>2010-07-28T12:27:58Z</time>
 </trkpt>
 <trkpt lat="47.295616" lon="13.054241">
 <ele>750.03</ele>
 <time>2010-07-28T12:28:05Z</time>
 </trkpt>
 <trkpt lat="47.295601" lon="13.054383">
 <ele>751.59</ele>
 <time>2010-07-28T12:28:13Z</time>
 </trkpt>
 <trkpt lat="47.295589" lon="13.054509">
 <ele>752.85</ele>
 <time>2010-07-28T12:28:19Z</time>
 </trkpt>
 <trkpt lat="47.295525" lon="13.054691">
 <ele>754.59</ele>
 <time>2010-07-28T12:28:27Z</time>
 </trkpt>
 <trkpt lat="47.295444" lon="13.054871">
 <ele>757.16</ele>
 <time>2010-07-28T12:28:37Z</time>
 </trkpt>
 <trkpt lat="47.295391" lon="13.055050">
 <ele>759.39</ele>
 <time>2010-07-28T12:28:46Z</time>
 </trkpt>
 <trkpt lat="47.295334" lon="13.055255">
 <ele>761.71</ele>
 <time>2010-07-28T12:28:57Z</time>
 </trkpt>
 <trkpt lat="47.295326" lon="13.055298">
 <ele>762.24</ele>
 <time>2010-07-28T12:29:00Z</time>
 </trkpt>
 <trkpt lat="47.295311" lon="13.055407">
 <ele>763.97</ele>
 <time>2010-07-28T12:29:06Z</time>
 </trkpt>
 <trkpt lat="47.295292" lon="13.055582">
 <ele>765.58</ele>
 <time>2010-07-28T12:29:15Z</time>
 </trkpt>
 <trkpt lat="47.295258" lon="13.055759">
 <ele>767.35</ele>
 <time>2010-07-28T12:29:23Z</time>
 </trkpt>
 <trkpt lat="47.295227" lon="13.055888">
 <ele>768.14</ele>
 <time>2010-07-28T12:29:29Z</time>
 </trkpt>
 <trkpt lat="47.295177" lon="13.056102">
 <ele>769.78</ele>
 <time>2010-07-28T12:29:39Z</time>
 </trkpt>
 <trkpt lat="47.295155" lon="13.056201">
 <ele>770.52</ele>
 <time>2010-07-28T12:29:44Z</time>
 </trkpt>
 <trkpt lat="47.295128" lon="13.056343">
 <ele>771.60</ele>
 <time>2010-07-28T12:29:51Z</time>
 </trkpt>
 <trkpt lat="47.295109" lon="13.056430">
 <ele>772.15</ele>
 <time>2010-07-28T12:29:56Z</time>
 </trkpt>
 <trkpt lat="47.295063" lon="13.056663">
 <ele>773.82</ele>
 <time>2010-07-28T12:30:08Z</time>
 </trkpt>
 <trkpt lat="47.295025" lon="13.056848">
 <ele>775.48</ele>
 <time>2010-07-28T12:30:17Z</time>
 </trkpt>
 <trkpt lat="47.294991" lon="13.057019">
 <ele>776.78</ele>
 <time>2010-07-28T12:30:25Z</time>
 </trkpt>
 <trkpt lat="47.294960" lon="13.057171">
 <ele>777.51</ele>
 <time>2010-07-28T12:30:32Z</time>
 </trkpt>
 <trkpt lat="47.294895" lon="13.057281">
 <ele>779.08</ele>
 <time>2010-07-28T12:30:39Z</time>
 </trkpt>
 <trkpt lat="47.294769" lon="13.057430">
 <ele>780.64</ele>
 <time>2010-07-28T12:30:50Z</time>
 </trkpt>
 <trkpt lat="47.294651" lon="13.057522">
 <ele>781.50</ele>
 <time>2010-07-28T12:30:59Z</time>
 </trkpt>
 <trkpt lat="47.294640" lon="13.057530">
 <ele>783.18</ele>
 <time>2010-07-28T12:31:07Z</time>
 </trkpt>
 <trkpt lat="47.294640" lon="13.057530">
 <ele>784.15</ele>
 <time>2010-07-28T12:31:12Z</time>
 </trkpt>
 <trkpt lat="47.294640" lon="13.057530">
 <ele>785.48</ele>
 <time>2010-07-28T12:31:18Z</time>
 </trkpt>
 <trkpt lat="47.294281" lon="13.057524">
 <ele>787.32</ele>
 <time>2010-07-28T12:31:26Z</time>
 </trkpt>
 <trkpt lat="47.294167" lon="13.057350">
 <ele>788.53</ele>
 <time>2010-07-28T12:31:33Z</time>
 </trkpt>
 <trkpt lat="47.294113" lon="13.057231">
 <ele>789.41</ele>
 <time>2010-07-28T12:31:39Z</time>
 </trkpt>
 <trkpt lat="47.294006" lon="13.056762">
 <ele>790.37</ele>
 <time>2010-07-28T12:31:46Z</time>
 </trkpt>
 <trkpt lat="47.293953" lon="13.056758">
 <ele>791.31</ele>
 <time>2010-07-28T12:31:50Z</time>
 </trkpt>
 <trkpt lat="47.293953" lon="13.056758">
 <ele>793.23</ele>
 <time>2010-07-28T12:31:57Z</time>
 </trkpt>
 <trkpt lat="47.293781" lon="13.057038">
 <ele>794.14</ele>
 <time>2010-07-28T12:32:01Z</time>
 </trkpt>
 <trkpt lat="47.293907" lon="13.057029">
 <ele>794.63</ele>
 <time>2010-07-28T12:32:10Z</time>
 </trkpt>
 <trkpt lat="47.294033" lon="13.057412">
 <ele>795.61</ele>
 <time>2010-07-28T12:32:20Z</time>
 </trkpt>
 <trkpt lat="47.294102" lon="13.057552">
 <ele>796.52</ele>
 <time>2010-07-28T12:32:27Z</time>
 </trkpt>
 <trkpt lat="47.294235" lon="13.057832">
 <ele>797.67</ele>
 <time>2010-07-28T12:32:41Z</time>
 </trkpt>
 <trkpt lat="47.294273" lon="13.058159">
 <ele>798.45</ele>
 <time>2010-07-28T12:32:52Z</time>
 </trkpt>
 <trkpt lat="47.294273" lon="13.058159">
 <ele>798.38</ele>
 <time>2010-07-28T12:32:53Z</time>
 </trkpt>
 <trkpt lat="47.294277" lon="13.058192">
 <ele>798.37</ele>
 <time>2010-07-28T12:33:43Z</time>
 </trkpt>
 <trkpt lat="47.294277" lon="13.058213">
 <ele>798.36</ele>
 <time>2010-07-28T12:33:44Z</time>
 </trkpt>
 <trkpt lat="47.294292" lon="13.058418">
 <ele>797.78</ele>
 <time>2010-07-28T12:33:50Z</time>
 </trkpt>
 <trkpt lat="47.294308" lon="13.058620">
 <ele>797.39</ele>
 <time>2010-07-28T12:33:54Z</time>
 </trkpt>
 <trkpt lat="47.294338" lon="13.059077">
 <ele>796.03</ele>
 <time>2010-07-28T12:34:01Z</time>
 </trkpt>
 <trkpt lat="47.294365" lon="13.059275">
 <ele>795.55</ele>
 <time>2010-07-28T12:34:04Z</time>
 </trkpt>
 <trkpt lat="47.294399" lon="13.059476">
 <ele>794.92</ele>
 <time>2010-07-28T12:34:07Z</time>
 </trkpt>
 <trkpt lat="47.294491" lon="13.060048">
 <ele>793.55</ele>
 <time>2010-07-28T12:34:14Z</time>
 </trkpt>
 <trkpt lat="47.294465" lon="13.060056">
 <ele>791.43</ele>
 <time>2010-07-28T12:34:21Z</time>
 </trkpt>
 <trkpt lat="47.294420" lon="13.060057">
 <ele>788.18</ele>
 <time>2010-07-28T12:34:29Z</time>
 </trkpt>
 <trkpt lat="47.294456" lon="13.060221">
 <ele>787.55</ele>
 <time>2010-07-28T12:34:34Z</time>
 </trkpt>
 <trkpt lat="47.294424" lon="13.060338">
 <ele>788.80</ele>
 <time>2010-07-28T12:34:38Z</time>
 </trkpt>
 <trkpt lat="47.294393" lon="13.060472">
 <ele>790.22</ele>
 <time>2010-07-28T12:34:45Z</time>
 </trkpt>
 <trkpt lat="47.294316" lon="13.060590">
 <ele>792.43</ele>
 <time>2010-07-28T12:34:56Z</time>
 </trkpt>
 <trkpt lat="47.294251" lon="13.060708">
 <ele>793.73</ele>
 <time>2010-07-28T12:35:05Z</time>
 </trkpt>
 <trkpt lat="47.294323" lon="13.061020">
 <ele>795.50</ele>
 <time>2010-07-28T12:35:13Z</time>
 </trkpt>
 <trkpt lat="47.294350" lon="13.061250">
 <ele>797.21</ele>
 <time>2010-07-28T12:35:22Z</time>
 </trkpt>
 <trkpt lat="47.294401" lon="13.061612">
 <ele>798.73</ele>
 <time>2010-07-28T12:35:32Z</time>
 </trkpt>
 <trkpt lat="47.294413" lon="13.061678">
 <ele>800.53</ele>
 <time>2010-07-28T12:35:42Z</time>
 </trkpt>
 <trkpt lat="47.294477" lon="13.062105">
 <ele>801.20</ele>
 <time>2010-07-28T12:35:48Z</time>
 </trkpt>
 <trkpt lat="47.294584" lon="13.062432">
 <ele>801.45</ele>
 <time>2010-07-28T12:35:54Z</time>
 </trkpt>
 <trkpt lat="47.294681" lon="13.062875">
 <ele>800.68</ele>
 <time>2010-07-28T12:35:58Z</time>
 </trkpt>
 <trkpt lat="47.294698" lon="13.063238">
 <ele>798.52</ele>
 <time>2010-07-28T12:36:02Z</time>
 </trkpt>
 <trkpt lat="47.294795" lon="13.063615">
 <ele>797.64</ele>
 <time>2010-07-28T12:36:03Z</time>
 </trkpt>
 <trkpt lat="47.294804" lon="13.064144">
 <ele>794.05</ele>
 <time>2010-07-28T12:36:07Z</time>
 </trkpt>
 <trkpt lat="47.294766" lon="13.064575">
 <ele>792.68</ele>
 <time>2010-07-28T12:36:09Z</time>
 </trkpt>
 <trkpt lat="47.294748" lon="13.064840">
 <ele>791.64</ele>
 <time>2010-07-28T12:36:13Z</time>
 </trkpt>
 <trkpt lat="47.294929" lon="13.065578">
 <ele>792.13</ele>
 <time>2010-07-28T12:36:19Z</time>
 </trkpt>
 <trkpt lat="47.294943" lon="13.066404">
 <ele>793.93</ele>
 <time>2010-07-28T12:36:28Z</time>
 </trkpt>
 <trkpt lat="47.294997" lon="13.066914">
 <ele>794.02</ele>
 <time>2010-07-28T12:36:32Z</time>
 </trkpt>
 <trkpt lat="47.295144" lon="13.067620">
 <ele>794.49</ele>
 <time>2010-07-28T12:36:39Z</time>
 </trkpt>
 <trkpt lat="47.295202" lon="13.068411">
 <ele>794.76</ele>
 <time>2010-07-28T12:36:47Z</time>
 </trkpt>
 <trkpt lat="47.295200" lon="13.069102">
 <ele>794.40</ele>
 <time>2010-07-28T12:36:53Z</time>
 </trkpt>
 <trkpt lat="47.295307" lon="13.069284">
 <ele>792.99</ele>
 <time>2010-07-28T12:37:00Z</time>
 </trkpt>
 <trkpt lat="47.295246" lon="13.069666">
 <ele>792.89</ele>
 <time>2010-07-28T12:37:06Z</time>
 </trkpt>
 <trkpt lat="47.295307" lon="13.069945">
 <ele>792.79</ele>
 <time>2010-07-28T12:37:10Z</time>
 </trkpt>
 <trkpt lat="47.295456" lon="13.070155">
 <ele>792.73</ele>
 <time>2010-07-28T12:37:13Z</time>
 </trkpt>
 <trkpt lat="47.295451" lon="13.070535">
 <ele>790.68</ele>
 <time>2010-07-28T12:37:19Z</time>
 </trkpt>
 <trkpt lat="47.295390" lon="13.070901">
 <ele>788.66</ele>
 <time>2010-07-28T12:37:23Z</time>
 </trkpt>
 <trkpt lat="47.295352" lon="13.071316">
 <ele>787.74</ele>
 <time>2010-07-28T12:37:28Z</time>
 </trkpt>
 <trkpt lat="47.295247" lon="13.071733">
 <ele>787.52</ele>
 <time>2010-07-28T12:37:30Z</time>
 </trkpt>
 <trkpt lat="47.295189" lon="13.072314">
 <ele>787.40</ele>
 <time>2010-07-28T12:37:32Z</time>
 </trkpt>
 <trkpt lat="47.295553" lon="13.072549">
 <ele>787.04</ele>
 <time>2010-07-28T12:37:37Z</time>
 </trkpt>
 <trkpt lat="47.295770" lon="13.072772">
 <ele>786.73</ele>
 <time>2010-07-28T12:37:39Z</time>
 </trkpt>
 <trkpt lat="47.295809" lon="13.073068">
 <ele>785.59</ele>
 <time>2010-07-28T12:37:44Z</time>
 </trkpt>
 <trkpt lat="47.295976" lon="13.073608">
 <ele>784.52</ele>
 <time>2010-07-28T12:37:48Z</time>
 </trkpt>
 <trkpt lat="47.296143" lon="13.073967">
 <ele>782.94</ele>
 <time>2010-07-28T12:37:51Z</time>
 </trkpt>
 <trkpt lat="47.296408" lon="13.074584">
 <ele>781.74</ele>
 <time>2010-07-28T12:37:57Z</time>
 </trkpt>
 <trkpt lat="47.296527" lon="13.074977">
 <ele>781.17</ele>
 <time>2010-07-28T12:38:02Z</time>
 </trkpt>
 <trkpt lat="47.296649" lon="13.075502">
 <ele>780.60</ele>
 <time>2010-07-28T12:38:08Z</time>
 </trkpt>
 <trkpt lat="47.296747" lon="13.076027">
 <ele>779.79</ele>
 <time>2010-07-28T12:38:12Z</time>
 </trkpt>
 <trkpt lat="47.296846" lon="13.076520">
 <ele>777.23</ele>
 <time>2010-07-28T12:38:17Z</time>
 </trkpt>
 <trkpt lat="47.296945" lon="13.077078">
 <ele>771.78</ele>
 <time>2010-07-28T12:38:22Z</time>
 </trkpt>
 <trkpt lat="47.296886" lon="13.077576">
 <ele>770.84</ele>
 <time>2010-07-28T12:38:24Z</time>
 </trkpt>
 <trkpt lat="47.296922" lon="13.078369">
 <ele>766.16</ele>
 <time>2010-07-28T12:38:29Z</time>
 </trkpt>
 <trkpt lat="47.297020" lon="13.078861">
 <ele>763.64</ele>
 <time>2010-07-28T12:38:32Z</time>
 </trkpt>
 <trkpt lat="47.297228" lon="13.079217">
 <ele>762.93</ele>
 <time>2010-07-28T12:38:33Z</time>
 </trkpt>
 <trkpt lat="47.297145" lon="13.079617">
 <ele>760.29</ele>
 <time>2010-07-28T12:38:39Z</time>
 </trkpt>
 <trkpt lat="47.297155" lon="13.080179">
 <ele>757.33</ele>
 <time>2010-07-28T12:38:44Z</time>
 </trkpt>
 <trkpt lat="47.297319" lon="13.080570">
 <ele>752.98</ele>
 <time>2010-07-28T12:38:52Z</time>
 </trkpt>
 <trkpt lat="47.297188" lon="13.080927">
 <ele>750.94</ele>
 <time>2010-07-28T12:38:57Z</time>
 </trkpt>
 <trkpt lat="47.297050" lon="13.081097">
 <ele>749.95</ele>
 <time>2010-07-28T12:39:02Z</time>
 </trkpt>
 <trkpt lat="47.297024" lon="13.081347">
 <ele>750.28</ele>
 <time>2010-07-28T12:39:07Z</time>
 </trkpt>
 <trkpt lat="47.297012" lon="13.081488">
 <ele>751.74</ele>
 <time>2010-07-28T12:39:12Z</time>
 </trkpt>
 <trkpt lat="47.296989" lon="13.081688">
 <ele>752.92</ele>
 <time>2010-07-28T12:39:20Z</time>
 </trkpt>
 <trkpt lat="47.296970" lon="13.081906">
 <ele>754.96</ele>
 <time>2010-07-28T12:39:29Z</time>
 </trkpt>
 <trkpt lat="47.296959" lon="13.082059">
 <ele>756.59</ele>
 <time>2010-07-28T12:39:36Z</time>
 </trkpt>
 <trkpt lat="47.296963" lon="13.082160">
 <ele>757.45</ele>
 <time>2010-07-28T12:39:41Z</time>
 </trkpt>
 <trkpt lat="47.296970" lon="13.082304">
 <ele>758.91</ele>
 <time>2010-07-28T12:39:47Z</time>
 </trkpt>
 <trkpt lat="47.296974" lon="13.082427">
 <ele>759.61</ele>
 <time>2010-07-28T12:39:51Z</time>
 </trkpt>
 <trkpt lat="47.296982" lon="13.082645">
 <ele>761.62</ele>
 <time>2010-07-28T12:39:59Z</time>
 </trkpt>
 <trkpt lat="47.296989" lon="13.082884">
 <ele>763.58</ele>
 <time>2010-07-28T12:40:08Z</time>
 </trkpt>
 <trkpt lat="47.297001" lon="13.083131">
 <ele>765.44</ele>
 <time>2010-07-28T12:40:17Z</time>
 </trkpt>
 <trkpt lat="47.297016" lon="13.083349">
 <ele>765.72</ele>
 <time>2010-07-28T12:40:24Z</time>
 </trkpt>
 <trkpt lat="47.297043" lon="13.083646">
 <ele>765.72</ele>
 <time>2010-07-28T12:40:32Z</time>
 </trkpt>
 <trkpt lat="47.297073" lon="13.084060">
 <ele>766.30</ele>
 <time>2010-07-28T12:40:41Z</time>
 </trkpt>
 <trkpt lat="47.297108" lon="13.084448">
 <ele>766.64</ele>
 <time>2010-07-28T12:40:49Z</time>
 </trkpt>
 <trkpt lat="47.297028" lon="13.084786">
 <ele>766.74</ele>
 <time>2010-07-28T12:40:56Z</time>
 </trkpt>
 <trkpt lat="47.296959" lon="13.085044">
 <ele>767.15</ele>
 <time>2010-07-28T12:41:02Z</time>
 </trkpt>
 <trkpt lat="47.296921" lon="13.085199">
 <ele>767.42</ele>
 <time>2010-07-28T12:41:06Z</time>
 </trkpt>
 <trkpt lat="47.296860" lon="13.085419">
 <ele>768.13</ele>
 <time>2010-07-28T12:41:11Z</time>
 </trkpt>
 <trkpt lat="47.296810" lon="13.085654">
 <ele>769.37</ele>
 <time>2010-07-28T12:41:17Z</time>
 </trkpt>
 <trkpt lat="47.296818" lon="13.085959">
 <ele>771.65</ele>
 <time>2010-07-28T12:41:26Z</time>
 </trkpt>
 <trkpt lat="47.296822" lon="13.086243">
 <ele>773.00</ele>
 <time>2010-07-28T12:41:34Z</time>
 </trkpt>
 <trkpt lat="47.296825" lon="13.086446">
 <ele>774.11</ele>
 <time>2010-07-28T12:41:41Z</time>
 </trkpt>
 <trkpt lat="47.296829" lon="13.086580">
 <ele>774.83</ele>
 <time>2010-07-28T12:41:46Z</time>
 </trkpt>
 <trkpt lat="47.296833" lon="13.086761">
 <ele>775.82</ele>
 <time>2010-07-28T12:41:53Z</time>
 </trkpt>
 <trkpt lat="47.296837" lon="13.086943">
 <ele>777.61</ele>
 <time>2010-07-28T12:42:00Z</time>
 </trkpt>
 <trkpt lat="47.296841" lon="13.087160">
 <ele>779.30</ele>
 <time>2010-07-28T12:42:08Z</time>
 </trkpt>
 <trkpt lat="47.296844" lon="13.087345">
 <ele>780.83</ele>
 <time>2010-07-28T12:42:15Z</time>
 </trkpt>
 <trkpt lat="47.296848" lon="13.087568">
 <ele>782.05</ele>
 <time>2010-07-28T12:42:24Z</time>
 </trkpt>
 <trkpt lat="47.296909" lon="13.087880">
 <ele>783.16</ele>
 <time>2010-07-28T12:42:33Z</time>
 </trkpt>
 <trkpt lat="47.296959" lon="13.088108">
 <ele>782.73</ele>
 <time>2010-07-28T12:42:38Z</time>
 </trkpt>
 <trkpt lat="47.297024" lon="13.088399">
 <ele>781.68</ele>
 <time>2010-07-28T12:42:42Z</time>
 </trkpt>
 <trkpt lat="47.297138" lon="13.088934">
 <ele>778.68</ele>
 <time>2010-07-28T12:42:47Z</time>
 </trkpt>
 <trkpt lat="47.297272" lon="13.089546">
 <ele>775.10</ele>
 <time>2010-07-28T12:42:52Z</time>
 </trkpt>
 <trkpt lat="47.297417" lon="13.090218">
 <ele>771.77</ele>
 <time>2010-07-28T12:42:57Z</time>
 </trkpt>
 <trkpt lat="47.297482" lon="13.090509">
 <ele>770.92</ele>
 <time>2010-07-28T12:42:59Z</time>
 </trkpt>
 <trkpt lat="47.297638" lon="13.091222">
 <ele>768.17</ele>
 <time>2010-07-28T12:43:04Z</time>
 </trkpt>
 <trkpt lat="47.297668" lon="13.092021">
 <ele>766.82</ele>
 <time>2010-07-28T12:43:10Z</time>
 </trkpt>
 <trkpt lat="47.297676" lon="13.092341">
 <ele>766.90</ele>
 <time>2010-07-28T12:43:13Z</time>
 </trkpt>
 <trkpt lat="47.297688" lon="13.092646">
 <ele>768.40</ele>
 <time>2010-07-28T12:43:18Z</time>
 </trkpt>
 <trkpt lat="47.297672" lon="13.092938">
 <ele>770.40</ele>
 <time>2010-07-28T12:43:26Z</time>
 </trkpt>
 <trkpt lat="47.297657" lon="13.093207">
 <ele>772.12</ele>
 <time>2010-07-28T12:43:34Z</time>
 </trkpt>
 <trkpt lat="47.297642" lon="13.093432">
 <ele>773.31</ele>
 <time>2010-07-28T12:43:41Z</time>
 </trkpt>
 <trkpt lat="47.297626" lon="13.093689">
 <ele>774.29</ele>
 <time>2010-07-28T12:43:48Z</time>
 </trkpt>
 <trkpt lat="47.297604" lon="13.094033">
 <ele>775.24</ele>
 <time>2010-07-28T12:43:57Z</time>
 </trkpt>
 <trkpt lat="47.297581" lon="13.094379">
 <ele>776.65</ele>
 <time>2010-07-28T12:44:06Z</time>
 </trkpt>
 <trkpt lat="47.297611" lon="13.094804">
 <ele>777.82</ele>
 <time>2010-07-28T12:44:14Z</time>
 </trkpt>
 <trkpt lat="47.297756" lon="13.095120">
 <ele>778.89</ele>
 <time>2010-07-28T12:44:23Z</time>
 </trkpt>
 <trkpt lat="47.297920" lon="13.095467">
 <ele>780.21</ele>
 <time>2010-07-28T12:44:33Z</time>
 </trkpt>
 <trkpt lat="47.298080" lon="13.095808">
 <ele>782.76</ele>
 <time>2010-07-28T12:44:43Z</time>
 </trkpt>
 <trkpt lat="47.298172" lon="13.096079">
 <ele>785.02</ele>
 <time>2010-07-28T12:44:51Z</time>
 </trkpt>
 <trkpt lat="47.298210" lon="13.096361">
 <ele>785.88</ele>
 <time>2010-07-28T12:44:59Z</time>
 </trkpt>
 <trkpt lat="47.298244" lon="13.096592">
 <ele>786.59</ele>
 <time>2010-07-28T12:45:05Z</time>
 </trkpt>
 <trkpt lat="47.298290" lon="13.096926">
 <ele>787.62</ele>
 <time>2010-07-28T12:45:14Z</time>
 </trkpt>
 <trkpt lat="47.298252" lon="13.097211">
 <ele>788.44</ele>
 <time>2010-07-28T12:45:22Z</time>
 </trkpt>
 <trkpt lat="47.298203" lon="13.097594">
 <ele>788.40</ele>
 <time>2010-07-28T12:45:30Z</time>
 </trkpt>
 <trkpt lat="47.298153" lon="13.097990">
 <ele>787.56</ele>
 <time>2010-07-28T12:45:36Z</time>
 </trkpt>
 <trkpt lat="47.298141" lon="13.098072">
 <ele>787.25</ele>
 <time>2010-07-28T12:45:37Z</time>
 </trkpt>
 <trkpt lat="47.298096" lon="13.098423">
 <ele>785.50</ele>
 <time>2010-07-28T12:45:41Z</time>
 </trkpt>
 <trkpt lat="47.298172" lon="13.098728">
 <ele>783.29</ele>
 <time>2010-07-28T12:45:45Z</time>
 </trkpt>
 <trkpt lat="47.298264" lon="13.098851">
 <ele>782.49</ele>
 <time>2010-07-28T12:45:48Z</time>
 </trkpt>
 <trkpt lat="47.298401" lon="13.099028">
 <ele>782.27</ele>
 <time>2010-07-28T12:45:52Z</time>
 </trkpt>
 <trkpt lat="47.298615" lon="13.099354">
 <ele>781.86</ele>
 <time>2010-07-28T12:45:57Z</time>
 </trkpt>
 <trkpt lat="47.298634" lon="13.099723">
 <ele>780.92</ele>
 <time>2010-07-28T12:46:01Z</time>
 </trkpt>
 <trkpt lat="47.298683" lon="13.100523">
 <ele>778.32</ele>
 <time>2010-07-28T12:46:08Z</time>
 </trkpt>
 <trkpt lat="47.298702" lon="13.100878">
 <ele>777.68</ele>
 <time>2010-07-28T12:46:11Z</time>
 </trkpt>
 <trkpt lat="47.298721" lon="13.101179">
 <ele>777.86</ele>
 <time>2010-07-28T12:46:14Z</time>
 </trkpt>
 <trkpt lat="47.298740" lon="13.101472">
 <ele>778.69</ele>
 <time>2010-07-28T12:46:18Z</time>
 </trkpt>
 <trkpt lat="47.298759" lon="13.101792">
 <ele>778.12</ele>
 <time>2010-07-28T12:46:22Z</time>
 </trkpt>
 <trkpt lat="47.298790" lon="13.102284">
 <ele>776.68</ele>
 <time>2010-07-28T12:46:27Z</time>
 </trkpt>
 <trkpt lat="47.298878" lon="13.103079">
 <ele>774.37</ele>
 <time>2010-07-28T12:46:34Z</time>
 </trkpt>
 <trkpt lat="47.298969" lon="13.103899">
 <ele>773.28</ele>
 <time>2010-07-28T12:46:41Z</time>
 </trkpt>
 <trkpt lat="47.299026" lon="13.104392">
 <ele>774.06</ele>
 <time>2010-07-28T12:46:46Z</time>
 </trkpt>
 <trkpt lat="47.299065" lon="13.104741">
 <ele>776.51</ele>
 <time>2010-07-28T12:46:51Z</time>
 </trkpt>
 <trkpt lat="47.299088" lon="13.104943">
 <ele>777.17</ele>
 <time>2010-07-28T12:46:54Z</time>
 </trkpt>
 <trkpt lat="47.299122" lon="13.105261">
 <ele>777.21</ele>
 <time>2010-07-28T12:46:59Z</time>
 </trkpt>
 <trkpt lat="47.299149" lon="13.105507">
 <ele>777.66</ele>
 <time>2010-07-28T12:47:03Z</time>
 </trkpt>
 <trkpt lat="47.299210" lon="13.106048">
 <ele>778.59</ele>
 <time>2010-07-28T12:47:11Z</time>
 </trkpt>
 <trkpt lat="47.299335" lon="13.106659">
 <ele>778.84</ele>
 <time>2010-07-28T12:47:19Z</time>
 </trkpt>
 <trkpt lat="47.299618" lon="13.107370">
 <ele>778.44</ele>
 <time>2010-07-28T12:47:29Z</time>
 </trkpt>
 <trkpt lat="47.299717" lon="13.107614">
 <ele>777.84</ele>
 <time>2010-07-28T12:47:33Z</time>
 </trkpt>
 <trkpt lat="47.299831" lon="13.107904">
 <ele>775.77</ele>
 <time>2010-07-28T12:47:38Z</time>
 </trkpt>
 <trkpt lat="47.299850" lon="13.107956">
 <ele>775.01</ele>
 <time>2010-07-28T12:47:39Z</time>
 </trkpt>
 <trkpt lat="47.299976" lon="13.108265">
 <ele>772.79</ele>
 <time>2010-07-28T12:47:44Z</time>
 </trkpt>
 <trkpt lat="47.300133" lon="13.108554">
 <ele>769.64</ele>
 <time>2010-07-28T12:47:48Z</time>
 </trkpt>
 <trkpt lat="47.300159" lon="13.108587">
 <ele>768.90</ele>
 <time>2010-07-28T12:47:49Z</time>
 </trkpt>
 <trkpt lat="47.300346" lon="13.108500">
 <ele>766.76</ele>
 <time>2010-07-28T12:47:53Z</time>
 </trkpt>
 <trkpt lat="47.300198" lon="13.108639">
 <ele>764.51</ele>
 <time>2010-07-28T12:47:57Z</time>
 </trkpt>
 <trkpt lat="47.300228" lon="13.108675">
 <ele>762.98</ele>
 <time>2010-07-28T12:48:00Z</time>
 </trkpt>
 <trkpt lat="47.300259" lon="13.108716">
 <ele>762.98</ele>
 <time>2010-07-28T12:48:01Z</time>
 </trkpt>
 <trkpt lat="47.300583" lon="13.109124">
 <ele>760.73</ele>
 <time>2010-07-28T12:48:08Z</time>
 </trkpt>
 <trkpt lat="47.300892" lon="13.109508">
 <ele>759.64</ele>
 <time>2010-07-28T12:48:14Z</time>
 </trkpt>
 <trkpt lat="47.301102" lon="13.109773">
 <ele>757.68</ele>
 <time>2010-07-28T12:48:18Z</time>
 </trkpt>
 <trkpt lat="47.301163" lon="13.109852">
 <ele>756.86</ele>
 <time>2010-07-28T12:48:20Z</time>
 </trkpt>
 <trkpt lat="47.301270" lon="13.110098">
 <ele>755.29</ele>
 <time>2010-07-28T12:48:25Z</time>
 </trkpt>
 <trkpt lat="47.301418" lon="13.110567">
 <ele>753.49</ele>
 <time>2010-07-28T12:48:30Z</time>
 </trkpt>
 <trkpt lat="47.301647" lon="13.111291">
 <ele>749.71</ele>
 <time>2010-07-28T12:48:36Z</time>
 </trkpt>
 <trkpt lat="47.301720" lon="13.111525">
 <ele>749.00</ele>
 <time>2010-07-28T12:48:38Z</time>
 </trkpt>
 <trkpt lat="47.301895" lon="13.112077">
 <ele>748.00</ele>
 <time>2010-07-28T12:48:43Z</time>
 </trkpt>
 <trkpt lat="47.302063" lon="13.112602">
 <ele>747.07</ele>
 <time>2010-07-28T12:48:48Z</time>
 </trkpt>
 <trkpt lat="47.302181" lon="13.112967">
 <ele>747.14</ele>
 <time>2010-07-28T12:48:52Z</time>
 </trkpt>
 <trkpt lat="47.302292" lon="13.113318">
 <ele>747.95</ele>
 <time>2010-07-28T12:48:57Z</time>
 </trkpt>
 <trkpt lat="47.302456" lon="13.113830">
 <ele>747.47</ele>
 <time>2010-07-28T12:49:03Z</time>
 </trkpt>
 <trkpt lat="47.302612" lon="13.114331">
 <ele>747.34</ele>
 <time>2010-07-28T12:49:09Z</time>
 </trkpt>
 <trkpt lat="47.302658" lon="13.114486">
 <ele>747.45</ele>
 <time>2010-07-28T12:49:11Z</time>
 </trkpt>
 <trkpt lat="47.302704" lon="13.114634">
 <ele>747.73</ele>
 <time>2010-07-28T12:49:13Z</time>
 </trkpt>
 <trkpt lat="47.302769" lon="13.114850">
 <ele>748.04</ele>
 <time>2010-07-28T12:49:16Z</time>
 </trkpt>
 <trkpt lat="47.302891" lon="13.115266">
 <ele>747.14</ele>
 <time>2010-07-28T12:49:21Z</time>
 </trkpt>
 <trkpt lat="47.303032" lon="13.115729">
 <ele>748.04</ele>
 <time>2010-07-28T12:49:27Z</time>
 </trkpt>
 <trkpt lat="47.303127" lon="13.116190">
 <ele>748.78</ele>
 <time>2010-07-28T12:49:33Z</time>
 </trkpt>
 <trkpt lat="47.303185" lon="13.116541">
 <ele>749.39</ele>
 <time>2010-07-28T12:49:38Z</time>
 </trkpt>
 <trkpt lat="47.303219" lon="13.116735">
 <ele>749.83</ele>
 <time>2010-07-28T12:49:41Z</time>
 </trkpt>
 <trkpt lat="47.303284" lon="13.117112">
 <ele>750.63</ele>
 <time>2010-07-28T12:49:47Z</time>
 </trkpt>
 <trkpt lat="47.303329" lon="13.117396">
 <ele>751.50</ele>
 <time>2010-07-28T12:49:52Z</time>
 </trkpt>
 <trkpt lat="47.303391" lon="13.117755">
 <ele>752.33</ele>
 <time>2010-07-28T12:49:58Z</time>
 </trkpt>
 <trkpt lat="47.303432" lon="13.118020">
 <ele>753.64</ele>
 <time>2010-07-28T12:50:03Z</time>
 </trkpt>
 <trkpt lat="47.303486" lon="13.118323">
 <ele>754.53</ele>
 <time>2010-07-28T12:50:09Z</time>
 </trkpt>
 <trkpt lat="47.303551" lon="13.118708">
 <ele>754.81</ele>
 <time>2010-07-28T12:50:16Z</time>
 </trkpt>
 <trkpt lat="47.303612" lon="13.119120">
 <ele>755.02</ele>
 <time>2010-07-28T12:50:23Z</time>
 </trkpt>
 <trkpt lat="47.303638" lon="13.119721">
 <ele>754.98</ele>
 <time>2010-07-28T12:50:32Z</time>
 </trkpt>
 <trkpt lat="47.303661" lon="13.120302">
 <ele>755.49</ele>
 <time>2010-07-28T12:50:41Z</time>
 </trkpt>
 <trkpt lat="47.303684" lon="13.120893">
 <ele>755.95</ele>
 <time>2010-07-28T12:50:50Z</time>
 </trkpt>
 <trkpt lat="47.303738" lon="13.121214">
 <ele>756.08</ele>
 <time>2010-07-28T12:50:55Z</time>
 </trkpt>
 <trkpt lat="47.303791" lon="13.121322">
 <ele>756.03</ele>
 <time>2010-07-28T12:50:57Z</time>
 </trkpt>
 <trkpt lat="47.303905" lon="13.121548">
 <ele>755.99</ele>
 <time>2010-07-28T12:51:01Z</time>
 </trkpt>
 <trkpt lat="47.304111" lon="13.122012">
 <ele>756.14</ele>
 <time>2010-07-28T12:51:09Z</time>
 </trkpt>
 <trkpt lat="47.304142" lon="13.122291">
 <ele>756.92</ele>
 <time>2010-07-28T12:51:15Z</time>
 </trkpt>
 <trkpt lat="47.304157" lon="13.122461">
 <ele>758.49</ele>
 <time>2010-07-28T12:51:21Z</time>
 </trkpt>
 <trkpt lat="47.304188" lon="13.122734">
 <ele>760.09</ele>
 <time>2010-07-28T12:51:30Z</time>
 </trkpt>
 <trkpt lat="47.304214" lon="13.122971">
 <ele>762.01</ele>
 <time>2010-07-28T12:51:38Z</time>
 </trkpt>
 <trkpt lat="47.304241" lon="13.123212">
 <ele>763.69</ele>
 <time>2010-07-28T12:51:45Z</time>
 </trkpt>
 <trkpt lat="47.304253" lon="13.123343">
 <ele>764.47</ele>
 <time>2010-07-28T12:51:50Z</time>
 </trkpt>
 <trkpt lat="47.304279" lon="13.123586">
 <ele>766.81</ele>
 <time>2010-07-28T12:51:59Z</time>
 </trkpt>
 <trkpt lat="47.304306" lon="13.123767">
 <ele>768.71</ele>
 <time>2010-07-28T12:52:05Z</time>
 </trkpt>
 <trkpt lat="47.304417" lon="13.123973">
 <ele>770.00</ele>
 <time>2010-07-28T12:52:14Z</time>
 </trkpt>
 <trkpt lat="47.304497" lon="13.124120">
 <ele>770.64</ele>
 <time>2010-07-28T12:52:21Z</time>
 </trkpt>
 <trkpt lat="47.304596" lon="13.124307">
 <ele>772.18</ele>
 <time>2010-07-28T12:52:30Z</time>
 </trkpt>
 <trkpt lat="47.304672" lon="13.124451">
 <ele>772.93</ele>
 <time>2010-07-28T12:52:37Z</time>
 </trkpt>
 <trkpt lat="47.304798" lon="13.124684">
 <ele>774.51</ele>
 <time>2010-07-28T12:52:48Z</time>
 </trkpt>
 <trkpt lat="47.304897" lon="13.124873">
 <ele>775.68</ele>
 <time>2010-07-28T12:52:57Z</time>
 </trkpt>
 <trkpt lat="47.304977" lon="13.125114">
 <ele>777.24</ele>
 <time>2010-07-28T12:53:07Z</time>
 </trkpt>
 <trkpt lat="47.305031" lon="13.125368">
 <ele>778.81</ele>
 <time>2010-07-28T12:53:17Z</time>
 </trkpt>
 <trkpt lat="47.305092" lon="13.125645">
 <ele>780.28</ele>
 <time>2010-07-28T12:53:27Z</time>
 </trkpt>
 <trkpt lat="47.305122" lon="13.125804">
 <ele>779.89</ele>
 <time>2010-07-28T12:53:31Z</time>
 </trkpt>
 <trkpt lat="47.305336" lon="13.126043">
 <ele>778.30</ele>
 <time>2010-07-28T12:53:36Z</time>
 </trkpt>
 <trkpt lat="47.305401" lon="13.126105">
 <ele>777.62</ele>
 <time>2010-07-28T12:53:37Z</time>
 </trkpt>
 <trkpt lat="47.305790" lon="13.126541">
 <ele>773.23</ele>
 <time>2010-07-28T12:53:43Z</time>
 </trkpt>
 <trkpt lat="47.305851" lon="13.126617">
 <ele>773.01</ele>
 <time>2010-07-28T12:53:44Z</time>
 </trkpt>
 <trkpt lat="47.305977" lon="13.126954">
 <ele>773.21</ele>
 <time>2010-07-28T12:53:48Z</time>
 </trkpt>
 <trkpt lat="47.305981" lon="13.127082">
 <ele>773.68</ele>
 <time>2010-07-28T12:53:50Z</time>
 </trkpt>
 <trkpt lat="47.305927" lon="13.127357">
 <ele>775.81</ele>
 <time>2010-07-28T12:53:59Z</time>
 </trkpt>
 <trkpt lat="47.305885" lon="13.127581">
 <ele>777.84</ele>
 <time>2010-07-28T12:54:07Z</time>
 </trkpt>
 <trkpt lat="47.306000" lon="13.127851">
 <ele>781.96</ele>
 <time>2010-07-28T12:54:17Z</time>
 </trkpt>
 <trkpt lat="47.306053" lon="13.127947">
 <ele>782.91</ele>
 <time>2010-07-28T12:54:21Z</time>
 </trkpt>
 <trkpt lat="47.306206" lon="13.128073">
 <ele>782.98</ele>
 <time>2010-07-28T12:54:29Z</time>
 </trkpt>
 <trkpt lat="47.306316" lon="13.128164">
 <ele>782.65</ele>
 <time>2010-07-28T12:54:36Z</time>
 </trkpt>
 <trkpt lat="47.306492" lon="13.128307">
 <ele>782.70</ele>
 <time>2010-07-28T12:54:43Z</time>
 </trkpt>
 <trkpt lat="47.306698" lon="13.128477">
 <ele>782.92</ele>
 <time>2010-07-28T12:54:49Z</time>
 </trkpt>
 <trkpt lat="47.306828" lon="13.128804">
 <ele>783.05</ele>
 <time>2010-07-28T12:54:55Z</time>
 </trkpt>
 <trkpt lat="47.306969" lon="13.129417">
 <ele>783.03</ele>
 <time>2010-07-28T12:55:04Z</time>
 </trkpt>
 <trkpt lat="47.307064" lon="13.129844">
 <ele>783.16</ele>
 <time>2010-07-28T12:55:10Z</time>
 </trkpt>
 <trkpt lat="47.307156" lon="13.130104">
 <ele>783.34</ele>
 <time>2010-07-28T12:55:14Z</time>
 </trkpt>
 <trkpt lat="47.307274" lon="13.130469">
 <ele>783.28</ele>
 <time>2010-07-28T12:55:19Z</time>
 </trkpt>
 <trkpt lat="47.307270" lon="13.130849">
 <ele>783.21</ele>
 <time>2010-07-28T12:55:24Z</time>
 </trkpt>
 <trkpt lat="47.307289" lon="13.130918">
 <ele>783.34</ele>
 <time>2010-07-28T12:55:25Z</time>
 </trkpt>
 <trkpt lat="47.307453" lon="13.131677">
 <ele>783.18</ele>
 <time>2010-07-28T12:55:35Z</time>
 </trkpt>
 <trkpt lat="47.307583" lon="13.132485">
 <ele>783.31</ele>
 <time>2010-07-28T12:55:45Z</time>
 </trkpt>
 <trkpt lat="47.307678" lon="13.133269">
 <ele>783.30</ele>
 <time>2010-07-28T12:55:55Z</time>
 </trkpt>
 <trkpt lat="47.307678" lon="13.133919">
 <ele>782.74</ele>
 <time>2010-07-28T12:56:03Z</time>
 </trkpt>
 <trkpt lat="47.307602" lon="13.134416">
 <ele>783.37</ele>
 <time>2010-07-28T12:56:09Z</time>
 </trkpt>
 <trkpt lat="47.307484" lon="13.134665">
 <ele>783.60</ele>
 <time>2010-07-28T12:56:13Z</time>
 </trkpt>
 <trkpt lat="47.307373" lon="13.134889">
 <ele>783.07</ele>
 <time>2010-07-28T12:56:17Z</time>
 </trkpt>
 <trkpt lat="47.307404" lon="13.135025">
 <ele>781.26</ele>
 <time>2010-07-28T12:56:20Z</time>
 </trkpt>
 <trkpt lat="47.307564" lon="13.135224">
 <ele>779.61</ele>
 <time>2010-07-28T12:56:23Z</time>
 </trkpt>
 <trkpt lat="47.307995" lon="13.135745">
 <ele>775.31</ele>
 <time>2010-07-28T12:56:29Z</time>
 </trkpt>
 <trkpt lat="47.308067" lon="13.135826">
 <ele>775.07</ele>
 <time>2010-07-28T12:56:30Z</time>
 </trkpt>
 <trkpt lat="47.308357" lon="13.136087">
 <ele>774.51</ele>
 <time>2010-07-28T12:56:34Z</time>
 </trkpt>
 <trkpt lat="47.308636" lon="13.136212">
 <ele>773.67</ele>
 <time>2010-07-28T12:56:38Z</time>
 </trkpt>
 <trkpt lat="47.308788" lon="13.136070">
 <ele>773.31</ele>
 <time>2010-07-28T12:56:41Z</time>
 </trkpt>
 <trkpt lat="47.308849" lon="13.135913">
 <ele>773.22</ele>
 <time>2010-07-28T12:56:43Z</time>
 </trkpt>
 <trkpt lat="47.308865" lon="13.135713">
 <ele>773.19</ele>
 <time>2010-07-28T12:56:45Z</time>
 </trkpt>
 <trkpt lat="47.309025" lon="13.135244">
 <ele>772.79</ele>
 <time>2010-07-28T12:56:50Z</time>
 </trkpt>
 <trkpt lat="47.309212" lon="13.134932">
 <ele>772.62</ele>
 <time>2010-07-28T12:56:54Z</time>
 </trkpt>
 <trkpt lat="47.309391" lon="13.134602">
 <ele>772.44</ele>
 <time>2010-07-28T12:56:58Z</time>
 </trkpt>
 <trkpt lat="47.309589" lon="13.133851">
 <ele>771.71</ele>
 <time>2010-07-28T12:57:06Z</time>
 </trkpt>
 <trkpt lat="47.309799" lon="13.133269">
 <ele>771.51</ele>
 <time>2010-07-28T12:57:13Z</time>
 </trkpt>
 <trkpt lat="47.309841" lon="13.133017">
 <ele>771.23</ele>
 <time>2010-07-28T12:57:16Z</time>
 </trkpt>
 <trkpt lat="47.309978" lon="13.132742">
 <ele>770.86</ele>
 <time>2010-07-28T12:57:20Z</time>
 </trkpt>
 <trkpt lat="47.310143" lon="13.132750">
 <ele>770.16</ele>
 <time>2010-07-28T12:57:23Z</time>
 </trkpt>
 <trkpt lat="47.310268" lon="13.132928">
 <ele>769.87</ele>
 <time>2010-07-28T12:57:26Z</time>
 </trkpt>
 <trkpt lat="47.310478" lon="13.133381">
 <ele>769.25</ele>
 <time>2010-07-28T12:57:32Z</time>
 </trkpt>
 <trkpt lat="47.310802" lon="13.133819">
 <ele>768.36</ele>
 <time>2010-07-28T12:57:39Z</time>
 </trkpt>
 <trkpt lat="47.310974" lon="13.134201">
 <ele>767.89</ele>
 <time>2010-07-28T12:57:44Z</time>
 </trkpt>
 <trkpt lat="47.311028" lon="13.134818">
 <ele>767.21</ele>
 <time>2010-07-28T12:57:51Z</time>
 </trkpt>
 <trkpt lat="47.311165" lon="13.135305">
 <ele>767.18</ele>
 <time>2010-07-28T12:57:57Z</time>
 </trkpt>
 <trkpt lat="47.311348" lon="13.135850">
 <ele>766.26</ele>
 <time>2010-07-28T12:58:04Z</time>
 </trkpt>
 <trkpt lat="47.311501" lon="13.136435">
 <ele>762.21</ele>
 <time>2010-07-28T12:58:10Z</time>
 </trkpt>
 <trkpt lat="47.311722" lon="13.136929">
 <ele>756.40</ele>
 <time>2010-07-28T12:58:16Z</time>
 </trkpt>
 <trkpt lat="47.311916" lon="13.137352">
 <ele>752.58</ele>
 <time>2010-07-28T12:58:21Z</time>
 </trkpt>
 <trkpt lat="47.312054" lon="13.137932">
 <ele>749.94</ele>
 <time>2010-07-28T12:58:27Z</time>
 </trkpt>
 <trkpt lat="47.312164" lon="13.138492">
 <ele>745.89</ele>
 <time>2010-07-28T12:58:32Z</time>
 </trkpt>
 <trkpt lat="47.312168" lon="13.138685">
 <ele>744.34</ele>
 <time>2010-07-28T12:58:34Z</time>
 </trkpt>
 <trkpt lat="47.312153" lon="13.139257">
 <ele>741.80</ele>
 <time>2010-07-28T12:58:41Z</time>
 </trkpt>
 <trkpt lat="47.312153" lon="13.139519">
 <ele>741.51</ele>
 <time>2010-07-28T12:58:44Z</time>
 </trkpt>
 <trkpt lat="47.312122" lon="13.139864">
 <ele>740.36</ele>
 <time>2010-07-28T12:58:48Z</time>
 </trkpt>
 <trkpt lat="47.312088" lon="13.140055">
 <ele>739.58</ele>
 <time>2010-07-28T12:58:50Z</time>
 </trkpt>
 <trkpt lat="47.312077" lon="13.140403">
 <ele>738.33</ele>
 <time>2010-07-28T12:58:54Z</time>
 </trkpt>
 <trkpt lat="47.312172" lon="13.140570">
 <ele>737.69</ele>
 <time>2010-07-28T12:58:57Z</time>
 </trkpt>
 <trkpt lat="47.312267" lon="13.140653">
 <ele>737.65</ele>
 <time>2010-07-28T12:58:59Z</time>
 </trkpt>
 <trkpt lat="47.312477" lon="13.140951">
 <ele>737.70</ele>
 <time>2010-07-28T12:59:04Z</time>
 </trkpt>
 <trkpt lat="47.312607" lon="13.141150">
 <ele>737.19</ele>
 <time>2010-07-28T12:59:07Z</time>
 </trkpt>
 <trkpt lat="47.312870" lon="13.141413">
 <ele>735.24</ele>
 <time>2010-07-28T12:59:12Z</time>
 </trkpt>
 <trkpt lat="47.313080" lon="13.141588">
 <ele>733.97</ele>
 <time>2010-07-28T12:59:16Z</time>
 </trkpt>
 <trkpt lat="47.313110" lon="13.141826">
 <ele>733.68</ele>
 <time>2010-07-28T12:59:19Z</time>
 </trkpt>
 <trkpt lat="47.313080" lon="13.142411">
 <ele>732.24</ele>
 <time>2010-07-28T12:59:25Z</time>
 </trkpt>
 <trkpt lat="47.313171" lon="13.142915">
 <ele>730.06</ele>
 <time>2010-07-28T12:59:30Z</time>
 </trkpt>
 <trkpt lat="47.313461" lon="13.143432">
 <ele>729.21</ele>
 <time>2010-07-28T12:59:37Z</time>
 </trkpt>
 <trkpt lat="47.313633" lon="13.144001">
 <ele>728.71</ele>
 <time>2010-07-28T12:59:44Z</time>
 </trkpt>
 <trkpt lat="47.313786" lon="13.144590">
 <ele>726.12</ele>
 <time>2010-07-28T12:59:50Z</time>
 </trkpt>
 <trkpt lat="47.313976" lon="13.145345">
 <ele>721.28</ele>
 <time>2010-07-28T12:59:58Z</time>
 </trkpt>
 <trkpt lat="47.314098" lon="13.145812">
 <ele>718.27</ele>
 <time>2010-07-28T13:00:03Z</time>
 </trkpt>
 <trkpt lat="47.314182" lon="13.146148">
 <ele>715.13</ele>
 <time>2010-07-28T13:00:07Z</time>
 </trkpt>
 <trkpt lat="47.314419" lon="13.146434">
 <ele>711.74</ele>
 <time>2010-07-28T13:00:12Z</time>
 </trkpt>
 <trkpt lat="47.314625" lon="13.146665">
 <ele>708.47</ele>
 <time>2010-07-28T13:00:16Z</time>
 </trkpt>
 <trkpt lat="47.314720" lon="13.146939">
 <ele>705.57</ele>
 <time>2010-07-28T13:00:19Z</time>
 </trkpt>
 <trkpt lat="47.314865" lon="13.147525">
 <ele>699.38</ele>
 <time>2010-07-28T13:00:25Z</time>
 </trkpt>
 <trkpt lat="47.314884" lon="13.147605">
 <ele>698.43</ele>
 <time>2010-07-28T13:00:26Z</time>
 </trkpt>
 <trkpt lat="47.314995" lon="13.147878">
 <ele>695.57</ele>
 <time>2010-07-28T13:00:30Z</time>
 </trkpt>
 <trkpt lat="47.315041" lon="13.147925">
 <ele>695.02</ele>
 <time>2010-07-28T13:00:31Z</time>
 </trkpt>
 <trkpt lat="47.315506" lon="13.148160">
 <ele>691.36</ele>
 <time>2010-07-28T13:00:38Z</time>
 </trkpt>
 <trkpt lat="47.315838" lon="13.148323">
 <ele>686.53</ele>
 <time>2010-07-28T13:00:43Z</time>
 </trkpt>
 <trkpt lat="47.316261" lon="13.148530">
 <ele>680.76</ele>
 <time>2010-07-28T13:00:50Z</time>
 </trkpt>
 <trkpt lat="47.316498" lon="13.148647">
 <ele>677.00</ele>
 <time>2010-07-28T13:00:54Z</time>
 </trkpt>
 <trkpt lat="47.316662" lon="13.148891">
 <ele>673.81</ele>
 <time>2010-07-28T13:00:59Z</time>
 </trkpt>
 <trkpt lat="47.316677" lon="13.148965">
 <ele>673.08</ele>
 <time>2010-07-28T13:01:00Z</time>
 </trkpt>
 <trkpt lat="47.316811" lon="13.149305">
 <ele>668.61</ele>
 <time>2010-07-28T13:01:06Z</time>
 </trkpt>
 <trkpt lat="47.316933" lon="13.149298">
 <ele>666.53</ele>
 <time>2010-07-28T13:01:09Z</time>
 </trkpt>
 <trkpt lat="47.316986" lon="13.149278">
 <ele>665.78</ele>
 <time>2010-07-28T13:01:10Z</time>
 </trkpt>
 <trkpt lat="47.317471" lon="13.149100">
 <ele>658.72</ele>
 <time>2010-07-28T13:01:18Z</time>
 </trkpt>
 <trkpt lat="47.317616" lon="13.149059">
 <ele>656.18</ele>
 <time>2010-07-28T13:01:21Z</time>
 </trkpt>
 <trkpt lat="47.317711" lon="13.149033">
 <ele>655.32</ele>
 <time>2010-07-28T13:01:23Z</time>
 </trkpt>
 <trkpt lat="47.317856" lon="13.149090">
 <ele>652.56</ele>
 <time>2010-07-28T13:01:27Z</time>
 </trkpt>
 <trkpt lat="47.317909" lon="13.149210">
 <ele>651.14</ele>
 <time>2010-07-28T13:01:29Z</time>
 </trkpt>
 <trkpt lat="47.318073" lon="13.149818">
 <ele>647.86</ele>
 <time>2010-07-28T13:01:36Z</time>
 </trkpt>
 <trkpt lat="47.318092" lon="13.149905">
 <ele>647.15</ele>
 <time>2010-07-28T13:01:40Z</time>
 </trkpt>
 <trkpt lat="47.318237" lon="13.150520">
 <ele>646.94</ele>
 <time>2010-07-28T13:01:44Z</time>
 </trkpt>
 <trkpt lat="47.318279" lon="13.150828">
 <ele>646.93</ele>
 <time>2010-07-28T13:01:48Z</time>
 </trkpt>
 <trkpt lat="47.318199" lon="13.151625">
 <ele>645.69</ele>
 <time>2010-07-28T13:01:56Z</time>
 </trkpt>
 <trkpt lat="47.318111" lon="13.152454">
 <ele>643.69</ele>
 <time>2010-07-28T13:02:03Z</time>
 </trkpt>
 <trkpt lat="47.318031" lon="13.153193">
 <ele>641.91</ele>
 <time>2010-07-28T13:02:09Z</time>
 </trkpt>
 <trkpt lat="47.318020" lon="13.153697">
 <ele>640.89</ele>
 <time>2010-07-28T13:02:13Z</time>
 </trkpt>
 <trkpt lat="47.317928" lon="13.154469">
 <ele>639.90</ele>
 <time>2010-07-28T13:02:20Z</time>
 </trkpt>
 <trkpt lat="47.317787" lon="13.155176">
 <ele>639.66</ele>
 <time>2010-07-28T13:02:27Z</time>
 </trkpt>
 <trkpt lat="47.317684" lon="13.155768">
 <ele>639.31</ele>
 <time>2010-07-28T13:02:33Z</time>
 </trkpt>
 <trkpt lat="47.317665" lon="13.156737">
 <ele>638.51</ele>
 <time>2010-07-28T13:02:42Z</time>
 </trkpt>
 <trkpt lat="47.317665" lon="13.156960">
 <ele>638.08</ele>
 <time>2010-07-28T13:02:44Z</time>
 </trkpt>
 <trkpt lat="47.317726" lon="13.157365">
 <ele>637.82</ele>
 <time>2010-07-28T13:02:48Z</time>
 </trkpt>
 <trkpt lat="47.317856" lon="13.157746">
 <ele>637.27</ele>
 <time>2010-07-28T13:02:52Z</time>
 </trkpt>
 <trkpt lat="47.317924" lon="13.158366">
 <ele>636.88</ele>
 <time>2010-07-28T13:02:58Z</time>
 </trkpt>
 <trkpt lat="47.317921" lon="13.159389">
 <ele>636.82</ele>
 <time>2010-07-28T13:03:08Z</time>
 </trkpt>
 <trkpt lat="47.317886" lon="13.159802">
 <ele>638.26</ele>
 <time>2010-07-28T13:03:13Z</time>
 </trkpt>
 <trkpt lat="47.317883" lon="13.159869">
 <ele>638.56</ele>
 <time>2010-07-28T13:03:14Z</time>
 </trkpt>
 <trkpt lat="47.317940" lon="13.160286">
 <ele>640.47</ele>
 <time>2010-07-28T13:03:21Z</time>
 </trkpt>
 <trkpt lat="47.318020" lon="13.160597">
 <ele>638.79</ele>
 <time>2010-07-28T13:03:27Z</time>
 </trkpt>
 <trkpt lat="47.318066" lon="13.160788">
 <ele>637.28</ele>
 <time>2010-07-28T13:03:33Z</time>
 </trkpt>
 <trkpt lat="47.318066" lon="13.160783">
 <ele>636.41</ele>
 <time>2010-07-28T13:03:37Z</time>
 </trkpt>
 <trkpt lat="47.318024" lon="13.160611">
 <ele>635.78</ele>
 <time>2010-07-28T13:03:42Z</time>
 </trkpt>
 <trkpt lat="47.319103" lon="13.159862">
 <ele>635.03</ele>
 <time>2010-07-28T13:03:47Z</time>
 </trkpt>
 <trkpt lat="47.319103" lon="13.159862">
 <ele>635.01</ele>
 <time>2010-07-28T13:03:54Z</time>
 </trkpt>
 <trkpt lat="47.319103" lon="13.159862">
 <ele>634.88</ele>
 <time>2010-07-28T13:03:55Z</time>
 </trkpt>
 <trkpt lat="47.319183" lon="13.159913">
 <ele>634.60</ele>
 <time>2010-07-28T13:03:59Z</time>
 </trkpt>
 <trkpt lat="47.319103" lon="13.159862">
 <ele>634.57</ele>
 <time>2010-07-28T13:04:02Z</time>
 </trkpt>
 <trkpt lat="47.319103" lon="13.159862">
 <ele>634.71</ele>
 <time>2010-07-28T13:04:11Z</time>
 </trkpt>
 <trkpt lat="47.319515" lon="13.161104">
 <ele>634.92</ele>
 <time>2010-07-28T13:04:17Z</time>
 </trkpt>
 <trkpt lat="47.319786" lon="13.161553">
 <ele>634.95</ele>
 <time>2010-07-28T13:04:25Z</time>
 </trkpt>
 <trkpt lat="47.320183" lon="13.161964">
 <ele>634.83</ele>
 <time>2010-07-28T13:04:34Z</time>
 </trkpt>
 <trkpt lat="47.320557" lon="13.162179">
 <ele>634.61</ele>
 <time>2010-07-28T13:04:41Z</time>
 </trkpt>
 <trkpt lat="47.320850" lon="13.162274">
 <ele>634.25</ele>
 <time>2010-07-28T13:04:46Z</time>
 </trkpt>
 <trkpt lat="47.321198" lon="13.162406">
 <ele>634.28</ele>
 <time>2010-07-28T13:04:52Z</time>
 </trkpt>
 <trkpt lat="47.321651" lon="13.162630">
 <ele>634.02</ele>
 <time>2010-07-28T13:05:00Z</time>
 </trkpt>
 <trkpt lat="47.322025" lon="13.162915">
 <ele>633.90</ele>
 <time>2010-07-28T13:05:07Z</time>
 </trkpt>
 <trkpt lat="47.322426" lon="13.163351">
 <ele>633.76</ele>
 <time>2010-07-28T13:05:15Z</time>
 </trkpt>
 <trkpt lat="47.322826" lon="13.163937">
 <ele>633.36</ele>
 <time>2010-07-28T13:05:24Z</time>
 </trkpt>
 <trkpt lat="47.323120" lon="13.164436">
 <ele>633.14</ele>
 <time>2010-07-28T13:05:32Z</time>
 </trkpt>
 <trkpt lat="47.323936" lon="13.164711">
 <ele>632.88</ele>
 <time>2010-07-28T13:05:36Z</time>
 </trkpt>
 <trkpt lat="47.323921" lon="13.164941">
 <ele>632.31</ele>
 <time>2010-07-28T13:05:41Z</time>
 </trkpt>
 <trkpt lat="47.323917" lon="13.164988">
 <ele>632.50</ele>
 <time>2010-07-28T13:05:43Z</time>
 </trkpt>
 <trkpt lat="47.323910" lon="13.165097">
 <ele>633.00</ele>
 <time>2010-07-28T13:05:49Z</time>
 </trkpt>
 <trkpt lat="47.323910" lon="13.165151">
 <ele>632.90</ele>
 <time>2010-07-28T13:05:54Z</time>
 </trkpt>
 <trkpt lat="47.323914" lon="13.165202">
 <ele>632.97</ele>
 <time>2010-07-28T13:05:56Z</time>
 </trkpt>
 <trkpt lat="47.323696" lon="13.166192">
 <ele>632.71</ele>
 <time>2010-07-28T13:06:00Z</time>
 </trkpt>
 <trkpt lat="47.323696" lon="13.166192">
 <ele>632.60</ele>
 <time>2010-07-28T13:06:01Z</time>
 </trkpt>
 <trkpt lat="47.323917" lon="13.164945">
 <ele>632.50</ele>
 <time>2010-07-28T13:06:07Z</time>
 </trkpt>
 <trkpt lat="47.324524" lon="13.164554">
 <ele>634.19</ele>
 <time>2010-07-28T13:06:12Z</time>
 </trkpt>
 <trkpt lat="47.323921" lon="13.164936">
 <ele>634.19</ele>
 <time>2010-07-28T13:06:13Z</time>
 </trkpt>
 <trkpt lat="47.323910" lon="13.165122">
 <ele>634.90</ele>
 <time>2010-07-28T13:06:17Z</time>
 </trkpt>
 <trkpt lat="47.323921" lon="13.165431">
 <ele>634.04</ele>
 <time>2010-07-28T13:06:21Z</time>
 </trkpt>
 <trkpt lat="47.323959" lon="13.165882">
 <ele>632.80</ele>
 <time>2010-07-28T13:06:27Z</time>
 </trkpt>
 <trkpt lat="47.323978" lon="13.166048">
 <ele>632.39</ele>
 <time>2010-07-28T13:06:31Z</time>
 </trkpt>
 <trkpt lat="47.324596" lon="13.166084">
 <ele>632.14</ele>
 <time>2010-07-28T13:06:35Z</time>
 </trkpt>
 <trkpt lat="47.323940" lon="13.165722">
 <ele>633.40</ele>
 <time>2010-07-28T13:06:42Z</time>
 </trkpt>
 <trkpt lat="47.323696" lon="13.166192">
 <ele>633.47</ele>
 <time>2010-07-28T13:06:46Z</time>
 </trkpt>
 <trkpt lat="47.323696" lon="13.166192">
 <ele>633.47</ele>
 <time>2010-07-28T13:06:47Z</time>
 </trkpt>
 <trkpt lat="47.323597" lon="13.166459">
 <ele>633.09</ele>
 <time>2010-07-28T13:06:55Z</time>
 </trkpt>
 <trkpt lat="47.323406" lon="13.167137">
 <ele>633.41</ele>
 <time>2010-07-28T13:07:05Z</time>
 </trkpt>
 <trkpt lat="47.323292" lon="13.167755">
 <ele>633.30</ele>
 <time>2010-07-28T13:07:13Z</time>
 </trkpt>
 <trkpt lat="47.323090" lon="13.168287">
 <ele>633.35</ele>
 <time>2010-07-28T13:07:20Z</time>
 </trkpt>
 <trkpt lat="47.323021" lon="13.168422">
 <ele>633.33</ele>
 <time>2010-07-28T13:07:22Z</time>
 </trkpt>
 <trkpt lat="47.322887" lon="13.168695">
 <ele>633.28</ele>
 <time>2010-07-28T13:07:26Z</time>
 </trkpt>
 <trkpt lat="47.322704" lon="13.169072">
 <ele>633.21</ele>
 <time>2010-07-28T13:07:32Z</time>
 </trkpt>
 <trkpt lat="47.322674" lon="13.169134">
 <ele>633.17</ele>
 <time>2010-07-28T13:07:33Z</time>
 </trkpt>
 <trkpt lat="47.322617" lon="13.169291">
 <ele>633.13</ele>
 <time>2010-07-28T13:07:35Z</time>
 </trkpt>
 <trkpt lat="47.322502" lon="13.169630">
 <ele>633.32</ele>
 <time>2010-07-28T13:07:40Z</time>
 </trkpt>
 <trkpt lat="47.322468" lon="13.169774">
 <ele>633.30</ele>
 <time>2010-07-28T13:07:42Z</time>
 </trkpt>
 <trkpt lat="47.322433" lon="13.170217">
 <ele>633.33</ele>
 <time>2010-07-28T13:07:48Z</time>
 </trkpt>
 <trkpt lat="47.322414" lon="13.170717">
 <ele>633.19</ele>
 <time>2010-07-28T13:07:55Z</time>
 </trkpt>
 <trkpt lat="47.322414" lon="13.171177">
 <ele>633.14</ele>
 <time>2010-07-28T13:08:01Z</time>
 </trkpt>
 <trkpt lat="47.322418" lon="13.171317">
 <ele>633.09</ele>
 <time>2010-07-28T13:08:03Z</time>
 </trkpt>
 <trkpt lat="47.322426" lon="13.171692">
 <ele>633.15</ele>
 <time>2010-07-28T13:08:08Z</time>
 </trkpt>
 <trkpt lat="47.322407" lon="13.172412">
 <ele>633.11</ele>
 <time>2010-07-28T13:08:17Z</time>
 </trkpt>
 <trkpt lat="47.322361" lon="13.173037">
 <ele>632.92</ele>
 <time>2010-07-28T13:08:25Z</time>
 </trkpt>
 <trkpt lat="47.322296" lon="13.173885">
 <ele>632.98</ele>
 <time>2010-07-28T13:08:36Z</time>
 </trkpt>
 <trkpt lat="47.322330" lon="13.174293">
 <ele>633.24</ele>
 <time>2010-07-28T13:08:43Z</time>
 </trkpt>
 <trkpt lat="47.322048" lon="13.174661">
 <ele>633.38</ele>
 <time>2010-07-28T13:08:49Z</time>
 </trkpt>
 <trkpt lat="47.322044" lon="13.174729">
 <ele>633.33</ele>
 <time>2010-07-28T13:08:50Z</time>
 </trkpt>
 <trkpt lat="47.322021" lon="13.174995">
 <ele>632.52</ele>
 <time>2010-07-28T13:08:54Z</time>
 </trkpt>
 <trkpt lat="47.321968" lon="13.175365">
 <ele>630.88</ele>
 <time>2010-07-28T13:08:59Z</time>
 </trkpt>
 <trkpt lat="47.321945" lon="13.175516">
 <ele>629.65</ele>
 <time>2010-07-28T13:09:02Z</time>
 </trkpt>
 <trkpt lat="47.321918" lon="13.175674">
 <ele>629.10</ele>
 <time>2010-07-28T13:09:04Z</time>
 </trkpt>
 <trkpt lat="47.321671" lon="13.176498">
 <ele>627.76</ele>
 <time>2010-07-28T13:09:13Z</time>
 </trkpt>
 <trkpt lat="47.321526" lon="13.177280">
 <ele>626.67</ele>
 <time>2010-07-28T13:09:21Z</time>
 </trkpt>
 <trkpt lat="47.321434" lon="13.177951">
 <ele>625.59</ele>
 <time>2010-07-28T13:09:28Z</time>
 </trkpt>
 <trkpt lat="47.321430" lon="13.178042">
 <ele>625.53</ele>
 <time>2010-07-28T13:09:29Z</time>
 </trkpt>
 <trkpt lat="47.321461" lon="13.178698">
 <ele>625.50</ele>
 <time>2010-07-28T13:09:36Z</time>
 </trkpt>
 <trkpt lat="47.321518" lon="13.179115">
 <ele>625.48</ele>
 <time>2010-07-28T13:09:41Z</time>
 </trkpt>
 <trkpt lat="47.321579" lon="13.179352">
 <ele>625.90</ele>
 <time>2010-07-28T13:09:45Z</time>
 </trkpt>
 <trkpt lat="47.321678" lon="13.179667">
 <ele>627.60</ele>
 <time>2010-07-28T13:09:51Z</time>
 </trkpt>
 <trkpt lat="47.321712" lon="13.179728">
 <ele>628.29</ele>
 <time>2010-07-28T13:09:53Z</time>
 </trkpt>
 <trkpt lat="47.321804" lon="13.179886">
 <ele>629.27</ele>
 <time>2010-07-28T13:09:57Z</time>
 </trkpt>
 <trkpt lat="47.322006" lon="13.180233">
 <ele>629.69</ele>
 <time>2010-07-28T13:10:04Z</time>
 </trkpt>
 <trkpt lat="47.322334" lon="13.180627">
 <ele>629.87</ele>
 <time>2010-07-28T13:10:13Z</time>
 </trkpt>
 <trkpt lat="47.322628" lon="13.180945">
 <ele>630.37</ele>
 <time>2010-07-28T13:10:21Z</time>
 </trkpt>
 <trkpt lat="47.322895" lon="13.181156">
 <ele>630.80</ele>
 <time>2010-07-28T13:10:28Z</time>
 </trkpt>
 <trkpt lat="47.323387" lon="13.181570">
 <ele>630.67</ele>
 <time>2010-07-28T13:10:39Z</time>
 </trkpt>
 <trkpt lat="47.323437" lon="13.181590">
 <ele>630.67</ele>
 <time>2010-07-28T13:10:40Z</time>
 </trkpt>
 <trkpt lat="47.323761" lon="13.181687">
 <ele>630.59</ele>
 <time>2010-07-28T13:10:47Z</time>
 </trkpt>
 <trkpt lat="47.324066" lon="13.181736">
 <ele>628.28</ele>
 <time>2010-07-28T13:10:52Z</time>
 </trkpt>
 <trkpt lat="47.324139" lon="13.181747">
 <ele>628.00</ele>
 <time>2010-07-28T13:10:53Z</time>
 </trkpt>
 <trkpt lat="47.324657" lon="13.181719">
 <ele>625.82</ele>
 <time>2010-07-28T13:11:00Z</time>
 </trkpt>
 <trkpt lat="47.325069" lon="13.181686">
 <ele>625.12</ele>
 <time>2010-07-28T13:11:06Z</time>
 </trkpt>
 <trkpt lat="47.325394" lon="13.181650">
 <ele>624.87</ele>
 <time>2010-07-28T13:11:11Z</time>
 </trkpt>
 <trkpt lat="47.325768" lon="13.181593">
 <ele>624.68</ele>
 <time>2010-07-28T13:11:17Z</time>
 </trkpt>
 <trkpt lat="47.326057" lon="13.181515">
 <ele>624.37</ele>
 <time>2010-07-28T13:11:22Z</time>
 </trkpt>
 <trkpt lat="47.326500" lon="13.181395">
 <ele>623.94</ele>
 <time>2010-07-28T13:11:29Z</time>
 </trkpt>
 <trkpt lat="47.326878" lon="13.181303">
 <ele>624.11</ele>
 <time>2010-07-28T13:11:35Z</time>
 </trkpt>
 <trkpt lat="47.327305" lon="13.181235">
 <ele>624.14</ele>
 <time>2010-07-28T13:11:42Z</time>
 </trkpt>
 <trkpt lat="47.327663" lon="13.181273">
 <ele>624.56</ele>
 <time>2010-07-28T13:11:48Z</time>
 </trkpt>
 <trkpt lat="47.327911" lon="13.181438">
 <ele>624.64</ele>
 <time>2010-07-28T13:11:52Z</time>
 </trkpt>
 <trkpt lat="47.328106" lon="13.181859">
 <ele>624.51</ele>
 <time>2010-07-28T13:11:57Z</time>
 </trkpt>
 <trkpt lat="47.328281" lon="13.182648">
 <ele>624.53</ele>
 <time>2010-07-28T13:12:05Z</time>
 </trkpt>
 <trkpt lat="47.328457" lon="13.183465">
 <ele>624.71</ele>
 <time>2010-07-28T13:12:14Z</time>
 </trkpt>
 <trkpt lat="47.328602" lon="13.184154">
 <ele>624.31</ele>
 <time>2010-07-28T13:12:22Z</time>
 </trkpt>
 <trkpt lat="47.328701" lon="13.184749">
 <ele>624.57</ele>
 <time>2010-07-28T13:12:29Z</time>
 </trkpt>
 <trkpt lat="47.328732" lon="13.185183">
 <ele>624.35</ele>
 <time>2010-07-28T13:12:34Z</time>
 </trkpt>
 <trkpt lat="47.328728" lon="13.185272">
 <ele>624.17</ele>
 <time>2010-07-28T13:12:35Z</time>
 </trkpt>
 <trkpt lat="47.328701" lon="13.186104">
 <ele>623.88</ele>
 <time>2010-07-28T13:12:45Z</time>
 </trkpt>
 <trkpt lat="47.328728" lon="13.186755">
 <ele>623.70</ele>
 <time>2010-07-28T13:12:53Z</time>
 </trkpt>
 <trkpt lat="47.328747" lon="13.187037">
 <ele>623.27</ele>
 <time>2010-07-28T13:12:56Z</time>
 </trkpt>
 <trkpt lat="47.328812" lon="13.187397">
 <ele>622.65</ele>
 <time>2010-07-28T13:13:01Z</time>
 </trkpt>
 <trkpt lat="47.328903" lon="13.187641">
 <ele>622.26</ele>
 <time>2010-07-28T13:13:05Z</time>
 </trkpt>
 <trkpt lat="47.328964" lon="13.187759">
 <ele>622.27</ele>
 <time>2010-07-28T13:13:07Z</time>
 </trkpt>
 <trkpt lat="47.329227" lon="13.187949">
 <ele>622.01</ele>
 <time>2010-07-28T13:13:13Z</time>
 </trkpt>
 <trkpt lat="47.329468" lon="13.188109">
 <ele>622.03</ele>
 <time>2010-07-28T13:13:18Z</time>
 </trkpt>
 <trkpt lat="47.329742" lon="13.188190">
 <ele>621.99</ele>
 <time>2010-07-28T13:13:23Z</time>
 </trkpt>
 <trkpt lat="47.330086" lon="13.188282">
 <ele>621.68</ele>
 <time>2010-07-28T13:13:29Z</time>
 </trkpt>
 <trkpt lat="47.330452" lon="13.188381">
 <ele>622.29</ele>
 <time>2010-07-28T13:13:36Z</time>
 </trkpt>
 <trkpt lat="47.330898" lon="13.188501">
 <ele>621.99</ele>
 <time>2010-07-28T13:13:44Z</time>
 </trkpt>
 <trkpt lat="47.331417" lon="13.188642">
 <ele>621.72</ele>
 <time>2010-07-28T13:13:53Z</time>
 </trkpt>
 <trkpt lat="47.331734" lon="13.188727">
 <ele>622.03</ele>
 <time>2010-07-28T13:13:59Z</time>
 </trkpt>
 <trkpt lat="47.331955" lon="13.188787">
 <ele>621.79</ele>
 <time>2010-07-28T13:14:06Z</time>
 </trkpt>
 <trkpt lat="47.332546" lon="13.188971">
 <ele>621.63</ele>
 <time>2010-07-28T13:14:14Z</time>
 </trkpt>
 <trkpt lat="47.332886" lon="13.189164">
 <ele>621.12</ele>
 <time>2010-07-28T13:14:20Z</time>
 </trkpt>
 <trkpt lat="47.333218" lon="13.189367">
 <ele>620.85</ele>
 <time>2010-07-28T13:14:26Z</time>
 </trkpt>
 <trkpt lat="47.333595" lon="13.189606">
 <ele>620.71</ele>
 <time>2010-07-28T13:14:33Z</time>
 </trkpt>
 <trkpt lat="47.333836" lon="13.189812">
 <ele>620.65</ele>
 <time>2010-07-28T13:14:38Z</time>
 </trkpt>
 <trkpt lat="47.334045" lon="13.189971">
 <ele>620.90</ele>
 <time>2010-07-28T13:14:43Z</time>
 </trkpt>
 <trkpt lat="47.334084" lon="13.189997">
 <ele>620.89</ele>
 <time>2010-07-28T13:14:44Z</time>
 </trkpt>
 <trkpt lat="47.334278" lon="13.190246">
 <ele>621.23</ele>
 <time>2010-07-28T13:14:47Z</time>
 </trkpt>
 <trkpt lat="47.334328" lon="13.189811">
 <ele>621.56</ele>
 <time>2010-07-28T13:14:51Z</time>
 </trkpt>
 <trkpt lat="47.334309" lon="13.189797">
 <ele>621.63</ele>
 <time>2010-07-28T13:14:52Z</time>
 </trkpt>
 <trkpt lat="47.334003" lon="13.189940">
 <ele>621.55</ele>
 <time>2010-07-28T13:15:01Z</time>
 </trkpt>
 <trkpt lat="47.333881" lon="13.189851">
 <ele>621.46</ele>
 <time>2010-07-28T13:15:06Z</time>
 </trkpt>
 <trkpt lat="47.333435" lon="13.191237">
 <ele>621.47</ele>
 <time>2010-07-28T13:15:10Z</time>
 </trkpt>
 <trkpt lat="47.333450" lon="13.191294">
 <ele>621.39</ele>
 <time>2010-07-28T13:15:11Z</time>
 </trkpt>
 <trkpt lat="47.333492" lon="13.191419">
 <ele>621.39</ele>
 <time>2010-07-28T13:15:13Z</time>
 </trkpt>
 <trkpt lat="47.333611" lon="13.192003">
 <ele>620.46</ele>
 <time>2010-07-28T13:15:20Z</time>
 </trkpt>
 <trkpt lat="47.333702" lon="13.192581">
 <ele>619.80</ele>
 <time>2010-07-28T13:15:27Z</time>
 </trkpt>
 <trkpt lat="47.333755" lon="13.193252">
 <ele>620.05</ele>
 <time>2010-07-28T13:15:35Z</time>
 </trkpt>
 <trkpt lat="47.333778" lon="13.193886">
 <ele>620.38</ele>
 <time>2010-07-28T13:15:43Z</time>
 </trkpt>
 <trkpt lat="47.333897" lon="13.194408">
 <ele>620.58</ele>
 <time>2010-07-28T13:15:50Z</time>
 </trkpt>
 <trkpt lat="47.334099" lon="13.195077">
 <ele>620.68</ele>
 <time>2010-07-28T13:15:59Z</time>
 </trkpt>
 <trkpt lat="47.334373" lon="13.195794">
 <ele>620.43</ele>
 <time>2010-07-28T13:16:09Z</time>
 </trkpt>
 <trkpt lat="47.334473" lon="13.197211">
 <ele>620.50</ele>
 <time>2010-07-28T13:16:16Z</time>
 </trkpt>
 <trkpt lat="47.334572" lon="13.197242">
 <ele>620.50</ele>
 <time>2010-07-28T13:16:19Z</time>
 </trkpt>
 <trkpt lat="47.334892" lon="13.197368">
 <ele>620.06</ele>
 <time>2010-07-28T13:16:28Z</time>
 </trkpt>
 <trkpt lat="47.335220" lon="13.197712">
 <ele>620.43</ele>
 <time>2010-07-28T13:16:36Z</time>
 </trkpt>
 <trkpt lat="47.335579" lon="13.198105">
 <ele>620.26</ele>
 <time>2010-07-28T13:16:45Z</time>
 </trkpt>
 <trkpt lat="47.335953" lon="13.198595">
 <ele>620.27</ele>
 <time>2010-07-28T13:16:55Z</time>
 </trkpt>
 <trkpt lat="47.336105" lon="13.198810">
 <ele>620.35</ele>
 <time>2010-07-28T13:16:59Z</time>
 </trkpt>
 <trkpt lat="47.336185" lon="13.198920">
 <ele>620.37</ele>
 <time>2010-07-28T13:17:01Z</time>
 </trkpt>
 <trkpt lat="47.336460" lon="13.199161">
 <ele>620.15</ele>
 <time>2010-07-28T13:17:05Z</time>
 </trkpt>
 <trkpt lat="47.337040" lon="13.199329">
 <ele>620.14</ele>
 <time>2010-07-28T13:17:13Z</time>
 </trkpt>
 <trkpt lat="47.337467" lon="13.199334">
 <ele>620.13</ele>
 <time>2010-07-28T13:17:20Z</time>
 </trkpt>
 <trkpt lat="47.337769" lon="13.199324">
 <ele>620.16</ele>
 <time>2010-07-28T13:17:26Z</time>
 </trkpt>
 <trkpt lat="47.337833" lon="13.199324">
 <ele>620.02</ele>
 <time>2010-07-28T13:17:28Z</time>
 </trkpt>
 <trkpt lat="47.337872" lon="13.198923">
 <ele>620.26</ele>
 <time>2010-07-28T13:17:32Z</time>
 </trkpt>
 <trkpt lat="47.338093" lon="13.198423">
 <ele>620.32</ele>
 <time>2010-07-28T13:17:37Z</time>
 </trkpt>
 <trkpt lat="47.338188" lon="13.198352">
 <ele>620.37</ele>
 <time>2010-07-28T13:17:38Z</time>
 </trkpt>
 <trkpt lat="47.338783" lon="13.198647">
 <ele>620.23</ele>
 <time>2010-07-28T13:17:46Z</time>
 </trkpt>
 <trkpt lat="47.338959" lon="13.198644">
 <ele>619.52</ele>
 <time>2010-07-28T13:17:50Z</time>
 </trkpt>
 <trkpt lat="47.339024" lon="13.198647">
 <ele>619.26</ele>
 <time>2010-07-28T13:17:51Z</time>
 </trkpt>
 <trkpt lat="47.339348" lon="13.198032">
 <ele>618.22</ele>
 <time>2010-07-28T13:17:54Z</time>
 </trkpt>
 <trkpt lat="47.339420" lon="13.197861">
 <ele>617.11</ele>
 <time>2010-07-28T13:17:56Z</time>
 </trkpt>
 <trkpt lat="47.339535" lon="13.197384">
 <ele>614.71</ele>
 <time>2010-07-28T13:18:01Z</time>
 </trkpt>
 <trkpt lat="47.339565" lon="13.197223">
 <ele>614.36</ele>
 <time>2010-07-28T13:18:05Z</time>
 </trkpt>
 <trkpt lat="47.339584" lon="13.197111">
 <ele>614.16</ele>
 <time>2010-07-28T13:18:07Z</time>
 </trkpt>
 <trkpt lat="47.339687" lon="13.196564">
 <ele>614.18</ele>
 <time>2010-07-28T13:18:14Z</time>
 </trkpt>
 <trkpt lat="47.339703" lon="13.196481">
 <ele>614.34</ele>
 <time>2010-07-28T13:18:15Z</time>
 </trkpt>
 <trkpt lat="47.339840" lon="13.195730">
 <ele>614.02</ele>
 <time>2010-07-28T13:18:24Z</time>
 </trkpt>
 <trkpt lat="47.339947" lon="13.195147">
 <ele>613.96</ele>
 <time>2010-07-28T13:18:31Z</time>
 </trkpt>
 <trkpt lat="47.339977" lon="13.194506">
 <ele>614.30</ele>
 <time>2010-07-28T13:18:38Z</time>
 </trkpt>
 <trkpt lat="47.339981" lon="13.194344">
 <ele>613.61</ele>
 <time>2010-07-28T13:18:43Z</time>
 </trkpt>
 <trkpt lat="47.340153" lon="13.194033">
 <ele>613.66</ele>
 <time>2010-07-28T13:18:46Z</time>
 </trkpt>
 <trkpt lat="47.340355" lon="13.193945">
 <ele>614.01</ele>
 <time>2010-07-28T13:18:50Z</time>
 </trkpt>
 <trkpt lat="47.340569" lon="13.193837">
 <ele>614.05</ele>
 <time>2010-07-28T13:18:54Z</time>
 </trkpt>
 <trkpt lat="47.340775" lon="13.193808">
 <ele>613.82</ele>
 <time>2010-07-28T13:19:00Z</time>
 </trkpt>
 <trkpt lat="47.341236" lon="13.193940">
 <ele>613.88</ele>
 <time>2010-07-28T13:19:06Z</time>
 </trkpt>
 <trkpt lat="47.341690" lon="13.194251">
 <ele>613.84</ele>
 <time>2010-07-28T13:19:15Z</time>
 </trkpt>
 <trkpt lat="47.342148" lon="13.194554">
 <ele>613.89</ele>
 <time>2010-07-28T13:19:24Z</time>
 </trkpt>
 <trkpt lat="47.342644" lon="13.194881">
 <ele>613.64</ele>
 <time>2010-07-28T13:19:34Z</time>
 </trkpt>
 <trkpt lat="47.342953" lon="13.195080">
 <ele>613.41</ele>
 <time>2010-07-28T13:19:40Z</time>
 </trkpt>
 <trkpt lat="47.343288" lon="13.195293">
 <ele>613.73</ele>
 <time>2010-07-28T13:19:47Z</time>
 </trkpt>
 <trkpt lat="47.343349" lon="13.195331">
 <ele>612.45</ele>
 <time>2010-07-28T13:19:55Z</time>
 </trkpt>
 <trkpt lat="47.343937" lon="13.196547">
 <ele>612.07</ele>
 <time>2010-07-28T13:20:02Z</time>
 </trkpt>
 <trkpt lat="47.344315" lon="13.196682">
 <ele>612.06</ele>
 <time>2010-07-28T13:20:09Z</time>
 </trkpt>
 <trkpt lat="47.344486" lon="13.196747">
 <ele>611.58</ele>
 <time>2010-07-28T13:20:15Z</time>
 </trkpt>
 <trkpt lat="47.344486" lon="13.196747">
 <ele>611.97</ele>
 <time>2010-07-28T13:20:18Z</time>
 </trkpt>
 <trkpt lat="47.344486" lon="13.196747">
 <ele>612.89</ele>
 <time>2010-07-28T13:20:23Z</time>
 </trkpt>
 <trkpt lat="47.345795" lon="13.196469">
 <ele>612.85</ele>
 <time>2010-07-28T13:20:28Z</time>
 </trkpt>
 <trkpt lat="47.345379" lon="13.195944">
 <ele>612.19</ele>
 <time>2010-07-28T13:20:31Z</time>
 </trkpt>
 <trkpt lat="47.345715" lon="13.194837">
 <ele>611.12</ele>
 <time>2010-07-28T13:20:39Z</time>
 </trkpt>
 <trkpt lat="47.346027" lon="13.194868">
 <ele>610.91</ele>
 <time>2010-07-28T13:20:46Z</time>
 </trkpt>
 <trkpt lat="47.346279" lon="13.194892">
 <ele>610.83</ele>
 <time>2010-07-28T13:20:51Z</time>
 </trkpt>
 <trkpt lat="47.346428" lon="13.194906">
 <ele>610.09</ele>
 <time>2010-07-28T13:20:54Z</time>
 </trkpt>
 <trkpt lat="47.346611" lon="13.194924">
 <ele>609.55</ele>
 <time>2010-07-28T13:20:59Z</time>
 </trkpt>
 <trkpt lat="47.346611" lon="13.194924">
 <ele>610.84</ele>
 <time>2010-07-28T13:21:05Z</time>
 </trkpt>
 <trkpt lat="47.347149" lon="13.195696">
 <ele>611.03</ele>
 <time>2010-07-28T13:21:10Z</time>
 </trkpt>
 <trkpt lat="47.347107" lon="13.195931">
 <ele>611.47</ele>
 <time>2010-07-28T13:21:14Z</time>
 </trkpt>
 <trkpt lat="47.347095" lon="13.195992">
 <ele>611.76</ele>
 <time>2010-07-28T13:21:16Z</time>
 </trkpt>
 <trkpt lat="47.347553" lon="13.195794">
 <ele>611.56</ele>
 <time>2010-07-28T13:21:22Z</time>
 </trkpt>
 <trkpt lat="47.347656" lon="13.195825">
 <ele>611.43</ele>
 <time>2010-07-28T13:21:24Z</time>
 </trkpt>
 <trkpt lat="47.348038" lon="13.195942">
 <ele>611.75</ele>
 <time>2010-07-28T13:21:31Z</time>
 </trkpt>
 <trkpt lat="47.348469" lon="13.196085">
 <ele>612.32</ele>
 <time>2010-07-28T13:21:39Z</time>
 </trkpt>
 <trkpt lat="47.348671" lon="13.196161">
 <ele>612.22</ele>
 <time>2010-07-28T13:21:43Z</time>
 </trkpt>
 <trkpt lat="47.349064" lon="13.196319">
 <ele>611.98</ele>
 <time>2010-07-28T13:21:50Z</time>
 </trkpt>
 <trkpt lat="47.349495" lon="13.196527">
 <ele>611.61</ele>
 <time>2010-07-28T13:21:58Z</time>
 </trkpt>
 <trkpt lat="47.350021" lon="13.196896">
 <ele>610.64</ele>
 <time>2010-07-28T13:22:06Z</time>
 </trkpt>
 <trkpt lat="47.350403" lon="13.197363">
 <ele>610.11</ele>
 <time>2010-07-28T13:22:14Z</time>
 </trkpt>
 <trkpt lat="47.350647" lon="13.197818">
 <ele>609.82</ele>
 <time>2010-07-28T13:22:21Z</time>
 </trkpt>
 <trkpt lat="47.350933" lon="13.198361">
 <ele>609.36</ele>
 <time>2010-07-28T13:22:29Z</time>
 </trkpt>
 <trkpt lat="47.351196" lon="13.198834">
 <ele>608.89</ele>
 <time>2010-07-28T13:22:36Z</time>
 </trkpt>
 <trkpt lat="47.351566" lon="13.199403">
 <ele>608.82</ele>
 <time>2010-07-28T13:22:45Z</time>
 </trkpt>
 <trkpt lat="47.351799" lon="13.199702">
 <ele>609.41</ele>
 <time>2010-07-28T13:22:51Z</time>
 </trkpt>
 <trkpt lat="47.352058" lon="13.199996">
 <ele>609.86</ele>
 <time>2010-07-28T13:22:57Z</time>
 </trkpt>
 <trkpt lat="47.352257" lon="13.200204">
 <ele>609.66</ele>
 <time>2010-07-28T13:23:02Z</time>
 </trkpt>
 <trkpt lat="47.352680" lon="13.200616">
 <ele>609.57</ele>
 <time>2010-07-28T13:23:11Z</time>
 </trkpt>
 <trkpt lat="47.353134" lon="13.200988">
 <ele>609.29</ele>
 <time>2010-07-28T13:23:20Z</time>
 </trkpt>
 <trkpt lat="47.353439" lon="13.201212">
 <ele>609.12</ele>
 <time>2010-07-28T13:23:26Z</time>
 </trkpt>
 <trkpt lat="47.353748" lon="13.201446">
 <ele>608.84</ele>
 <time>2010-07-28T13:23:33Z</time>
 </trkpt>
 <trkpt lat="47.354050" lon="13.201678">
 <ele>608.78</ele>
 <time>2010-07-28T13:23:39Z</time>
 </trkpt>
 <trkpt lat="47.354412" lon="13.201957">
 <ele>608.94</ele>
 <time>2010-07-28T13:23:46Z</time>
 </trkpt>
 <trkpt lat="47.354729" lon="13.202148">
 <ele>608.68</ele>
 <time>2010-07-28T13:23:52Z</time>
 </trkpt>
 <trkpt lat="47.355072" lon="13.202323">
 <ele>608.39</ele>
 <time>2010-07-28T13:23:58Z</time>
 </trkpt>
 <trkpt lat="47.355442" lon="13.202499">
 <ele>608.50</ele>
 <time>2010-07-28T13:24:05Z</time>
 </trkpt>
 <trkpt lat="47.355671" lon="13.202608">
 <ele>609.27</ele>
 <time>2010-07-28T13:24:11Z</time>
 </trkpt>
 <trkpt lat="47.355762" lon="13.202653">
 <ele>609.92</ele>
 <time>2010-07-28T13:24:15Z</time>
 </trkpt>
 <trkpt lat="47.355801" lon="13.202671">
 <ele>610.01</ele>
 <time>2010-07-28T13:24:19Z</time>
 </trkpt>
 <trkpt lat="47.355934" lon="13.202736">
 <ele>610.31</ele>
 <time>2010-07-28T13:24:23Z</time>
 </trkpt>
 <trkpt lat="47.356171" lon="13.202848">
 <ele>609.47</ele>
 <time>2010-07-28T13:24:28Z</time>
 </trkpt>
 <trkpt lat="47.356468" lon="13.202989">
 <ele>608.24</ele>
 <time>2010-07-28T13:24:33Z</time>
 </trkpt>
 <trkpt lat="47.356918" lon="13.203253">
 <ele>607.93</ele>
 <time>2010-07-28T13:24:41Z</time>
 </trkpt>
 <trkpt lat="47.357277" lon="13.203542">
 <ele>607.52</ele>
 <time>2010-07-28T13:24:48Z</time>
 </trkpt>
 <trkpt lat="47.357803" lon="13.204113">
 <ele>607.25</ele>
 <time>2010-07-28T13:24:59Z</time>
 </trkpt>
 <trkpt lat="47.358109" lon="13.204489">
 <ele>607.11</ele>
 <time>2010-07-28T13:25:06Z</time>
 </trkpt>
 <trkpt lat="47.358501" lon="13.205083">
 <ele>607.23</ele>
 <time>2010-07-28T13:25:16Z</time>
 </trkpt>
 <trkpt lat="47.358917" lon="13.205785">
 <ele>607.16</ele>
 <time>2010-07-28T13:25:27Z</time>
 </trkpt>
 <trkpt lat="47.359329" lon="13.206360">
 <ele>607.24</ele>
 <time>2010-07-28T13:25:37Z</time>
 </trkpt>
 <trkpt lat="47.359486" lon="13.206575">
 <ele>606.99</ele>
 <time>2010-07-28T13:25:44Z</time>
 </trkpt>
 <trkpt lat="47.359947" lon="13.207216">
 <ele>606.76</ele>
 <time>2010-07-28T13:25:53Z</time>
 </trkpt>
 <trkpt lat="47.360107" lon="13.207435">
 <ele>606.79</ele>
 <time>2010-07-28T13:25:58Z</time>
 </trkpt>
 <trkpt lat="47.360138" lon="13.207477">
 <ele>606.68</ele>
 <time>2010-07-28T13:26:01Z</time>
 </trkpt>
 <trkpt lat="47.360138" lon="13.207477">
 <ele>606.56</ele>
 <time>2010-07-28T13:26:04Z</time>
 </trkpt>
 <trkpt lat="47.360207" lon="13.207555">
 <ele>606.75</ele>
 <time>2010-07-28T13:26:09Z</time>
 </trkpt>
 <trkpt lat="47.360344" lon="13.207705">
 <ele>607.13</ele>
 <time>2010-07-28T13:26:14Z</time>
 </trkpt>
 <trkpt lat="47.360611" lon="13.207988">
 <ele>607.75</ele>
 <time>2010-07-28T13:26:22Z</time>
 </trkpt>
 <trkpt lat="47.360912" lon="13.208240">
 <ele>608.19</ele>
 <time>2010-07-28T13:26:30Z</time>
 </trkpt>
 <trkpt lat="47.361279" lon="13.208344">
 <ele>607.78</ele>
 <time>2010-07-28T13:26:37Z</time>
 </trkpt>
 <trkpt lat="47.361755" lon="13.208372">
 <ele>607.34</ele>
 <time>2010-07-28T13:26:45Z</time>
 </trkpt>
 <trkpt lat="47.362381" lon="13.208408">
 <ele>606.74</ele>
 <time>2010-07-28T13:26:55Z</time>
 </trkpt>
 <trkpt lat="47.362907" lon="13.208805">
 <ele>605.36</ele>
 <time>2010-07-28T13:27:03Z</time>
 </trkpt>
 <trkpt lat="47.363422" lon="13.209008">
 <ele>605.07</ele>
 <time>2010-07-28T13:27:11Z</time>
 </trkpt>
 <trkpt lat="47.363911" lon="13.209158">
 <ele>605.38</ele>
 <time>2010-07-28T13:27:19Z</time>
 </trkpt>
 <trkpt lat="47.364368" lon="13.209336">
 <ele>605.48</ele>
 <time>2010-07-28T13:27:27Z</time>
 </trkpt>
 <trkpt lat="47.364651" lon="13.209515">
 <ele>605.53</ele>
 <time>2010-07-28T13:27:32Z</time>
 </trkpt>
 <trkpt lat="47.365257" lon="13.209838">
 <ele>604.80</ele>
 <time>2010-07-28T13:27:42Z</time>
 </trkpt>
 <trkpt lat="47.365734" lon="13.210065">
 <ele>604.34</ele>
 <time>2010-07-28T13:27:50Z</time>
 </trkpt>
 <trkpt lat="47.366169" lon="13.210137">
 <ele>603.89</ele>
 <time>2010-07-28T13:27:57Z</time>
 </trkpt>
 <trkpt lat="47.366741" lon="13.210137">
 <ele>603.71</ele>
 <time>2010-07-28T13:28:06Z</time>
 </trkpt>
 <trkpt lat="47.367252" lon="13.210137">
 <ele>603.70</ele>
 <time>2010-07-28T13:28:14Z</time>
 </trkpt>
 <trkpt lat="47.367638" lon="13.210183">
 <ele>603.35</ele>
 <time>2010-07-28T13:28:20Z</time>
 </trkpt>
 <trkpt lat="47.368183" lon="13.210484">
 <ele>603.11</ele>
 <time>2010-07-28T13:28:29Z</time>
 </trkpt>
 <trkpt lat="47.368557" lon="13.210541">
 <ele>603.07</ele>
 <time>2010-07-28T13:28:35Z</time>
 </trkpt>
 <trkpt lat="47.369122" lon="13.210655">
 <ele>603.28</ele>
 <time>2010-07-28T13:28:44Z</time>
 </trkpt>
 <trkpt lat="47.369244" lon="13.210688">
 <ele>603.27</ele>
 <time>2010-07-28T13:28:46Z</time>
 </trkpt>
 <trkpt lat="47.369541" lon="13.210767">
 <ele>603.22</ele>
 <time>2010-07-28T13:28:51Z</time>
 </trkpt>
 <trkpt lat="47.369671" lon="13.210891">
 <ele>603.23</ele>
 <time>2010-07-28T13:28:53Z</time>
 </trkpt>
 <trkpt lat="47.369938" lon="13.211268">
 <ele>603.04</ele>
 <time>2010-07-28T13:28:59Z</time>
 </trkpt>
 <trkpt lat="47.370232" lon="13.211681">
 <ele>602.47</ele>
 <time>2010-07-28T13:29:05Z</time>
 </trkpt>
 <trkpt lat="47.370567" lon="13.211986">
 <ele>601.92</ele>
 <time>2010-07-28T13:29:11Z</time>
 </trkpt>
 <trkpt lat="47.370983" lon="13.212196">
 <ele>601.59</ele>
 <time>2010-07-28T13:29:18Z</time>
 </trkpt>
 <trkpt lat="47.371513" lon="13.212465">
 <ele>601.77</ele>
 <time>2010-07-28T13:29:27Z</time>
 </trkpt>
 <trkpt lat="47.371925" lon="13.212678">
 <ele>601.40</ele>
 <time>2010-07-28T13:29:34Z</time>
 </trkpt>
 <trkpt lat="47.372414" lon="13.212905">
 <ele>601.03</ele>
 <time>2010-07-28T13:29:42Z</time>
 </trkpt>
 <trkpt lat="47.372978" lon="13.212884">
 <ele>601.01</ele>
 <time>2010-07-28T13:29:51Z</time>
 </trkpt>
 <trkpt lat="47.373535" lon="13.212862">
 <ele>600.71</ele>
 <time>2010-07-28T13:30:00Z</time>
 </trkpt>
 <trkpt lat="47.374023" lon="13.212843">
 <ele>600.60</ele>
 <time>2010-07-28T13:30:08Z</time>
 </trkpt>
 <trkpt lat="47.374630" lon="13.213071">
 <ele>600.10</ele>
 <time>2010-07-28T13:30:18Z</time>
 </trkpt>
 <trkpt lat="47.375263" lon="13.213411">
 <ele>600.25</ele>
 <time>2010-07-28T13:30:29Z</time>
 </trkpt>
 <trkpt lat="47.375645" lon="13.213612">
 <ele>601.10</ele>
 <time>2010-07-28T13:30:36Z</time>
 </trkpt>
 <trkpt lat="47.376015" lon="13.213814">
 <ele>601.81</ele>
 <time>2010-07-28T13:30:43Z</time>
 </trkpt>
 <trkpt lat="47.376221" lon="13.213928">
 <ele>602.72</ele>
 <time>2010-07-28T13:30:47Z</time>
 </trkpt>
 <trkpt lat="47.376465" lon="13.214063">
 <ele>604.22</ele>
 <time>2010-07-28T13:30:52Z</time>
 </trkpt>
 <trkpt lat="47.376747" lon="13.214141">
 <ele>604.91</ele>
 <time>2010-07-28T13:30:58Z</time>
 </trkpt>
 <trkpt lat="47.377151" lon="13.214290">
 <ele>605.34</ele>
 <time>2010-07-28T13:31:06Z</time>
 </trkpt>
 <trkpt lat="47.377522" lon="13.214593">
 <ele>605.83</ele>
 <time>2010-07-28T13:31:14Z</time>
 </trkpt>
 <trkpt lat="47.377991" lon="13.214987">
 <ele>605.63</ele>
 <time>2010-07-28T13:31:24Z</time>
 </trkpt>
 <trkpt lat="47.378464" lon="13.215299">
 <ele>605.14</ele>
 <time>2010-07-28T13:31:33Z</time>
 </trkpt>
 <trkpt lat="47.378857" lon="13.215528">
 <ele>604.49</ele>
 <time>2010-07-28T13:31:40Z</time>
 </trkpt>
 <trkpt lat="47.379333" lon="13.215808">
 <ele>603.49</ele>
 <time>2010-07-28T13:31:48Z</time>
 </trkpt>
 <trkpt lat="47.379730" lon="13.216232">
 <ele>602.60</ele>
 <time>2010-07-28T13:31:55Z</time>
 </trkpt>
 <trkpt lat="47.380093" lon="13.216575">
 <ele>601.71</ele>
 <time>2010-07-28T13:32:01Z</time>
 </trkpt>
 <trkpt lat="47.380352" lon="13.216780">
 <ele>601.04</ele>
 <time>2010-07-28T13:32:05Z</time>
 </trkpt>
 <trkpt lat="47.380646" lon="13.216859">
 <ele>600.58</ele>
 <time>2010-07-28T13:32:09Z</time>
 </trkpt>
 <trkpt lat="47.381226" lon="13.216754">
 <ele>599.45</ele>
 <time>2010-07-28T13:32:17Z</time>
 </trkpt>
 <trkpt lat="47.381626" lon="13.216511">
 <ele>599.03</ele>
 <time>2010-07-28T13:32:23Z</time>
 </trkpt>
 <trkpt lat="47.382290" lon="13.216079">
 <ele>597.74</ele>
 <time>2010-07-28T13:32:33Z</time>
 </trkpt>
 <trkpt lat="47.382885" lon="13.215760">
 <ele>597.06</ele>
 <time>2010-07-28T13:32:42Z</time>
 </trkpt>
 <trkpt lat="47.383503" lon="13.215448">
 <ele>597.22</ele>
 <time>2010-07-28T13:32:52Z</time>
 </trkpt>
 <trkpt lat="47.384045" lon="13.215206">
 <ele>597.31</ele>
 <time>2010-07-28T13:33:01Z</time>
 </trkpt>
 <trkpt lat="47.384712" lon="13.214945">
 <ele>596.91</ele>
 <time>2010-07-28T13:33:12Z</time>
 </trkpt>
 <trkpt lat="47.385208" lon="13.214770">
 <ele>596.36</ele>
 <time>2010-07-28T13:33:20Z</time>
 </trkpt>
 <trkpt lat="47.385662" lon="13.214612">
 <ele>596.03</ele>
 <time>2010-07-28T13:33:27Z</time>
 </trkpt>
 <trkpt lat="47.386093" lon="13.214486">
 <ele>595.65</ele>
 <time>2010-07-28T13:33:34Z</time>
 </trkpt>
 <trkpt lat="47.386494" lon="13.214377">
 <ele>596.36</ele>
 <time>2010-07-28T13:33:42Z</time>
 </trkpt>
 <trkpt lat="47.386696" lon="13.214257">
 <ele>596.87</ele>
 <time>2010-07-28T13:33:50Z</time>
 </trkpt>
 <trkpt lat="47.387081" lon="13.214042">
 <ele>597.29</ele>
 <time>2010-07-28T13:33:55Z</time>
 </trkpt>
 <trkpt lat="47.387238" lon="13.214215">
 <ele>597.34</ele>
 <time>2010-07-28T13:33:57Z</time>
 </trkpt>
 <trkpt lat="47.387482" lon="13.214754">
 <ele>596.41</ele>
 <time>2010-07-28T13:34:04Z</time>
 </trkpt>
 <trkpt lat="47.387848" lon="13.215209">
 <ele>596.06</ele>
 <time>2010-07-28T13:34:12Z</time>
 </trkpt>
 <trkpt lat="47.388107" lon="13.215533">
 <ele>596.26</ele>
 <time>2010-07-28T13:34:18Z</time>
 </trkpt>
 <trkpt lat="47.388470" lon="13.215984">
 <ele>596.03</ele>
 <time>2010-07-28T13:34:26Z</time>
 </trkpt>
 <trkpt lat="47.388866" lon="13.216398">
 <ele>596.05</ele>
 <time>2010-07-28T13:34:34Z</time>
 </trkpt>
 <trkpt lat="47.389305" lon="13.216822">
 <ele>595.92</ele>
 <time>2010-07-28T13:34:43Z</time>
 </trkpt>
 <trkpt lat="47.389553" lon="13.217054">
 <ele>595.89</ele>
 <time>2010-07-28T13:34:48Z</time>
 </trkpt>
 <trkpt lat="47.389648" lon="13.217143">
 <ele>595.93</ele>
 <time>2010-07-28T13:34:50Z</time>
 </trkpt>
 <trkpt lat="47.389950" lon="13.217424">
 <ele>596.04</ele>
 <time>2010-07-28T13:34:56Z</time>
 </trkpt>
 <trkpt lat="47.390301" lon="13.217748">
 <ele>595.87</ele>
 <time>2010-07-28T13:35:03Z</time>
 </trkpt>
 <trkpt lat="47.390827" lon="13.218121">
 <ele>595.93</ele>
 <time>2010-07-28T13:35:13Z</time>
 </trkpt>
 <trkpt lat="47.391285" lon="13.218385">
 <ele>595.72</ele>
 <time>2010-07-28T13:35:21Z</time>
 </trkpt>
 <trkpt lat="47.391647" lon="13.218598">
 <ele>594.63</ele>
 <time>2010-07-28T13:35:27Z</time>
 </trkpt>
 <trkpt lat="47.391949" lon="13.218776">
 <ele>593.85</ele>
 <time>2010-07-28T13:35:32Z</time>
 </trkpt>
 <trkpt lat="47.392441" lon="13.219069">
 <ele>594.31</ele>
 <time>2010-07-28T13:35:41Z</time>
 </trkpt>
 <trkpt lat="47.392818" lon="13.219295">
 <ele>595.23</ele>
 <time>2010-07-28T13:35:49Z</time>
 </trkpt>
 <trkpt lat="47.393150" lon="13.219491">
 <ele>594.09</ele>
 <time>2010-07-28T13:35:55Z</time>
 </trkpt>
 <trkpt lat="47.393494" lon="13.219858">
 <ele>593.02</ele>
 <time>2010-07-28T13:36:02Z</time>
 </trkpt>
 <trkpt lat="47.393723" lon="13.220151">
 <ele>593.01</ele>
 <time>2010-07-28T13:36:07Z</time>
 </trkpt>
 <trkpt lat="47.393929" lon="13.220423">
 <ele>592.75</ele>
 <time>2010-07-28T13:36:12Z</time>
 </trkpt>
 <trkpt lat="47.394001" lon="13.220640">
 <ele>592.74</ele>
 <time>2010-07-28T13:36:15Z</time>
 </trkpt>
 <trkpt lat="47.394104" lon="13.220934">
 <ele>592.84</ele>
 <time>2010-07-28T13:36:19Z</time>
 </trkpt>
 <trkpt lat="47.394176" lon="13.221153">
 <ele>592.72</ele>
 <time>2010-07-28T13:36:22Z</time>
 </trkpt>
 <trkpt lat="47.394215" lon="13.221529">
 <ele>592.69</ele>
 <time>2010-07-28T13:36:27Z</time>
 </trkpt>
 <trkpt lat="47.394188" lon="13.222082">
 <ele>592.65</ele>
 <time>2010-07-28T13:36:34Z</time>
 </trkpt>
 <trkpt lat="47.394173" lon="13.222621">
 <ele>592.62</ele>
 <time>2010-07-28T13:36:41Z</time>
 </trkpt>
 <trkpt lat="47.394165" lon="13.223019">
 <ele>592.65</ele>
 <time>2010-07-28T13:36:46Z</time>
 </trkpt>
 <trkpt lat="47.394161" lon="13.223177">
 <ele>592.84</ele>
 <time>2010-07-28T13:36:48Z</time>
 </trkpt>
 <trkpt lat="47.394348" lon="13.223754">
 <ele>592.53</ele>
 <time>2010-07-28T13:36:56Z</time>
 </trkpt>
 <trkpt lat="47.394684" lon="13.224462">
 <ele>592.62</ele>
 <time>2010-07-28T13:37:06Z</time>
 </trkpt>
 <trkpt lat="47.395004" lon="13.224974">
 <ele>592.75</ele>
 <time>2010-07-28T13:37:14Z</time>
 </trkpt>
 <trkpt lat="47.395432" lon="13.225433">
 <ele>592.42</ele>
 <time>2010-07-28T13:37:23Z</time>
 </trkpt>
 <trkpt lat="47.395687" lon="13.225652">
 <ele>592.50</ele>
 <time>2010-07-28T13:37:28Z</time>
 </trkpt>
 <trkpt lat="47.395840" lon="13.225761">
 <ele>592.60</ele>
 <time>2010-07-28T13:37:31Z</time>
 </trkpt>
 <trkpt lat="47.396027" lon="13.225897">
 <ele>593.33</ele>
 <time>2010-07-28T13:37:35Z</time>
 </trkpt>
 <trkpt lat="47.396152" lon="13.225988">
 <ele>593.84</ele>
 <time>2010-07-28T13:37:38Z</time>
 </trkpt>
 <trkpt lat="47.396381" lon="13.226092">
 <ele>593.65</ele>
 <time>2010-07-28T13:37:43Z</time>
 </trkpt>
 <trkpt lat="47.396603" lon="13.226170">
 <ele>593.00</ele>
 <time>2010-07-28T13:37:47Z</time>
 </trkpt>
 <trkpt lat="47.397057" lon="13.226329">
 <ele>592.69</ele>
 <time>2010-07-28T13:37:55Z</time>
 </trkpt>
 <trkpt lat="47.397491" lon="13.226382">
 <ele>592.85</ele>
 <time>2010-07-28T13:38:03Z</time>
 </trkpt>
 <trkpt lat="47.397739" lon="13.226398">
 <ele>593.43</ele>
 <time>2010-07-28T13:38:08Z</time>
 </trkpt>
 <trkpt lat="47.398010" lon="13.226415">
 <ele>593.68</ele>
 <time>2010-07-28T13:38:13Z</time>
 </trkpt>
 <trkpt lat="47.398289" lon="13.226423">
 <ele>593.87</ele>
 <time>2010-07-28T13:38:18Z</time>
 </trkpt>
 <trkpt lat="47.398529" lon="13.226423">
 <ele>593.52</ele>
 <time>2010-07-28T13:38:22Z</time>
 </trkpt>
 <trkpt lat="47.398972" lon="13.226423">
 <ele>592.48</ele>
 <time>2010-07-28T13:38:29Z</time>
 </trkpt>
 <trkpt lat="47.399525" lon="13.226413">
 <ele>592.16</ele>
 <time>2010-07-28T13:38:38Z</time>
 </trkpt>
 <trkpt lat="47.399975" lon="13.226375">
 <ele>592.73</ele>
 <time>2010-07-28T13:38:46Z</time>
 </trkpt>
 <trkpt lat="47.400372" lon="13.226342">
 <ele>592.35</ele>
 <time>2010-07-28T13:38:53Z</time>
 </trkpt>
 <trkpt lat="47.401009" lon="13.226174">
 <ele>592.22</ele>
 <time>2010-07-28T13:39:04Z</time>
 </trkpt>
 <trkpt lat="47.401508" lon="13.225986">
 <ele>592.22</ele>
 <time>2010-07-28T13:39:13Z</time>
 </trkpt>
 <trkpt lat="47.401836" lon="13.225831">
 <ele>592.14</ele>
 <time>2010-07-28T13:39:19Z</time>
 </trkpt>
 <trkpt lat="47.402149" lon="13.225683">
 <ele>592.40</ele>
 <time>2010-07-28T13:39:25Z</time>
 </trkpt>
 <trkpt lat="47.402199" lon="13.225660">
 <ele>592.40</ele>
 <time>2010-07-28T13:39:26Z</time>
 </trkpt>
 <trkpt lat="47.402538" lon="13.225500">
 <ele>592.17</ele>
 <time>2010-07-28T13:39:33Z</time>
 </trkpt>
 <trkpt lat="47.402836" lon="13.225344">
 <ele>592.39</ele>
 <time>2010-07-28T13:39:39Z</time>
 </trkpt>
 <trkpt lat="47.402981" lon="13.225188">
 <ele>592.63</ele>
 <time>2010-07-28T13:39:44Z</time>
 </trkpt>
 <trkpt lat="47.403179" lon="13.224970">
 <ele>593.56</ele>
 <time>2010-07-28T13:39:49Z</time>
 </trkpt>
 <trkpt lat="47.403267" lon="13.224876">
 <ele>593.79</ele>
 <time>2010-07-28T13:39:51Z</time>
 </trkpt>
 <trkpt lat="47.403408" lon="13.224723">
 <ele>593.91</ele>
 <time>2010-07-28T13:39:55Z</time>
 </trkpt>
 <trkpt lat="47.403561" lon="13.224560">
 <ele>593.41</ele>
 <time>2010-07-28T13:39:59Z</time>
 </trkpt>
 <trkpt lat="47.403633" lon="13.224475">
 <ele>592.98</ele>
 <time>2010-07-28T13:40:01Z</time>
 </trkpt>
 <trkpt lat="47.403751" lon="13.224338">
 <ele>592.25</ele>
 <time>2010-07-28T13:40:04Z</time>
 </trkpt>
 <trkpt lat="47.404114" lon="13.223917">
 <ele>592.05</ele>
 <time>2010-07-28T13:40:12Z</time>
 </trkpt>
 <trkpt lat="47.404205" lon="13.223813">
 <ele>591.98</ele>
 <time>2010-07-28T13:40:14Z</time>
 </trkpt>
 <trkpt lat="47.404438" lon="13.223573">
 <ele>591.93</ele>
 <time>2010-07-28T13:40:20Z</time>
 </trkpt>
 <trkpt lat="47.404686" lon="13.223470">
 <ele>592.04</ele>
 <time>2010-07-28T13:40:25Z</time>
 </trkpt>
 <trkpt lat="47.404736" lon="13.223450">
 <ele>592.06</ele>
 <time>2010-07-28T13:40:26Z</time>
 </trkpt>
 <trkpt lat="47.404942" lon="13.223329">
 <ele>591.89</ele>
 <time>2010-07-28T13:40:31Z</time>
 </trkpt>
 <trkpt lat="47.404976" lon="13.223276">
 <ele>591.88</ele>
 <time>2010-07-28T13:40:32Z</time>
 </trkpt>
 <trkpt lat="47.405170" lon="13.222956">
 <ele>591.88</ele>
 <time>2010-07-28T13:40:38Z</time>
 </trkpt>
 <trkpt lat="47.405273" lon="13.222794">
 <ele>592.13</ele>
 <time>2010-07-28T13:40:41Z</time>
 </trkpt>
 <trkpt lat="47.405563" lon="13.222454">
 <ele>592.31</ele>
 <time>2010-07-28T13:40:48Z</time>
 </trkpt>
 <trkpt lat="47.406082" lon="13.221958">
 <ele>592.52</ele>
 <time>2010-07-28T13:40:59Z</time>
 </trkpt>
 <trkpt lat="47.406456" lon="13.221600">
 <ele>592.29</ele>
 <time>2010-07-28T13:41:07Z</time>
 </trkpt>
 <trkpt lat="47.406700" lon="13.221367">
 <ele>592.22</ele>
 <time>2010-07-28T13:41:13Z</time>
 </trkpt>
 <trkpt lat="47.406811" lon="13.221260">
 <ele>592.08</ele>
 <time>2010-07-28T13:41:17Z</time>
 </trkpt>
 <trkpt lat="47.406864" lon="13.221210">
 <ele>592.07</ele>
 <time>2010-07-28T13:41:20Z</time>
 </trkpt>
 <trkpt lat="47.407040" lon="13.221036">
 <ele>590.92</ele>
 <time>2010-07-28T13:41:25Z</time>
 </trkpt>
 <trkpt lat="47.407265" lon="13.220816">
 <ele>589.47</ele>
 <time>2010-07-28T13:41:29Z</time>
 </trkpt>
 <trkpt lat="47.407806" lon="13.220282">
 <ele>586.56</ele>
 <time>2010-07-28T13:41:37Z</time>
 </trkpt>
 <trkpt lat="47.408218" lon="13.219876">
 <ele>586.50</ele>
 <time>2010-07-28T13:41:44Z</time>
 </trkpt>
 <trkpt lat="47.408680" lon="13.219720">
 <ele>586.48</ele>
 <time>2010-07-28T13:41:51Z</time>
 </trkpt>
 <trkpt lat="47.409065" lon="13.219629">
 <ele>586.03</ele>
 <time>2010-07-28T13:41:57Z</time>
 </trkpt>
 <trkpt lat="47.409435" lon="13.219721">
 <ele>585.74</ele>
 <time>2010-07-28T13:42:03Z</time>
 </trkpt>
 <trkpt lat="47.409817" lon="13.219832">
 <ele>585.55</ele>
 <time>2010-07-28T13:42:09Z</time>
 </trkpt>
 <trkpt lat="47.410156" lon="13.220075">
 <ele>585.53</ele>
 <time>2010-07-28T13:42:15Z</time>
 </trkpt>
 <trkpt lat="47.410580" lon="13.220537">
 <ele>585.18</ele>
 <time>2010-07-28T13:42:23Z</time>
 </trkpt>
 <trkpt lat="47.411018" lon="13.220976">
 <ele>585.05</ele>
 <time>2010-07-28T13:42:31Z</time>
 </trkpt>
 <trkpt lat="47.411484" lon="13.221253">
 <ele>585.39</ele>
 <time>2010-07-28T13:42:39Z</time>
 </trkpt>
 <trkpt lat="47.411827" lon="13.221458">
 <ele>585.89</ele>
 <time>2010-07-28T13:42:45Z</time>
 </trkpt>
 <trkpt lat="47.412186" lon="13.221485">
 <ele>586.42</ele>
 <time>2010-07-28T13:42:51Z</time>
 </trkpt>
 <trkpt lat="47.412243" lon="13.221474">
 <ele>586.40</ele>
 <time>2010-07-28T13:42:52Z</time>
 </trkpt>
 <trkpt lat="47.412521" lon="13.221419">
 <ele>586.61</ele>
 <time>2010-07-28T13:42:57Z</time>
 </trkpt>
 <trkpt lat="47.412689" lon="13.221386">
 <ele>586.73</ele>
 <time>2010-07-28T13:43:00Z</time>
 </trkpt>
 <trkpt lat="47.413105" lon="13.221304">
 <ele>586.20</ele>
 <time>2010-07-28T13:43:07Z</time>
 </trkpt>
 <trkpt lat="47.413471" lon="13.221311">
 <ele>585.67</ele>
 <time>2010-07-28T13:43:13Z</time>
 </trkpt>
 <trkpt lat="47.413963" lon="13.221337">
 <ele>585.57</ele>
 <time>2010-07-28T13:43:21Z</time>
 </trkpt>
 <trkpt lat="47.414394" lon="13.221338">
 <ele>585.47</ele>
 <time>2010-07-28T13:43:29Z</time>
 </trkpt>
 <trkpt lat="47.414566" lon="13.221324">
 <ele>585.45</ele>
 <time>2010-07-28T13:43:33Z</time>
 </trkpt>
 <trkpt lat="47.414841" lon="13.221359">
 <ele>585.31</ele>
 <time>2010-07-28T13:43:39Z</time>
 </trkpt>
 <trkpt lat="47.415146" lon="13.221359">
 <ele>584.71</ele>
 <time>2010-07-28T13:43:45Z</time>
 </trkpt>
 <trkpt lat="47.415516" lon="13.221359">
 <ele>584.55</ele>
 <time>2010-07-28T13:43:53Z</time>
 </trkpt>
 <trkpt lat="47.415874" lon="13.221353">
 <ele>584.66</ele>
 <time>2010-07-28T13:44:00Z</time>
 </trkpt>
 <trkpt lat="47.416306" lon="13.221346">
 <ele>584.23</ele>
 <time>2010-07-28T13:44:08Z</time>
 </trkpt>
 <trkpt lat="47.416363" lon="13.221345">
 <ele>584.16</ele>
 <time>2010-07-28T13:44:09Z</time>
 </trkpt>
 <trkpt lat="47.416630" lon="13.221340">
 <ele>584.16</ele>
 <time>2010-07-28T13:44:14Z</time>
 </trkpt>
 <trkpt lat="47.416996" lon="13.221378">
 <ele>584.11</ele>
 <time>2010-07-28T13:44:21Z</time>
 </trkpt>
 <trkpt lat="47.417362" lon="13.221434">
 <ele>584.12</ele>
 <time>2010-07-28T13:44:28Z</time>
 </trkpt>
 <trkpt lat="47.417805" lon="13.221502">
 <ele>583.88</ele>
 <time>2010-07-28T13:44:36Z</time>
 </trkpt>
 <trkpt lat="47.418163" lon="13.221526">
 <ele>583.89</ele>
 <time>2010-07-28T13:44:43Z</time>
 </trkpt>
 <trkpt lat="47.418201" lon="13.221528">
 <ele>583.88</ele>
 <time>2010-07-28T13:44:44Z</time>
 </trkpt>
 <trkpt lat="47.418278" lon="13.221421">
 <ele>583.95</ele>
 <time>2010-07-28T13:44:49Z</time>
 </trkpt>
 <trkpt lat="47.418331" lon="13.221081">
 <ele>584.51</ele>
 <time>2010-07-28T13:44:57Z</time>
 </trkpt>
 <trkpt lat="47.418369" lon="13.220838">
 <ele>585.10</ele>
 <time>2010-07-28T13:45:04Z</time>
 </trkpt>
 <trkpt lat="47.418381" lon="13.220757">
 <ele>585.42</ele>
 <time>2010-07-28T13:45:06Z</time>
 </trkpt>
 <trkpt lat="47.418388" lon="13.220716">
 <ele>585.57</ele>
 <time>2010-07-28T13:45:12Z</time>
 </trkpt>
 <trkpt lat="47.418388" lon="13.220716">
 <ele>585.61</ele>
 <time>2010-07-28T13:45:16Z</time>
 </trkpt>
 <trkpt lat="47.418388" lon="13.220716">
 <ele>585.66</ele>
 <time>2010-07-28T13:45:21Z</time>
 </trkpt>
 <trkpt lat="47.418259" lon="13.221531">
 <ele>585.55</ele>
 <time>2010-07-28T13:45:23Z</time>
 </trkpt>
 <trkpt lat="47.418568" lon="13.221630">
 <ele>585.67</ele>
 <time>2010-07-28T13:45:29Z</time>
 </trkpt>
 <trkpt lat="47.418732" lon="13.221681">
 <ele>585.77</ele>
 <time>2010-07-28T13:45:35Z</time>
 </trkpt>
 <trkpt lat="47.419323" lon="13.220532">
 <ele>585.81</ele>
 <time>2010-07-28T13:45:43Z</time>
 </trkpt>
 <trkpt lat="47.419445" lon="13.220619">
 <ele>585.74</ele>
 <time>2010-07-28T13:45:46Z</time>
 </trkpt>
 <trkpt lat="47.419834" lon="13.220697">
 <ele>585.59</ele>
 <time>2010-07-28T13:45:54Z</time>
 </trkpt>
 <trkpt lat="47.420227" lon="13.220800">
 <ele>585.78</ele>
 <time>2010-07-28T13:46:02Z</time>
 </trkpt>
 <trkpt lat="47.420380" lon="13.220835">
 <ele>585.79</ele>
 <time>2010-07-28T13:46:05Z</time>
 </trkpt>
 <trkpt lat="47.420620" lon="13.220781">
 <ele>586.27</ele>
 <time>2010-07-28T13:46:10Z</time>
 </trkpt>
 <trkpt lat="47.420769" lon="13.220794">
 <ele>586.21</ele>
 <time>2010-07-28T13:46:13Z</time>
 </trkpt>
 <trkpt lat="47.421432" lon="13.220589">
 <ele>586.16</ele>
 <time>2010-07-28T13:46:15Z</time>
 </trkpt>
 <trkpt lat="47.421112" lon="13.220769">
 <ele>586.14</ele>
 <time>2010-07-28T13:46:20Z</time>
 </trkpt>
 <trkpt lat="47.421265" lon="13.219557">
 <ele>585.89</ele>
 <time>2010-07-28T13:46:25Z</time>
 </trkpt>
 <trkpt lat="47.421413" lon="13.219536">
 <ele>584.53</ele>
 <time>2010-07-28T13:46:30Z</time>
 </trkpt>
 <trkpt lat="47.421417" lon="13.220497">
 <ele>584.53</ele>
 <time>2010-07-28T13:46:31Z</time>
 </trkpt>
 <trkpt lat="47.421413" lon="13.220255">
 <ele>583.04</ele>
 <time>2010-07-28T13:46:35Z</time>
 </trkpt>
 <trkpt lat="47.421413" lon="13.219642">
 <ele>580.52</ele>
 <time>2010-07-28T13:46:41Z</time>
 </trkpt>
 <trkpt lat="47.421520" lon="13.219520">
 <ele>580.12</ele>
 <time>2010-07-28T13:46:46Z</time>
 </trkpt>
 <trkpt lat="47.421635" lon="13.219502">
 <ele>581.28</ele>
 <time>2010-07-28T13:46:50Z</time>
 </trkpt>
 <trkpt lat="47.421738" lon="13.219487">
 <ele>581.91</ele>
 <time>2010-07-28T13:46:54Z</time>
 </trkpt>
 <trkpt lat="47.421894" lon="13.219467">
 <ele>582.73</ele>
 <time>2010-07-28T13:47:01Z</time>
 </trkpt>
 <trkpt lat="47.421421" lon="13.219246">
 <ele>582.62</ele>
 <time>2010-07-28T13:47:06Z</time>
 </trkpt>
 <trkpt lat="47.421421" lon="13.219246">
 <ele>582.65</ele>
 <time>2010-07-28T13:47:08Z</time>
 </trkpt>
 </trkseg>
 </trk>
</gpx>
